<?xml version="1.0" encoding="UTF-8"?>
<gpx xmlns="http://www.topografix.com/GPX/1/1" version="1.1" xmlns:xsi="http://www.w3.org/2001/XMLSchema-instance" xsi:schemaLocation="http://www.topografix.com/GPX/1/1 http://www.topografix.com/GPX/1/1/gpx.xsd" creator="MotionXGPSFull 21.1 Build 4789R">
<trk>
<name><![CDATA[Krakow rund]]></name>
<desc><![CDATA[21.08.2013  3:23 pm]]></desc>
<trkseg>
<trkpt lat="53.6526553" lon="12.2670577">
<ele>44.678</ele>
<time>2013-08-21T13:30:16.664Z</time>
</trkpt>
<trkpt lat="53.6526553" lon="12.2670577">
<ele>44.666</ele>
<time>2013-08-21T13:30:16.764Z</time>
</trkpt>
<trkpt lat="53.6525142" lon="12.2668751">
<ele>44.657</ele>
<time>2013-08-21T13:30:29.936Z</time>
</trkpt>
<trkpt lat="53.6524261" lon="12.2669827">
<ele>44.646</ele>
<time>2013-08-21T13:30:34.661Z</time>
</trkpt>
<trkpt lat="53.6524438" lon="12.2671547">
<ele>44.755</ele>
<time>2013-08-21T13:30:38.782Z</time>
</trkpt>
<trkpt lat="53.6524413" lon="12.2673083">
<ele>45.058</ele>
<time>2013-08-21T13:30:42.470Z</time>
</trkpt>
<trkpt lat="53.6524190" lon="12.2674803">
<ele>45.513</ele>
<time>2013-08-21T13:30:46.813Z</time>
</trkpt>
<trkpt lat="53.6523911" lon="12.2676682">
<ele>46.025</ele>
<time>2013-08-21T13:30:51.884Z</time>
</trkpt>
<trkpt lat="53.6523959" lon="12.2678331">
<ele>46.418</ele>
<time>2013-08-21T13:30:56.247Z</time>
</trkpt>
<trkpt lat="53.6523878" lon="12.2680182">
<ele>46.073</ele>
<time>2013-08-21T13:31:01.016Z</time>
</trkpt>
<trkpt lat="53.6523945" lon="12.2682008">
<ele>45.324</ele>
<time>2013-08-21T13:31:05.452Z</time>
</trkpt>
<trkpt lat="53.6523548" lon="12.2683742">
<ele>44.811</ele>
<time>2013-08-21T13:31:09.696Z</time>
</trkpt>
<trkpt lat="53.6523629" lon="12.2685281">
<ele>44.546</ele>
<time>2013-08-21T13:31:12.997Z</time>
</trkpt>
<trkpt lat="53.6524204" lon="12.2686919">
<ele>44.666</ele>
<time>2013-08-21T13:31:16.743Z</time>
</trkpt>
<trkpt lat="53.6524614" lon="12.2688712">
<ele>45.368</ele>
<time>2013-08-21T13:31:20.507Z</time>
</trkpt>
<trkpt lat="53.6524574" lon="12.2690519">
<ele>46.263</ele>
<time>2013-08-21T13:31:24.189Z</time>
</trkpt>
<trkpt lat="53.6524643" lon="12.2692472">
<ele>47.664</ele>
<time>2013-08-21T13:31:28.253Z</time>
</trkpt>
<trkpt lat="53.6524657" lon="12.2694074">
<ele>49.866</ele>
<time>2013-08-21T13:31:32.195Z</time>
</trkpt>
<trkpt lat="53.6523818" lon="12.2694851">
<ele>52.619</ele>
<time>2013-08-21T13:31:36.261Z</time>
</trkpt>
<trkpt lat="53.6522922" lon="12.2695427">
<ele>55.283</ele>
<time>2013-08-21T13:31:41.663Z</time>
</trkpt>
<trkpt lat="53.6522113" lon="12.2696132">
<ele>58.486</ele>
<time>2013-08-21T13:31:47.871Z</time>
</trkpt>
<trkpt lat="53.6521094" lon="12.2696326">
<ele>62.692</ele>
<time>2013-08-21T13:31:54.836Z</time>
</trkpt>
<trkpt lat="53.6520161" lon="12.2696148">
<ele>63.908</ele>
<time>2013-08-21T13:32:00.665Z</time>
</trkpt>
<trkpt lat="53.6520161" lon="12.2696148">
<ele>59.274</ele>
<time>2013-08-21T13:32:07.667Z</time>
</trkpt>
<trkpt lat="53.6520161" lon="12.2696148">
<ele>54.347</ele>
<time>2013-08-21T13:34:16.890Z</time>
</trkpt>
<trkpt lat="53.6522036" lon="12.2695481">
<ele>54.281</ele>
<time>2013-08-21T13:34:34.467Z</time>
</trkpt>
<trkpt lat="53.6523013" lon="12.2694415">
<ele>56.887</ele>
<time>2013-08-21T13:34:39.861Z</time>
</trkpt>
<trkpt lat="53.6523919" lon="12.2693526">
<ele>59.147</ele>
<time>2013-08-21T13:34:44.471Z</time>
</trkpt>
<trkpt lat="53.6524864" lon="12.2692921">
<ele>60.818</ele>
<time>2013-08-21T13:34:48.955Z</time>
</trkpt>
<trkpt lat="53.6526117" lon="12.2693085">
<ele>62.150</ele>
<time>2013-08-21T13:34:54.219Z</time>
</trkpt>
<trkpt lat="53.6527114" lon="12.2693832">
<ele>63.013</ele>
<time>2013-08-21T13:34:58.214Z</time>
</trkpt>
<trkpt lat="53.6528108" lon="12.2693453">
<ele>62.148</ele>
<time>2013-08-21T13:35:01.595Z</time>
</trkpt>
<trkpt lat="53.6529059" lon="12.2692817">
<ele>59.006</ele>
<time>2013-08-21T13:35:04.812Z</time>
</trkpt>
<trkpt lat="53.6529990" lon="12.2692231">
<ele>56.529</ele>
<time>2013-08-21T13:35:07.873Z</time>
</trkpt>
<trkpt lat="53.6530958" lon="12.2691844">
<ele>57.516</ele>
<time>2013-08-21T13:35:10.919Z</time>
</trkpt>
<trkpt lat="53.6531895" lon="12.2691326">
<ele>60.853</ele>
<time>2013-08-21T13:35:13.936Z</time>
</trkpt>
<trkpt lat="53.6532990" lon="12.2690733">
<ele>64.085</ele>
<time>2013-08-21T13:35:17.417Z</time>
</trkpt>
<trkpt lat="53.6534097" lon="12.2689927">
<ele>65.763</ele>
<time>2013-08-21T13:35:21.042Z</time>
</trkpt>
<trkpt lat="53.6534983" lon="12.2689406">
<ele>65.612</ele>
<time>2013-08-21T13:35:23.918Z</time>
</trkpt>
<trkpt lat="53.6536282" lon="12.2689222">
<ele>64.366</ele>
<time>2013-08-21T13:35:27.959Z</time>
</trkpt>
<trkpt lat="53.6537083" lon="12.2688467">
<ele>63.076</ele>
<time>2013-08-21T13:35:30.715Z</time>
</trkpt>
<trkpt lat="53.6537734" lon="12.2686798">
<ele>60.997</ele>
<time>2013-08-21T13:35:34.267Z</time>
</trkpt>
<trkpt lat="53.6537927" lon="12.2685047">
<ele>57.114</ele>
<time>2013-08-21T13:35:37.572Z</time>
</trkpt>
<trkpt lat="53.6538193" lon="12.2683293">
<ele>52.982</ele>
<time>2013-08-21T13:35:41.260Z</time>
</trkpt>
<trkpt lat="53.6538425" lon="12.2681652">
<ele>50.232</ele>
<time>2013-08-21T13:35:44.835Z</time>
</trkpt>
<trkpt lat="53.6539615" lon="12.2681159">
<ele>48.610</ele>
<time>2013-08-21T13:35:49.012Z</time>
</trkpt>
<trkpt lat="53.6540668" lon="12.2681488">
<ele>47.697</ele>
<time>2013-08-21T13:35:52.331Z</time>
</trkpt>
<trkpt lat="53.6541935" lon="12.2681779">
<ele>47.170</ele>
<time>2013-08-21T13:35:56.029Z</time>
</trkpt>
<trkpt lat="53.6542990" lon="12.2681989">
<ele>46.941</ele>
<time>2013-08-21T13:35:58.917Z</time>
</trkpt>
<trkpt lat="53.6544329" lon="12.2682412">
<ele>47.179</ele>
<time>2013-08-21T13:36:02.404Z</time>
</trkpt>
<trkpt lat="53.6545571" lon="12.2682946">
<ele>47.748</ele>
<time>2013-08-21T13:36:05.514Z</time>
</trkpt>
<trkpt lat="53.6546779" lon="12.2683415">
<ele>47.995</ele>
<time>2013-08-21T13:36:08.449Z</time>
</trkpt>
<trkpt lat="53.6548132" lon="12.2683681">
<ele>47.515</ele>
<time>2013-08-21T13:36:11.663Z</time>
</trkpt>
<trkpt lat="53.6549488" lon="12.2683968">
<ele>46.691</ele>
<time>2013-08-21T13:36:14.882Z</time>
</trkpt>
<trkpt lat="53.6550706" lon="12.2684089">
<ele>46.024</ele>
<time>2013-08-21T13:36:17.747Z</time>
</trkpt>
<trkpt lat="53.6551696" lon="12.2684148">
<ele>45.676</ele>
<time>2013-08-21T13:36:20.049Z</time>
</trkpt>
<trkpt lat="53.6552901" lon="12.2684178">
<ele>45.865</ele>
<time>2013-08-21T13:36:22.832Z</time>
</trkpt>
<trkpt lat="53.6554243" lon="12.2684267">
<ele>46.597</ele>
<time>2013-08-21T13:36:25.896Z</time>
</trkpt>
<trkpt lat="53.6555542" lon="12.2684251">
<ele>47.745</ele>
<time>2013-08-21T13:36:28.796Z</time>
</trkpt>
<trkpt lat="53.6556901" lon="12.2684159">
<ele>49.185</ele>
<time>2013-08-21T13:36:31.752Z</time>
</trkpt>
<trkpt lat="53.6558249" lon="12.2684064">
<ele>50.386</ele>
<time>2013-08-21T13:36:34.628Z</time>
</trkpt>
<trkpt lat="53.6559177" lon="12.2683906">
<ele>50.798</ele>
<time>2013-08-21T13:36:36.599Z</time>
</trkpt>
<trkpt lat="53.6560580" lon="12.2683579">
<ele>50.296</ele>
<time>2013-08-21T13:36:39.553Z</time>
</trkpt>
<trkpt lat="53.6561576" lon="12.2683507">
<ele>49.081</ele>
<time>2013-08-21T13:36:41.594Z</time>
</trkpt>
<trkpt lat="53.6563088" lon="12.2683344">
<ele>47.687</ele>
<time>2013-08-21T13:36:44.677Z</time>
</trkpt>
<trkpt lat="53.6564728" lon="12.2683129">
<ele>46.574</ele>
<time>2013-08-21T13:36:48.034Z</time>
</trkpt>
<trkpt lat="53.6566195" lon="12.2682956">
<ele>46.272</ele>
<time>2013-08-21T13:36:51.087Z</time>
</trkpt>
<trkpt lat="53.6567693" lon="12.2682644">
<ele>46.997</ele>
<time>2013-08-21T13:36:54.248Z</time>
</trkpt>
<trkpt lat="53.6569025" lon="12.2682102">
<ele>47.491</ele>
<time>2013-08-21T13:36:57.107Z</time>
</trkpt>
<trkpt lat="53.6570291" lon="12.2681885">
<ele>46.765</ele>
<time>2013-08-21T13:36:59.751Z</time>
</trkpt>
<trkpt lat="53.6571194" lon="12.2681776">
<ele>45.574</ele>
<time>2013-08-21T13:37:01.651Z</time>
</trkpt>
<trkpt lat="53.6572620" lon="12.2681580">
<ele>44.941</ele>
<time>2013-08-21T13:37:04.666Z</time>
</trkpt>
<trkpt lat="53.6574083" lon="12.2681253">
<ele>45.369</ele>
<time>2013-08-21T13:37:07.750Z</time>
</trkpt>
<trkpt lat="53.6574983" lon="12.2681014">
<ele>47.336</ele>
<time>2013-08-21T13:37:09.644Z</time>
</trkpt>
<trkpt lat="53.6576418" lon="12.2680675">
<ele>50.248</ele>
<time>2013-08-21T13:37:12.682Z</time>
</trkpt>
<trkpt lat="53.6577894" lon="12.2680453">
<ele>52.401</ele>
<time>2013-08-21T13:37:15.868Z</time>
</trkpt>
<trkpt lat="53.6579316" lon="12.2680188">
<ele>52.960</ele>
<time>2013-08-21T13:37:19.021Z</time>
</trkpt>
<trkpt lat="53.6580680" lon="12.2679843">
<ele>52.543</ele>
<time>2013-08-21T13:37:22.090Z</time>
</trkpt>
<trkpt lat="53.6581919" lon="12.2679492">
<ele>51.762</ele>
<time>2013-08-21T13:37:24.907Z</time>
</trkpt>
<trkpt lat="53.6583241" lon="12.2679292">
<ele>50.904</ele>
<time>2013-08-21T13:37:27.921Z</time>
</trkpt>
<trkpt lat="53.6584449" lon="12.2679041">
<ele>50.201</ele>
<time>2013-08-21T13:37:30.741Z</time>
</trkpt>
<trkpt lat="53.6585717" lon="12.2678710">
<ele>49.748</ele>
<time>2013-08-21T13:37:33.788Z</time>
</trkpt>
<trkpt lat="53.6586938" lon="12.2678444">
<ele>49.552</ele>
<time>2013-08-21T13:37:36.767Z</time>
</trkpt>
<trkpt lat="53.6588037" lon="12.2678358">
<ele>49.942</ele>
<time>2013-08-21T13:37:39.453Z</time>
</trkpt>
<trkpt lat="53.6589270" lon="12.2678129">
<ele>50.954</ele>
<time>2013-08-21T13:37:42.489Z</time>
</trkpt>
<trkpt lat="53.6590467" lon="12.2678009">
<ele>51.680</ele>
<time>2013-08-21T13:37:45.432Z</time>
</trkpt>
<trkpt lat="53.6591586" lon="12.2677953">
<ele>51.254</ele>
<time>2013-08-21T13:37:48.193Z</time>
</trkpt>
<trkpt lat="53.6592757" lon="12.2677920">
<ele>49.774</ele>
<time>2013-08-21T13:37:51.084Z</time>
</trkpt>
<trkpt lat="53.6593871" lon="12.2677851">
<ele>47.991</ele>
<time>2013-08-21T13:37:53.822Z</time>
</trkpt>
<trkpt lat="53.6595107" lon="12.2677902">
<ele>46.773</ele>
<time>2013-08-21T13:37:56.830Z</time>
</trkpt>
<trkpt lat="53.6596380" lon="12.2677779">
<ele>46.460</ele>
<time>2013-08-21T13:37:59.911Z</time>
</trkpt>
<trkpt lat="53.6597662" lon="12.2677956">
<ele>46.698</ele>
<time>2013-08-21T13:38:03.022Z</time>
</trkpt>
<trkpt lat="53.6598950" lon="12.2678095">
<ele>47.159</ele>
<time>2013-08-21T13:38:06.131Z</time>
</trkpt>
<trkpt lat="53.6600043" lon="12.2678117">
<ele>47.689</ele>
<time>2013-08-21T13:38:08.736Z</time>
</trkpt>
<trkpt lat="53.6601273" lon="12.2678260">
<ele>48.140</ele>
<time>2013-08-21T13:38:11.657Z</time>
</trkpt>
<trkpt lat="53.6602730" lon="12.2678492">
<ele>48.568</ele>
<time>2013-08-21T13:38:15.051Z</time>
</trkpt>
<trkpt lat="53.6603890" lon="12.2678525">
<ele>49.178</ele>
<time>2013-08-21T13:38:17.635Z</time>
</trkpt>
<trkpt lat="53.6604788" lon="12.2678697">
<ele>49.748</ele>
<time>2013-08-21T13:38:19.607Z</time>
</trkpt>
<trkpt lat="53.6605875" lon="12.2679006">
<ele>49.940</ele>
<time>2013-08-21T13:38:22.013Z</time>
</trkpt>
<trkpt lat="53.6607232" lon="12.2679239">
<ele>49.775</ele>
<time>2013-08-21T13:38:25.016Z</time>
</trkpt>
<trkpt lat="53.6608522" lon="12.2679274">
<ele>49.399</ele>
<time>2013-08-21T13:38:27.876Z</time>
</trkpt>
<trkpt lat="53.6609747" lon="12.2679445">
<ele>48.709</ele>
<time>2013-08-21T13:38:30.587Z</time>
</trkpt>
<trkpt lat="53.6610933" lon="12.2679679">
<ele>47.671</ele>
<time>2013-08-21T13:38:33.190Z</time>
</trkpt>
<trkpt lat="53.6612376" lon="12.2679931">
<ele>46.673</ele>
<time>2013-08-21T13:38:36.361Z</time>
</trkpt>
<trkpt lat="53.6613296" lon="12.2680034">
<ele>46.244</ele>
<time>2013-08-21T13:38:38.387Z</time>
</trkpt>
<trkpt lat="53.6614659" lon="12.2680215">
<ele>46.456</ele>
<time>2013-08-21T13:38:41.359Z</time>
</trkpt>
<trkpt lat="53.6615820" lon="12.2680314">
<ele>46.924</ele>
<time>2013-08-21T13:38:43.841Z</time>
</trkpt>
<trkpt lat="53.6616726" lon="12.2680483">
<ele>46.913</ele>
<time>2013-08-21T13:38:45.778Z</time>
</trkpt>
<trkpt lat="53.6618156" lon="12.2680801">
<ele>46.142</ele>
<time>2013-08-21T13:38:48.879Z</time>
</trkpt>
<trkpt lat="53.6619638" lon="12.2680928">
<ele>45.267</ele>
<time>2013-08-21T13:38:52.133Z</time>
</trkpt>
<trkpt lat="53.6620821" lon="12.2681074">
<ele>45.465</ele>
<time>2013-08-21T13:38:54.612Z</time>
</trkpt>
<trkpt lat="53.6622045" lon="12.2681231">
<ele>46.940</ele>
<time>2013-08-21T13:38:57.039Z</time>
</trkpt>
<trkpt lat="53.6623210" lon="12.2681387">
<ele>48.032</ele>
<time>2013-08-21T13:38:59.251Z</time>
</trkpt>
<trkpt lat="53.6625088" lon="12.2681566">
<ele>47.468</ele>
<time>2013-08-21T13:39:02.844Z</time>
</trkpt>
<trkpt lat="53.6626724" lon="12.2681806">
<ele>46.330</ele>
<time>2013-08-21T13:39:06.140Z</time>
</trkpt>
<trkpt lat="53.6628063" lon="12.2681945">
<ele>46.163</ele>
<time>2013-08-21T13:39:08.966Z</time>
</trkpt>
<trkpt lat="53.6629068" lon="12.2682124">
<ele>47.098</ele>
<time>2013-08-21T13:39:11.180Z</time>
</trkpt>
<trkpt lat="53.6630218" lon="12.2682445">
<ele>48.197</ele>
<time>2013-08-21T13:39:13.797Z</time>
</trkpt>
<trkpt lat="53.6631350" lon="12.2682696">
<ele>48.361</ele>
<time>2013-08-21T13:39:16.383Z</time>
</trkpt>
<trkpt lat="53.6632596" lon="12.2682886">
<ele>47.461</ele>
<time>2013-08-21T13:39:19.237Z</time>
</trkpt>
<trkpt lat="53.6633897" lon="12.2682924">
<ele>46.377</ele>
<time>2013-08-21T13:39:22.221Z</time>
</trkpt>
<trkpt lat="53.6635188" lon="12.2683042">
<ele>46.047</ele>
<time>2013-08-21T13:39:25.242Z</time>
</trkpt>
<trkpt lat="53.6636437" lon="12.2683378">
<ele>46.552</ele>
<time>2013-08-21T13:39:28.225Z</time>
</trkpt>
<trkpt lat="53.6637578" lon="12.2683585">
<ele>47.315</ele>
<time>2013-08-21T13:39:30.941Z</time>
</trkpt>
<trkpt lat="53.6638888" lon="12.2683670">
<ele>47.866</ele>
<time>2013-08-21T13:39:34.077Z</time>
</trkpt>
<trkpt lat="53.6639994" lon="12.2683774">
<ele>48.274</ele>
<time>2013-08-21T13:39:36.746Z</time>
</trkpt>
<trkpt lat="53.6641150" lon="12.2684007">
<ele>48.629</ele>
<time>2013-08-21T13:39:39.571Z</time>
</trkpt>
<trkpt lat="53.6642351" lon="12.2684223">
<ele>48.823</ele>
<time>2013-08-21T13:39:42.527Z</time>
</trkpt>
<trkpt lat="53.6643526" lon="12.2684506">
<ele>48.579</ele>
<time>2013-08-21T13:39:45.456Z</time>
</trkpt>
<trkpt lat="53.6644676" lon="12.2684447">
<ele>47.883</ele>
<time>2013-08-21T13:39:48.326Z</time>
</trkpt>
<trkpt lat="53.6645762" lon="12.2684356">
<ele>47.184</ele>
<time>2013-08-21T13:39:51.036Z</time>
</trkpt>
<trkpt lat="53.6646891" lon="12.2684432">
<ele>46.788</ele>
<time>2013-08-21T13:39:53.823Z</time>
</trkpt>
<trkpt lat="53.6648366" lon="12.2684343">
<ele>46.551</ele>
<time>2013-08-21T13:39:57.435Z</time>
</trkpt>
<trkpt lat="53.6649634" lon="12.2684367">
<ele>46.019</ele>
<time>2013-08-21T13:40:00.557Z</time>
</trkpt>
<trkpt lat="53.6650874" lon="12.2684248">
<ele>44.764</ele>
<time>2013-08-21T13:40:03.627Z</time>
</trkpt>
<trkpt lat="53.6652038" lon="12.2684049">
<ele>43.172</ele>
<time>2013-08-21T13:40:06.461Z</time>
</trkpt>
<trkpt lat="53.6653021" lon="12.2684107">
<ele>42.276</ele>
<time>2013-08-21T13:40:08.805Z</time>
</trkpt>
<trkpt lat="53.6654051" lon="12.2684231">
<ele>42.823</ele>
<time>2013-08-21T13:40:11.225Z</time>
</trkpt>
<trkpt lat="53.6655482" lon="12.2684289">
<ele>44.635</ele>
<time>2013-08-21T13:40:14.532Z</time>
</trkpt>
<trkpt lat="53.6656868" lon="12.2684050">
<ele>46.667</ele>
<time>2013-08-21T13:40:17.655Z</time>
</trkpt>
<trkpt lat="53.6658197" lon="12.2683878">
<ele>48.042</ele>
<time>2013-08-21T13:40:20.614Z</time>
</trkpt>
<trkpt lat="53.6659138" lon="12.2683812">
<ele>48.606</ele>
<time>2013-08-21T13:40:22.712Z</time>
</trkpt>
<trkpt lat="53.6660344" lon="12.2683650">
<ele>48.527</ele>
<time>2013-08-21T13:40:25.417Z</time>
</trkpt>
<trkpt lat="53.6661303" lon="12.2683608">
<ele>48.135</ele>
<time>2013-08-21T13:40:27.567Z</time>
</trkpt>
<trkpt lat="53.6662509" lon="12.2683526">
<ele>47.922</ele>
<time>2013-08-21T13:40:30.258Z</time>
</trkpt>
<trkpt lat="53.6663845" lon="12.2683480">
<ele>48.094</ele>
<time>2013-08-21T13:40:33.232Z</time>
</trkpt>
<trkpt lat="53.6665223" lon="12.2683309">
<ele>48.403</ele>
<time>2013-08-21T13:40:36.333Z</time>
</trkpt>
<trkpt lat="53.6666474" lon="12.2683259">
<ele>48.715</ele>
<time>2013-08-21T13:40:39.179Z</time>
</trkpt>
<trkpt lat="53.6667731" lon="12.2683233">
<ele>49.100</ele>
<time>2013-08-21T13:40:42.103Z</time>
</trkpt>
<trkpt lat="53.6668970" lon="12.2683140">
<ele>49.449</ele>
<time>2013-08-21T13:40:45.086Z</time>
</trkpt>
<trkpt lat="53.6670098" lon="12.2683132">
<ele>49.638</ele>
<time>2013-08-21T13:40:47.891Z</time>
</trkpt>
<trkpt lat="53.6671181" lon="12.2683032">
<ele>49.700</ele>
<time>2013-08-21T13:40:50.673Z</time>
</trkpt>
<trkpt lat="53.6672122" lon="12.2682956">
<ele>49.819</ele>
<time>2013-08-21T13:40:53.142Z</time>
</trkpt>
<trkpt lat="53.6673085" lon="12.2682835">
<ele>50.243</ele>
<time>2013-08-21T13:40:55.720Z</time>
</trkpt>
<trkpt lat="53.6674222" lon="12.2682916">
<ele>50.871</ele>
<time>2013-08-21T13:40:58.929Z</time>
</trkpt>
<trkpt lat="53.6675164" lon="12.2683180">
<ele>51.079</ele>
<time>2013-08-21T13:41:01.784Z</time>
</trkpt>
<trkpt lat="53.6675467" lon="12.2684945">
<ele>50.575</ele>
<time>2013-08-21T13:41:05.172Z</time>
</trkpt>
<trkpt lat="53.6675365" lon="12.2686853">
<ele>49.974</ele>
<time>2013-08-21T13:41:09.187Z</time>
</trkpt>
<trkpt lat="53.6675332" lon="12.2688484">
<ele>49.845</ele>
<time>2013-08-21T13:41:12.879Z</time>
</trkpt>
<trkpt lat="53.6674206" lon="12.2688798">
<ele>49.801</ele>
<time>2013-08-21T13:41:17.507Z</time>
</trkpt>
<trkpt lat="53.6673246" lon="12.2688386">
<ele>49.178</ele>
<time>2013-08-21T13:41:21.465Z</time>
</trkpt>
<trkpt lat="53.6672280" lon="12.2687819">
<ele>48.080</ele>
<time>2013-08-21T13:41:25.717Z</time>
</trkpt>
<trkpt lat="53.6672280" lon="12.2687819">
<ele>47.299</ele>
<time>2013-08-21T13:41:36.705Z</time>
</trkpt>
<trkpt lat="53.6672280" lon="12.2687819">
<ele>47.209</ele>
<time>2013-08-21T13:41:44.990Z</time>
</trkpt>
<trkpt lat="53.6674017" lon="12.2688207">
<ele>47.503</ele>
<time>2013-08-21T13:42:09.454Z</time>
</trkpt>
<trkpt lat="53.6674954" lon="12.2688213">
<ele>47.881</ele>
<time>2013-08-21T13:42:16.134Z</time>
</trkpt>
<trkpt lat="53.6675807" lon="12.2687532">
<ele>48.228</ele>
<time>2013-08-21T13:42:22.285Z</time>
</trkpt>
<trkpt lat="53.6675898" lon="12.2685967">
<ele>48.437</ele>
<time>2013-08-21T13:42:27.664Z</time>
</trkpt>
<trkpt lat="53.6675901" lon="12.2684211">
<ele>48.449</ele>
<time>2013-08-21T13:42:33.393Z</time>
</trkpt>
<trkpt lat="53.6676448" lon="12.2682775">
<ele>48.557</ele>
<time>2013-08-21T13:42:38.361Z</time>
</trkpt>
<trkpt lat="53.6677511" lon="12.2682752">
<ele>49.421</ele>
<time>2013-08-21T13:42:42.560Z</time>
</trkpt>
<trkpt lat="53.6678700" lon="12.2682983">
<ele>50.990</ele>
<time>2013-08-21T13:42:46.581Z</time>
</trkpt>
<trkpt lat="53.6679782" lon="12.2683051">
<ele>52.302</ele>
<time>2013-08-21T13:42:49.914Z</time>
</trkpt>
<trkpt lat="53.6680751" lon="12.2683483">
<ele>52.768</ele>
<time>2013-08-21T13:42:52.772Z</time>
</trkpt>
<trkpt lat="53.6681547" lon="12.2684906">
<ele>52.667</ele>
<time>2013-08-21T13:42:55.777Z</time>
</trkpt>
<trkpt lat="53.6682223" lon="12.2686611">
<ele>52.492</ele>
<time>2013-08-21T13:42:58.661Z</time>
</trkpt>
<trkpt lat="53.6683036" lon="12.2688183">
<ele>52.449</ele>
<time>2013-08-21T13:43:01.427Z</time>
</trkpt>
<trkpt lat="53.6683765" lon="12.2689964">
<ele>52.421</ele>
<time>2013-08-21T13:43:04.105Z</time>
</trkpt>
<trkpt lat="53.6684341" lon="12.2691258">
<ele>52.331</ele>
<time>2013-08-21T13:43:06.036Z</time>
</trkpt>
<trkpt lat="53.6684866" lon="12.2692519">
<ele>52.269</ele>
<time>2013-08-21T13:43:07.864Z</time>
</trkpt>
<trkpt lat="53.6685662" lon="12.2694262">
<ele>52.329</ele>
<time>2013-08-21T13:43:10.465Z</time>
</trkpt>
<trkpt lat="53.6686535" lon="12.2695775">
<ele>52.201</ele>
<time>2013-08-21T13:43:12.951Z</time>
</trkpt>
<trkpt lat="53.6687486" lon="12.2697439">
<ele>51.545</ele>
<time>2013-08-21T13:43:15.616Z</time>
</trkpt>
<trkpt lat="53.6688528" lon="12.2699213">
<ele>50.602</ele>
<time>2013-08-21T13:43:18.377Z</time>
</trkpt>
<trkpt lat="53.6689318" lon="12.2700447">
<ele>49.509</ele>
<time>2013-08-21T13:43:20.335Z</time>
</trkpt>
<trkpt lat="53.6690423" lon="12.2702356">
<ele>48.176</ele>
<time>2013-08-21T13:43:23.133Z</time>
</trkpt>
<trkpt lat="53.6691661" lon="12.2704330">
<ele>47.008</ele>
<time>2013-08-21T13:43:26.059Z</time>
</trkpt>
<trkpt lat="53.6692975" lon="12.2706419">
<ele>46.301</ele>
<time>2013-08-21T13:43:29.075Z</time>
</trkpt>
<trkpt lat="53.6693899" lon="12.2707700">
<ele>45.593</ele>
<time>2013-08-21T13:43:31.025Z</time>
</trkpt>
<trkpt lat="53.6694781" lon="12.2708985">
<ele>44.776</ele>
<time>2013-08-21T13:43:32.899Z</time>
</trkpt>
<trkpt lat="53.6696043" lon="12.2711122">
<ele>44.329</ele>
<time>2013-08-21T13:43:35.763Z</time>
</trkpt>
<trkpt lat="53.6696789" lon="12.2712536">
<ele>44.528</ele>
<time>2013-08-21T13:43:37.574Z</time>
</trkpt>
<trkpt lat="53.6698049" lon="12.2714390">
<ele>45.227</ele>
<time>2013-08-21T13:43:40.271Z</time>
</trkpt>
<trkpt lat="53.6699362" lon="12.2716555">
<ele>46.050</ele>
<time>2013-08-21T13:43:43.213Z</time>
</trkpt>
<trkpt lat="53.6700222" lon="12.2717800">
<ele>47.541</ele>
<time>2013-08-21T13:43:45.045Z</time>
</trkpt>
<trkpt lat="53.6701303" lon="12.2719446">
<ele>50.239</ele>
<time>2013-08-21T13:43:47.442Z</time>
</trkpt>
<trkpt lat="53.6702171" lon="12.2721502">
<ele>52.824</ele>
<time>2013-08-21T13:43:49.990Z</time>
</trkpt>
<trkpt lat="53.6702837" lon="12.2722971">
<ele>53.759</ele>
<time>2013-08-21T13:43:51.932Z</time>
</trkpt>
<trkpt lat="53.6703656" lon="12.2724542">
<ele>53.279</ele>
<time>2013-08-21T13:43:54.230Z</time>
</trkpt>
<trkpt lat="53.6704202" lon="12.2725922">
<ele>52.683</ele>
<time>2013-08-21T13:43:56.176Z</time>
</trkpt>
<trkpt lat="53.6704807" lon="12.2727341">
<ele>52.878</ele>
<time>2013-08-21T13:43:58.317Z</time>
</trkpt>
<trkpt lat="53.6705130" lon="12.2729224">
<ele>53.516</ele>
<time>2013-08-21T13:44:00.885Z</time>
</trkpt>
<trkpt lat="53.6704849" lon="12.2730996">
<ele>53.827</ele>
<time>2013-08-21T13:44:03.562Z</time>
</trkpt>
<trkpt lat="53.6704296" lon="12.2732542">
<ele>51.777</ele>
<time>2013-08-21T13:44:06.330Z</time>
</trkpt>
<trkpt lat="53.6704054" lon="12.2734027">
<ele>46.651</ele>
<time>2013-08-21T13:44:08.715Z</time>
</trkpt>
<trkpt lat="53.6704249" lon="12.2735942">
<ele>42.120</ele>
<time>2013-08-21T13:44:11.529Z</time>
</trkpt>
<trkpt lat="53.6704419" lon="12.2738241">
<ele>41.179</ele>
<time>2013-08-21T13:44:14.883Z</time>
</trkpt>
<trkpt lat="53.6704617" lon="12.2739968">
<ele>42.584</ele>
<time>2013-08-21T13:44:17.479Z</time>
</trkpt>
<trkpt lat="53.6704768" lon="12.2741539">
<ele>44.885</ele>
<time>2013-08-21T13:44:19.838Z</time>
</trkpt>
<trkpt lat="53.6704704" lon="12.2743528">
<ele>47.410</ele>
<time>2013-08-21T13:44:22.765Z</time>
</trkpt>
<trkpt lat="53.6704637" lon="12.2745652">
<ele>48.680</ele>
<time>2013-08-21T13:44:25.873Z</time>
</trkpt>
<trkpt lat="53.6704695" lon="12.2747783">
<ele>47.979</ele>
<time>2013-08-21T13:44:28.992Z</time>
</trkpt>
<trkpt lat="53.6704817" lon="12.2749952">
<ele>46.581</ele>
<time>2013-08-21T13:44:32.156Z</time>
</trkpt>
<trkpt lat="53.6704871" lon="12.2751671">
<ele>46.059</ele>
<time>2013-08-21T13:44:34.638Z</time>
</trkpt>
<trkpt lat="53.6705031" lon="12.2754074">
<ele>46.670</ele>
<time>2013-08-21T13:44:38.137Z</time>
</trkpt>
<trkpt lat="53.6705106" lon="12.2755849">
<ele>47.309</ele>
<time>2013-08-21T13:44:40.773Z</time>
</trkpt>
<trkpt lat="53.6705099" lon="12.2757588">
<ele>47.072</ele>
<time>2013-08-21T13:44:43.518Z</time>
</trkpt>
<trkpt lat="53.6705100" lon="12.2759352">
<ele>46.822</ele>
<time>2013-08-21T13:44:46.390Z</time>
</trkpt>
<trkpt lat="53.6705220" lon="12.2761014">
<ele>47.446</ele>
<time>2013-08-21T13:44:49.472Z</time>
</trkpt>
<trkpt lat="53.6705185" lon="12.2763135">
<ele>48.390</ele>
<time>2013-08-21T13:44:53.582Z</time>
</trkpt>
<trkpt lat="53.6705286" lon="12.2765320">
<ele>49.272</ele>
<time>2013-08-21T13:44:57.717Z</time>
</trkpt>
<trkpt lat="53.6705323" lon="12.2767534">
<ele>50.614</ele>
<time>2013-08-21T13:45:01.626Z</time>
</trkpt>
<trkpt lat="53.6705309" lon="12.2769637">
<ele>51.975</ele>
<time>2013-08-21T13:45:05.167Z</time>
</trkpt>
<trkpt lat="53.6705256" lon="12.2771567">
<ele>52.274</ele>
<time>2013-08-21T13:45:08.291Z</time>
</trkpt>
<trkpt lat="53.6705049" lon="12.2773538">
<ele>51.615</ele>
<time>2013-08-21T13:45:11.434Z</time>
</trkpt>
<trkpt lat="53.6704966" lon="12.2775421">
<ele>50.624</ele>
<time>2013-08-21T13:45:14.375Z</time>
</trkpt>
<trkpt lat="53.6705136" lon="12.2778153">
<ele>49.812</ele>
<time>2013-08-21T13:45:18.576Z</time>
</trkpt>
<trkpt lat="53.6705245" lon="12.2780738">
<ele>50.077</ele>
<time>2013-08-21T13:45:22.305Z</time>
</trkpt>
<trkpt lat="53.6705534" lon="12.2783993">
<ele>51.805</ele>
<time>2013-08-21T13:45:26.677Z</time>
</trkpt>
<trkpt lat="53.6705678" lon="12.2787058">
<ele>54.045</ele>
<time>2013-08-21T13:45:30.448Z</time>
</trkpt>
<trkpt lat="53.6705868" lon="12.2788743">
<ele>55.626</ele>
<time>2013-08-21T13:45:32.468Z</time>
</trkpt>
<trkpt lat="53.6706094" lon="12.2791251">
<ele>56.270</ele>
<time>2013-08-21T13:45:35.323Z</time>
</trkpt>
<trkpt lat="53.6706081" lon="12.2794137">
<ele>56.383</ele>
<time>2013-08-21T13:45:38.526Z</time>
</trkpt>
<trkpt lat="53.6705964" lon="12.2795697">
<ele>55.273</ele>
<time>2013-08-21T13:45:40.267Z</time>
</trkpt>
<trkpt lat="53.6705980" lon="12.2797637">
<ele>52.489</ele>
<time>2013-08-21T13:45:42.420Z</time>
</trkpt>
<trkpt lat="53.6706042" lon="12.2800735">
<ele>50.060</ele>
<time>2013-08-21T13:45:45.924Z</time>
</trkpt>
<trkpt lat="53.6706014" lon="12.2803042">
<ele>49.734</ele>
<time>2013-08-21T13:45:48.600Z</time>
</trkpt>
<trkpt lat="53.6706346" lon="12.2805456">
<ele>50.172</ele>
<time>2013-08-21T13:45:51.498Z</time>
</trkpt>
<trkpt lat="53.6706794" lon="12.2808114">
<ele>48.665</ele>
<time>2013-08-21T13:45:54.739Z</time>
</trkpt>
<trkpt lat="53.6706803" lon="12.2809888">
<ele>44.140</ele>
<time>2013-08-21T13:45:56.803Z</time>
</trkpt>
<trkpt lat="53.6706932" lon="12.2811534">
<ele>38.767</ele>
<time>2013-08-21T13:45:58.690Z</time>
</trkpt>
<trkpt lat="53.6707116" lon="12.2813291">
<ele>35.137</ele>
<time>2013-08-21T13:46:00.704Z</time>
</trkpt>
<trkpt lat="53.6707185" lon="12.2816042">
<ele>33.515</ele>
<time>2013-08-21T13:46:03.811Z</time>
</trkpt>
<trkpt lat="53.6707244" lon="12.2817859">
<ele>33.109</ele>
<time>2013-08-21T13:46:05.887Z</time>
</trkpt>
<trkpt lat="53.6707355" lon="12.2820331">
<ele>33.171</ele>
<time>2013-08-21T13:46:08.726Z</time>
</trkpt>
<trkpt lat="53.6707421" lon="12.2822996">
<ele>32.699</ele>
<time>2013-08-21T13:46:11.716Z</time>
</trkpt>
<trkpt lat="53.6707444" lon="12.2825086">
<ele>31.377</ele>
<time>2013-08-21T13:46:14.008Z</time>
</trkpt>
<trkpt lat="53.6707687" lon="12.2828146">
<ele>30.509</ele>
<time>2013-08-21T13:46:17.350Z</time>
</trkpt>
<trkpt lat="53.6707801" lon="12.2830316">
<ele>31.143</ele>
<time>2013-08-21T13:46:19.773Z</time>
</trkpt>
<trkpt lat="53.6707911" lon="12.2832900">
<ele>32.865</ele>
<time>2013-08-21T13:46:22.676Z</time>
</trkpt>
<trkpt lat="53.6708175" lon="12.2835374">
<ele>34.820</ele>
<time>2013-08-21T13:46:25.580Z</time>
</trkpt>
<trkpt lat="53.6708517" lon="12.2837540">
<ele>36.402</ele>
<time>2013-08-21T13:46:28.264Z</time>
</trkpt>
<trkpt lat="53.6708331" lon="12.2839670">
<ele>38.218</ele>
<time>2013-08-21T13:46:30.839Z</time>
</trkpt>
<trkpt lat="53.6708244" lon="12.2842399">
<ele>41.217</ele>
<time>2013-08-21T13:46:34.188Z</time>
</trkpt>
<trkpt lat="53.6708427" lon="12.2844966">
<ele>44.681</ele>
<time>2013-08-21T13:46:37.475Z</time>
</trkpt>
<trkpt lat="53.6708451" lon="12.2846902">
<ele>47.237</ele>
<time>2013-08-21T13:46:39.931Z</time>
</trkpt>
<trkpt lat="53.6708631" lon="12.2849219">
<ele>48.791</ele>
<time>2013-08-21T13:46:42.796Z</time>
</trkpt>
<trkpt lat="53.6708815" lon="12.2851796">
<ele>49.879</ele>
<time>2013-08-21T13:46:45.898Z</time>
</trkpt>
<trkpt lat="53.6709098" lon="12.2854755">
<ele>50.597</ele>
<time>2013-08-21T13:46:49.475Z</time>
</trkpt>
<trkpt lat="53.6709448" lon="12.2856938">
<ele>50.823</ele>
<time>2013-08-21T13:46:52.201Z</time>
</trkpt>
<trkpt lat="53.6709685" lon="12.2858617">
<ele>50.008</ele>
<time>2013-08-21T13:46:54.291Z</time>
</trkpt>
<trkpt lat="53.6710022" lon="12.2860923">
<ele>47.769</ele>
<time>2013-08-21T13:46:57.142Z</time>
</trkpt>
<trkpt lat="53.6710302" lon="12.2862935">
<ele>44.871</ele>
<time>2013-08-21T13:46:59.621Z</time>
</trkpt>
<trkpt lat="53.6710296" lon="12.2865668">
<ele>42.370</ele>
<time>2013-08-21T13:47:02.949Z</time>
</trkpt>
<trkpt lat="53.6710279" lon="12.2867305">
<ele>40.535</ele>
<time>2013-08-21T13:47:05.011Z</time>
</trkpt>
<trkpt lat="53.6710448" lon="12.2869944">
<ele>39.948</ele>
<time>2013-08-21T13:47:08.388Z</time>
</trkpt>
<trkpt lat="53.6710519" lon="12.2871500">
<ele>42.077</ele>
<time>2013-08-21T13:47:10.299Z</time>
</trkpt>
<trkpt lat="53.6710373" lon="12.2873969">
<ele>46.568</ele>
<time>2013-08-21T13:47:13.258Z</time>
</trkpt>
<trkpt lat="53.6709893" lon="12.2875832">
<ele>49.991</ele>
<time>2013-08-21T13:47:15.719Z</time>
</trkpt>
<trkpt lat="53.6709709" lon="12.2878107">
<ele>50.467</ele>
<time>2013-08-21T13:47:18.625Z</time>
</trkpt>
<trkpt lat="53.6709685" lon="12.2880771">
<ele>50.143</ele>
<time>2013-08-21T13:47:22.077Z</time>
</trkpt>
<trkpt lat="53.6709597" lon="12.2882342">
<ele>51.124</ele>
<time>2013-08-21T13:47:24.108Z</time>
</trkpt>
<trkpt lat="53.6709382" lon="12.2884476">
<ele>52.348</ele>
<time>2013-08-21T13:47:26.912Z</time>
</trkpt>
<trkpt lat="53.6709105" lon="12.2886065">
<ele>51.095</ele>
<time>2013-08-21T13:47:29.085Z</time>
</trkpt>
<trkpt lat="53.6708294" lon="12.2888209">
<ele>47.053</ele>
<time>2013-08-21T13:47:32.353Z</time>
</trkpt>
<trkpt lat="53.6707840" lon="12.2889963">
<ele>42.166</ele>
<time>2013-08-21T13:47:34.665Z</time>
</trkpt>
<trkpt lat="53.6707425" lon="12.2891527">
<ele>38.065</ele>
<time>2013-08-21T13:47:36.653Z</time>
</trkpt>
<trkpt lat="53.6706646" lon="12.2893686">
<ele>36.070</ele>
<time>2013-08-21T13:47:39.515Z</time>
</trkpt>
<trkpt lat="53.6705837" lon="12.2895199">
<ele>36.708</ele>
<time>2013-08-21T13:47:41.848Z</time>
</trkpt>
<trkpt lat="53.6704651" lon="12.2897254">
<ele>38.608</ele>
<time>2013-08-21T13:47:45.101Z</time>
</trkpt>
<trkpt lat="53.6704163" lon="12.2898580">
<ele>42.154</ele>
<time>2013-08-21T13:47:46.856Z</time>
</trkpt>
<trkpt lat="53.6703325" lon="12.2900713">
<ele>47.780</ele>
<time>2013-08-21T13:47:49.744Z</time>
</trkpt>
<trkpt lat="53.6702441" lon="12.2902032">
<ele>52.237</ele>
<time>2013-08-21T13:47:52.019Z</time>
</trkpt>
<trkpt lat="53.6701595" lon="12.2904137">
<ele>52.939</ele>
<time>2013-08-21T13:47:54.972Z</time>
</trkpt>
<trkpt lat="53.6701043" lon="12.2905441">
<ele>51.414</ele>
<time>2013-08-21T13:47:56.842Z</time>
</trkpt>
<trkpt lat="53.6700258" lon="12.2907143">
<ele>49.591</ele>
<time>2013-08-21T13:47:59.389Z</time>
</trkpt>
<trkpt lat="53.6699607" lon="12.2908488">
<ele>48.120</ele>
<time>2013-08-21T13:48:01.454Z</time>
</trkpt>
<trkpt lat="53.6698708" lon="12.2910202">
<ele>47.748</ele>
<time>2013-08-21T13:48:04.207Z</time>
</trkpt>
<trkpt lat="53.6698205" lon="12.2911670">
<ele>49.078</ele>
<time>2013-08-21T13:48:06.214Z</time>
</trkpt>
<trkpt lat="53.6697709" lon="12.2913343">
<ele>51.416</ele>
<time>2013-08-21T13:48:08.327Z</time>
</trkpt>
<trkpt lat="53.6697248" lon="12.2915571">
<ele>53.262</ele>
<time>2013-08-21T13:48:10.866Z</time>
</trkpt>
<trkpt lat="53.6696796" lon="12.2917777">
<ele>54.013</ele>
<time>2013-08-21T13:48:13.296Z</time>
</trkpt>
<trkpt lat="53.6696301" lon="12.2921108">
<ele>54.832</ele>
<time>2013-08-21T13:48:16.768Z</time>
</trkpt>
<trkpt lat="53.6695883" lon="12.2922926">
<ele>56.565</ele>
<time>2013-08-21T13:48:18.674Z</time>
</trkpt>
<trkpt lat="53.6695205" lon="12.2925571">
<ele>58.245</ele>
<time>2013-08-21T13:48:21.448Z</time>
</trkpt>
<trkpt lat="53.6694608" lon="12.2928200">
<ele>58.652</ele>
<time>2013-08-21T13:48:24.138Z</time>
</trkpt>
<trkpt lat="53.6693863" lon="12.2931043">
<ele>58.196</ele>
<time>2013-08-21T13:48:27.176Z</time>
</trkpt>
<trkpt lat="53.6693382" lon="12.2933053">
<ele>58.089</ele>
<time>2013-08-21T13:48:29.349Z</time>
</trkpt>
<trkpt lat="53.6692801" lon="12.2935195">
<ele>58.887</ele>
<time>2013-08-21T13:48:31.703Z</time>
</trkpt>
<trkpt lat="53.6692580" lon="12.2937260">
<ele>60.542</ele>
<time>2013-08-21T13:48:33.724Z</time>
</trkpt>
<trkpt lat="53.6692477" lon="12.2938825">
<ele>62.577</ele>
<time>2013-08-21T13:48:35.068Z</time>
</trkpt>
<trkpt lat="53.6692410" lon="12.2941190">
<ele>63.878</ele>
<time>2013-08-21T13:48:37.067Z</time>
</trkpt>
<trkpt lat="53.6691437" lon="12.2943121">
<ele>64.070</ele>
<time>2013-08-21T13:48:39.170Z</time>
</trkpt>
<trkpt lat="53.6690847" lon="12.2946379">
<ele>64.232</ele>
<time>2013-08-21T13:48:42.294Z</time>
</trkpt>
<trkpt lat="53.6690459" lon="12.2947892">
<ele>65.223</ele>
<time>2013-08-21T13:48:43.800Z</time>
</trkpt>
<trkpt lat="53.6690256" lon="12.2951059">
<ele>66.421</ele>
<time>2013-08-21T13:48:46.459Z</time>
</trkpt>
<trkpt lat="53.6690008" lon="12.2953188">
<ele>67.055</ele>
<time>2013-08-21T13:48:48.267Z</time>
</trkpt>
<trkpt lat="53.6689118" lon="12.2955652">
<ele>67.741</ele>
<time>2013-08-21T13:48:50.654Z</time>
</trkpt>
<trkpt lat="53.6688521" lon="12.2956914">
<ele>69.493</ele>
<time>2013-08-21T13:48:52.017Z</time>
</trkpt>
<trkpt lat="53.6688531" lon="12.2959465">
<ele>71.940</ele>
<time>2013-08-21T13:48:54.339Z</time>
</trkpt>
<trkpt lat="53.6688629" lon="12.2961989">
<ele>73.118</ele>
<time>2013-08-21T13:48:57.048Z</time>
</trkpt>
<trkpt lat="53.6689003" lon="12.2964142">
<ele>72.166</ele>
<time>2013-08-21T13:48:59.494Z</time>
</trkpt>
<trkpt lat="53.6689083" lon="12.2966827">
<ele>69.022</ele>
<time>2013-08-21T13:49:02.427Z</time>
</trkpt>
<trkpt lat="53.6688818" lon="12.2968709">
<ele>64.076</ele>
<time>2013-08-21T13:49:04.640Z</time>
</trkpt>
<trkpt lat="53.6688726" lon="12.2971577">
<ele>59.513</ele>
<time>2013-08-21T13:49:08.235Z</time>
</trkpt>
<trkpt lat="53.6688728" lon="12.2973627">
<ele>58.680</ele>
<time>2013-08-21T13:49:10.855Z</time>
</trkpt>
<trkpt lat="53.6688465" lon="12.2976801">
<ele>61.868</ele>
<time>2013-08-21T13:49:14.595Z</time>
</trkpt>
<trkpt lat="53.6688414" lon="12.2979798">
<ele>64.892</ele>
<time>2013-08-21T13:49:17.908Z</time>
</trkpt>
<trkpt lat="53.6688433" lon="12.2981501">
<ele>64.224</ele>
<time>2013-08-21T13:49:19.845Z</time>
</trkpt>
<trkpt lat="53.6688244" lon="12.2983606">
<ele>61.139</ele>
<time>2013-08-21T13:49:22.220Z</time>
</trkpt>
<trkpt lat="53.6688019" lon="12.2986626">
<ele>57.908</ele>
<time>2013-08-21T13:49:25.408Z</time>
</trkpt>
<trkpt lat="53.6687906" lon="12.2988656">
<ele>54.863</ele>
<time>2013-08-21T13:49:27.544Z</time>
</trkpt>
<trkpt lat="53.6687777" lon="12.2991120">
<ele>52.005</ele>
<time>2013-08-21T13:49:30.249Z</time>
</trkpt>
<trkpt lat="53.6687690" lon="12.2992797">
<ele>50.490</ele>
<time>2013-08-21T13:49:32.079Z</time>
</trkpt>
<trkpt lat="53.6687659" lon="12.2994500">
<ele>51.306</ele>
<time>2013-08-21T13:49:33.894Z</time>
</trkpt>
<trkpt lat="53.6687639" lon="12.2996041">
<ele>53.458</ele>
<time>2013-08-21T13:49:35.536Z</time>
</trkpt>
<trkpt lat="53.6687706" lon="12.2998381">
<ele>54.870</ele>
<time>2013-08-21T13:49:38.196Z</time>
</trkpt>
<trkpt lat="53.6687802" lon="12.3000567">
<ele>54.294</ele>
<time>2013-08-21T13:49:41.172Z</time>
</trkpt>
<trkpt lat="53.6687733" lon="12.3002293">
<ele>52.410</ele>
<time>2013-08-21T13:49:43.995Z</time>
</trkpt>
<trkpt lat="53.6686628" lon="12.3002577">
<ele>50.792</ele>
<time>2013-08-21T13:49:47.137Z</time>
</trkpt>
<trkpt lat="53.6685606" lon="12.3002744">
<ele>50.511</ele>
<time>2013-08-21T13:49:49.666Z</time>
</trkpt>
<trkpt lat="53.6685606" lon="12.3002744">
<ele>51.477</ele>
<time>2013-08-21T13:49:56.684Z</time>
</trkpt>
<trkpt lat="53.6685606" lon="12.3002744">
<ele>52.420</ele>
<time>2013-08-21T13:50:50.699Z</time>
</trkpt>
<trkpt lat="53.6686772" lon="12.3002259">
<ele>52.400</ele>
<time>2013-08-21T13:51:02.993Z</time>
</trkpt>
<trkpt lat="53.6687586" lon="12.3003049">
<ele>53.290</ele>
<time>2013-08-21T13:51:07.316Z</time>
</trkpt>
<trkpt lat="53.6687839" lon="12.3004981">
<ele>56.595</ele>
<time>2013-08-21T13:51:10.939Z</time>
</trkpt>
<trkpt lat="53.6687412" lon="12.3006696">
<ele>60.113</ele>
<time>2013-08-21T13:51:13.622Z</time>
</trkpt>
<trkpt lat="53.6686879" lon="12.3008060">
<ele>61.570</ele>
<time>2013-08-21T13:51:15.764Z</time>
</trkpt>
<trkpt lat="53.6686204" lon="12.3010779">
<ele>61.530</ele>
<time>2013-08-21T13:51:21.765Z</time>
</trkpt>
<trkpt lat="53.6685861" lon="12.3012523">
<ele>60.986</ele>
<time>2013-08-21T13:51:24.669Z</time>
</trkpt>
<trkpt lat="53.6685700" lon="12.3014710">
<ele>60.338</ele>
<time>2013-08-21T13:51:27.038Z</time>
</trkpt>
<trkpt lat="53.6685330" lon="12.3017179">
<ele>59.709</ele>
<time>2013-08-21T13:51:29.411Z</time>
</trkpt>
<trkpt lat="53.6685062" lon="12.3019173">
<ele>59.181</ele>
<time>2013-08-21T13:51:31.180Z</time>
</trkpt>
<trkpt lat="53.6685843" lon="12.3022143">
<ele>58.340</ele>
<time>2013-08-21T13:51:34.299Z</time>
</trkpt>
<trkpt lat="53.6686519" lon="12.3023952">
<ele>56.359</ele>
<time>2013-08-21T13:51:36.662Z</time>
</trkpt>
<trkpt lat="53.6687737" lon="12.3027861">
<ele>53.569</ele>
<time>2013-08-21T13:51:40.878Z</time>
</trkpt>
<trkpt lat="53.6688501" lon="12.3029504">
<ele>52.184</ele>
<time>2013-08-21T13:51:42.995Z</time>
</trkpt>
<trkpt lat="53.6689137" lon="12.3031061">
<ele>53.268</ele>
<time>2013-08-21T13:51:44.936Z</time>
</trkpt>
<trkpt lat="53.6690048" lon="12.3033983">
<ele>55.062</ele>
<time>2013-08-21T13:51:48.123Z</time>
</trkpt>
<trkpt lat="53.6691038" lon="12.3037177">
<ele>55.761</ele>
<time>2013-08-21T13:51:51.323Z</time>
</trkpt>
<trkpt lat="53.6692241" lon="12.3040373">
<ele>54.256</ele>
<time>2013-08-21T13:51:54.279Z</time>
</trkpt>
<trkpt lat="53.6692997" lon="12.3044511">
<ele>50.588</ele>
<time>2013-08-21T13:51:57.319Z</time>
</trkpt>
<trkpt lat="53.6692920" lon="12.3046944">
<ele>47.038</ele>
<time>2013-08-21T13:51:59.018Z</time>
</trkpt>
<trkpt lat="53.6692916" lon="12.3049132">
<ele>45.395</ele>
<time>2013-08-21T13:52:00.640Z</time>
</trkpt>
<trkpt lat="53.6692839" lon="12.3051758">
<ele>45.161</ele>
<time>2013-08-21T13:52:02.667Z</time>
</trkpt>
<trkpt lat="53.6692839" lon="12.3051758">
<ele>45.353</ele>
<time>2013-08-21T13:52:07.673Z</time>
</trkpt>
<trkpt lat="53.6692839" lon="12.3051758">
<ele>45.405</ele>
<time>2013-08-21T13:52:41.188Z</time>
</trkpt>
<trkpt lat="53.6690988" lon="12.3051551">
<ele>45.338</ele>
<time>2013-08-21T13:52:54.763Z</time>
</trkpt>
<trkpt lat="53.6690073" lon="12.3052441">
<ele>45.563</ele>
<time>2013-08-21T13:52:59.593Z</time>
</trkpt>
<trkpt lat="53.6689191" lon="12.3053505">
<ele>46.242</ele>
<time>2013-08-21T13:53:03.999Z</time>
</trkpt>
<trkpt lat="53.6688375" lon="12.3054444">
<ele>46.907</ele>
<time>2013-08-21T13:53:07.574Z</time>
</trkpt>
<trkpt lat="53.6687320" lon="12.3055325">
<ele>46.804</ele>
<time>2013-08-21T13:53:11.584Z</time>
</trkpt>
<trkpt lat="53.6686123" lon="12.3056522">
<ele>45.884</ele>
<time>2013-08-21T13:53:16.966Z</time>
</trkpt>
<trkpt lat="53.6685351" lon="12.3057642">
<ele>45.763</ele>
<time>2013-08-21T13:53:20.688Z</time>
</trkpt>
<trkpt lat="53.6684219" lon="12.3058271">
<ele>47.543</ele>
<time>2013-08-21T13:53:24.418Z</time>
</trkpt>
<trkpt lat="53.6683032" lon="12.3058553">
<ele>49.403</ele>
<time>2013-08-21T13:53:28.107Z</time>
</trkpt>
<trkpt lat="53.6681980" lon="12.3058810">
<ele>49.479</ele>
<time>2013-08-21T13:53:31.265Z</time>
</trkpt>
<trkpt lat="53.6680882" lon="12.3058964">
<ele>48.412</ele>
<time>2013-08-21T13:53:34.401Z</time>
</trkpt>
<trkpt lat="53.6679785" lon="12.3059202">
<ele>47.383</ele>
<time>2013-08-21T13:53:37.446Z</time>
</trkpt>
<trkpt lat="53.6678617" lon="12.3059289">
<ele>46.764</ele>
<time>2013-08-21T13:53:40.713Z</time>
</trkpt>
<trkpt lat="53.6677454" lon="12.3059312">
<ele>46.569</ele>
<time>2013-08-21T13:53:44.021Z</time>
</trkpt>
<trkpt lat="53.6676380" lon="12.3059259">
<ele>46.908</ele>
<time>2013-08-21T13:53:47.027Z</time>
</trkpt>
<trkpt lat="53.6675291" lon="12.3059170">
<ele>47.773</ele>
<time>2013-08-21T13:53:50.004Z</time>
</trkpt>
<trkpt lat="53.6674296" lon="12.3058985">
<ele>48.631</ele>
<time>2013-08-21T13:53:52.664Z</time>
</trkpt>
<trkpt lat="53.6673325" lon="12.3058790">
<ele>48.496</ele>
<time>2013-08-21T13:53:55.231Z</time>
</trkpt>
<trkpt lat="53.6672235" lon="12.3058568">
<ele>47.154</ele>
<time>2013-08-21T13:53:58.109Z</time>
</trkpt>
<trkpt lat="53.6671122" lon="12.3058306">
<ele>45.615</ele>
<time>2013-08-21T13:54:01.069Z</time>
</trkpt>
<trkpt lat="53.6670045" lon="12.3058254">
<ele>44.771</ele>
<time>2013-08-21T13:54:03.901Z</time>
</trkpt>
<trkpt lat="53.6668910" lon="12.3058236">
<ele>44.624</ele>
<time>2013-08-21T13:54:06.866Z</time>
</trkpt>
<trkpt lat="53.6667618" lon="12.3058269">
<ele>44.861</ele>
<time>2013-08-21T13:54:10.210Z</time>
</trkpt>
<trkpt lat="53.6666427" lon="12.3058055">
<ele>45.748</ele>
<time>2013-08-21T13:54:13.291Z</time>
</trkpt>
<trkpt lat="53.6665254" lon="12.3058126">
<ele>47.459</ele>
<time>2013-08-21T13:54:16.298Z</time>
</trkpt>
<trkpt lat="53.6664032" lon="12.3058070">
<ele>49.059</ele>
<time>2013-08-21T13:54:19.394Z</time>
</trkpt>
<trkpt lat="53.6662917" lon="12.3057928">
<ele>49.611</ele>
<time>2013-08-21T13:54:22.172Z</time>
</trkpt>
<trkpt lat="53.6661647" lon="12.3057724">
<ele>49.275</ele>
<time>2013-08-21T13:54:25.324Z</time>
</trkpt>
<trkpt lat="53.6660458" lon="12.3057568">
<ele>48.625</ele>
<time>2013-08-21T13:54:28.307Z</time>
</trkpt>
<trkpt lat="53.6659313" lon="12.3057497">
<ele>48.142</ele>
<time>2013-08-21T13:54:31.242Z</time>
</trkpt>
<trkpt lat="53.6658205" lon="12.3057456">
<ele>48.114</ele>
<time>2013-08-21T13:54:34.158Z</time>
</trkpt>
<trkpt lat="53.6657248" lon="12.3057500">
<ele>48.570</ele>
<time>2013-08-21T13:54:36.745Z</time>
</trkpt>
<trkpt lat="53.6656224" lon="12.3057585">
<ele>49.146</ele>
<time>2013-08-21T13:54:39.574Z</time>
</trkpt>
<trkpt lat="53.6655223" lon="12.3057595">
<ele>49.479</ele>
<time>2013-08-21T13:54:42.371Z</time>
</trkpt>
<trkpt lat="53.6654225" lon="12.3057475">
<ele>49.598</ele>
<time>2013-08-21T13:54:45.194Z</time>
</trkpt>
<trkpt lat="53.6653163" lon="12.3057350">
<ele>49.995</ele>
<time>2013-08-21T13:54:48.222Z</time>
</trkpt>
<trkpt lat="53.6652088" lon="12.3057193">
<ele>51.222</ele>
<time>2013-08-21T13:54:51.326Z</time>
</trkpt>
<trkpt lat="53.6651052" lon="12.3057141">
<ele>52.924</ele>
<time>2013-08-21T13:54:54.330Z</time>
</trkpt>
<trkpt lat="53.6650031" lon="12.3057075">
<ele>54.151</ele>
<time>2013-08-21T13:54:57.268Z</time>
</trkpt>
<trkpt lat="53.6648816" lon="12.3057061">
<ele>54.690</ele>
<time>2013-08-21T13:55:00.708Z</time>
</trkpt>
<trkpt lat="53.6647670" lon="12.3056969">
<ele>55.043</ele>
<time>2013-08-21T13:55:03.931Z</time>
</trkpt>
<trkpt lat="53.6646684" lon="12.3056931">
<ele>55.591</ele>
<time>2013-08-21T13:55:06.710Z</time>
</trkpt>
<trkpt lat="53.6645767" lon="12.3056850">
<ele>56.258</ele>
<time>2013-08-21T13:55:09.315Z</time>
</trkpt>
<trkpt lat="53.6644839" lon="12.3056796">
<ele>56.861</ele>
<time>2013-08-21T13:55:11.963Z</time>
</trkpt>
<trkpt lat="53.6643900" lon="12.3056668">
<ele>57.356</ele>
<time>2013-08-21T13:55:14.660Z</time>
</trkpt>
<trkpt lat="53.6643017" lon="12.3056968">
<ele>57.682</ele>
<time>2013-08-21T13:55:17.235Z</time>
</trkpt>
<trkpt lat="53.6642076" lon="12.3057158">
<ele>57.722</ele>
<time>2013-08-21T13:55:19.934Z</time>
</trkpt>
<trkpt lat="53.6641031" lon="12.3057411">
<ele>57.476</ele>
<time>2013-08-21T13:55:22.934Z</time>
</trkpt>
<trkpt lat="53.6640066" lon="12.3057789">
<ele>56.986</ele>
<time>2013-08-21T13:55:25.764Z</time>
</trkpt>
<trkpt lat="53.6639154" lon="12.3058441">
<ele>56.388</ele>
<time>2013-08-21T13:55:28.605Z</time>
</trkpt>
<trkpt lat="53.6638355" lon="12.3059517">
<ele>55.725</ele>
<time>2013-08-21T13:55:31.527Z</time>
</trkpt>
<trkpt lat="53.6637756" lon="12.3060954">
<ele>54.980</ele>
<time>2013-08-21T13:55:34.462Z</time>
</trkpt>
<trkpt lat="53.6637358" lon="12.3062647">
<ele>54.389</ele>
<time>2013-08-21T13:55:37.440Z</time>
</trkpt>
<trkpt lat="53.6637093" lon="12.3064194">
<ele>54.150</ele>
<time>2013-08-21T13:55:40.026Z</time>
</trkpt>
<trkpt lat="53.6636802" lon="12.3065945">
<ele>54.216</ele>
<time>2013-08-21T13:55:42.926Z</time>
</trkpt>
<trkpt lat="53.6636406" lon="12.3067699">
<ele>54.504</ele>
<time>2013-08-21T13:55:45.931Z</time>
</trkpt>
<trkpt lat="53.6636101" lon="12.3069176">
<ele>54.818</ele>
<time>2013-08-21T13:55:48.467Z</time>
</trkpt>
<trkpt lat="53.6635822" lon="12.3070732">
<ele>55.256</ele>
<time>2013-08-21T13:55:51.143Z</time>
</trkpt>
<trkpt lat="53.6635657" lon="12.3072656">
<ele>56.019</ele>
<time>2013-08-21T13:55:54.384Z</time>
</trkpt>
<trkpt lat="53.6635537" lon="12.3074633">
<ele>56.455</ele>
<time>2013-08-21T13:55:57.686Z</time>
</trkpt>
<trkpt lat="53.6635273" lon="12.3076711">
<ele>56.018</ele>
<time>2013-08-21T13:56:01.090Z</time>
</trkpt>
<trkpt lat="53.6635004" lon="12.3078565">
<ele>55.270</ele>
<time>2013-08-21T13:56:04.033Z</time>
</trkpt>
<trkpt lat="53.6634582" lon="12.3080585">
<ele>54.681</ele>
<time>2013-08-21T13:56:07.232Z</time>
</trkpt>
<trkpt lat="53.6634184" lon="12.3082512">
<ele>54.080</ele>
<time>2013-08-21T13:56:10.208Z</time>
</trkpt>
<trkpt lat="53.6633894" lon="12.3084469">
<ele>53.475</ele>
<time>2013-08-21T13:56:13.084Z</time>
</trkpt>
<trkpt lat="53.6633623" lon="12.3086693">
<ele>53.098</ele>
<time>2013-08-21T13:56:16.250Z</time>
</trkpt>
<trkpt lat="53.6633407" lon="12.3088717">
<ele>52.884</ele>
<time>2013-08-21T13:56:19.099Z</time>
</trkpt>
<trkpt lat="53.6633122" lon="12.3090526">
<ele>52.353</ele>
<time>2013-08-21T13:56:21.716Z</time>
</trkpt>
<trkpt lat="53.6632634" lon="12.3092146">
<ele>51.359</ele>
<time>2013-08-21T13:56:24.304Z</time>
</trkpt>
<trkpt lat="53.6632249" lon="12.3093629">
<ele>50.344</ele>
<time>2013-08-21T13:56:26.662Z</time>
</trkpt>
<trkpt lat="53.6631676" lon="12.3094965">
<ele>49.678</ele>
<time>2013-08-21T13:56:29.188Z</time>
</trkpt>
<trkpt lat="53.6631136" lon="12.3096697">
<ele>49.387</ele>
<time>2013-08-21T13:56:32.274Z</time>
</trkpt>
<trkpt lat="53.6630477" lon="12.3098407">
<ele>49.421</ele>
<time>2013-08-21T13:56:35.491Z</time>
</trkpt>
<trkpt lat="53.6629767" lon="12.3099902">
<ele>49.631</ele>
<time>2013-08-21T13:56:38.453Z</time>
</trkpt>
<trkpt lat="53.6629119" lon="12.3101248">
<ele>49.724</ele>
<time>2013-08-21T13:56:41.144Z</time>
</trkpt>
<trkpt lat="53.6628582" lon="12.3102837">
<ele>49.540</ele>
<time>2013-08-21T13:56:44.049Z</time>
</trkpt>
<trkpt lat="53.6628050" lon="12.3104700">
<ele>49.343</ele>
<time>2013-08-21T13:56:47.378Z</time>
</trkpt>
<trkpt lat="53.6627547" lon="12.3106338">
<ele>49.382</ele>
<time>2013-08-21T13:56:50.314Z</time>
</trkpt>
<trkpt lat="53.6627048" lon="12.3107889">
<ele>49.450</ele>
<time>2013-08-21T13:56:53.084Z</time>
</trkpt>
<trkpt lat="53.6626892" lon="12.3109687">
<ele>49.324</ele>
<time>2013-08-21T13:56:55.964Z</time>
</trkpt>
<trkpt lat="53.6626969" lon="12.3111281">
<ele>49.196</ele>
<time>2013-08-21T13:56:58.555Z</time>
</trkpt>
<trkpt lat="53.6627149" lon="12.3112798">
<ele>49.290</ele>
<time>2013-08-21T13:57:01.093Z</time>
</trkpt>
<trkpt lat="53.6628053" lon="12.3114471">
<ele>49.689</ele>
<time>2013-08-21T13:57:04.867Z</time>
</trkpt>
<trkpt lat="53.6628950" lon="12.3115613">
<ele>50.348</ele>
<time>2013-08-21T13:57:08.053Z</time>
</trkpt>
<trkpt lat="53.6629989" lon="12.3116633">
<ele>50.951</ele>
<time>2013-08-21T13:57:11.388Z</time>
</trkpt>
<trkpt lat="53.6630949" lon="12.3117514">
<ele>51.231</ele>
<time>2013-08-21T13:57:14.364Z</time>
</trkpt>
<trkpt lat="53.6632016" lon="12.3118291">
<ele>51.342</ele>
<time>2013-08-21T13:57:17.487Z</time>
</trkpt>
<trkpt lat="53.6632881" lon="12.3118962">
<ele>51.410</ele>
<time>2013-08-21T13:57:20.007Z</time>
</trkpt>
<trkpt lat="53.6633934" lon="12.3119648">
<ele>51.375</ele>
<time>2013-08-21T13:57:22.960Z</time>
</trkpt>
<trkpt lat="53.6634917" lon="12.3120051">
<ele>51.243</ele>
<time>2013-08-21T13:57:25.610Z</time>
</trkpt>
<trkpt lat="53.6635859" lon="12.3120428">
<ele>51.120</ele>
<time>2013-08-21T13:57:28.200Z</time>
</trkpt>
<trkpt lat="53.6636769" lon="12.3120974">
<ele>51.128</ele>
<time>2013-08-21T13:57:30.866Z</time>
</trkpt>
<trkpt lat="53.6637688" lon="12.3121418">
<ele>51.579</ele>
<time>2013-08-21T13:57:33.604Z</time>
</trkpt>
<trkpt lat="53.6638618" lon="12.3121774">
<ele>52.522</ele>
<time>2013-08-21T13:57:36.419Z</time>
</trkpt>
<trkpt lat="53.6639779" lon="12.3122285">
<ele>53.437</ele>
<time>2013-08-21T13:57:40.003Z</time>
</trkpt>
<trkpt lat="53.6640973" lon="12.3122792">
<ele>53.813</ele>
<time>2013-08-21T13:57:43.556Z</time>
</trkpt>
<trkpt lat="53.6642375" lon="12.3123581">
<ele>53.343</ele>
<time>2013-08-21T13:57:47.468Z</time>
</trkpt>
<trkpt lat="53.6643356" lon="12.3124215">
<ele>51.819</ele>
<time>2013-08-21T13:57:49.907Z</time>
</trkpt>
<trkpt lat="53.6645069" lon="12.3125312">
<ele>49.794</ele>
<time>2013-08-21T13:57:53.623Z</time>
</trkpt>
<trkpt lat="53.6646214" lon="12.3126024">
<ele>48.262</ele>
<time>2013-08-21T13:57:55.794Z</time>
</trkpt>
<trkpt lat="53.6647364" lon="12.3126755">
<ele>47.573</ele>
<time>2013-08-21T13:57:57.743Z</time>
</trkpt>
<trkpt lat="53.6649082" lon="12.3127854">
<ele>47.402</ele>
<time>2013-08-21T13:58:00.523Z</time>
</trkpt>
<trkpt lat="53.6650262" lon="12.3128537">
<ele>47.289</ele>
<time>2013-08-21T13:58:02.400Z</time>
</trkpt>
<trkpt lat="53.6651457" lon="12.3129194">
<ele>47.016</ele>
<time>2013-08-21T13:58:04.334Z</time>
</trkpt>
<trkpt lat="53.6653235" lon="12.3130006">
<ele>47.014</ele>
<time>2013-08-21T13:58:07.301Z</time>
</trkpt>
<trkpt lat="53.6654763" lon="12.3130825">
<ele>47.602</ele>
<time>2013-08-21T13:58:10.013Z</time>
</trkpt>
<trkpt lat="53.6655739" lon="12.3131375">
<ele>48.321</ele>
<time>2013-08-21T13:58:11.782Z</time>
</trkpt>
<trkpt lat="53.6656608" lon="12.3131858">
<ele>48.549</ele>
<time>2013-08-21T13:58:13.400Z</time>
</trkpt>
<trkpt lat="53.6658102" lon="12.3132685">
<ele>48.456</ele>
<time>2013-08-21T13:58:16.298Z</time>
</trkpt>
<trkpt lat="53.6659046" lon="12.3133437">
<ele>48.490</ele>
<time>2013-08-21T13:58:18.298Z</time>
</trkpt>
<trkpt lat="53.6660165" lon="12.3134615">
<ele>48.613</ele>
<time>2013-08-21T13:58:20.984Z</time>
</trkpt>
<trkpt lat="53.6660965" lon="12.3135543">
<ele>48.079</ele>
<time>2013-08-21T13:58:23.085Z</time>
</trkpt>
<trkpt lat="53.6662016" lon="12.3136570">
<ele>46.592</ele>
<time>2013-08-21T13:58:25.848Z</time>
</trkpt>
<trkpt lat="53.6662818" lon="12.3137273">
<ele>45.002</ele>
<time>2013-08-21T13:58:27.964Z</time>
</trkpt>
<trkpt lat="53.6663902" lon="12.3138233">
<ele>44.187</ele>
<time>2013-08-21T13:58:30.676Z</time>
</trkpt>
<trkpt lat="53.6664945" lon="12.3139167">
<ele>44.481</ele>
<time>2013-08-21T13:58:33.249Z</time>
</trkpt>
<trkpt lat="53.6665811" lon="12.3140068">
<ele>45.773</ele>
<time>2013-08-21T13:58:35.625Z</time>
</trkpt>
<trkpt lat="53.6666787" lon="12.3140920">
<ele>47.114</ele>
<time>2013-08-21T13:58:38.641Z</time>
</trkpt>
<trkpt lat="53.6667690" lon="12.3141718">
<ele>48.045</ele>
<time>2013-08-21T13:58:41.537Z</time>
</trkpt>
<trkpt lat="53.6668648" lon="12.3142784">
<ele>48.933</ele>
<time>2013-08-21T13:58:44.683Z</time>
</trkpt>
<trkpt lat="53.6669549" lon="12.3143688">
<ele>50.031</ele>
<time>2013-08-21T13:58:47.518Z</time>
</trkpt>
<trkpt lat="53.6670452" lon="12.3144615">
<ele>51.308</ele>
<time>2013-08-21T13:58:50.398Z</time>
</trkpt>
<trkpt lat="53.6671420" lon="12.3145655">
<ele>52.520</ele>
<time>2013-08-21T13:58:53.596Z</time>
</trkpt>
<trkpt lat="53.6672331" lon="12.3146579">
<ele>53.735</ele>
<time>2013-08-21T13:58:56.508Z</time>
</trkpt>
<trkpt lat="53.6673192" lon="12.3147468">
<ele>55.256</ele>
<time>2013-08-21T13:58:59.217Z</time>
</trkpt>
<trkpt lat="53.6674065" lon="12.3148361">
<ele>56.822</ele>
<time>2013-08-21T13:59:01.990Z</time>
</trkpt>
<trkpt lat="53.6674630" lon="12.3149911">
<ele>57.969</ele>
<time>2013-08-21T13:59:04.904Z</time>
</trkpt>
<trkpt lat="53.6674773" lon="12.3151807">
<ele>58.214</ele>
<time>2013-08-21T13:59:07.865Z</time>
</trkpt>
<trkpt lat="53.6674886" lon="12.3153722">
<ele>57.376</ele>
<time>2013-08-21T13:59:10.715Z</time>
</trkpt>
<trkpt lat="53.6675053" lon="12.3155515">
<ele>55.692</ele>
<time>2013-08-21T13:59:13.471Z</time>
</trkpt>
<trkpt lat="53.6675307" lon="12.3157595">
<ele>53.733</ele>
<time>2013-08-21T13:59:17.178Z</time>
</trkpt>
<trkpt lat="53.6675637" lon="12.3159919">
<ele>52.309</ele>
<time>2013-08-21T13:59:21.511Z</time>
</trkpt>
<trkpt lat="53.6675919" lon="12.3162011">
<ele>52.197</ele>
<time>2013-08-21T13:59:24.744Z</time>
</trkpt>
<trkpt lat="53.6676166" lon="12.3163967">
<ele>53.260</ele>
<time>2013-08-21T13:59:27.533Z</time>
</trkpt>
<trkpt lat="53.6676418" lon="12.3166238">
<ele>54.293</ele>
<time>2013-08-21T13:59:30.688Z</time>
</trkpt>
<trkpt lat="53.6676808" lon="12.3168692">
<ele>54.376</ele>
<time>2013-08-21T13:59:34.091Z</time>
</trkpt>
<trkpt lat="53.6677108" lon="12.3171040">
<ele>53.905</ele>
<time>2013-08-21T13:59:37.211Z</time>
</trkpt>
<trkpt lat="53.6677390" lon="12.3172671">
<ele>54.311</ele>
<time>2013-08-21T13:59:39.367Z</time>
</trkpt>
<trkpt lat="53.6677808" lon="12.3175082">
<ele>56.681</ele>
<time>2013-08-21T13:59:42.468Z</time>
</trkpt>
<trkpt lat="53.6678165" lon="12.3177181">
<ele>59.966</ele>
<time>2013-08-21T13:59:45.173Z</time>
</trkpt>
<trkpt lat="53.6678514" lon="12.3179359">
<ele>61.686</ele>
<time>2013-08-21T13:59:48.046Z</time>
</trkpt>
<trkpt lat="53.6678720" lon="12.3181037">
<ele>60.903</ele>
<time>2013-08-21T13:59:50.257Z</time>
</trkpt>
<trkpt lat="53.6679000" lon="12.3182758">
<ele>59.149</ele>
<time>2013-08-21T13:59:52.493Z</time>
</trkpt>
<trkpt lat="53.6679227" lon="12.3184344">
<ele>57.974</ele>
<time>2013-08-21T13:59:54.459Z</time>
</trkpt>
<trkpt lat="53.6679509" lon="12.3186497">
<ele>57.335</ele>
<time>2013-08-21T13:59:57.099Z</time>
</trkpt>
<trkpt lat="53.6679810" lon="12.3188142">
<ele>56.750</ele>
<time>2013-08-21T13:59:59.179Z</time>
</trkpt>
<trkpt lat="53.6680010" lon="12.3190557">
<ele>56.124</ele>
<time>2013-08-21T14:00:02.236Z</time>
</trkpt>
<trkpt lat="53.6680163" lon="12.3192065">
<ele>55.943</ele>
<time>2013-08-21T14:00:04.194Z</time>
</trkpt>
<trkpt lat="53.6680431" lon="12.3194372">
<ele>56.581</ele>
<time>2013-08-21T14:00:07.110Z</time>
</trkpt>
<trkpt lat="53.6680696" lon="12.3197321">
<ele>57.113</ele>
<time>2013-08-21T14:00:10.346Z</time>
</trkpt>
<trkpt lat="53.6681179" lon="12.3200683">
<ele>56.362</ele>
<time>2013-08-21T14:00:13.545Z</time>
</trkpt>
<trkpt lat="53.6681643" lon="12.3203397">
<ele>54.628</ele>
<time>2013-08-21T14:00:15.950Z</time>
</trkpt>
<trkpt lat="53.6682278" lon="12.3207318">
<ele>53.161</ele>
<time>2013-08-21T14:00:19.159Z</time>
</trkpt>
<trkpt lat="53.6682693" lon="12.3210220">
<ele>52.568</ele>
<time>2013-08-21T14:00:21.350Z</time>
</trkpt>
<trkpt lat="53.6683037" lon="12.3212796">
<ele>52.568</ele>
<time>2013-08-21T14:00:23.270Z</time>
</trkpt>
<trkpt lat="53.6683355" lon="12.3215334">
<ele>52.972</ele>
<time>2013-08-21T14:00:25.223Z</time>
</trkpt>
<trkpt lat="53.6683730" lon="12.3217972">
<ele>53.679</ele>
<time>2013-08-21T14:00:27.285Z</time>
</trkpt>
<trkpt lat="53.6684372" lon="12.3222152">
<ele>54.510</ele>
<time>2013-08-21T14:00:30.653Z</time>
</trkpt>
<trkpt lat="53.6685026" lon="12.3225405">
<ele>55.005</ele>
<time>2013-08-21T14:00:33.623Z</time>
</trkpt>
<trkpt lat="53.6685403" lon="12.3227744">
<ele>54.442</ele>
<time>2013-08-21T14:00:36.101Z</time>
</trkpt>
<trkpt lat="53.6685871" lon="12.3230612">
<ele>52.900</ele>
<time>2013-08-21T14:00:39.361Z</time>
</trkpt>
<trkpt lat="53.6686225" lon="12.3232901">
<ele>51.125</ele>
<time>2013-08-21T14:00:41.832Z</time>
</trkpt>
<trkpt lat="53.6686549" lon="12.3234976">
<ele>49.333</ele>
<time>2013-08-21T14:00:43.873Z</time>
</trkpt>
<trkpt lat="53.6687137" lon="12.3238161">
<ele>47.780</ele>
<time>2013-08-21T14:00:46.960Z</time>
</trkpt>
<trkpt lat="53.6687748" lon="12.3241314">
<ele>46.935</ele>
<time>2013-08-21T14:00:50.161Z</time>
</trkpt>
<trkpt lat="53.6688294" lon="12.3244131">
<ele>46.904</ele>
<time>2013-08-21T14:00:53.193Z</time>
</trkpt>
<trkpt lat="53.6688608" lon="12.3246703">
<ele>47.771</ele>
<time>2013-08-21T14:00:56.007Z</time>
</trkpt>
<trkpt lat="53.6688758" lon="12.3248450">
<ele>49.294</ele>
<time>2013-08-21T14:00:57.904Z</time>
</trkpt>
<trkpt lat="53.6688991" lon="12.3251125">
<ele>50.725</ele>
<time>2013-08-21T14:01:00.765Z</time>
</trkpt>
<trkpt lat="53.6689187" lon="12.3253889">
<ele>51.794</ele>
<time>2013-08-21T14:01:03.683Z</time>
</trkpt>
<trkpt lat="53.6689272" lon="12.3255604">
<ele>52.669</ele>
<time>2013-08-21T14:01:05.516Z</time>
</trkpt>
<trkpt lat="53.6689444" lon="12.3258063">
<ele>53.404</ele>
<time>2013-08-21T14:01:08.269Z</time>
</trkpt>
<trkpt lat="53.6689647" lon="12.3260732">
<ele>54.021</ele>
<time>2013-08-21T14:01:11.292Z</time>
</trkpt>
<trkpt lat="53.6689840" lon="12.3263276">
<ele>54.444</ele>
<time>2013-08-21T14:01:14.137Z</time>
</trkpt>
<trkpt lat="53.6689973" lon="12.3265058">
<ele>54.628</ele>
<time>2013-08-21T14:01:16.096Z</time>
</trkpt>
<trkpt lat="53.6690145" lon="12.3266789">
<ele>54.767</ele>
<time>2013-08-21T14:01:18.050Z</time>
</trkpt>
<trkpt lat="53.6690221" lon="12.3269325">
<ele>54.897</ele>
<time>2013-08-21T14:01:21.059Z</time>
</trkpt>
<trkpt lat="53.6690244" lon="12.3271072">
<ele>54.931</ele>
<time>2013-08-21T14:01:23.112Z</time>
</trkpt>
<trkpt lat="53.6690321" lon="12.3272734">
<ele>54.900</ele>
<time>2013-08-21T14:01:24.990Z</time>
</trkpt>
<trkpt lat="53.6690578" lon="12.3275346">
<ele>54.965</ele>
<time>2013-08-21T14:01:27.864Z</time>
</trkpt>
<trkpt lat="53.6690732" lon="12.3277107">
<ele>55.295</ele>
<time>2013-08-21T14:01:29.766Z</time>
</trkpt>
<trkpt lat="53.6690906" lon="12.3278785">
<ele>55.850</ele>
<time>2013-08-21T14:01:31.603Z</time>
</trkpt>
<trkpt lat="53.6691060" lon="12.3280463">
<ele>56.365</ele>
<time>2013-08-21T14:01:33.494Z</time>
</trkpt>
<trkpt lat="53.6691289" lon="12.3283024">
<ele>56.893</ele>
<time>2013-08-21T14:01:36.421Z</time>
</trkpt>
<trkpt lat="53.6691429" lon="12.3284880">
<ele>57.580</ele>
<time>2013-08-21T14:01:38.471Z</time>
</trkpt>
<trkpt lat="53.6691604" lon="12.3287437">
<ele>58.144</ele>
<time>2013-08-21T14:01:41.205Z</time>
</trkpt>
<trkpt lat="53.6691720" lon="12.3289056">
<ele>58.314</ele>
<time>2013-08-21T14:01:42.962Z</time>
</trkpt>
<trkpt lat="53.6691836" lon="12.3291263">
<ele>58.215</ele>
<time>2013-08-21T14:01:45.530Z</time>
</trkpt>
<trkpt lat="53.6691904" lon="12.3293550">
<ele>57.913</ele>
<time>2013-08-21T14:01:48.311Z</time>
</trkpt>
<trkpt lat="53.6692045" lon="12.3295926">
<ele>57.419</ele>
<time>2013-08-21T14:01:51.359Z</time>
</trkpt>
<trkpt lat="53.6692096" lon="12.3297581">
<ele>56.971</ele>
<time>2013-08-21T14:01:53.518Z</time>
</trkpt>
<trkpt lat="53.6692286" lon="12.3300394">
<ele>56.766</ele>
<time>2013-08-21T14:01:57.012Z</time>
</trkpt>
<trkpt lat="53.6692409" lon="12.3302119">
<ele>56.538</ele>
<time>2013-08-21T14:01:59.027Z</time>
</trkpt>
<trkpt lat="53.6692558" lon="12.3305248">
<ele>55.863</ele>
<time>2013-08-21T14:02:02.372Z</time>
</trkpt>
<trkpt lat="53.6692718" lon="12.3308210">
<ele>54.839</ele>
<time>2013-08-21T14:02:05.407Z</time>
</trkpt>
<trkpt lat="53.6692899" lon="12.3310274">
<ele>54.352</ele>
<time>2013-08-21T14:02:07.478Z</time>
</trkpt>
<trkpt lat="53.6693111" lon="12.3313340">
<ele>54.889</ele>
<time>2013-08-21T14:02:10.435Z</time>
</trkpt>
<trkpt lat="53.6693258" lon="12.3315175">
<ele>55.770</ele>
<time>2013-08-21T14:02:12.208Z</time>
</trkpt>
<trkpt lat="53.6693392" lon="12.3316932">
<ele>56.133</ele>
<time>2013-08-21T14:02:13.963Z</time>
</trkpt>
<trkpt lat="53.6693547" lon="12.3319146">
<ele>55.847</ele>
<time>2013-08-21T14:02:16.396Z</time>
</trkpt>
<trkpt lat="53.6693677" lon="12.3320659">
<ele>55.362</ele>
<time>2013-08-21T14:02:18.206Z</time>
</trkpt>
<trkpt lat="53.6693864" lon="12.3322786">
<ele>55.417</ele>
<time>2013-08-21T14:02:20.988Z</time>
</trkpt>
<trkpt lat="53.6693980" lon="12.3324600">
<ele>56.358</ele>
<time>2013-08-21T14:02:23.515Z</time>
</trkpt>
<trkpt lat="53.6694065" lon="12.3326286">
<ele>57.653</ele>
<time>2013-08-21T14:02:26.002Z</time>
</trkpt>
<trkpt lat="53.6694172" lon="12.3328117">
<ele>58.296</ele>
<time>2013-08-21T14:02:28.833Z</time>
</trkpt>
<trkpt lat="53.6694273" lon="12.3330635">
<ele>57.902</ele>
<time>2013-08-21T14:02:32.745Z</time>
</trkpt>
<trkpt lat="53.6694214" lon="12.3333531">
<ele>56.932</ele>
<time>2013-08-21T14:02:36.558Z</time>
</trkpt>
<trkpt lat="53.6694262" lon="12.3335732">
<ele>55.870</ele>
<time>2013-08-21T14:02:38.979Z</time>
</trkpt>
<trkpt lat="53.6694519" lon="12.3339436">
<ele>54.908</ele>
<time>2013-08-21T14:02:42.330Z</time>
</trkpt>
<trkpt lat="53.6694724" lon="12.3341828">
<ele>54.301</ele>
<time>2013-08-21T14:02:44.375Z</time>
</trkpt>
<trkpt lat="53.6694910" lon="12.3345555">
<ele>54.115</ele>
<time>2013-08-21T14:02:47.455Z</time>
</trkpt>
<trkpt lat="53.6694984" lon="12.3348176">
<ele>53.888</ele>
<time>2013-08-21T14:02:49.577Z</time>
</trkpt>
<trkpt lat="53.6695123" lon="12.3351909">
<ele>53.270</ele>
<time>2013-08-21T14:02:52.532Z</time>
</trkpt>
<trkpt lat="53.6695353" lon="12.3355785">
<ele>52.246</ele>
<time>2013-08-21T14:02:55.593Z</time>
</trkpt>
<trkpt lat="53.6695463" lon="12.3358277">
<ele>51.022</ele>
<time>2013-08-21T14:02:57.554Z</time>
</trkpt>
<trkpt lat="53.6695486" lon="12.3362047">
<ele>50.154</ele>
<time>2013-08-21T14:03:00.522Z</time>
</trkpt>
<trkpt lat="53.6695541" lon="12.3365406">
<ele>50.131</ele>
<time>2013-08-21T14:03:03.213Z</time>
</trkpt>
<trkpt lat="53.6695670" lon="12.3368357">
<ele>50.551</ele>
<time>2013-08-21T14:03:05.703Z</time>
</trkpt>
<trkpt lat="53.6695739" lon="12.3370261">
<ele>50.860</ele>
<time>2013-08-21T14:03:07.406Z</time>
</trkpt>
<trkpt lat="53.6695528" lon="12.3372737">
<ele>51.018</ele>
<time>2013-08-21T14:03:09.866Z</time>
</trkpt>
<trkpt lat="53.6695720" lon="12.3375290">
<ele>51.215</ele>
<time>2013-08-21T14:03:12.661Z</time>
</trkpt>
<trkpt lat="53.6695883" lon="12.3377950">
<ele>51.561</ele>
<time>2013-08-21T14:03:15.715Z</time>
</trkpt>
<trkpt lat="53.6695944" lon="12.3379657">
<ele>52.032</ele>
<time>2013-08-21T14:03:17.610Z</time>
</trkpt>
<trkpt lat="53.6696059" lon="12.3381244">
<ele>52.309</ele>
<time>2013-08-21T14:03:19.381Z</time>
</trkpt>
<trkpt lat="53.6696134" lon="12.3383808">
<ele>51.903</ele>
<time>2013-08-21T14:03:22.263Z</time>
</trkpt>
<trkpt lat="53.6696208" lon="12.3386504">
<ele>50.218</ele>
<time>2013-08-21T14:03:25.367Z</time>
</trkpt>
<trkpt lat="53.6696449" lon="12.3389903">
<ele>47.571</ele>
<time>2013-08-21T14:03:29.287Z</time>
</trkpt>
<trkpt lat="53.6696661" lon="12.3393071">
<ele>45.384</ele>
<time>2013-08-21T14:03:32.617Z</time>
</trkpt>
<trkpt lat="53.6696789" lon="12.3395142">
<ele>44.561</ele>
<time>2013-08-21T14:03:34.663Z</time>
</trkpt>
<trkpt lat="53.6696817" lon="12.3396955">
<ele>44.947</ele>
<time>2013-08-21T14:03:36.403Z</time>
</trkpt>
<trkpt lat="53.6696632" lon="12.3400033">
<ele>45.921</ele>
<time>2013-08-21T14:03:39.530Z</time>
</trkpt>
<trkpt lat="53.6696459" lon="12.3403505">
<ele>46.847</ele>
<time>2013-08-21T14:03:43.092Z</time>
</trkpt>
<trkpt lat="53.6696324" lon="12.3406139">
<ele>47.593</ele>
<time>2013-08-21T14:03:45.835Z</time>
</trkpt>
<trkpt lat="53.6696228" lon="12.3407738">
<ele>48.822</ele>
<time>2013-08-21T14:03:47.598Z</time>
</trkpt>
<trkpt lat="53.6695324" lon="12.3409741">
<ele>50.776</ele>
<time>2013-08-21T14:03:51.018Z</time>
</trkpt>
<trkpt lat="53.6694405" lon="12.3411115">
<ele>52.506</ele>
<time>2013-08-21T14:03:53.895Z</time>
</trkpt>
<trkpt lat="53.6693929" lon="12.3412605">
<ele>53.230</ele>
<time>2013-08-21T14:03:56.134Z</time>
</trkpt>
<trkpt lat="53.6692898" lon="12.3414853">
<ele>53.513</ele>
<time>2013-08-21T14:03:59.538Z</time>
</trkpt>
<trkpt lat="53.6692141" lon="12.3416098">
<ele>53.994</ele>
<time>2013-08-21T14:04:01.582Z</time>
</trkpt>
<trkpt lat="53.6691320" lon="12.3418050">
<ele>54.621</ele>
<time>2013-08-21T14:04:04.395Z</time>
</trkpt>
<trkpt lat="53.6690664" lon="12.3420126">
<ele>55.021</ele>
<time>2013-08-21T14:04:07.388Z</time>
</trkpt>
<trkpt lat="53.6690158" lon="12.3422294">
<ele>54.794</ele>
<time>2013-08-21T14:04:10.620Z</time>
</trkpt>
<trkpt lat="53.6689584" lon="12.3424297">
<ele>53.605</ele>
<time>2013-08-21T14:04:13.815Z</time>
</trkpt>
<trkpt lat="53.6688756" lon="12.3425973">
<ele>51.373</ele>
<time>2013-08-21T14:04:16.917Z</time>
</trkpt>
<trkpt lat="53.6688064" lon="12.3427207">
<ele>48.694</ele>
<time>2013-08-21T14:04:19.391Z</time>
</trkpt>
<trkpt lat="53.6687898" lon="12.3429468">
<ele>47.577</ele>
<time>2013-08-21T14:04:22.762Z</time>
</trkpt>
<trkpt lat="53.6687495" lon="12.3430883">
<ele>49.021</ele>
<time>2013-08-21T14:04:24.927Z</time>
</trkpt>
<trkpt lat="53.6686646" lon="12.3432257">
<ele>51.184</ele>
<time>2013-08-21T14:04:27.636Z</time>
</trkpt>
<trkpt lat="53.6685651" lon="12.3434606">
<ele>51.593</ele>
<time>2013-08-21T14:04:31.563Z</time>
</trkpt>
<trkpt lat="53.6685223" lon="12.3436664">
<ele>49.931</ele>
<time>2013-08-21T14:04:34.297Z</time>
</trkpt>
<trkpt lat="53.6684488" lon="12.3439277">
<ele>47.855</ele>
<time>2013-08-21T14:04:37.718Z</time>
</trkpt>
<trkpt lat="53.6683789" lon="12.3440871">
<ele>47.227</ele>
<time>2013-08-21T14:04:39.991Z</time>
</trkpt>
<trkpt lat="53.6682902" lon="12.3443545">
<ele>48.216</ele>
<time>2013-08-21T14:04:43.364Z</time>
</trkpt>
<trkpt lat="53.6681683" lon="12.3444962">
<ele>49.446</ele>
<time>2013-08-21T14:04:46.053Z</time>
</trkpt>
<trkpt lat="53.6680533" lon="12.3446318">
<ele>49.680</ele>
<time>2013-08-21T14:04:48.314Z</time>
</trkpt>
<trkpt lat="53.6678982" lon="12.3446917">
<ele>49.083</ele>
<time>2013-08-21T14:04:50.838Z</time>
</trkpt>
<trkpt lat="53.6677714" lon="12.3447773">
<ele>48.304</ele>
<time>2013-08-21T14:04:53.246Z</time>
</trkpt>
<trkpt lat="53.6676271" lon="12.3448778">
<ele>47.787</ele>
<time>2013-08-21T14:04:56.224Z</time>
</trkpt>
<trkpt lat="53.6675164" lon="12.3449556">
<ele>47.880</ele>
<time>2013-08-21T14:04:58.574Z</time>
</trkpt>
<trkpt lat="53.6673721" lon="12.3450734">
<ele>49.116</ele>
<time>2013-08-21T14:05:01.856Z</time>
</trkpt>
<trkpt lat="53.6672549" lon="12.3451890">
<ele>51.289</ele>
<time>2013-08-21T14:05:04.743Z</time>
</trkpt>
<trkpt lat="53.6671712" lon="12.3452592">
<ele>52.970</ele>
<time>2013-08-21T14:05:06.645Z</time>
</trkpt>
<trkpt lat="53.6670472" lon="12.3453782">
<ele>53.133</ele>
<time>2013-08-21T14:05:09.489Z</time>
</trkpt>
<trkpt lat="53.6669704" lon="12.3454670">
<ele>52.044</ele>
<time>2013-08-21T14:05:11.345Z</time>
</trkpt>
<trkpt lat="53.6668697" lon="12.3455879">
<ele>50.253</ele>
<time>2013-08-21T14:05:13.861Z</time>
</trkpt>
<trkpt lat="53.6667919" lon="12.3456871">
<ele>48.716</ele>
<time>2013-08-21T14:05:15.942Z</time>
</trkpt>
<trkpt lat="53.6667047" lon="12.3458023">
<ele>48.468</ele>
<time>2013-08-21T14:05:18.367Z</time>
</trkpt>
<trkpt lat="53.6666251" lon="12.3459464">
<ele>49.483</ele>
<time>2013-08-21T14:05:20.982Z</time>
</trkpt>
<trkpt lat="53.6665355" lon="12.3461597">
<ele>50.635</ele>
<time>2013-08-21T14:05:24.329Z</time>
</trkpt>
<trkpt lat="53.6664642" lon="12.3463954">
<ele>50.992</ele>
<time>2013-08-21T14:05:27.484Z</time>
</trkpt>
<trkpt lat="53.6664213" lon="12.3465625">
<ele>50.401</ele>
<time>2013-08-21T14:05:29.567Z</time>
</trkpt>
<trkpt lat="53.6663523" lon="12.3467883">
<ele>49.365</ele>
<time>2013-08-21T14:05:32.467Z</time>
</trkpt>
<trkpt lat="53.6662708" lon="12.3469983">
<ele>48.519</ele>
<time>2013-08-21T14:05:35.467Z</time>
</trkpt>
<trkpt lat="53.6661960" lon="12.3471632">
<ele>48.180</ele>
<time>2013-08-21T14:05:38.210Z</time>
</trkpt>
<trkpt lat="53.6661284" lon="12.3473078">
<ele>48.229</ele>
<time>2013-08-21T14:05:40.974Z</time>
</trkpt>
<trkpt lat="53.6660614" lon="12.3474375">
<ele>48.474</ele>
<time>2013-08-21T14:05:43.763Z</time>
</trkpt>
<trkpt lat="53.6659961" lon="12.3475679">
<ele>48.704</ele>
<time>2013-08-21T14:05:46.682Z</time>
</trkpt>
<trkpt lat="53.6659358" lon="12.3476835">
<ele>48.810</ele>
<time>2013-08-21T14:05:49.667Z</time>
</trkpt>
<trkpt lat="53.6659358" lon="12.3476835">
<ele>48.821</ele>
<time>2013-08-21T14:05:54.681Z</time>
</trkpt>
<trkpt lat="53.6659358" lon="12.3476835">
<ele>48.792</ele>
<time>2013-08-21T14:07:03.372Z</time>
</trkpt>
<trkpt lat="53.6658783" lon="12.3481192">
<ele>48.765</ele>
<time>2013-08-21T14:07:19.974Z</time>
</trkpt>
<trkpt lat="53.6658094" lon="12.3482496">
<ele>48.756</ele>
<time>2013-08-21T14:07:23.109Z</time>
</trkpt>
<trkpt lat="53.6657356" lon="12.3483821">
<ele>48.561</ele>
<time>2013-08-21T14:07:25.977Z</time>
</trkpt>
<trkpt lat="53.6656545" lon="12.3485629">
<ele>48.053</ele>
<time>2013-08-21T14:07:29.427Z</time>
</trkpt>
<trkpt lat="53.6655819" lon="12.3486806">
<ele>47.680</ele>
<time>2013-08-21T14:07:32.056Z</time>
</trkpt>
<trkpt lat="53.6654967" lon="12.3487759">
<ele>47.835</ele>
<time>2013-08-21T14:07:34.693Z</time>
</trkpt>
<trkpt lat="53.6653982" lon="12.3488348">
<ele>48.232</ele>
<time>2013-08-21T14:07:37.189Z</time>
</trkpt>
<trkpt lat="53.6652833" lon="12.3488381">
<ele>48.412</ele>
<time>2013-08-21T14:07:39.564Z</time>
</trkpt>
<trkpt lat="53.6651417" lon="12.3488489">
<ele>47.700</ele>
<time>2013-08-21T14:07:42.076Z</time>
</trkpt>
<trkpt lat="53.6650372" lon="12.3488581">
<ele>45.482</ele>
<time>2013-08-21T14:07:43.805Z</time>
</trkpt>
<trkpt lat="53.6648627" lon="12.3488794">
<ele>42.555</ele>
<time>2013-08-21T14:07:46.661Z</time>
</trkpt>
<trkpt lat="53.6646996" lon="12.3489081">
<ele>41.014</ele>
<time>2013-08-21T14:07:49.391Z</time>
</trkpt>
<trkpt lat="53.6646016" lon="12.3489241">
<ele>41.745</ele>
<time>2013-08-21T14:07:51.094Z</time>
</trkpt>
<trkpt lat="53.6644947" lon="12.3489513">
<ele>43.456</ele>
<time>2013-08-21T14:07:53.015Z</time>
</trkpt>
<trkpt lat="53.6643472" lon="12.3489756">
<ele>44.508</ele>
<time>2013-08-21T14:07:55.717Z</time>
</trkpt>
<trkpt lat="53.6642525" lon="12.3489902">
<ele>44.465</ele>
<time>2013-08-21T14:07:57.556Z</time>
</trkpt>
<trkpt lat="53.6641423" lon="12.3490045">
<ele>43.693</ele>
<time>2013-08-21T14:07:59.792Z</time>
</trkpt>
<trkpt lat="53.6639940" lon="12.3490307">
<ele>42.629</ele>
<time>2013-08-21T14:08:03.189Z</time>
</trkpt>
<trkpt lat="53.6639006" lon="12.3490614">
<ele>41.623</ele>
<time>2013-08-21T14:08:05.681Z</time>
</trkpt>
<trkpt lat="53.6639006" lon="12.3490614">
<ele>41.091</ele>
<time>2013-08-21T14:08:09.677Z</time>
</trkpt>
<trkpt lat="53.6639006" lon="12.3490614">
<ele>41.120</ele>
<time>2013-08-21T14:09:07.380Z</time>
</trkpt>
<trkpt lat="53.6637074" lon="12.3490931">
<ele>41.344</ele>
<time>2013-08-21T14:09:19.738Z</time>
</trkpt>
<trkpt lat="53.6635909" lon="12.3491224">
<ele>41.456</ele>
<time>2013-08-21T14:09:22.749Z</time>
</trkpt>
<trkpt lat="53.6634659" lon="12.3491427">
<ele>41.534</ele>
<time>2013-08-21T14:09:25.668Z</time>
</trkpt>
<trkpt lat="53.6633396" lon="12.3491632">
<ele>41.780</ele>
<time>2013-08-21T14:09:28.634Z</time>
</trkpt>
<trkpt lat="53.6632125" lon="12.3491869">
<ele>42.475</ele>
<time>2013-08-21T14:09:31.430Z</time>
</trkpt>
<trkpt lat="53.6630880" lon="12.3492195">
<ele>43.608</ele>
<time>2013-08-21T14:09:33.784Z</time>
</trkpt>
<trkpt lat="53.6629304" lon="12.3492360">
<ele>44.389</ele>
<time>2013-08-21T14:09:36.385Z</time>
</trkpt>
<trkpt lat="53.6627229" lon="12.3492652">
<ele>43.625</ele>
<time>2013-08-21T14:09:39.548Z</time>
</trkpt>
<trkpt lat="53.6625981" lon="12.3492763">
<ele>41.427</ele>
<time>2013-08-21T14:09:41.497Z</time>
</trkpt>
<trkpt lat="53.6624876" lon="12.3492795">
<ele>39.627</ele>
<time>2013-08-21T14:09:43.345Z</time>
</trkpt>
<trkpt lat="53.6623355" lon="12.3492800">
<ele>39.415</ele>
<time>2013-08-21T14:09:45.989Z</time>
</trkpt>
<trkpt lat="53.6622319" lon="12.3492741">
<ele>40.204</ele>
<time>2013-08-21T14:09:47.898Z</time>
</trkpt>
<trkpt lat="53.6621271" lon="12.3492671">
<ele>41.571</ele>
<time>2013-08-21T14:09:49.875Z</time>
</trkpt>
<trkpt lat="53.6619623" lon="12.3492346">
<ele>43.610</ele>
<time>2013-08-21T14:09:52.999Z</time>
</trkpt>
<trkpt lat="53.6618544" lon="12.3492151">
<ele>45.824</ele>
<time>2013-08-21T14:09:55.055Z</time>
</trkpt>
<trkpt lat="53.6617175" lon="12.3492073">
<ele>47.287</ele>
<time>2013-08-21T14:09:57.790Z</time>
</trkpt>
<trkpt lat="53.6615901" lon="12.3492113">
<ele>47.309</ele>
<time>2013-08-21T14:10:00.646Z</time>
</trkpt>
<trkpt lat="53.6614874" lon="12.3492172">
<ele>45.937</ele>
<time>2013-08-21T14:10:03.213Z</time>
</trkpt>
<trkpt lat="53.6613725" lon="12.3492305">
<ele>44.164</ele>
<time>2013-08-21T14:10:06.123Z</time>
</trkpt>
<trkpt lat="53.6612501" lon="12.3493024">
<ele>43.423</ele>
<time>2013-08-21T14:10:09.113Z</time>
</trkpt>
<trkpt lat="53.6611651" lon="12.3493515">
<ele>44.124</ele>
<time>2013-08-21T14:10:11.007Z</time>
</trkpt>
<trkpt lat="53.6610224" lon="12.3494242">
<ele>45.272</ele>
<time>2013-08-21T14:10:13.871Z</time>
</trkpt>
<trkpt lat="53.6608639" lon="12.3494933">
<ele>45.897</ele>
<time>2013-08-21T14:10:16.778Z</time>
</trkpt>
<trkpt lat="53.6606905" lon="12.3495508">
<ele>45.761</ele>
<time>2013-08-21T14:10:19.745Z</time>
</trkpt>
<trkpt lat="53.6605206" lon="12.3496212">
<ele>45.020</ele>
<time>2013-08-21T14:10:22.675Z</time>
</trkpt>
<trkpt lat="53.6604080" lon="12.3496778">
<ele>44.220</ele>
<time>2013-08-21T14:10:24.727Z</time>
</trkpt>
<trkpt lat="53.6603185" lon="12.3497190">
<ele>43.861</ele>
<time>2013-08-21T14:10:26.540Z</time>
</trkpt>
<trkpt lat="53.6601928" lon="12.3497638">
<ele>44.233</ele>
<time>2013-08-21T14:10:29.429Z</time>
</trkpt>
<trkpt lat="53.6600962" lon="12.3497894">
<ele>45.497</ele>
<time>2013-08-21T14:10:31.585Z</time>
</trkpt>
<trkpt lat="53.6599805" lon="12.3498256">
<ele>47.007</ele>
<time>2013-08-21T14:10:33.931Z</time>
</trkpt>
<trkpt lat="53.6598312" lon="12.3498931">
<ele>48.155</ele>
<time>2013-08-21T14:10:36.896Z</time>
</trkpt>
<trkpt lat="53.6597401" lon="12.3499106">
<ele>49.113</ele>
<time>2013-08-21T14:10:38.672Z</time>
</trkpt>
<trkpt lat="53.6596101" lon="12.3499203">
<ele>49.870</ele>
<time>2013-08-21T14:10:41.323Z</time>
</trkpt>
<trkpt lat="53.6594768" lon="12.3499084">
<ele>49.016</ele>
<time>2013-08-21T14:10:44.153Z</time>
</trkpt>
<trkpt lat="53.6593858" lon="12.3498753">
<ele>46.027</ele>
<time>2013-08-21T14:10:46.130Z</time>
</trkpt>
<trkpt lat="53.6592980" lon="12.3498331">
<ele>43.031</ele>
<time>2013-08-21T14:10:48.023Z</time>
</trkpt>
<trkpt lat="53.6591775" lon="12.3497559">
<ele>41.968</ele>
<time>2013-08-21T14:10:50.685Z</time>
</trkpt>
<trkpt lat="53.6590879" lon="12.3497008">
<ele>42.389</ele>
<time>2013-08-21T14:10:52.660Z</time>
</trkpt>
<trkpt lat="53.6589478" lon="12.3496077">
<ele>43.537</ele>
<time>2013-08-21T14:10:55.750Z</time>
</trkpt>
<trkpt lat="53.6588263" lon="12.3495390">
<ele>44.887</ele>
<time>2013-08-21T14:10:58.475Z</time>
</trkpt>
<trkpt lat="53.6587161" lon="12.3494789">
<ele>45.839</ele>
<time>2013-08-21T14:11:01.133Z</time>
</trkpt>
<trkpt lat="53.6586174" lon="12.3493941">
<ele>46.200</ele>
<time>2013-08-21T14:11:03.917Z</time>
</trkpt>
<trkpt lat="53.6585297" lon="12.3493001">
<ele>46.086</ele>
<time>2013-08-21T14:11:06.757Z</time>
</trkpt>
<trkpt lat="53.6584397" lon="12.3491824">
<ele>45.611</ele>
<time>2013-08-21T14:11:10.270Z</time>
</trkpt>
<trkpt lat="53.6583380" lon="12.3491213">
<ele>45.108</ele>
<time>2013-08-21T14:11:14.150Z</time>
</trkpt>
<trkpt lat="53.6582339" lon="12.3490587">
<ele>45.093</ele>
<time>2013-08-21T14:11:18.175Z</time>
</trkpt>
<trkpt lat="53.6580943" lon="12.3489768">
<ele>45.704</ele>
<time>2013-08-21T14:11:22.224Z</time>
</trkpt>
<trkpt lat="53.6580112" lon="12.3489147">
<ele>46.497</ele>
<time>2013-08-21T14:11:24.317Z</time>
</trkpt>
<trkpt lat="53.6578879" lon="12.3488373">
<ele>46.615</ele>
<time>2013-08-21T14:11:27.309Z</time>
</trkpt>
<trkpt lat="53.6577749" lon="12.3487659">
<ele>45.737</ele>
<time>2013-08-21T14:11:30.105Z</time>
</trkpt>
<trkpt lat="53.6576789" lon="12.3487057">
<ele>44.549</ele>
<time>2013-08-21T14:11:32.423Z</time>
</trkpt>
<trkpt lat="53.6575476" lon="12.3486247">
<ele>43.883</ele>
<time>2013-08-21T14:11:35.451Z</time>
</trkpt>
<trkpt lat="53.6574440" lon="12.3485574">
<ele>43.899</ele>
<time>2013-08-21T14:11:37.979Z</time>
</trkpt>
<trkpt lat="53.6573347" lon="12.3484757">
<ele>44.313</ele>
<time>2013-08-21T14:11:40.775Z</time>
</trkpt>
<trkpt lat="53.6572034" lon="12.3484025">
<ele>44.918</ele>
<time>2013-08-21T14:11:43.911Z</time>
</trkpt>
<trkpt lat="53.6571148" lon="12.3483340">
<ele>45.639</ele>
<time>2013-08-21T14:11:46.021Z</time>
</trkpt>
<trkpt lat="53.6569919" lon="12.3482208">
<ele>45.974</ele>
<time>2013-08-21T14:11:48.929Z</time>
</trkpt>
<trkpt lat="53.6569121" lon="12.3481450">
<ele>45.483</ele>
<time>2013-08-21T14:11:50.795Z</time>
</trkpt>
<trkpt lat="53.6568266" lon="12.3480510">
<ele>44.614</ele>
<time>2013-08-21T14:11:52.819Z</time>
</trkpt>
<trkpt lat="53.6567395" lon="12.3479498">
<ele>44.087</ele>
<time>2013-08-21T14:11:54.852Z</time>
</trkpt>
<trkpt lat="53.6566514" lon="12.3478446">
<ele>44.075</ele>
<time>2013-08-21T14:11:56.919Z</time>
</trkpt>
<trkpt lat="53.6565399" lon="12.3476880">
<ele>44.261</ele>
<time>2013-08-21T14:11:59.838Z</time>
</trkpt>
<trkpt lat="53.6564550" lon="12.3475170">
<ele>44.348</ele>
<time>2013-08-21T14:12:02.649Z</time>
</trkpt>
<trkpt lat="53.6564032" lon="12.3473858">
<ele>44.273</ele>
<time>2013-08-21T14:12:04.688Z</time>
</trkpt>
<trkpt lat="53.6563267" lon="12.3471929">
<ele>43.798</ele>
<time>2013-08-21T14:12:07.681Z</time>
</trkpt>
<trkpt lat="53.6562573" lon="12.3470102">
<ele>42.572</ele>
<time>2013-08-21T14:12:10.457Z</time>
</trkpt>
<trkpt lat="53.6561839" lon="12.3468460">
<ele>40.926</ele>
<time>2013-08-21T14:12:13.154Z</time>
</trkpt>
<trkpt lat="53.6561197" lon="12.3467290">
<ele>39.441</ele>
<time>2013-08-21T14:12:15.375Z</time>
</trkpt>
<trkpt lat="53.6560519" lon="12.3465977">
<ele>38.486</ele>
<time>2013-08-21T14:12:18.083Z</time>
</trkpt>
<trkpt lat="53.6559644" lon="12.3464513">
<ele>38.289</ele>
<time>2013-08-21T14:12:21.643Z</time>
</trkpt>
<trkpt lat="53.6558886" lon="12.3463184">
<ele>39.145</ele>
<time>2013-08-21T14:12:24.727Z</time>
</trkpt>
<trkpt lat="53.6555054" lon="12.3456650">
<ele>42.810</ele>
<time>2013-08-21T14:12:41.801Z</time>
</trkpt>
<trkpt lat="53.6554306" lon="12.3455350">
<ele>44.498</ele>
<time>2013-08-21T14:12:45.345Z</time>
</trkpt>
<trkpt lat="53.6553610" lon="12.3454250">
<ele>45.672</ele>
<time>2013-08-21T14:12:48.527Z</time>
</trkpt>
<trkpt lat="53.6552908" lon="12.3453106">
<ele>46.487</ele>
<time>2013-08-21T14:12:51.600Z</time>
</trkpt>
<trkpt lat="53.6552230" lon="12.3451960">
<ele>47.452</ele>
<time>2013-08-21T14:12:54.538Z</time>
</trkpt>
<trkpt lat="53.6548405" lon="12.3446242">
<ele>49.182</ele>
<time>2013-08-21T14:13:11.264Z</time>
</trkpt>
<trkpt lat="53.6547803" lon="12.3444984">
<ele>49.852</ele>
<time>2013-08-21T14:13:14.396Z</time>
</trkpt>
<trkpt lat="53.6547051" lon="12.3443708">
<ele>50.923</ele>
<time>2013-08-21T14:13:17.543Z</time>
</trkpt>
<trkpt lat="53.6546108" lon="12.3442147">
<ele>52.324</ele>
<time>2013-08-21T14:13:20.915Z</time>
</trkpt>
<trkpt lat="53.6545330" lon="12.3440934">
<ele>53.342</ele>
<time>2013-08-21T14:13:23.242Z</time>
</trkpt>
<trkpt lat="53.6544613" lon="12.3439845">
<ele>53.299</ele>
<time>2013-08-21T14:13:25.373Z</time>
</trkpt>
<trkpt lat="53.6543916" lon="12.3438693">
<ele>52.337</ele>
<time>2013-08-21T14:13:27.595Z</time>
</trkpt>
<trkpt lat="53.6542845" lon="12.3436853">
<ele>51.764</ele>
<time>2013-08-21T14:13:31.202Z</time>
</trkpt>
<trkpt lat="53.6541865" lon="12.3435295">
<ele>52.704</ele>
<time>2013-08-21T14:13:34.518Z</time>
</trkpt>
<trkpt lat="53.6540855" lon="12.3433807">
<ele>54.431</ele>
<time>2013-08-21T14:13:37.783Z</time>
</trkpt>
<trkpt lat="53.6540196" lon="12.3432734">
<ele>55.411</ele>
<time>2013-08-21T14:13:40.086Z</time>
</trkpt>
<trkpt lat="53.6539285" lon="12.3431379">
<ele>55.045</ele>
<time>2013-08-21T14:13:43.456Z</time>
</trkpt>
<trkpt lat="53.6538558" lon="12.3430100">
<ele>53.653</ele>
<time>2013-08-21T14:13:46.413Z</time>
</trkpt>
<trkpt lat="53.6537849" lon="12.3428976">
<ele>51.983</ele>
<time>2013-08-21T14:13:48.835Z</time>
</trkpt>
<trkpt lat="53.6536820" lon="12.3427710">
<ele>51.076</ele>
<time>2013-08-21T14:13:51.667Z</time>
</trkpt>
<trkpt lat="53.6535714" lon="12.3426487">
<ele>51.499</ele>
<time>2013-08-21T14:13:54.777Z</time>
</trkpt>
<trkpt lat="53.6534716" lon="12.3425412">
<ele>53.259</ele>
<time>2013-08-21T14:13:57.668Z</time>
</trkpt>
<trkpt lat="53.6533738" lon="12.3423964">
<ele>55.825</ele>
<time>2013-08-21T14:14:00.754Z</time>
</trkpt>
<trkpt lat="53.6532775" lon="12.3422401">
<ele>57.751</ele>
<time>2013-08-21T14:14:03.864Z</time>
</trkpt>
<trkpt lat="53.6531896" lon="12.3420986">
<ele>58.074</ele>
<time>2013-08-21T14:14:06.785Z</time>
</trkpt>
<trkpt lat="53.6531031" lon="12.3419592">
<ele>57.431</ele>
<time>2013-08-21T14:14:09.534Z</time>
</trkpt>
<trkpt lat="53.6530389" lon="12.3418484">
<ele>56.476</ele>
<time>2013-08-21T14:14:11.559Z</time>
</trkpt>
<trkpt lat="53.6529492" lon="12.3416845">
<ele>55.412</ele>
<time>2013-08-21T14:14:14.311Z</time>
</trkpt>
<trkpt lat="53.6528498" lon="12.3414975">
<ele>55.055</ele>
<time>2013-08-21T14:14:17.247Z</time>
</trkpt>
<trkpt lat="53.6527813" lon="12.3413676">
<ele>55.935</ele>
<time>2013-08-21T14:14:19.248Z</time>
</trkpt>
<trkpt lat="53.6527117" lon="12.3412378">
<ele>56.890</ele>
<time>2013-08-21T14:14:21.254Z</time>
</trkpt>
<trkpt lat="53.6526124" lon="12.3410337">
<ele>56.623</ele>
<time>2013-08-21T14:14:24.297Z</time>
</trkpt>
<trkpt lat="53.6525535" lon="12.3409040">
<ele>55.430</ele>
<time>2013-08-21T14:14:26.144Z</time>
</trkpt>
<trkpt lat="53.6524689" lon="12.3406816">
<ele>54.332</ele>
<time>2013-08-21T14:14:29.030Z</time>
</trkpt>
<trkpt lat="53.6523991" lon="12.3405069">
<ele>53.787</ele>
<time>2013-08-21T14:14:31.288Z</time>
</trkpt>
<trkpt lat="53.6523102" lon="12.3403028">
<ele>53.497</ele>
<time>2013-08-21T14:14:33.994Z</time>
</trkpt>
<trkpt lat="53.6522298" lon="12.3400977">
<ele>53.031</ele>
<time>2013-08-21T14:14:36.648Z</time>
</trkpt>
<trkpt lat="53.6521784" lon="12.3399389">
<ele>52.313</ele>
<time>2013-08-21T14:14:38.634Z</time>
</trkpt>
<trkpt lat="53.6520861" lon="12.3396988">
<ele>51.721</ele>
<time>2013-08-21T14:14:41.752Z</time>
</trkpt>
<trkpt lat="53.6520216" lon="12.3395460">
<ele>51.910</ele>
<time>2013-08-21T14:14:43.772Z</time>
</trkpt>
<trkpt lat="53.6519685" lon="12.3394201">
<ele>53.007</ele>
<time>2013-08-21T14:14:45.467Z</time>
</trkpt>
<trkpt lat="53.6518901" lon="12.3392400">
<ele>54.341</ele>
<time>2013-08-21T14:14:47.976Z</time>
</trkpt>
<trkpt lat="53.6518123" lon="12.3390716">
<ele>55.320</ele>
<time>2013-08-21T14:14:50.472Z</time>
</trkpt>
<trkpt lat="53.6517646" lon="12.3389400">
<ele>55.771</ele>
<time>2013-08-21T14:14:52.319Z</time>
</trkpt>
<trkpt lat="53.6516798" lon="12.3386901">
<ele>55.764</ele>
<time>2013-08-21T14:14:55.678Z</time>
</trkpt>
<trkpt lat="53.6515783" lon="12.3383901">
<ele>55.703</ele>
<time>2013-08-21T14:14:58.997Z</time>
</trkpt>
<trkpt lat="53.6514870" lon="12.3380870">
<ele>55.864</ele>
<time>2013-08-21T14:15:01.849Z</time>
</trkpt>
<trkpt lat="53.6514358" lon="12.3377776">
<ele>56.048</ele>
<time>2013-08-21T14:15:04.675Z</time>
</trkpt>
<trkpt lat="53.6514358" lon="12.3377776">
<ele>56.023</ele>
<time>2013-08-21T14:15:09.676Z</time>
</trkpt>
<trkpt lat="53.6514358" lon="12.3377776">
<ele>55.913</ele>
<time>2013-08-21T14:15:19.654Z</time>
</trkpt>
<trkpt lat="53.6513401" lon="12.3374385">
<ele>55.885</ele>
<time>2013-08-21T14:15:29.448Z</time>
</trkpt>
<trkpt lat="53.6512933" lon="12.3372596">
<ele>55.923</ele>
<time>2013-08-21T14:15:32.255Z</time>
</trkpt>
<trkpt lat="53.6512381" lon="12.3370659">
<ele>56.157</ele>
<time>2013-08-21T14:15:35.210Z</time>
</trkpt>
<trkpt lat="53.6511559" lon="12.3369056">
<ele>56.884</ele>
<time>2013-08-21T14:15:37.975Z</time>
</trkpt>
<trkpt lat="53.6510879" lon="12.3368023">
<ele>57.924</ele>
<time>2013-08-21T14:15:39.816Z</time>
</trkpt>
<trkpt lat="53.6510042" lon="12.3366891">
<ele>58.428</ele>
<time>2013-08-21T14:15:41.800Z</time>
</trkpt>
<trkpt lat="53.6508808" lon="12.3365331">
<ele>57.927</ele>
<time>2013-08-21T14:15:44.571Z</time>
</trkpt>
<trkpt lat="53.6507914" lon="12.3364257">
<ele>56.788</ele>
<time>2013-08-21T14:15:46.537Z</time>
</trkpt>
<trkpt lat="53.6506994" lon="12.3363284">
<ele>55.641</ele>
<time>2013-08-21T14:15:48.619Z</time>
</trkpt>
<trkpt lat="53.6505651" lon="12.3362003">
<ele>54.889</ele>
<time>2013-08-21T14:15:51.752Z</time>
</trkpt>
<trkpt lat="53.6504801" lon="12.3361251">
<ele>54.593</ele>
<time>2013-08-21T14:15:53.791Z</time>
</trkpt>
<trkpt lat="53.6503695" lon="12.3360122">
<ele>54.594</ele>
<time>2013-08-21T14:15:56.563Z</time>
</trkpt>
<trkpt lat="53.6502657" lon="12.3358961">
<ele>54.787</ele>
<time>2013-08-21T14:15:59.290Z</time>
</trkpt>
<trkpt lat="53.6501606" lon="12.3357647">
<ele>55.037</ele>
<time>2013-08-21T14:16:02.255Z</time>
</trkpt>
<trkpt lat="53.6500500" lon="12.3356311">
<ele>55.112</ele>
<time>2013-08-21T14:16:05.542Z</time>
</trkpt>
<trkpt lat="53.6499543" lon="12.3355184">
<ele>54.761</ele>
<time>2013-08-21T14:16:08.635Z</time>
</trkpt>
<trkpt lat="53.6498697" lon="12.3354114">
<ele>54.079</ele>
<time>2013-08-21T14:16:11.688Z</time>
</trkpt>
<trkpt lat="53.6497949" lon="12.3352961">
<ele>52.944</ele>
<time>2013-08-21T14:16:14.756Z</time>
</trkpt>
<trkpt lat="53.6497250" lon="12.3351695">
<ele>51.249</ele>
<time>2013-08-21T14:16:17.942Z</time>
</trkpt>
<trkpt lat="53.6496611" lon="12.3350447">
<ele>49.541</ele>
<time>2013-08-21T14:16:21.082Z</time>
</trkpt>
<trkpt lat="53.6495937" lon="12.3349133">
<ele>48.372</ele>
<time>2013-08-21T14:16:24.521Z</time>
</trkpt>
<trkpt lat="53.6494947" lon="12.3347979">
<ele>47.782</ele>
<time>2013-08-21T14:16:28.342Z</time>
</trkpt>
<trkpt lat="53.6493935" lon="12.3347081">
<ele>47.805</ele>
<time>2013-08-21T14:16:31.430Z</time>
</trkpt>
<trkpt lat="53.6492725" lon="12.3346191">
<ele>48.311</ele>
<time>2013-08-21T14:16:34.665Z</time>
</trkpt>
<trkpt lat="53.6491382" lon="12.3345721">
<ele>48.951</ele>
<time>2013-08-21T14:16:37.597Z</time>
</trkpt>
<trkpt lat="53.6489725" lon="12.3345761">
<ele>49.461</ele>
<time>2013-08-21T14:16:40.492Z</time>
</trkpt>
<trkpt lat="53.6487238" lon="12.3345624">
<ele>49.990</ele>
<time>2013-08-21T14:16:44.467Z</time>
</trkpt>
<trkpt lat="53.6485813" lon="12.3345857">
<ele>50.882</ele>
<time>2013-08-21T14:16:46.784Z</time>
</trkpt>
<trkpt lat="53.6483990" lon="12.3346188">
<ele>52.275</ele>
<time>2013-08-21T14:16:49.922Z</time>
</trkpt>
<trkpt lat="53.6482219" lon="12.3346549">
<ele>53.746</ele>
<time>2013-08-21T14:16:53.213Z</time>
</trkpt>
<trkpt lat="53.6480528" lon="12.3346703">
<ele>54.914</ele>
<time>2013-08-21T14:16:56.550Z</time>
</trkpt>
<trkpt lat="53.6479482" lon="12.3346847">
<ele>55.876</ele>
<time>2013-08-21T14:16:58.736Z</time>
</trkpt>
<trkpt lat="53.6478162" lon="12.3347107">
<ele>56.554</ele>
<time>2013-08-21T14:17:01.495Z</time>
</trkpt>
<trkpt lat="53.6476837" lon="12.3347367">
<ele>56.706</ele>
<time>2013-08-21T14:17:04.276Z</time>
</trkpt>
<trkpt lat="53.6475389" lon="12.3347719">
<ele>56.502</ele>
<time>2013-08-21T14:17:07.382Z</time>
</trkpt>
<trkpt lat="53.6474051" lon="12.3347968">
<ele>56.296</ele>
<time>2013-08-21T14:17:10.177Z</time>
</trkpt>
<trkpt lat="53.6473147" lon="12.3348098">
<ele>56.738</ele>
<time>2013-08-21T14:17:11.985Z</time>
</trkpt>
<trkpt lat="53.6472220" lon="12.3348313">
<ele>58.063</ele>
<time>2013-08-21T14:17:13.812Z</time>
</trkpt>
<trkpt lat="53.6470746" lon="12.3348847">
<ele>59.430</ele>
<time>2013-08-21T14:17:16.666Z</time>
</trkpt>
<trkpt lat="53.6469781" lon="12.3349044">
<ele>60.146</ele>
<time>2013-08-21T14:17:18.410Z</time>
</trkpt>
<trkpt lat="53.6468686" lon="12.3349269">
<ele>60.401</ele>
<time>2013-08-21T14:17:20.347Z</time>
</trkpt>
<trkpt lat="53.6467011" lon="12.3349646">
<ele>60.179</ele>
<time>2013-08-21T14:17:23.183Z</time>
</trkpt>
<trkpt lat="53.6465265" lon="12.3350170">
<ele>59.445</ele>
<time>2013-08-21T14:17:26.041Z</time>
</trkpt>
<trkpt lat="53.6463474" lon="12.3350587">
<ele>58.799</ele>
<time>2013-08-21T14:17:28.789Z</time>
</trkpt>
<trkpt lat="53.6462204" lon="12.3350775">
<ele>58.903</ele>
<time>2013-08-21T14:17:30.622Z</time>
</trkpt>
<trkpt lat="53.6460808" lon="12.3351006">
<ele>59.747</ele>
<time>2013-08-21T14:17:32.558Z</time>
</trkpt>
<trkpt lat="53.6459368" lon="12.3351237">
<ele>60.651</ele>
<time>2013-08-21T14:17:34.508Z</time>
</trkpt>
<trkpt lat="53.6457326" lon="12.3351510">
<ele>60.498</ele>
<time>2013-08-21T14:17:37.320Z</time>
</trkpt>
<trkpt lat="53.6455392" lon="12.3351873">
<ele>58.864</ele>
<time>2013-08-21T14:17:40.149Z</time>
</trkpt>
<trkpt lat="53.6454074" lon="12.3352115">
<ele>56.754</ele>
<time>2013-08-21T14:17:42.124Z</time>
</trkpt>
<trkpt lat="53.6452127" lon="12.3352577">
<ele>55.389</ele>
<time>2013-08-21T14:17:45.096Z</time>
</trkpt>
<trkpt lat="53.6450941" lon="12.3352912">
<ele>54.861</ele>
<time>2013-08-21T14:17:46.992Z</time>
</trkpt>
<trkpt lat="53.6449797" lon="12.3353145">
<ele>54.587</ele>
<time>2013-08-21T14:17:48.874Z</time>
</trkpt>
<trkpt lat="53.6448047" lon="12.3353513">
<ele>53.993</ele>
<time>2013-08-21T14:17:51.858Z</time>
</trkpt>
<trkpt lat="53.6446969" lon="12.3353741">
<ele>52.998</ele>
<time>2013-08-21T14:17:53.789Z</time>
</trkpt>
<trkpt lat="53.6445913" lon="12.3353942">
<ele>52.390</ele>
<time>2013-08-21T14:17:55.746Z</time>
</trkpt>
<trkpt lat="53.6444902" lon="12.3354145">
<ele>52.794</ele>
<time>2013-08-21T14:17:57.684Z</time>
</trkpt>
<trkpt lat="53.6443315" lon="12.3354464">
<ele>53.884</ele>
<time>2013-08-21T14:18:00.837Z</time>
</trkpt>
<trkpt lat="53.6441977" lon="12.3354805">
<ele>55.116</ele>
<time>2013-08-21T14:18:03.678Z</time>
</trkpt>
<trkpt lat="53.6440722" lon="12.3355116">
<ele>56.092</ele>
<time>2013-08-21T14:18:06.406Z</time>
</trkpt>
<trkpt lat="53.6439551" lon="12.3355345">
<ele>56.544</ele>
<time>2013-08-21T14:18:08.905Z</time>
</trkpt>
<trkpt lat="53.6438586" lon="12.3355547">
<ele>56.422</ele>
<time>2013-08-21T14:18:10.936Z</time>
</trkpt>
<trkpt lat="53.6437424" lon="12.3355981">
<ele>55.365</ele>
<time>2013-08-21T14:18:13.421Z</time>
</trkpt>
<trkpt lat="53.6435997" lon="12.3356306">
<ele>53.424</ele>
<time>2013-08-21T14:18:16.365Z</time>
</trkpt>
<trkpt lat="53.6434969" lon="12.3356486">
<ele>51.700</ele>
<time>2013-08-21T14:18:18.370Z</time>
</trkpt>
<trkpt lat="53.6433816" lon="12.3356645">
<ele>51.054</ele>
<time>2013-08-21T14:18:20.501Z</time>
</trkpt>
<trkpt lat="53.6432097" lon="12.3356892">
<ele>51.230</ele>
<time>2013-08-21T14:18:23.574Z</time>
</trkpt>
<trkpt lat="53.6431139" lon="12.3357088">
<ele>51.235</ele>
<time>2013-08-21T14:18:25.340Z</time>
</trkpt>
<trkpt lat="53.6429718" lon="12.3357390">
<ele>50.466</ele>
<time>2013-08-21T14:18:28.067Z</time>
</trkpt>
<trkpt lat="53.6428679" lon="12.3357628">
<ele>49.644</ele>
<time>2013-08-21T14:18:30.125Z</time>
</trkpt>
<trkpt lat="53.6427573" lon="12.3357906">
<ele>49.589</ele>
<time>2013-08-21T14:18:32.395Z</time>
</trkpt>
<trkpt lat="53.6426087" lon="12.3358195">
<ele>50.788</ele>
<time>2013-08-21T14:18:35.665Z</time>
</trkpt>
<trkpt lat="53.6425001" lon="12.3358344">
<ele>53.216</ele>
<time>2013-08-21T14:18:38.405Z</time>
</trkpt>
<trkpt lat="53.6424277" lon="12.3357129">
<ele>55.692</ele>
<time>2013-08-21T14:18:41.467Z</time>
</trkpt>
<trkpt lat="53.6423939" lon="12.3355224">
<ele>57.139</ele>
<time>2013-08-21T14:18:45.678Z</time>
</trkpt>
<trkpt lat="53.6423939" lon="12.3355224">
<ele>57.622</ele>
<time>2013-08-21T14:18:57.674Z</time>
</trkpt>
<trkpt lat="53.6423939" lon="12.3355224">
<ele>57.613</ele>
<time>2013-08-21T14:20:11.059Z</time>
</trkpt>
<trkpt lat="53.6423992" lon="12.3352660">
<ele>57.540</ele>
<time>2013-08-21T14:20:17.471Z</time>
</trkpt>
<trkpt lat="53.6424093" lon="12.3350251">
<ele>57.960</ele>
<time>2013-08-21T14:20:20.625Z</time>
</trkpt>
<trkpt lat="53.6424146" lon="12.3348599">
<ele>59.097</ele>
<time>2013-08-21T14:20:22.558Z</time>
</trkpt>
<trkpt lat="53.6424168" lon="12.3346700">
<ele>60.226</ele>
<time>2013-08-21T14:20:24.631Z</time>
</trkpt>
<trkpt lat="53.6424196" lon="12.3344887">
<ele>60.681</ele>
<time>2013-08-21T14:20:26.522Z</time>
</trkpt>
<trkpt lat="53.6424230" lon="12.3342073">
<ele>60.663</ele>
<time>2013-08-21T14:20:29.469Z</time>
</trkpt>
<trkpt lat="53.6424249" lon="12.3340182">
<ele>60.115</ele>
<time>2013-08-21T14:20:31.464Z</time>
</trkpt>
<trkpt lat="53.6424283" lon="12.3338141">
<ele>58.960</ele>
<time>2013-08-21T14:20:33.581Z</time>
</trkpt>
<trkpt lat="53.6424346" lon="12.3335400">
<ele>57.880</ele>
<time>2013-08-21T14:20:36.384Z</time>
</trkpt>
<trkpt lat="53.6424406" lon="12.3333532">
<ele>57.464</ele>
<time>2013-08-21T14:20:38.233Z</time>
</trkpt>
<trkpt lat="53.6424425" lon="12.3330543">
<ele>57.446</ele>
<time>2013-08-21T14:20:41.088Z</time>
</trkpt>
<trkpt lat="53.6424471" lon="12.3327462">
<ele>57.456</ele>
<time>2013-08-21T14:20:43.850Z</time>
</trkpt>
<trkpt lat="53.6424466" lon="12.3323914">
<ele>57.258</ele>
<time>2013-08-21T14:20:46.808Z</time>
</trkpt>
<trkpt lat="53.6424512" lon="12.3320031">
<ele>56.585</ele>
<time>2013-08-21T14:20:49.857Z</time>
</trkpt>
<trkpt lat="53.6424619" lon="12.3316166">
<ele>55.407</ele>
<time>2013-08-21T14:20:52.873Z</time>
</trkpt>
<trkpt lat="53.6424683" lon="12.3313817">
<ele>53.936</ele>
<time>2013-08-21T14:20:54.878Z</time>
</trkpt>
<trkpt lat="53.6424712" lon="12.3310947">
<ele>52.517</ele>
<time>2013-08-21T14:20:57.568Z</time>
</trkpt>
<trkpt lat="53.6424743" lon="12.3309110">
<ele>51.608</ele>
<time>2013-08-21T14:20:59.502Z</time>
</trkpt>
<trkpt lat="53.6424770" lon="12.3307179">
<ele>51.624</ele>
<time>2013-08-21T14:21:01.625Z</time>
</trkpt>
<trkpt lat="53.6424868" lon="12.3304481">
<ele>52.660</ele>
<time>2013-08-21T14:21:04.638Z</time>
</trkpt>
<trkpt lat="53.6424980" lon="12.3301841">
<ele>54.153</ele>
<time>2013-08-21T14:21:07.563Z</time>
</trkpt>
<trkpt lat="53.6425011" lon="12.3300002">
<ele>55.215</ele>
<time>2013-08-21T14:21:09.579Z</time>
</trkpt>
<trkpt lat="53.6425045" lon="12.3297344">
<ele>55.588</ele>
<time>2013-08-21T14:21:12.516Z</time>
</trkpt>
<trkpt lat="53.6425071" lon="12.3295414">
<ele>55.443</ele>
<time>2013-08-21T14:21:14.602Z</time>
</trkpt>
<trkpt lat="53.6425110" lon="12.3293376">
<ele>54.975</ele>
<time>2013-08-21T14:21:16.682Z</time>
</trkpt>
<trkpt lat="53.6425162" lon="12.3290223">
<ele>54.351</ele>
<time>2013-08-21T14:21:19.759Z</time>
</trkpt>
<trkpt lat="53.6425096" lon="12.3288116">
<ele>53.719</ele>
<time>2013-08-21T14:21:21.750Z</time>
</trkpt>
<trkpt lat="53.6424965" lon="12.3286193">
<ele>53.277</ele>
<time>2013-08-21T14:21:23.574Z</time>
</trkpt>
<trkpt lat="53.6424697" lon="12.3284245">
<ele>52.613</ele>
<time>2013-08-21T14:21:25.445Z</time>
</trkpt>
<trkpt lat="53.6423977" lon="12.3281127">
<ele>51.291</ele>
<time>2013-08-21T14:21:28.521Z</time>
</trkpt>
<trkpt lat="53.6423057" lon="12.3278082">
<ele>50.056</ele>
<time>2013-08-21T14:21:31.657Z</time>
</trkpt>
<trkpt lat="53.6422790" lon="12.3275844">
<ele>49.659</ele>
<time>2013-08-21T14:21:33.802Z</time>
</trkpt>
<trkpt lat="53.6423186" lon="12.3272682">
<ele>50.100</ele>
<time>2013-08-21T14:21:36.918Z</time>
</trkpt>
<trkpt lat="53.6423774" lon="12.3270925">
<ele>51.269</ele>
<time>2013-08-21T14:21:38.979Z</time>
</trkpt>
<trkpt lat="53.6424875" lon="12.3268855">
<ele>52.634</ele>
<time>2013-08-21T14:21:41.882Z</time>
</trkpt>
<trkpt lat="53.6425664" lon="12.3266998">
<ele>53.417</ele>
<time>2013-08-21T14:21:44.248Z</time>
</trkpt>
<trkpt lat="53.6426289" lon="12.3265309">
<ele>53.100</ele>
<time>2013-08-21T14:21:46.345Z</time>
</trkpt>
<trkpt lat="53.6426586" lon="12.3262516">
<ele>51.878</ele>
<time>2013-08-21T14:21:49.355Z</time>
</trkpt>
<trkpt lat="53.6427023" lon="12.3259708">
<ele>50.714</ele>
<time>2013-08-21T14:21:52.484Z</time>
</trkpt>
<trkpt lat="53.6427220" lon="12.3258076">
<ele>50.339</ele>
<time>2013-08-21T14:21:54.432Z</time>
</trkpt>
<trkpt lat="53.6427370" lon="12.3256478">
<ele>50.655</ele>
<time>2013-08-21T14:21:56.495Z</time>
</trkpt>
<trkpt lat="53.6427517" lon="12.3254355">
<ele>51.202</ele>
<time>2013-08-21T14:21:59.476Z</time>
</trkpt>
<trkpt lat="53.6427649" lon="12.3252515">
<ele>51.725</ele>
<time>2013-08-21T14:22:02.277Z</time>
</trkpt>
<trkpt lat="53.6427734" lon="12.3250470">
<ele>52.350</ele>
<time>2013-08-21T14:22:05.290Z</time>
</trkpt>
<trkpt lat="53.6427718" lon="12.3248367">
<ele>53.396</ele>
<time>2013-08-21T14:22:08.160Z</time>
</trkpt>
<trkpt lat="53.6427696" lon="12.3246735">
<ele>54.789</ele>
<time>2013-08-21T14:22:10.285Z</time>
</trkpt>
<trkpt lat="53.6427725" lon="12.3245076">
<ele>55.671</ele>
<time>2013-08-21T14:22:12.426Z</time>
</trkpt>
<trkpt lat="53.6427654" lon="12.3242746">
<ele>55.295</ele>
<time>2013-08-21T14:22:15.354Z</time>
</trkpt>
<trkpt lat="53.6427593" lon="12.3241088">
<ele>53.967</ele>
<time>2013-08-21T14:22:17.350Z</time>
</trkpt>
<trkpt lat="53.6427621" lon="12.3239331">
<ele>52.577</ele>
<time>2013-08-21T14:22:19.459Z</time>
</trkpt>
<trkpt lat="53.6427687" lon="12.3237084">
<ele>51.765</ele>
<time>2013-08-21T14:22:22.182Z</time>
</trkpt>
<trkpt lat="53.6427578" lon="12.3235066">
<ele>51.909</ele>
<time>2013-08-21T14:22:24.657Z</time>
</trkpt>
<trkpt lat="53.6427490" lon="12.3232204">
<ele>53.169</ele>
<time>2013-08-21T14:22:28.140Z</time>
</trkpt>
<trkpt lat="53.6427566" lon="12.3229671">
<ele>54.907</ele>
<time>2013-08-21T14:22:31.177Z</time>
</trkpt>
<trkpt lat="53.6427633" lon="12.3227142">
<ele>55.914</ele>
<time>2013-08-21T14:22:34.177Z</time>
</trkpt>
<trkpt lat="53.6427568" lon="12.3224818">
<ele>55.727</ele>
<time>2013-08-21T14:22:36.916Z</time>
</trkpt>
<trkpt lat="53.6427583" lon="12.3223255">
<ele>55.031</ele>
<time>2013-08-21T14:22:38.731Z</time>
</trkpt>
<trkpt lat="53.6427583" lon="12.3220730">
<ele>54.345</ele>
<time>2013-08-21T14:22:41.569Z</time>
</trkpt>
<trkpt lat="53.6427480" lon="12.3218873">
<ele>53.883</ele>
<time>2013-08-21T14:22:43.525Z</time>
</trkpt>
<trkpt lat="53.6427602" lon="12.3215923">
<ele>53.826</ele>
<time>2013-08-21T14:22:46.574Z</time>
</trkpt>
<trkpt lat="53.6427576" lon="12.3214341">
<ele>53.883</ele>
<time>2013-08-21T14:22:48.280Z</time>
</trkpt>
<trkpt lat="53.6427745" lon="12.3212131">
<ele>53.396</ele>
<time>2013-08-21T14:22:50.800Z</time>
</trkpt>
<trkpt lat="53.6427961" lon="12.3210332">
<ele>51.884</ele>
<time>2013-08-21T14:22:52.914Z</time>
</trkpt>
<trkpt lat="53.6427623" lon="12.3207863">
<ele>50.132</ele>
<time>2013-08-21T14:22:55.775Z</time>
</trkpt>
<trkpt lat="53.6426892" lon="12.3206879">
<ele>50.744</ele>
<time>2013-08-21T14:22:57.515Z</time>
</trkpt>
<trkpt lat="53.6425386" lon="12.3205895">
<ele>54.345</ele>
<time>2013-08-21T14:23:00.351Z</time>
</trkpt>
<trkpt lat="53.6423873" lon="12.3204912">
<ele>58.229</ele>
<time>2013-08-21T14:23:03.065Z</time>
</trkpt>
<trkpt lat="53.6421951" lon="12.3203781">
<ele>59.888</ele>
<time>2013-08-21T14:23:06.301Z</time>
</trkpt>
<trkpt lat="53.6420572" lon="12.3203070">
<ele>58.465</ele>
<time>2013-08-21T14:23:08.430Z</time>
</trkpt>
<trkpt lat="53.6418779" lon="12.3202298">
<ele>54.915</ele>
<time>2013-08-21T14:23:11.210Z</time>
</trkpt>
<trkpt lat="53.6417376" lon="12.3201645">
<ele>52.248</ele>
<time>2013-08-21T14:23:13.382Z</time>
</trkpt>
<trkpt lat="53.6416203" lon="12.3200931">
<ele>52.147</ele>
<time>2013-08-21T14:23:15.217Z</time>
</trkpt>
<trkpt lat="53.6414003" lon="12.3199206">
<ele>52.893</ele>
<time>2013-08-21T14:23:18.619Z</time>
</trkpt>
<trkpt lat="53.6412322" lon="12.3197825">
<ele>52.542</ele>
<time>2013-08-21T14:23:20.862Z</time>
</trkpt>
<trkpt lat="53.6410560" lon="12.3196510">
<ele>51.342</ele>
<time>2013-08-21T14:23:23.123Z</time>
</trkpt>
<trkpt lat="53.6408880" lon="12.3195320">
<ele>50.470</ele>
<time>2013-08-21T14:23:25.455Z</time>
</trkpt>
<trkpt lat="53.6406870" lon="12.3194055">
<ele>50.327</ele>
<time>2013-08-21T14:23:28.692Z</time>
</trkpt>
<trkpt lat="53.6405782" lon="12.3193476">
<ele>50.426</ele>
<time>2013-08-21T14:23:30.763Z</time>
</trkpt>
<trkpt lat="53.6404133" lon="12.3192635">
<ele>50.143</ele>
<time>2013-08-21T14:23:34.044Z</time>
</trkpt>
<trkpt lat="53.6402451" lon="12.3191459">
<ele>49.318</ele>
<time>2013-08-21T14:23:37.590Z</time>
</trkpt>
<trkpt lat="53.6401326" lon="12.3190709">
<ele>48.165</ele>
<time>2013-08-21T14:23:40.097Z</time>
</trkpt>
<trkpt lat="53.6400282" lon="12.3190105">
<ele>47.095</ele>
<time>2013-08-21T14:23:42.642Z</time>
</trkpt>
<trkpt lat="53.6398999" lon="12.3189321">
<ele>46.715</ele>
<time>2013-08-21T14:23:45.939Z</time>
</trkpt>
<trkpt lat="53.6398107" lon="12.3188794">
<ele>47.212</ele>
<time>2013-08-21T14:23:48.190Z</time>
</trkpt>
<trkpt lat="53.6396830" lon="12.3187944">
<ele>48.251</ele>
<time>2013-08-21T14:23:51.655Z</time>
</trkpt>
<trkpt lat="53.6395687" lon="12.3187117">
<ele>49.633</ele>
<time>2013-08-21T14:23:55.171Z</time>
</trkpt>
<trkpt lat="53.6394683" lon="12.3186198">
<ele>51.882</ele>
<time>2013-08-21T14:23:59.108Z</time>
</trkpt>
<trkpt lat="53.6393905" lon="12.3185370">
<ele>54.923</ele>
<time>2013-08-21T14:24:02.817Z</time>
</trkpt>
<trkpt lat="53.6393065" lon="12.3184302">
<ele>56.840</ele>
<time>2013-08-21T14:24:07.298Z</time>
</trkpt>
<trkpt lat="53.6392152" lon="12.3185402">
<ele>56.418</ele>
<time>2013-08-21T14:24:11.673Z</time>
</trkpt>
<trkpt lat="53.6391488" lon="12.3186912">
<ele>55.393</ele>
<time>2013-08-21T14:24:15.894Z</time>
</trkpt>
<trkpt lat="53.6390984" lon="12.3188330">
<ele>55.442</ele>
<time>2013-08-21T14:24:19.560Z</time>
</trkpt>
<trkpt lat="53.6390316" lon="12.3189687">
<ele>56.068</ele>
<time>2013-08-21T14:24:23.006Z</time>
</trkpt>
<trkpt lat="53.6389663" lon="12.3190830">
<ele>55.968</ele>
<time>2013-08-21T14:24:25.747Z</time>
</trkpt>
<trkpt lat="53.6388921" lon="12.3192126">
<ele>54.773</ele>
<time>2013-08-21T14:24:28.529Z</time>
</trkpt>
<trkpt lat="53.6388188" lon="12.3193538">
<ele>53.313</ele>
<time>2013-08-21T14:24:31.121Z</time>
</trkpt>
<trkpt lat="53.6387249" lon="12.3195500">
<ele>52.480</ele>
<time>2013-08-21T14:24:34.242Z</time>
</trkpt>
<trkpt lat="53.6386419" lon="12.3197586">
<ele>52.506</ele>
<time>2013-08-21T14:24:37.156Z</time>
</trkpt>
<trkpt lat="53.6386009" lon="12.3199135">
<ele>53.285</ele>
<time>2013-08-21T14:24:39.081Z</time>
</trkpt>
<trkpt lat="53.6385452" lon="12.3201601">
<ele>54.351</ele>
<time>2013-08-21T14:24:42.024Z</time>
</trkpt>
<trkpt lat="53.6385091" lon="12.3203402">
<ele>55.206</ele>
<time>2013-08-21T14:24:44.090Z</time>
</trkpt>
<trkpt lat="53.6384485" lon="12.3206260">
<ele>56.017</ele>
<time>2013-08-21T14:24:47.378Z</time>
</trkpt>
<trkpt lat="53.6383550" lon="12.3208141">
<ele>56.703</ele>
<time>2013-08-21T14:24:50.142Z</time>
</trkpt>
<trkpt lat="53.6382481" lon="12.3209599">
<ele>56.614</ele>
<time>2013-08-21T14:24:52.856Z</time>
</trkpt>
<trkpt lat="53.6381635" lon="12.3210489">
<ele>55.620</ele>
<time>2013-08-21T14:24:54.864Z</time>
</trkpt>
<trkpt lat="53.6380368" lon="12.3211869">
<ele>54.387</ele>
<time>2013-08-21T14:24:57.909Z</time>
</trkpt>
<trkpt lat="53.6379555" lon="12.3212882">
<ele>53.599</ele>
<time>2013-08-21T14:24:59.949Z</time>
</trkpt>
<trkpt lat="53.6378820" lon="12.3213948">
<ele>53.663</ele>
<time>2013-08-21T14:25:01.925Z</time>
</trkpt>
<trkpt lat="53.6377816" lon="12.3215636">
<ele>54.348</ele>
<time>2013-08-21T14:25:04.878Z</time>
</trkpt>
<trkpt lat="53.6376903" lon="12.3217271">
<ele>55.128</ele>
<time>2013-08-21T14:25:07.686Z</time>
</trkpt>
<trkpt lat="53.6376201" lon="12.3218487">
<ele>56.066</ele>
<time>2013-08-21T14:25:09.855Z</time>
</trkpt>
<trkpt lat="53.6375343" lon="12.3219838">
<ele>57.344</ele>
<time>2013-08-21T14:25:12.439Z</time>
</trkpt>
<trkpt lat="53.6374343" lon="12.3221416">
<ele>58.224</ele>
<time>2013-08-21T14:25:15.532Z</time>
</trkpt>
<trkpt lat="53.6373559" lon="12.3222992">
<ele>57.883</ele>
<time>2013-08-21T14:25:18.337Z</time>
</trkpt>
<trkpt lat="53.6372624" lon="12.3224540">
<ele>56.948</ele>
<time>2013-08-21T14:25:21.366Z</time>
</trkpt>
<trkpt lat="53.6371635" lon="12.3225915">
<ele>56.833</ele>
<time>2013-08-21T14:25:24.318Z</time>
</trkpt>
<trkpt lat="53.6370939" lon="12.3227004">
<ele>57.818</ele>
<time>2013-08-21T14:25:26.505Z</time>
</trkpt>
<trkpt lat="53.6369927" lon="12.3228482">
<ele>59.111</ele>
<time>2013-08-21T14:25:29.621Z</time>
</trkpt>
<trkpt lat="53.6368989" lon="12.3229585">
<ele>60.156</ele>
<time>2013-08-21T14:25:32.235Z</time>
</trkpt>
<trkpt lat="53.6367842" lon="12.3230800">
<ele>60.738</ele>
<time>2013-08-21T14:25:35.082Z</time>
</trkpt>
<trkpt lat="53.6366600" lon="12.3232386">
<ele>60.763</ele>
<time>2013-08-21T14:25:37.991Z</time>
</trkpt>
<trkpt lat="53.6365663" lon="12.3233549">
<ele>59.603</ele>
<time>2013-08-21T14:25:39.966Z</time>
</trkpt>
<trkpt lat="53.6364772" lon="12.3234560">
<ele>57.111</ele>
<time>2013-08-21T14:25:41.755Z</time>
</trkpt>
<trkpt lat="53.6363306" lon="12.3236413">
<ele>54.731</ele>
<time>2013-08-21T14:25:44.827Z</time>
</trkpt>
<trkpt lat="53.6362510" lon="12.3237548">
<ele>53.661</ele>
<time>2013-08-21T14:25:46.653Z</time>
</trkpt>
<trkpt lat="53.6361356" lon="12.3239213">
<ele>53.635</ele>
<time>2013-08-21T14:25:49.448Z</time>
</trkpt>
<trkpt lat="53.6360481" lon="12.3240513">
<ele>54.311</ele>
<time>2013-08-21T14:25:51.786Z</time>
</trkpt>
<trkpt lat="53.6359549" lon="12.3242133">
<ele>55.125</ele>
<time>2013-08-21T14:25:54.518Z</time>
</trkpt>
<trkpt lat="53.6358508" lon="12.3243764">
<ele>55.656</ele>
<time>2013-08-21T14:25:57.347Z</time>
</trkpt>
<trkpt lat="53.6357690" lon="12.3245071">
<ele>56.482</ele>
<time>2013-08-21T14:25:59.559Z</time>
</trkpt>
<trkpt lat="53.6356659" lon="12.3246809">
<ele>57.892</ele>
<time>2013-08-21T14:26:02.488Z</time>
</trkpt>
<trkpt lat="53.6355749" lon="12.3248407">
<ele>59.051</ele>
<time>2013-08-21T14:26:05.208Z</time>
</trkpt>
<trkpt lat="53.6354774" lon="12.3249932">
<ele>59.181</ele>
<time>2013-08-21T14:26:07.952Z</time>
</trkpt>
<trkpt lat="53.6353990" lon="12.3251272">
<ele>58.196</ele>
<time>2013-08-21T14:26:10.111Z</time>
</trkpt>
<trkpt lat="53.6352824" lon="12.3253438">
<ele>56.778</ele>
<time>2013-08-21T14:26:13.186Z</time>
</trkpt>
<trkpt lat="53.6352056" lon="12.3254955">
<ele>55.751</ele>
<time>2013-08-21T14:26:15.093Z</time>
</trkpt>
<trkpt lat="53.6351122" lon="12.3256579">
<ele>54.948</ele>
<time>2013-08-21T14:26:17.108Z</time>
</trkpt>
<trkpt lat="53.6350113" lon="12.3258159">
<ele>53.930</ele>
<time>2013-08-21T14:26:19.107Z</time>
</trkpt>
<trkpt lat="53.6349205" lon="12.3259544">
<ele>52.970</ele>
<time>2013-08-21T14:26:20.926Z</time>
</trkpt>
<trkpt lat="53.6347875" lon="12.3261360">
<ele>52.463</ele>
<time>2013-08-21T14:26:23.711Z</time>
</trkpt>
<trkpt lat="53.6346618" lon="12.3262234">
<ele>52.237</ele>
<time>2013-08-21T14:26:26.333Z</time>
</trkpt>
<trkpt lat="53.6345710" lon="12.3262589">
<ele>52.071</ele>
<time>2013-08-21T14:26:28.371Z</time>
</trkpt>
<trkpt lat="53.6344607" lon="12.3262892">
<ele>52.022</ele>
<time>2013-08-21T14:26:31.168Z</time>
</trkpt>
<trkpt lat="53.6343375" lon="12.3262862">
<ele>52.704</ele>
<time>2013-08-21T14:26:34.379Z</time>
</trkpt>
<trkpt lat="53.6341969" lon="12.3262581">
<ele>54.563</ele>
<time>2013-08-21T14:26:37.903Z</time>
</trkpt>
<trkpt lat="53.6340608" lon="12.3262217">
<ele>56.943</ele>
<time>2013-08-21T14:26:41.137Z</time>
</trkpt>
<trkpt lat="53.6339451" lon="12.3261665">
<ele>58.973</ele>
<time>2013-08-21T14:26:43.959Z</time>
</trkpt>
<trkpt lat="53.6337914" lon="12.3261330">
<ele>60.519</ele>
<time>2013-08-21T14:26:47.366Z</time>
</trkpt>
<trkpt lat="53.6336493" lon="12.3260981">
<ele>61.542</ele>
<time>2013-08-21T14:26:50.265Z</time>
</trkpt>
<trkpt lat="53.6334982" lon="12.3260648">
<ele>62.072</ele>
<time>2013-08-21T14:26:53.232Z</time>
</trkpt>
<trkpt lat="53.6333442" lon="12.3260427">
<ele>62.384</ele>
<time>2013-08-21T14:26:56.183Z</time>
</trkpt>
<trkpt lat="53.6332460" lon="12.3260283">
<ele>62.058</ele>
<time>2013-08-21T14:26:58.121Z</time>
</trkpt>
<trkpt lat="53.6330750" lon="12.3260163">
<ele>60.765</ele>
<time>2013-08-21T14:27:01.595Z</time>
</trkpt>
<trkpt lat="53.6329730" lon="12.3260189">
<ele>59.367</ele>
<time>2013-08-21T14:27:03.732Z</time>
</trkpt>
<trkpt lat="53.6328820" lon="12.3260173">
<ele>58.841</ele>
<time>2013-08-21T14:27:05.684Z</time>
</trkpt>
<trkpt lat="53.6327545" lon="12.3260069">
<ele>59.134</ele>
<time>2013-08-21T14:27:08.378Z</time>
</trkpt>
<trkpt lat="53.6326521" lon="12.3260066">
<ele>59.930</ele>
<time>2013-08-21T14:27:10.287Z</time>
</trkpt>
<trkpt lat="53.6324458" lon="12.3259781">
<ele>60.944</ele>
<time>2013-08-21T14:27:13.530Z</time>
</trkpt>
<trkpt lat="53.6322160" lon="12.3259376">
<ele>60.935</ele>
<time>2013-08-21T14:27:16.721Z</time>
</trkpt>
<trkpt lat="53.6319988" lon="12.3258397">
<ele>58.837</ele>
<time>2013-08-21T14:27:19.814Z</time>
</trkpt>
<trkpt lat="53.6318013" lon="12.3257063">
<ele>55.867</ele>
<time>2013-08-21T14:27:22.984Z</time>
</trkpt>
<trkpt lat="53.6316959" lon="12.3256246">
<ele>53.804</ele>
<time>2013-08-21T14:27:25.142Z</time>
</trkpt>
<trkpt lat="53.6315862" lon="12.3255420">
<ele>52.913</ele>
<time>2013-08-21T14:27:27.786Z</time>
</trkpt>
<trkpt lat="53.6314846" lon="12.3255499">
<ele>52.739</ele>
<time>2013-08-21T14:27:30.375Z</time>
</trkpt>
<trkpt lat="53.6313604" lon="12.3255952">
<ele>52.917</ele>
<time>2013-08-21T14:27:33.667Z</time>
</trkpt>
<trkpt lat="53.6312502" lon="12.3256457">
<ele>53.390</ele>
<time>2013-08-21T14:27:36.611Z</time>
</trkpt>
<trkpt lat="53.6311416" lon="12.3257053">
<ele>54.359</ele>
<time>2013-08-21T14:27:39.613Z</time>
</trkpt>
<trkpt lat="53.6310428" lon="12.3257546">
<ele>55.675</ele>
<time>2013-08-21T14:27:42.363Z</time>
</trkpt>
<trkpt lat="53.6309514" lon="12.3257964">
<ele>56.939</ele>
<time>2013-08-21T14:27:45.142Z</time>
</trkpt>
<trkpt lat="53.6308567" lon="12.3258479">
<ele>57.740</ele>
<time>2013-08-21T14:27:48.724Z</time>
</trkpt>
<trkpt lat="53.6307722" lon="12.3259385">
<ele>58.014</ele>
<time>2013-08-21T14:27:53.063Z</time>
</trkpt>
<trkpt lat="53.6307273" lon="12.3260817">
<ele>58.221</ele>
<time>2013-08-21T14:27:57.683Z</time>
</trkpt>
<trkpt lat="53.6307273" lon="12.3260817">
<ele>58.597</ele>
<time>2013-08-21T14:28:01.673Z</time>
</trkpt>
<trkpt lat="53.6307273" lon="12.3260817">
<ele>58.816</ele>
<time>2013-08-21T14:29:04.614Z</time>
</trkpt>
<trkpt lat="53.6306136" lon="12.3263185">
<ele>58.777</ele>
<time>2013-08-21T14:29:17.298Z</time>
</trkpt>
<trkpt lat="53.6305390" lon="12.3264695">
<ele>59.116</ele>
<time>2013-08-21T14:29:21.684Z</time>
</trkpt>
<trkpt lat="53.6304680" lon="12.3266332">
<ele>60.275</ele>
<time>2013-08-21T14:29:25.742Z</time>
</trkpt>
<trkpt lat="53.6304055" lon="12.3267634">
<ele>61.314</ele>
<time>2013-08-21T14:29:28.845Z</time>
</trkpt>
<trkpt lat="53.6303160" lon="12.3268221">
<ele>61.303</ele>
<time>2013-08-21T14:29:31.660Z</time>
</trkpt>
<trkpt lat="53.6302123" lon="12.3269214">
<ele>60.528</ele>
<time>2013-08-21T14:29:34.754Z</time>
</trkpt>
<trkpt lat="53.6301320" lon="12.3269951">
<ele>59.628</ele>
<time>2013-08-21T14:29:36.957Z</time>
</trkpt>
<trkpt lat="53.6300083" lon="12.3270900">
<ele>59.248</ele>
<time>2013-08-21T14:29:40.135Z</time>
</trkpt>
<trkpt lat="53.6298929" lon="12.3271892">
<ele>59.782</ele>
<time>2013-08-21T14:29:43.262Z</time>
</trkpt>
<trkpt lat="53.6297818" lon="12.3273002">
<ele>60.881</ele>
<time>2013-08-21T14:29:46.456Z</time>
</trkpt>
<trkpt lat="53.6296730" lon="12.3273979">
<ele>61.933</ele>
<time>2013-08-21T14:29:49.486Z</time>
</trkpt>
<trkpt lat="53.6295646" lon="12.3274988">
<ele>62.632</ele>
<time>2013-08-21T14:29:52.387Z</time>
</trkpt>
<trkpt lat="53.6294636" lon="12.3275715">
<ele>63.027</ele>
<time>2013-08-21T14:29:54.800Z</time>
</trkpt>
<trkpt lat="53.6293224" lon="12.3276287">
<ele>63.428</ele>
<time>2013-08-21T14:29:57.719Z</time>
</trkpt>
<trkpt lat="53.6292165" lon="12.3276519">
<ele>64.031</ele>
<time>2013-08-21T14:29:59.834Z</time>
</trkpt>
<trkpt lat="53.6290790" lon="12.3277045">
<ele>64.641</ele>
<time>2013-08-21T14:30:02.668Z</time>
</trkpt>
<trkpt lat="53.6289374" lon="12.3277918">
<ele>65.153</ele>
<time>2013-08-21T14:30:05.663Z</time>
</trkpt>
<trkpt lat="53.6288469" lon="12.3278571">
<ele>65.911</ele>
<time>2013-08-21T14:30:07.599Z</time>
</trkpt>
<trkpt lat="53.6287008" lon="12.3279655">
<ele>67.109</ele>
<time>2013-08-21T14:30:10.631Z</time>
</trkpt>
<trkpt lat="53.6285610" lon="12.3280935">
<ele>68.222</ele>
<time>2013-08-21T14:30:13.439Z</time>
</trkpt>
<trkpt lat="53.6284587" lon="12.3282168">
<ele>68.699</ele>
<time>2013-08-21T14:30:15.601Z</time>
</trkpt>
<trkpt lat="53.6283611" lon="12.3284339">
<ele>67.883</ele>
<time>2013-08-21T14:30:18.375Z</time>
</trkpt>
<trkpt lat="53.6282942" lon="12.3285835">
<ele>65.387</ele>
<time>2013-08-21T14:30:20.366Z</time>
</trkpt>
<trkpt lat="53.6282293" lon="12.3287163">
<ele>62.181</ele>
<time>2013-08-21T14:30:22.263Z</time>
</trkpt>
<trkpt lat="53.6281324" lon="12.3288915">
<ele>59.991</ele>
<time>2013-08-21T14:30:24.988Z</time>
</trkpt>
<trkpt lat="53.6280291" lon="12.3290136">
<ele>59.084</ele>
<time>2013-08-21T14:30:27.501Z</time>
</trkpt>
<trkpt lat="53.6279008" lon="12.3291095">
<ele>58.306</ele>
<time>2013-08-21T14:30:30.327Z</time>
</trkpt>
<trkpt lat="53.6277489" lon="12.3292133">
<ele>57.116</ele>
<time>2013-08-21T14:30:33.540Z</time>
</trkpt>
<trkpt lat="53.6276542" lon="12.3292528">
<ele>56.956</ele>
<time>2013-08-21T14:30:35.312Z</time>
</trkpt>
<trkpt lat="53.6274906" lon="12.3293286">
<ele>58.637</ele>
<time>2013-08-21T14:30:38.198Z</time>
</trkpt>
<trkpt lat="53.6273049" lon="12.3294093">
<ele>60.692</ele>
<time>2013-08-21T14:30:41.151Z</time>
</trkpt>
<trkpt lat="53.6271672" lon="12.3294746">
<ele>61.679</ele>
<time>2013-08-21T14:30:43.163Z</time>
</trkpt>
<trkpt lat="53.6269772" lon="12.3295826">
<ele>61.792</ele>
<time>2013-08-21T14:30:45.871Z</time>
</trkpt>
<trkpt lat="53.6267773" lon="12.3296852">
<ele>61.562</ele>
<time>2013-08-21T14:30:48.569Z</time>
</trkpt>
<trkpt lat="53.6266236" lon="12.3297730">
<ele>61.103</ele>
<time>2013-08-21T14:30:50.606Z</time>
</trkpt>
<trkpt lat="53.6264198" lon="12.3298972">
<ele>59.968</ele>
<time>2013-08-21T14:30:53.349Z</time>
</trkpt>
<trkpt lat="53.6262776" lon="12.3299915">
<ele>58.190</ele>
<time>2013-08-21T14:30:55.342Z</time>
</trkpt>
<trkpt lat="53.6261379" lon="12.3300875">
<ele>56.710</ele>
<time>2013-08-21T14:30:57.401Z</time>
</trkpt>
<trkpt lat="53.6259821" lon="12.3302146">
<ele>56.074</ele>
<time>2013-08-21T14:30:59.903Z</time>
</trkpt>
<trkpt lat="53.6258033" lon="12.3303360">
<ele>55.961</ele>
<time>2013-08-21T14:31:02.884Z</time>
</trkpt>
<trkpt lat="53.6256450" lon="12.3304451">
<ele>56.028</ele>
<time>2013-08-21T14:31:05.637Z</time>
</trkpt>
<trkpt lat="53.6255343" lon="12.3305129">
<ele>55.877</ele>
<time>2013-08-21T14:31:07.607Z</time>
</trkpt>
<trkpt lat="53.6254229" lon="12.3305862">
<ele>55.014</ele>
<time>2013-08-21T14:31:09.676Z</time>
</trkpt>
<trkpt lat="53.6252701" lon="12.3306831">
<ele>53.619</ele>
<time>2013-08-21T14:31:12.618Z</time>
</trkpt>
<trkpt lat="53.6251786" lon="12.3307476">
<ele>52.586</ele>
<time>2013-08-21T14:31:14.461Z</time>
</trkpt>
<trkpt lat="53.6250879" lon="12.3308172">
<ele>52.361</ele>
<time>2013-08-21T14:31:16.352Z</time>
</trkpt>
<trkpt lat="53.6249498" lon="12.3309361">
<ele>52.834</ele>
<time>2013-08-21T14:31:19.340Z</time>
</trkpt>
<trkpt lat="53.6248642" lon="12.3310142">
<ele>53.887</ele>
<time>2013-08-21T14:31:21.227Z</time>
</trkpt>
<trkpt lat="53.6247659" lon="12.3311201">
<ele>55.102</ele>
<time>2013-08-21T14:31:23.493Z</time>
</trkpt>
<trkpt lat="53.6246699" lon="12.3312127">
<ele>55.970</ele>
<time>2013-08-21T14:31:25.635Z</time>
</trkpt>
<trkpt lat="53.6245321" lon="12.3313537">
<ele>56.421</ele>
<time>2013-08-21T14:31:28.685Z</time>
</trkpt>
<trkpt lat="53.6244594" lon="12.3314434">
<ele>56.590</ele>
<time>2013-08-21T14:31:30.368Z</time>
</trkpt>
<trkpt lat="53.6243608" lon="12.3315499">
<ele>55.943</ele>
<time>2013-08-21T14:31:32.590Z</time>
</trkpt>
<trkpt lat="53.6242148" lon="12.3316854">
<ele>54.001</ele>
<time>2013-08-21T14:31:35.914Z</time>
</trkpt>
<trkpt lat="53.6240759" lon="12.3318058">
<ele>51.688</ele>
<time>2013-08-21T14:31:39.171Z</time>
</trkpt>
<trkpt lat="53.6239628" lon="12.3319084">
<ele>51.620</ele>
<time>2013-08-21T14:31:41.938Z</time>
</trkpt>
<trkpt lat="53.6238823" lon="12.3319817">
<ele>54.690</ele>
<time>2013-08-21T14:31:43.951Z</time>
</trkpt>
<trkpt lat="53.6237878" lon="12.3320657">
<ele>58.347</ele>
<time>2013-08-21T14:31:46.294Z</time>
</trkpt>
<trkpt lat="53.6236695" lon="12.3321941">
<ele>60.109</ele>
<time>2013-08-21T14:31:49.214Z</time>
</trkpt>
<trkpt lat="53.6235587" lon="12.3323064">
<ele>59.924</ele>
<time>2013-08-21T14:31:51.878Z</time>
</trkpt>
<trkpt lat="53.6234642" lon="12.3323343">
<ele>58.690</ele>
<time>2013-08-21T14:31:53.922Z</time>
</trkpt>
<trkpt lat="53.6233561" lon="12.3322948">
<ele>58.026</ele>
<time>2013-08-21T14:31:56.543Z</time>
</trkpt>
<trkpt lat="53.6232361" lon="12.3322547">
<ele>58.751</ele>
<time>2013-08-21T14:31:59.624Z</time>
</trkpt>
<trkpt lat="53.6230932" lon="12.3322102">
<ele>59.842</ele>
<time>2013-08-21T14:32:03.294Z</time>
</trkpt>
<trkpt lat="53.6229940" lon="12.3321763">
<ele>60.241</ele>
<time>2013-08-21T14:32:05.692Z</time>
</trkpt>
<trkpt lat="53.6228744" lon="12.3321437">
<ele>60.116</ele>
<time>2013-08-21T14:32:08.566Z</time>
</trkpt>
<trkpt lat="53.6227588" lon="12.3321220">
<ele>59.727</ele>
<time>2013-08-21T14:32:11.408Z</time>
</trkpt>
<trkpt lat="53.6226462" lon="12.3320859">
<ele>58.773</ele>
<time>2013-08-21T14:32:14.180Z</time>
</trkpt>
<trkpt lat="53.6225244" lon="12.3320583">
<ele>57.310</ele>
<time>2013-08-21T14:32:17.133Z</time>
</trkpt>
<trkpt lat="53.6224122" lon="12.3320260">
<ele>56.080</ele>
<time>2013-08-21T14:32:19.914Z</time>
</trkpt>
<trkpt lat="53.6222881" lon="12.3319984">
<ele>55.560</ele>
<time>2013-08-21T14:32:23.032Z</time>
</trkpt>
<trkpt lat="53.6221943" lon="12.3319757">
<ele>55.852</ele>
<time>2013-08-21T14:32:25.372Z</time>
</trkpt>
<trkpt lat="53.6220759" lon="12.3319286">
<ele>56.770</ele>
<time>2013-08-21T14:32:28.335Z</time>
</trkpt>
<trkpt lat="53.6219726" lon="12.3318930">
<ele>57.707</ele>
<time>2013-08-21T14:32:31.164Z</time>
</trkpt>
<trkpt lat="53.6218799" lon="12.3318439">
<ele>58.260</ele>
<time>2013-08-21T14:32:34.393Z</time>
</trkpt>
<trkpt lat="53.6217890" lon="12.3318052">
<ele>58.470</ele>
<time>2013-08-21T14:32:37.998Z</time>
</trkpt>
<trkpt lat="53.6216865" lon="12.3318181">
<ele>58.981</ele>
<time>2013-08-21T14:32:41.762Z</time>
</trkpt>
<trkpt lat="53.6215738" lon="12.3318054">
<ele>60.379</ele>
<time>2013-08-21T14:32:45.156Z</time>
</trkpt>
<trkpt lat="53.6214832" lon="12.3317745">
<ele>61.905</ele>
<time>2013-08-21T14:32:47.754Z</time>
</trkpt>
<trkpt lat="53.6213890" lon="12.3317547">
<ele>62.413</ele>
<time>2013-08-21T14:32:50.497Z</time>
</trkpt>
<trkpt lat="53.6212851" lon="12.3317255">
<ele>61.999</ele>
<time>2013-08-21T14:32:54.199Z</time>
</trkpt>
<trkpt lat="53.6211803" lon="12.3317017">
<ele>61.279</ele>
<time>2013-08-21T14:32:58.363Z</time>
</trkpt>
<trkpt lat="53.6210614" lon="12.3316643">
<ele>60.578</ele>
<time>2013-08-21T14:33:02.489Z</time>
</trkpt>
<trkpt lat="53.6209420" lon="12.3316230">
<ele>59.819</ele>
<time>2013-08-21T14:33:06.338Z</time>
</trkpt>
<trkpt lat="53.6208528" lon="12.3316006">
<ele>58.631</ele>
<time>2013-08-21T14:33:08.906Z</time>
</trkpt>
<trkpt lat="53.6207062" lon="12.3315801">
<ele>56.853</ele>
<time>2013-08-21T14:33:12.665Z</time>
</trkpt>
<trkpt lat="53.6205637" lon="12.3315461">
<ele>55.038</ele>
<time>2013-08-21T14:33:16.104Z</time>
</trkpt>
<trkpt lat="53.6204722" lon="12.3315162">
<ele>54.387</ele>
<time>2013-08-21T14:33:18.260Z</time>
</trkpt>
<trkpt lat="53.6203796" lon="12.3314862">
<ele>55.337</ele>
<time>2013-08-21T14:33:20.346Z</time>
</trkpt>
<trkpt lat="53.6202136" lon="12.3314434">
<ele>56.337</ele>
<time>2013-08-21T14:33:24.022Z</time>
</trkpt>
<trkpt lat="53.6201093" lon="12.3314240">
<ele>56.083</ele>
<time>2013-08-21T14:33:26.271Z</time>
</trkpt>
<trkpt lat="53.6199294" lon="12.3313803">
<ele>55.417</ele>
<time>2013-08-21T14:33:30.449Z</time>
</trkpt>
<trkpt lat="53.6198026" lon="12.3313500">
<ele>55.771</ele>
<time>2013-08-21T14:33:33.349Z</time>
</trkpt>
<trkpt lat="53.6196586" lon="12.3313075">
<ele>57.173</ele>
<time>2013-08-21T14:33:36.287Z</time>
</trkpt>
<trkpt lat="53.6195253" lon="12.3312648">
<ele>58.274</ele>
<time>2013-08-21T14:33:38.864Z</time>
</trkpt>
<trkpt lat="53.6193820" lon="12.3312156">
<ele>57.485</ele>
<time>2013-08-21T14:33:41.690Z</time>
</trkpt>
<trkpt lat="53.6192479" lon="12.3311653">
<ele>54.941</ele>
<time>2013-08-21T14:33:44.755Z</time>
</trkpt>
<trkpt lat="53.6190666" lon="12.3311177">
<ele>53.050</ele>
<time>2013-08-21T14:33:49.984Z</time>
</trkpt>
<trkpt lat="53.6189661" lon="12.3310924">
<ele>53.395</ele>
<time>2013-08-21T14:33:53.037Z</time>
</trkpt>
<trkpt lat="53.6188400" lon="12.3310583">
<ele>54.792</ele>
<time>2013-08-21T14:33:56.574Z</time>
</trkpt>
<trkpt lat="53.6187255" lon="12.3310411">
<ele>55.772</ele>
<time>2013-08-21T14:33:59.680Z</time>
</trkpt>
<trkpt lat="53.6186360" lon="12.3310157">
<ele>56.216</ele>
<time>2013-08-21T14:34:02.051Z</time>
</trkpt>
<trkpt lat="53.6185141" lon="12.3309863">
<ele>56.551</ele>
<time>2013-08-21T14:34:05.239Z</time>
</trkpt>
<trkpt lat="53.6183520" lon="12.3309453">
<ele>57.081</ele>
<time>2013-08-21T14:34:09.478Z</time>
</trkpt>
<trkpt lat="53.6182420" lon="12.3309106">
<ele>57.841</ele>
<time>2013-08-21T14:34:12.075Z</time>
</trkpt>
<trkpt lat="53.6181132" lon="12.3308795">
<ele>58.616</ele>
<time>2013-08-21T14:34:14.937Z</time>
</trkpt>
<trkpt lat="53.6180054" lon="12.3309351">
<ele>58.936</ele>
<time>2013-08-21T14:34:17.424Z</time>
</trkpt>
<trkpt lat="53.6179030" lon="12.3309512">
<ele>58.653</ele>
<time>2013-08-21T14:34:19.766Z</time>
</trkpt>
<trkpt lat="53.6178219" lon="12.3308805">
<ele>58.423</ele>
<time>2013-08-21T14:34:21.876Z</time>
</trkpt>
<trkpt lat="53.6177202" lon="12.3307078">
<ele>58.776</ele>
<time>2013-08-21T14:34:25.187Z</time>
</trkpt>
<trkpt lat="53.6176273" lon="12.3305359">
<ele>58.981</ele>
<time>2013-08-21T14:34:28.342Z</time>
</trkpt>
<trkpt lat="53.6175347" lon="12.3303791">
<ele>58.276</ele>
<time>2013-08-21T14:34:31.336Z</time>
</trkpt>
<trkpt lat="53.6174513" lon="12.3302427">
<ele>56.974</ele>
<time>2013-08-21T14:34:33.981Z</time>
</trkpt>
<trkpt lat="53.6173856" lon="12.3301270">
<ele>55.754</ele>
<time>2013-08-21T14:34:36.160Z</time>
</trkpt>
<trkpt lat="53.6172975" lon="12.3299260">
<ele>54.895</ele>
<time>2013-08-21T14:34:39.544Z</time>
</trkpt>
<trkpt lat="53.6172584" lon="12.3297522">
<ele>54.649</ele>
<time>2013-08-21T14:34:42.062Z</time>
</trkpt>
<trkpt lat="53.6172306" lon="12.3295199">
<ele>55.102</ele>
<time>2013-08-21T14:34:45.356Z</time>
</trkpt>
<trkpt lat="53.6172458" lon="12.3292760">
<ele>55.836</ele>
<time>2013-08-21T14:34:48.886Z</time>
</trkpt>
<trkpt lat="53.6172828" lon="12.3291030">
<ele>56.633</ele>
<time>2013-08-21T14:34:51.546Z</time>
</trkpt>
<trkpt lat="53.6173175" lon="12.3288934">
<ele>57.847</ele>
<time>2013-08-21T14:34:54.740Z</time>
</trkpt>
<trkpt lat="53.6172973" lon="12.3286983">
<ele>59.347</ele>
<time>2013-08-21T14:34:57.572Z</time>
</trkpt>
<trkpt lat="53.6172305" lon="12.3285502">
<ele>61.244</ele>
<time>2013-08-21T14:35:00.043Z</time>
</trkpt>
<trkpt lat="53.6171452" lon="12.3283856">
<ele>64.189</ele>
<time>2013-08-21T14:35:02.841Z</time>
</trkpt>
<trkpt lat="53.6170487" lon="12.3282481">
<ele>67.552</ele>
<time>2013-08-21T14:35:05.516Z</time>
</trkpt>
<trkpt lat="53.6169409" lon="12.3281645">
<ele>69.203</ele>
<time>2013-08-21T14:35:08.046Z</time>
</trkpt>
<trkpt lat="53.6168163" lon="12.3280789">
<ele>67.697</ele>
<time>2013-08-21T14:35:11.190Z</time>
</trkpt>
<trkpt lat="53.6167043" lon="12.3279872">
<ele>63.911</ele>
<time>2013-08-21T14:35:14.351Z</time>
</trkpt>
<trkpt lat="53.6166188" lon="12.3279117">
<ele>59.478</ele>
<time>2013-08-21T14:35:16.755Z</time>
</trkpt>
<trkpt lat="53.6165079" lon="12.3277805">
<ele>55.431</ele>
<time>2013-08-21T14:35:20.111Z</time>
</trkpt>
<trkpt lat="53.6164191" lon="12.3276438">
<ele>52.968</ele>
<time>2013-08-21T14:35:22.986Z</time>
</trkpt>
<trkpt lat="53.6163186" lon="12.3275070">
<ele>52.952</ele>
<time>2013-08-21T14:35:25.819Z</time>
</trkpt>
<trkpt lat="53.6162283" lon="12.3273591">
<ele>54.865</ele>
<time>2013-08-21T14:35:28.437Z</time>
</trkpt>
<trkpt lat="53.6161371" lon="12.3271971">
<ele>57.350</ele>
<time>2013-08-21T14:35:31.254Z</time>
</trkpt>
<trkpt lat="53.6160473" lon="12.3270271">
<ele>59.160</ele>
<time>2013-08-21T14:35:34.285Z</time>
</trkpt>
<trkpt lat="53.6159563" lon="12.3268241">
<ele>60.054</ele>
<time>2013-08-21T14:35:37.583Z</time>
</trkpt>
<trkpt lat="53.6158749" lon="12.3266363">
<ele>60.401</ele>
<time>2013-08-21T14:35:40.683Z</time>
</trkpt>
<trkpt lat="53.6157973" lon="12.3264577">
<ele>60.521</ele>
<time>2013-08-21T14:35:43.826Z</time>
</trkpt>
<trkpt lat="53.6157412" lon="12.3263254">
<ele>60.429</ele>
<time>2013-08-21T14:35:46.080Z</time>
</trkpt>
<trkpt lat="53.6156826" lon="12.3261819">
<ele>59.420</ele>
<time>2013-08-21T14:35:48.322Z</time>
</trkpt>
<trkpt lat="53.6156013" lon="12.3259767">
<ele>57.195</ele>
<time>2013-08-21T14:35:51.434Z</time>
</trkpt>
<trkpt lat="53.6155382" lon="12.3258437">
<ele>54.867</ele>
<time>2013-08-21T14:35:53.568Z</time>
</trkpt>
<trkpt lat="53.6154518" lon="12.3256477">
<ele>53.647</ele>
<time>2013-08-21T14:35:56.631Z</time>
</trkpt>
<trkpt lat="53.6153873" lon="12.3255053">
<ele>53.503</ele>
<time>2013-08-21T14:35:58.769Z</time>
</trkpt>
<trkpt lat="53.6153232" lon="12.3253566">
<ele>53.722</ele>
<time>2013-08-21T14:36:00.835Z</time>
</trkpt>
<trkpt lat="53.6152653" lon="12.3252143">
<ele>53.430</ele>
<time>2013-08-21T14:36:02.734Z</time>
</trkpt>
<trkpt lat="53.6151806" lon="12.3250061">
<ele>52.223</ele>
<time>2013-08-21T14:36:05.453Z</time>
</trkpt>
<trkpt lat="53.6151213" lon="12.3248639">
<ele>50.693</ele>
<time>2013-08-21T14:36:07.298Z</time>
</trkpt>
<trkpt lat="53.6150537" lon="12.3247092">
<ele>49.916</ele>
<time>2013-08-21T14:36:09.327Z</time>
</trkpt>
<trkpt lat="53.6149652" lon="12.3244857">
<ele>50.212</ele>
<time>2013-08-21T14:36:12.159Z</time>
</trkpt>
<trkpt lat="53.6148728" lon="12.3242638">
<ele>50.906</ele>
<time>2013-08-21T14:36:14.999Z</time>
</trkpt>
<trkpt lat="53.6147747" lon="12.3240201">
<ele>51.349</ele>
<time>2013-08-21T14:36:18.062Z</time>
</trkpt>
<trkpt lat="53.6146721" lon="12.3237696">
<ele>51.712</ele>
<time>2013-08-21T14:36:21.255Z</time>
</trkpt>
<trkpt lat="53.6146041" lon="12.3236270">
<ele>52.262</ele>
<time>2013-08-21T14:36:23.213Z</time>
</trkpt>
<trkpt lat="53.6144867" lon="12.3233944">
<ele>52.559</ele>
<time>2013-08-21T14:36:26.595Z</time>
</trkpt>
<trkpt lat="53.6144337" lon="12.3232443">
<ele>52.233</ele>
<time>2013-08-21T14:36:28.588Z</time>
</trkpt>
<trkpt lat="53.6143394" lon="12.3230295">
<ele>51.681</ele>
<time>2013-08-21T14:36:31.633Z</time>
</trkpt>
<trkpt lat="53.6142529" lon="12.3228420">
<ele>51.339</ele>
<time>2013-08-21T14:36:34.267Z</time>
</trkpt>
<trkpt lat="53.6141963" lon="12.3227084">
<ele>50.801</ele>
<time>2013-08-21T14:36:36.067Z</time>
</trkpt>
<trkpt lat="53.6141284" lon="12.3225095">
<ele>49.703</ele>
<time>2013-08-21T14:36:38.532Z</time>
</trkpt>
<trkpt lat="53.6140620" lon="12.3223135">
<ele>48.604</ele>
<time>2013-08-21T14:36:40.916Z</time>
</trkpt>
<trkpt lat="53.6140116" lon="12.3221389">
<ele>47.958</ele>
<time>2013-08-21T14:36:42.946Z</time>
</trkpt>
<trkpt lat="53.6139211" lon="12.3218809">
<ele>47.253</ele>
<time>2013-08-21T14:36:46.087Z</time>
</trkpt>
<trkpt lat="53.6138340" lon="12.3216771">
<ele>46.241</ele>
<time>2013-08-21T14:36:48.743Z</time>
</trkpt>
<trkpt lat="53.6137267" lon="12.3213632">
<ele>45.769</ele>
<time>2013-08-21T14:36:52.631Z</time>
</trkpt>
<trkpt lat="53.6136682" lon="12.3210793">
<ele>46.695</ele>
<time>2013-08-21T14:36:55.898Z</time>
</trkpt>
<trkpt lat="53.6136405" lon="12.3208004">
<ele>48.565</ele>
<time>2013-08-21T14:36:59.086Z</time>
</trkpt>
<trkpt lat="53.6136170" lon="12.3205414">
<ele>50.209</ele>
<time>2013-08-21T14:37:02.227Z</time>
</trkpt>
<trkpt lat="53.6136011" lon="12.3203654">
<ele>51.048</ele>
<time>2013-08-21T14:37:04.422Z</time>
</trkpt>
<trkpt lat="53.6135901" lon="12.3201812">
<ele>51.339</ele>
<time>2013-08-21T14:37:06.717Z</time>
</trkpt>
<trkpt lat="53.6135793" lon="12.3199295">
<ele>51.490</ele>
<time>2013-08-21T14:37:09.829Z</time>
</trkpt>
<trkpt lat="53.6135845" lon="12.3197103">
<ele>51.406</ele>
<time>2013-08-21T14:37:12.502Z</time>
</trkpt>
<trkpt lat="53.6135874" lon="12.3195439">
<ele>50.941</ele>
<time>2013-08-21T14:37:14.522Z</time>
</trkpt>
<trkpt lat="53.6135854" lon="12.3193039">
<ele>50.481</ele>
<time>2013-08-21T14:37:17.452Z</time>
</trkpt>
<trkpt lat="53.6135835" lon="12.3190679">
<ele>50.375</ele>
<time>2013-08-21T14:37:20.367Z</time>
</trkpt>
<trkpt lat="53.6135644" lon="12.3188262">
<ele>50.272</ele>
<time>2013-08-21T14:37:23.411Z</time>
</trkpt>
<trkpt lat="53.6135403" lon="12.3186659">
<ele>49.786</ele>
<time>2013-08-21T14:37:25.475Z</time>
</trkpt>
<trkpt lat="53.6134957" lon="12.3184457">
<ele>49.113</ele>
<time>2013-08-21T14:37:28.340Z</time>
</trkpt>
<trkpt lat="53.6134405" lon="12.3182450">
<ele>48.627</ele>
<time>2013-08-21T14:37:31.012Z</time>
</trkpt>
<trkpt lat="53.6133728" lon="12.3180520">
<ele>48.620</ele>
<time>2013-08-21T14:37:33.680Z</time>
</trkpt>
<trkpt lat="53.6132829" lon="12.3178499">
<ele>49.230</ele>
<time>2013-08-21T14:37:36.631Z</time>
</trkpt>
<trkpt lat="53.6132130" lon="12.3177328">
<ele>50.074</ele>
<time>2013-08-21T14:37:38.557Z</time>
</trkpt>
<trkpt lat="53.6130926" lon="12.3175508">
<ele>50.632</ele>
<time>2013-08-21T14:37:41.724Z</time>
</trkpt>
<trkpt lat="53.6129564" lon="12.3174107">
<ele>50.563</ele>
<time>2013-08-21T14:37:44.880Z</time>
</trkpt>
<trkpt lat="53.6128537" lon="12.3173285">
<ele>50.055</ele>
<time>2013-08-21T14:37:47.170Z</time>
</trkpt>
<trkpt lat="53.6126950" lon="12.3172098">
<ele>49.582</ele>
<time>2013-08-21T14:37:50.736Z</time>
</trkpt>
<trkpt lat="53.6125554" lon="12.3171250">
<ele>49.110</ele>
<time>2013-08-21T14:37:53.805Z</time>
</trkpt>
<trkpt lat="53.6124606" lon="12.3170617">
<ele>48.500</ele>
<time>2013-08-21T14:37:55.913Z</time>
</trkpt>
<trkpt lat="53.6123227" lon="12.3169656">
<ele>48.416</ele>
<time>2013-08-21T14:37:59.039Z</time>
</trkpt>
<trkpt lat="53.6122074" lon="12.3168887">
<ele>49.204</ele>
<time>2013-08-21T14:38:01.695Z</time>
</trkpt>
<trkpt lat="53.6120730" lon="12.3167965">
<ele>50.346</ele>
<time>2013-08-21T14:38:04.857Z</time>
</trkpt>
<trkpt lat="53.6119473" lon="12.3166991">
<ele>51.074</ele>
<time>2013-08-21T14:38:07.882Z</time>
</trkpt>
<trkpt lat="53.6118647" lon="12.3166279">
<ele>51.283</ele>
<time>2013-08-21T14:38:09.877Z</time>
</trkpt>
<trkpt lat="53.6117561" lon="12.3165257">
<ele>51.362</ele>
<time>2013-08-21T14:38:12.522Z</time>
</trkpt>
<trkpt lat="53.6116637" lon="12.3164145">
<ele>51.484</ele>
<time>2013-08-21T14:38:14.926Z</time>
</trkpt>
<trkpt lat="53.6115583" lon="12.3162750">
<ele>50.967</ele>
<time>2013-08-21T14:38:17.753Z</time>
</trkpt>
<trkpt lat="53.6114769" lon="12.3161676">
<ele>49.544</ele>
<time>2013-08-21T14:38:19.910Z</time>
</trkpt>
<trkpt lat="53.6113960" lon="12.3160465">
<ele>48.418</ele>
<time>2013-08-21T14:38:22.168Z</time>
</trkpt>
<trkpt lat="53.6112868" lon="12.3158633">
<ele>48.693</ele>
<time>2013-08-21T14:38:25.372Z</time>
</trkpt>
<trkpt lat="53.6111916" lon="12.3157007">
<ele>49.722</ele>
<time>2013-08-21T14:38:28.124Z</time>
</trkpt>
<trkpt lat="53.6111216" lon="12.3155629">
<ele>50.705</ele>
<time>2013-08-21T14:38:30.264Z</time>
</trkpt>
<trkpt lat="53.6110394" lon="12.3153860">
<ele>51.404</ele>
<time>2013-08-21T14:38:32.890Z</time>
</trkpt>
<trkpt lat="53.6109620" lon="12.3152062">
<ele>51.628</ele>
<time>2013-08-21T14:38:35.470Z</time>
</trkpt>
<trkpt lat="53.6109066" lon="12.3150681">
<ele>51.375</ele>
<time>2013-08-21T14:38:37.404Z</time>
</trkpt>
<trkpt lat="53.6108179" lon="12.3148548">
<ele>50.845</ele>
<time>2013-08-21T14:38:40.391Z</time>
</trkpt>
<trkpt lat="53.6107294" lon="12.3146429">
<ele>50.258</ele>
<time>2013-08-21T14:38:43.315Z</time>
</trkpt>
<trkpt lat="53.6106462" lon="12.3144323">
<ele>49.994</ele>
<time>2013-08-21T14:38:46.153Z</time>
</trkpt>
<trkpt lat="53.6105571" lon="12.3142259">
<ele>50.169</ele>
<time>2013-08-21T14:38:49.014Z</time>
</trkpt>
<trkpt lat="53.6104490" lon="12.3139676">
<ele>50.500</ele>
<time>2013-08-21T14:38:52.574Z</time>
</trkpt>
<trkpt lat="53.6103572" lon="12.3137558">
<ele>50.788</ele>
<time>2013-08-21T14:38:55.560Z</time>
</trkpt>
<trkpt lat="53.6103049" lon="12.3136052">
<ele>51.045</ele>
<time>2013-08-21T14:38:57.565Z</time>
</trkpt>
<trkpt lat="53.6102250" lon="12.3133867">
<ele>51.108</ele>
<time>2013-08-21T14:39:00.555Z</time>
</trkpt>
<trkpt lat="53.6101358" lon="12.3131805">
<ele>50.696</ele>
<time>2013-08-21T14:39:03.571Z</time>
</trkpt>
<trkpt lat="53.6100805" lon="12.3130375">
<ele>49.900</ele>
<time>2013-08-21T14:39:05.576Z</time>
</trkpt>
<trkpt lat="53.6100086" lon="12.3128292">
<ele>49.182</ele>
<time>2013-08-21T14:39:08.365Z</time>
</trkpt>
<trkpt lat="53.6099258" lon="12.3126309">
<ele>48.732</ele>
<time>2013-08-21T14:39:11.142Z</time>
</trkpt>
<trkpt lat="53.6098445" lon="12.3124418">
<ele>48.418</ele>
<time>2013-08-21T14:39:13.805Z</time>
</trkpt>
<trkpt lat="53.6097724" lon="12.3122851">
<ele>48.474</ele>
<time>2013-08-21T14:39:16.038Z</time>
</trkpt>
<trkpt lat="53.6096700" lon="12.3120676">
<ele>49.082</ele>
<time>2013-08-21T14:39:19.074Z</time>
</trkpt>
<trkpt lat="53.6095574" lon="12.3118997">
<ele>49.781</ele>
<time>2013-08-21T14:39:21.855Z</time>
</trkpt>
<trkpt lat="53.6094788" lon="12.3118134">
<ele>50.088</ele>
<time>2013-08-21T14:39:23.647Z</time>
</trkpt>
<trkpt lat="53.6093383" lon="12.3116676">
<ele>49.932</ele>
<time>2013-08-21T14:39:26.960Z</time>
</trkpt>
<trkpt lat="53.6092420" lon="12.3115697">
<ele>49.384</ele>
<time>2013-08-21T14:39:29.337Z</time>
</trkpt>
<trkpt lat="53.6091505" lon="12.3114800">
<ele>48.446</ele>
<time>2013-08-21T14:39:31.652Z</time>
</trkpt>
<trkpt lat="53.6090324" lon="12.3113677">
<ele>47.156</ele>
<time>2013-08-21T14:39:34.621Z</time>
</trkpt>
<trkpt lat="53.6089309" lon="12.3112573">
<ele>45.939</ele>
<time>2013-08-21T14:39:37.255Z</time>
</trkpt>
<trkpt lat="53.6088251" lon="12.3111467">
<ele>45.380</ele>
<time>2013-08-21T14:39:39.889Z</time>
</trkpt>
<trkpt lat="53.6087445" lon="12.3110717">
<ele>46.073</ele>
<time>2013-08-21T14:39:41.791Z</time>
</trkpt>
<trkpt lat="53.6086264" lon="12.3109425">
<ele>47.995</ele>
<time>2013-08-21T14:39:44.597Z</time>
</trkpt>
<trkpt lat="53.6085144" lon="12.3108188">
<ele>50.027</ele>
<time>2013-08-21T14:39:47.265Z</time>
</trkpt>
<trkpt lat="53.6084213" lon="12.3107310">
<ele>51.191</ele>
<time>2013-08-21T14:39:49.436Z</time>
</trkpt>
<trkpt lat="53.6082854" lon="12.3105987">
<ele>51.141</ele>
<time>2013-08-21T14:39:52.826Z</time>
</trkpt>
<trkpt lat="53.6081480" lon="12.3104809">
<ele>49.928</ele>
<time>2013-08-21T14:39:56.465Z</time>
</trkpt>
<trkpt lat="53.6080610" lon="12.3104168">
<ele>48.419</ele>
<time>2013-08-21T14:39:58.845Z</time>
</trkpt>
<trkpt lat="53.6079491" lon="12.3103233">
<ele>47.875</ele>
<time>2013-08-21T14:40:02.024Z</time>
</trkpt>
<trkpt lat="53.6078522" lon="12.3102187">
<ele>48.876</ele>
<time>2013-08-21T14:40:04.860Z</time>
</trkpt>
<trkpt lat="53.6077594" lon="12.3101353">
<ele>50.715</ele>
<time>2013-08-21T14:40:07.381Z</time>
</trkpt>
<trkpt lat="53.6076512" lon="12.3100456">
<ele>51.640</ele>
<time>2013-08-21T14:40:10.277Z</time>
</trkpt>
<trkpt lat="53.6075413" lon="12.3099194">
<ele>50.922</ele>
<time>2013-08-21T14:40:13.553Z</time>
</trkpt>
<trkpt lat="53.6074233" lon="12.3098189">
<ele>49.753</ele>
<time>2013-08-21T14:40:16.952Z</time>
</trkpt>
<trkpt lat="53.6073278" lon="12.3097272">
<ele>49.288</ele>
<time>2013-08-21T14:40:19.887Z</time>
</trkpt>
<trkpt lat="53.6072357" lon="12.3096466">
<ele>49.360</ele>
<time>2013-08-21T14:40:22.681Z</time>
</trkpt>
<trkpt lat="53.6071400" lon="12.3095641">
<ele>49.287</ele>
<time>2013-08-21T14:40:25.493Z</time>
</trkpt>
<trkpt lat="53.6070545" lon="12.3094838">
<ele>48.797</ele>
<time>2013-08-21T14:40:27.961Z</time>
</trkpt>
<trkpt lat="53.6069588" lon="12.3093922">
<ele>48.544</ele>
<time>2013-08-21T14:40:30.672Z</time>
</trkpt>
<trkpt lat="53.6068596" lon="12.3093009">
<ele>49.100</ele>
<time>2013-08-21T14:40:33.424Z</time>
</trkpt>
<trkpt lat="53.6067438" lon="12.3091981">
<ele>50.290</ele>
<time>2013-08-21T14:40:36.583Z</time>
</trkpt>
<trkpt lat="53.6066385" lon="12.3091011">
<ele>51.776</ele>
<time>2013-08-21T14:40:39.477Z</time>
</trkpt>
<trkpt lat="53.6065265" lon="12.3090062">
<ele>53.121</ele>
<time>2013-08-21T14:40:42.542Z</time>
</trkpt>
<trkpt lat="53.6064136" lon="12.3089076">
<ele>53.873</ele>
<time>2013-08-21T14:40:45.748Z</time>
</trkpt>
<trkpt lat="53.6063103" lon="12.3088183">
<ele>54.079</ele>
<time>2013-08-21T14:40:48.790Z</time>
</trkpt>
<trkpt lat="53.6062090" lon="12.3087409">
<ele>53.899</ele>
<time>2013-08-21T14:40:51.793Z</time>
</trkpt>
<trkpt lat="53.6061134" lon="12.3086422">
<ele>53.484</ele>
<time>2013-08-21T14:40:54.880Z</time>
</trkpt>
<trkpt lat="53.6060219" lon="12.3085600">
<ele>53.176</ele>
<time>2013-08-21T14:40:57.783Z</time>
</trkpt>
<trkpt lat="53.6059370" lon="12.3084907">
<ele>53.196</ele>
<time>2013-08-21T14:41:00.464Z</time>
</trkpt>
<trkpt lat="53.6058457" lon="12.3084189">
<ele>53.321</ele>
<time>2013-08-21T14:41:03.374Z</time>
</trkpt>
<trkpt lat="53.6057561" lon="12.3083529">
<ele>53.268</ele>
<time>2013-08-21T14:41:06.212Z</time>
</trkpt>
<trkpt lat="53.6056679" lon="12.3082707">
<ele>53.055</ele>
<time>2013-08-21T14:41:09.107Z</time>
</trkpt>
<trkpt lat="53.6055847" lon="12.3081943">
<ele>53.334</ele>
<time>2013-08-21T14:41:11.814Z</time>
</trkpt>
<trkpt lat="53.6054874" lon="12.3081109">
<ele>54.475</ele>
<time>2013-08-21T14:41:14.899Z</time>
</trkpt>
<trkpt lat="53.6054148" lon="12.3080203">
<ele>55.686</ele>
<time>2013-08-21T14:41:17.302Z</time>
</trkpt>
<trkpt lat="53.6053362" lon="12.3079088">
<ele>55.862</ele>
<time>2013-08-21T14:41:19.847Z</time>
</trkpt>
<trkpt lat="53.6052901" lon="12.3077706">
<ele>54.728</ele>
<time>2013-08-21T14:41:21.920Z</time>
</trkpt>
<trkpt lat="53.6052494" lon="12.3076163">
<ele>52.959</ele>
<time>2013-08-21T14:41:24.021Z</time>
</trkpt>
<trkpt lat="53.6051771" lon="12.3073656">
<ele>51.602</ele>
<time>2013-08-21T14:41:27.317Z</time>
</trkpt>
<trkpt lat="53.6051333" lon="12.3072000">
<ele>51.232</ele>
<time>2013-08-21T14:41:29.408Z</time>
</trkpt>
<trkpt lat="53.6050709" lon="12.3069443">
<ele>51.731</ele>
<time>2013-08-21T14:41:32.550Z</time>
</trkpt>
<trkpt lat="53.6050070" lon="12.3067095">
<ele>52.433</ele>
<time>2013-08-21T14:41:35.436Z</time>
</trkpt>
<trkpt lat="53.6049639" lon="12.3065474">
<ele>52.768</ele>
<time>2013-08-21T14:41:37.401Z</time>
</trkpt>
<trkpt lat="53.6049055" lon="12.3063110">
<ele>52.743</ele>
<time>2013-08-21T14:41:40.232Z</time>
</trkpt>
<trkpt lat="53.6048389" lon="12.3060625">
<ele>52.676</ele>
<time>2013-08-21T14:41:43.259Z</time>
</trkpt>
<trkpt lat="53.6048001" lon="12.3059038">
<ele>52.830</ele>
<time>2013-08-21T14:41:45.177Z</time>
</trkpt>
<trkpt lat="53.6047367" lon="12.3056697">
<ele>53.219</ele>
<time>2013-08-21T14:41:48.083Z</time>
</trkpt>
<trkpt lat="53.6046768" lon="12.3054415">
<ele>53.647</ele>
<time>2013-08-21T14:41:50.932Z</time>
</trkpt>
<trkpt lat="53.6046164" lon="12.3052143">
<ele>53.907</ele>
<time>2013-08-21T14:41:53.803Z</time>
</trkpt>
<trkpt lat="53.6045561" lon="12.3049911">
<ele>53.958</ele>
<time>2013-08-21T14:41:56.684Z</time>
</trkpt>
<trkpt lat="53.6044910" lon="12.3047711">
<ele>53.887</ele>
<time>2013-08-21T14:41:59.621Z</time>
</trkpt>
<trkpt lat="53.6044509" lon="12.3046310">
<ele>53.768</ele>
<time>2013-08-21T14:42:01.506Z</time>
</trkpt>
<trkpt lat="53.6043938" lon="12.3044229">
<ele>53.660</ele>
<time>2013-08-21T14:42:04.299Z</time>
</trkpt>
<trkpt lat="53.6043340" lon="12.3042124">
<ele>53.671</ele>
<time>2013-08-21T14:42:07.157Z</time>
</trkpt>
<trkpt lat="53.6042778" lon="12.3040123">
<ele>53.844</ele>
<time>2013-08-21T14:42:09.893Z</time>
</trkpt>
<trkpt lat="53.6042255" lon="12.3038049">
<ele>54.052</ele>
<time>2013-08-21T14:42:12.752Z</time>
</trkpt>
<trkpt lat="53.6041829" lon="12.3036617">
<ele>54.167</ele>
<time>2013-08-21T14:42:14.826Z</time>
</trkpt>
<trkpt lat="53.6041256" lon="12.3034745">
<ele>54.142</ele>
<time>2013-08-21T14:42:17.597Z</time>
</trkpt>
<trkpt lat="53.6040819" lon="12.3032890">
<ele>54.056</ele>
<time>2013-08-21T14:42:20.243Z</time>
</trkpt>
<trkpt lat="53.6040404" lon="12.3030976">
<ele>54.089</ele>
<time>2013-08-21T14:42:22.946Z</time>
</trkpt>
<trkpt lat="53.6040005" lon="12.3029037">
<ele>54.366</ele>
<time>2013-08-21T14:42:25.640Z</time>
</trkpt>
<trkpt lat="53.6039494" lon="12.3026975">
<ele>54.889</ele>
<time>2013-08-21T14:42:28.567Z</time>
</trkpt>
<trkpt lat="53.6038998" lon="12.3024834">
<ele>55.459</ele>
<time>2013-08-21T14:42:31.605Z</time>
</trkpt>
<trkpt lat="53.6038493" lon="12.3022912">
<ele>55.779</ele>
<time>2013-08-21T14:42:34.389Z</time>
</trkpt>
<trkpt lat="53.6037992" lon="12.3020895">
<ele>55.754</ele>
<time>2013-08-21T14:42:37.251Z</time>
</trkpt>
<trkpt lat="53.6037501" lon="12.3018861">
<ele>55.497</ele>
<time>2013-08-21T14:42:40.082Z</time>
</trkpt>
<trkpt lat="53.6037133" lon="12.3017440">
<ele>55.084</ele>
<time>2013-08-21T14:42:42.059Z</time>
</trkpt>
<trkpt lat="53.6036632" lon="12.3015265">
<ele>54.494</ele>
<time>2013-08-21T14:42:44.995Z</time>
</trkpt>
<trkpt lat="53.6036060" lon="12.3013140">
<ele>53.863</ele>
<time>2013-08-21T14:42:47.809Z</time>
</trkpt>
<trkpt lat="53.6035676" lon="12.3011608">
<ele>53.404</ele>
<time>2013-08-21T14:42:49.703Z</time>
</trkpt>
<trkpt lat="53.6035001" lon="12.3008947">
<ele>53.115</ele>
<time>2013-08-21T14:42:52.949Z</time>
</trkpt>
<trkpt lat="53.6034551" lon="12.3007082">
<ele>52.865</ele>
<time>2013-08-21T14:42:55.251Z</time>
</trkpt>
<trkpt lat="53.6034207" lon="12.3005508">
<ele>52.619</ele>
<time>2013-08-21T14:42:57.221Z</time>
</trkpt>
<trkpt lat="53.6033471" lon="12.3003581">
<ele>52.439</ele>
<time>2013-08-21T14:42:59.944Z</time>
</trkpt>
<trkpt lat="53.6032895" lon="12.3002381">
<ele>52.373</ele>
<time>2013-08-21T14:43:01.796Z</time>
</trkpt>
<trkpt lat="53.6031979" lon="12.3000631">
<ele>52.394</ele>
<time>2013-08-21T14:43:04.596Z</time>
</trkpt>
<trkpt lat="53.6031415" lon="12.2999448">
<ele>52.382</ele>
<time>2013-08-21T14:43:06.391Z</time>
</trkpt>
<trkpt lat="53.6030563" lon="12.2997672">
<ele>52.262</ele>
<time>2013-08-21T14:43:09.060Z</time>
</trkpt>
<trkpt lat="53.6029660" lon="12.2995707">
<ele>52.061</ele>
<time>2013-08-21T14:43:11.898Z</time>
</trkpt>
<trkpt lat="53.6029024" lon="12.2994307">
<ele>51.729</ele>
<time>2013-08-21T14:43:13.881Z</time>
</trkpt>
<trkpt lat="53.6028373" lon="12.2992883">
<ele>51.281</ele>
<time>2013-08-21T14:43:15.890Z</time>
</trkpt>
<trkpt lat="53.6027357" lon="12.2990810">
<ele>50.990</ele>
<time>2013-08-21T14:43:18.871Z</time>
</trkpt>
<trkpt lat="53.6026347" lon="12.2988681">
<ele>51.010</ele>
<time>2013-08-21T14:43:21.853Z</time>
</trkpt>
<trkpt lat="53.6025708" lon="12.2987228">
<ele>51.004</ele>
<time>2013-08-21T14:43:23.816Z</time>
</trkpt>
<trkpt lat="53.6024741" lon="12.2985022">
<ele>50.606</ele>
<time>2013-08-21T14:43:26.774Z</time>
</trkpt>
<trkpt lat="53.6024186" lon="12.2983500">
<ele>49.964</ele>
<time>2013-08-21T14:43:28.708Z</time>
</trkpt>
<trkpt lat="53.6023394" lon="12.2981246">
<ele>49.269</ele>
<time>2013-08-21T14:43:31.601Z</time>
</trkpt>
<trkpt lat="53.6022744" lon="12.2980022">
<ele>48.546</ele>
<time>2013-08-21T14:43:33.469Z</time>
</trkpt>
<trkpt lat="53.6021713" lon="12.2978295">
<ele>48.257</ele>
<time>2013-08-21T14:43:36.387Z</time>
</trkpt>
<trkpt lat="53.6020770" lon="12.2976998">
<ele>48.815</ele>
<time>2013-08-21T14:43:38.999Z</time>
</trkpt>
<trkpt lat="53.6019969" lon="12.2975936">
<ele>49.793</ele>
<time>2013-08-21T14:43:41.342Z</time>
</trkpt>
<trkpt lat="53.6018956" lon="12.2974691">
<ele>50.503</ele>
<time>2013-08-21T14:43:44.278Z</time>
</trkpt>
<trkpt lat="53.6017979" lon="12.2973475">
<ele>50.619</ele>
<time>2013-08-21T14:43:47.148Z</time>
</trkpt>
<trkpt lat="53.6016927" lon="12.2972091">
<ele>50.266</ele>
<time>2013-08-21T14:43:50.265Z</time>
</trkpt>
<trkpt lat="53.6015927" lon="12.2970802">
<ele>50.072</ele>
<time>2013-08-21T14:43:53.191Z</time>
</trkpt>
<trkpt lat="53.6014976" lon="12.2969649">
<ele>50.471</ele>
<time>2013-08-21T14:43:55.919Z</time>
</trkpt>
<trkpt lat="53.6014026" lon="12.2968300">
<ele>51.318</ele>
<time>2013-08-21T14:43:58.807Z</time>
</trkpt>
<trkpt lat="53.6013034" lon="12.2967022">
<ele>52.239</ele>
<time>2013-08-21T14:44:01.694Z</time>
</trkpt>
<trkpt lat="53.6012043" lon="12.2965813">
<ele>52.924</ele>
<time>2013-08-21T14:44:04.530Z</time>
</trkpt>
<trkpt lat="53.6011189" lon="12.2964542">
<ele>53.272</ele>
<time>2013-08-21T14:44:07.190Z</time>
</trkpt>
<trkpt lat="53.6010068" lon="12.2963531">
<ele>53.588</ele>
<time>2013-08-21T14:44:10.123Z</time>
</trkpt>
<trkpt lat="53.6009259" lon="12.2962514">
<ele>54.071</ele>
<time>2013-08-21T14:44:12.344Z</time>
</trkpt>
<trkpt lat="53.6007983" lon="12.2960739">
<ele>54.363</ele>
<time>2013-08-21T14:44:15.746Z</time>
</trkpt>
<trkpt lat="53.6007043" lon="12.2959455">
<ele>53.948</ele>
<time>2013-08-21T14:44:17.851Z</time>
</trkpt>
<trkpt lat="53.6005434" lon="12.2957237">
<ele>52.708</ele>
<time>2013-08-21T14:44:20.951Z</time>
</trkpt>
<trkpt lat="53.6003840" lon="12.2954920">
<ele>51.078</ele>
<time>2013-08-21T14:44:23.773Z</time>
</trkpt>
<trkpt lat="53.6002178" lon="12.2952584">
<ele>49.830</ele>
<time>2013-08-21T14:44:26.629Z</time>
</trkpt>
<trkpt lat="53.6001092" lon="12.2951001">
<ele>49.255</ele>
<time>2013-08-21T14:44:28.571Z</time>
</trkpt>
<trkpt lat="53.5999202" lon="12.2949199">
<ele>48.534</ele>
<time>2013-08-21T14:44:31.651Z</time>
</trkpt>
<trkpt lat="53.5997523" lon="12.2948489">
<ele>47.094</ele>
<time>2013-08-21T14:44:34.486Z</time>
</trkpt>
<trkpt lat="53.5996539" lon="12.2948967">
<ele>45.250</ele>
<time>2013-08-21T14:44:36.691Z</time>
</trkpt>
<trkpt lat="53.5996539" lon="12.2948967">
<ele>43.528</ele>
<time>2013-08-21T14:44:41.675Z</time>
</trkpt>
<trkpt lat="53.5996539" lon="12.2948967">
<ele>42.540</ele>
<time>2013-08-21T14:56:03.994Z</time>
</trkpt>
<trkpt lat="53.5994845" lon="12.2947497">
<ele>42.832</ele>
<time>2013-08-21T14:56:26.982Z</time>
</trkpt>
<trkpt lat="53.5993984" lon="12.2947008">
<ele>44.589</ele>
<time>2013-08-21T14:56:31.497Z</time>
</trkpt>
<trkpt lat="53.5993073" lon="12.2946244">
<ele>47.586</ele>
<time>2013-08-21T14:56:36.205Z</time>
</trkpt>
<trkpt lat="53.5992006" lon="12.2945372">
<ele>50.702</ele>
<time>2013-08-21T14:56:41.024Z</time>
</trkpt>
<trkpt lat="53.5990989" lon="12.2944345">
<ele>52.748</ele>
<time>2013-08-21T14:56:45.427Z</time>
</trkpt>
<trkpt lat="53.5990099" lon="12.2943365">
<ele>53.393</ele>
<time>2013-08-21T14:56:49.208Z</time>
</trkpt>
<trkpt lat="53.5989261" lon="12.2942640">
<ele>53.005</ele>
<time>2013-08-21T14:56:52.376Z</time>
</trkpt>
<trkpt lat="53.5988221" lon="12.2942015">
<ele>52.215</ele>
<time>2013-08-21T14:56:55.847Z</time>
</trkpt>
<trkpt lat="53.5987222" lon="12.2941547">
<ele>51.476</ele>
<time>2013-08-21T14:56:58.867Z</time>
</trkpt>
<trkpt lat="53.5986091" lon="12.2941084">
<ele>50.204</ele>
<time>2013-08-21T14:57:02.111Z</time>
</trkpt>
<trkpt lat="53.5984727" lon="12.2940561">
<ele>47.938</ele>
<time>2013-08-21T14:57:05.875Z</time>
</trkpt>
<trkpt lat="53.5983801" lon="12.2940223">
<ele>45.995</ele>
<time>2013-08-21T14:57:08.335Z</time>
</trkpt>
<trkpt lat="53.5982272" lon="12.2939738">
<ele>45.585</ele>
<time>2013-08-21T14:57:12.200Z</time>
</trkpt>
<trkpt lat="53.5980705" lon="12.2939507">
<ele>45.624</ele>
<time>2013-08-21T14:57:15.914Z</time>
</trkpt>
<trkpt lat="53.5979705" lon="12.2939306">
<ele>44.391</ele>
<time>2013-08-21T14:57:18.180Z</time>
</trkpt>
<trkpt lat="53.5978267" lon="12.2938823">
<ele>41.927</ele>
<time>2013-08-21T14:57:21.373Z</time>
</trkpt>
<trkpt lat="53.5977024" lon="12.2938480">
<ele>39.831</ele>
<time>2013-08-21T14:57:24.059Z</time>
</trkpt>
<trkpt lat="53.5975697" lon="12.2938100">
<ele>39.291</ele>
<time>2013-08-21T14:57:26.948Z</time>
</trkpt>
<trkpt lat="53.5974766" lon="12.2937780">
<ele>40.063</ele>
<time>2013-08-21T14:57:29.013Z</time>
</trkpt>
<trkpt lat="53.5973491" lon="12.2937195">
<ele>41.148</ele>
<time>2013-08-21T14:57:31.940Z</time>
</trkpt>
<trkpt lat="53.5972220" lon="12.2936528">
<ele>41.866</ele>
<time>2013-08-21T14:57:35.003Z</time>
</trkpt>
<trkpt lat="53.5971349" lon="12.2936155">
<ele>42.673</ele>
<time>2013-08-21T14:57:37.126Z</time>
</trkpt>
<trkpt lat="53.5970360" lon="12.2935831">
<ele>43.987</ele>
<time>2013-08-21T14:57:39.504Z</time>
</trkpt>
<trkpt lat="53.5969147" lon="12.2935437">
<ele>44.912</ele>
<time>2013-08-21T14:57:42.373Z</time>
</trkpt>
<trkpt lat="53.5967976" lon="12.2935096">
<ele>44.313</ele>
<time>2013-08-21T14:57:45.097Z</time>
</trkpt>
<trkpt lat="53.5966899" lon="12.2934722">
<ele>42.679</ele>
<time>2013-08-21T14:57:47.610Z</time>
</trkpt>
<trkpt lat="53.5965579" lon="12.2934321">
<ele>41.244</ele>
<time>2013-08-21T14:57:50.666Z</time>
</trkpt>
<trkpt lat="53.5964312" lon="12.2933969">
<ele>40.398</ele>
<time>2013-08-21T14:57:53.582Z</time>
</trkpt>
<trkpt lat="53.5963069" lon="12.2933378">
<ele>39.840</ele>
<time>2013-08-21T14:57:56.544Z</time>
</trkpt>
<trkpt lat="53.5961904" lon="12.2932791">
<ele>39.442</ele>
<time>2013-08-21T14:57:59.406Z</time>
</trkpt>
<trkpt lat="53.5960653" lon="12.2932147">
<ele>39.140</ele>
<time>2013-08-21T14:58:02.477Z</time>
</trkpt>
<trkpt lat="53.5959338" lon="12.2931604">
<ele>38.408</ele>
<time>2013-08-21T14:58:05.608Z</time>
</trkpt>
<trkpt lat="53.5958134" lon="12.2930883">
<ele>37.045</ele>
<time>2013-08-21T14:58:08.647Z</time>
</trkpt>
<trkpt lat="53.5957069" lon="12.2930268">
<ele>35.896</ele>
<time>2013-08-21T14:58:11.470Z</time>
</trkpt>
<trkpt lat="53.5956143" lon="12.2929673">
<ele>36.370</ele>
<time>2013-08-21T14:58:14.082Z</time>
</trkpt>
<trkpt lat="53.5955285" lon="12.2929141">
<ele>38.593</ele>
<time>2013-08-21T14:58:16.606Z</time>
</trkpt>
<trkpt lat="53.5954038" lon="12.2928784">
<ele>41.087</ele>
<time>2013-08-21T14:58:20.292Z</time>
</trkpt>
<trkpt lat="53.5953001" lon="12.2928728">
<ele>42.908</ele>
<time>2013-08-21T14:58:23.523Z</time>
</trkpt>
<trkpt lat="53.5952042" lon="12.2928862">
<ele>44.525</ele>
<time>2013-08-21T14:58:26.731Z</time>
</trkpt>
<trkpt lat="53.5951060" lon="12.2929325">
<ele>46.195</ele>
<time>2013-08-21T14:58:30.305Z</time>
</trkpt>
<trkpt lat="53.5950111" lon="12.2929893">
<ele>47.558</ele>
<time>2013-08-21T14:58:33.985Z</time>
</trkpt>
<trkpt lat="53.5949179" lon="12.2930463">
<ele>48.584</ele>
<time>2013-08-21T14:58:37.682Z</time>
</trkpt>
<trkpt lat="53.5948301" lon="12.2931060">
<ele>49.594</ele>
<time>2013-08-21T14:58:41.219Z</time>
</trkpt>
<trkpt lat="53.5947327" lon="12.2931886">
<ele>50.406</ele>
<time>2013-08-21T14:58:45.306Z</time>
</trkpt>
<trkpt lat="53.5946318" lon="12.2932688">
<ele>50.732</ele>
<time>2013-08-21T14:58:49.532Z</time>
</trkpt>
<trkpt lat="53.5945457" lon="12.2933214">
<ele>50.821</ele>
<time>2013-08-21T14:58:53.032Z</time>
</trkpt>
<trkpt lat="53.5944558" lon="12.2933916">
<ele>51.087</ele>
<time>2013-08-21T14:58:56.875Z</time>
</trkpt>
<trkpt lat="53.5943736" lon="12.2934763">
<ele>51.621</ele>
<time>2013-08-21T14:59:00.778Z</time>
</trkpt>
<trkpt lat="53.5942997" lon="12.2935623">
<ele>52.381</ele>
<time>2013-08-21T14:59:04.539Z</time>
</trkpt>
<trkpt lat="53.5942271" lon="12.2936630">
<ele>53.583</ele>
<time>2013-08-21T14:59:08.574Z</time>
</trkpt>
<trkpt lat="53.5941546" lon="12.2937616">
<ele>55.113</ele>
<time>2013-08-21T14:59:12.292Z</time>
</trkpt>
<trkpt lat="53.5940830" lon="12.2938542">
<ele>56.243</ele>
<time>2013-08-21T14:59:15.547Z</time>
</trkpt>
<trkpt lat="53.5939924" lon="12.2938884">
<ele>55.855</ele>
<time>2013-08-21T14:59:18.612Z</time>
</trkpt>
<trkpt lat="53.5938949" lon="12.2938800">
<ele>53.781</ele>
<time>2013-08-21T14:59:21.686Z</time>
</trkpt>
<trkpt lat="53.5937887" lon="12.2938328">
<ele>51.579</ele>
<time>2013-08-21T14:59:25.126Z</time>
</trkpt>
<trkpt lat="53.5936853" lon="12.2937713">
<ele>51.066</ele>
<time>2013-08-21T14:59:28.608Z</time>
</trkpt>
<trkpt lat="53.5935949" lon="12.2937181">
<ele>52.312</ele>
<time>2013-08-21T14:59:31.604Z</time>
</trkpt>
<trkpt lat="53.5934980" lon="12.2936925">
<ele>53.496</ele>
<time>2013-08-21T14:59:34.584Z</time>
</trkpt>
<trkpt lat="53.5934035" lon="12.2936894">
<ele>52.867</ele>
<time>2013-08-21T14:59:37.420Z</time>
</trkpt>
<trkpt lat="53.5933120" lon="12.2936767">
<ele>50.893</ele>
<time>2013-08-21T14:59:40.142Z</time>
</trkpt>
<trkpt lat="53.5931912" lon="12.2936458">
<ele>48.433</ele>
<time>2013-08-21T14:59:43.649Z</time>
</trkpt>
<trkpt lat="53.5930759" lon="12.2936323">
<ele>45.624</ele>
<time>2013-08-21T14:59:46.898Z</time>
</trkpt>
<trkpt lat="53.5929712" lon="12.2935931">
<ele>43.162</ele>
<time>2013-08-21T14:59:49.880Z</time>
</trkpt>
<trkpt lat="53.5928430" lon="12.2935428">
<ele>42.626</ele>
<time>2013-08-21T14:59:53.540Z</time>
</trkpt>
<trkpt lat="53.5927206" lon="12.2935126">
<ele>44.633</ele>
<time>2013-08-21T14:59:57.142Z</time>
</trkpt>
<trkpt lat="53.5926237" lon="12.2934561">
<ele>47.837</ele>
<time>2013-08-21T15:00:00.263Z</time>
</trkpt>
<trkpt lat="53.5925223" lon="12.2933808">
<ele>50.370</ele>
<time>2013-08-21T15:00:03.696Z</time>
</trkpt>
<trkpt lat="53.5924251" lon="12.2933273">
<ele>52.205</ele>
<time>2013-08-21T15:00:06.810Z</time>
</trkpt>
<trkpt lat="53.5923535" lon="12.2931901">
<ele>53.975</ele>
<time>2013-08-21T15:00:10.042Z</time>
</trkpt>
<trkpt lat="53.5923168" lon="12.2930445">
<ele>54.810</ele>
<time>2013-08-21T15:00:12.788Z</time>
</trkpt>
<trkpt lat="53.5922915" lon="12.2928922">
<ele>53.963</ele>
<time>2013-08-21T15:00:15.475Z</time>
</trkpt>
<trkpt lat="53.5922709" lon="12.2927332">
<ele>52.994</ele>
<time>2013-08-21T15:00:18.149Z</time>
</trkpt>
<trkpt lat="53.5922419" lon="12.2925741">
<ele>53.447</ele>
<time>2013-08-21T15:00:20.757Z</time>
</trkpt>
<trkpt lat="53.5921996" lon="12.2924204">
<ele>54.756</ele>
<time>2013-08-21T15:00:23.268Z</time>
</trkpt>
<trkpt lat="53.5921418" lon="12.2922504">
<ele>55.752</ele>
<time>2013-08-21T15:00:25.975Z</time>
</trkpt>
<trkpt lat="53.5920963" lon="12.2920386">
<ele>56.719</ele>
<time>2013-08-21T15:00:28.829Z</time>
</trkpt>
<trkpt lat="53.5920570" lon="12.2918476">
<ele>58.365</ele>
<time>2013-08-21T15:00:31.217Z</time>
</trkpt>
<trkpt lat="53.5919940" lon="12.2916071">
<ele>60.009</ele>
<time>2013-08-21T15:00:34.227Z</time>
</trkpt>
<trkpt lat="53.5919185" lon="12.2913661">
<ele>60.897</ele>
<time>2013-08-21T15:00:37.342Z</time>
</trkpt>
<trkpt lat="53.5918760" lon="12.2911809">
<ele>61.369</ele>
<time>2013-08-21T15:00:39.704Z</time>
</trkpt>
<trkpt lat="53.5918355" lon="12.2910082">
<ele>61.663</ele>
<time>2013-08-21T15:00:41.979Z</time>
</trkpt>
<trkpt lat="53.5917849" lon="12.2907823">
<ele>61.414</ele>
<time>2013-08-21T15:00:44.914Z</time>
</trkpt>
<trkpt lat="53.5917547" lon="12.2906241">
<ele>60.540</ele>
<time>2013-08-21T15:00:46.935Z</time>
</trkpt>
<trkpt lat="53.5917291" lon="12.2904682">
<ele>59.819</ele>
<time>2013-08-21T15:00:48.902Z</time>
</trkpt>
<trkpt lat="53.5916611" lon="12.2902045">
<ele>59.877</ele>
<time>2013-08-21T15:00:52.343Z</time>
</trkpt>
<trkpt lat="53.5916167" lon="12.2900609">
<ele>60.229</ele>
<time>2013-08-21T15:00:54.232Z</time>
</trkpt>
<trkpt lat="53.5915524" lon="12.2898581">
<ele>60.275</ele>
<time>2013-08-21T15:00:56.861Z</time>
</trkpt>
<trkpt lat="53.5914979" lon="12.2897121">
<ele>60.046</ele>
<time>2013-08-21T15:00:58.823Z</time>
</trkpt>
<trkpt lat="53.5914139" lon="12.2894914">
<ele>60.123</ele>
<time>2013-08-21T15:01:01.799Z</time>
</trkpt>
<trkpt lat="53.5913634" lon="12.2893459">
<ele>60.812</ele>
<time>2013-08-21T15:01:03.695Z</time>
</trkpt>
<trkpt lat="53.5912831" lon="12.2891505">
<ele>61.262</ele>
<time>2013-08-21T15:01:06.332Z</time>
</trkpt>
<trkpt lat="53.5912007" lon="12.2889630">
<ele>60.754</ele>
<time>2013-08-21T15:01:08.897Z</time>
</trkpt>
<trkpt lat="53.5911325" lon="12.2888298">
<ele>59.887</ele>
<time>2013-08-21T15:01:10.811Z</time>
</trkpt>
<trkpt lat="53.5910639" lon="12.2886989">
<ele>59.865</ele>
<time>2013-08-21T15:01:12.706Z</time>
</trkpt>
<trkpt lat="53.5909586" lon="12.2885038">
<ele>61.467</ele>
<time>2013-08-21T15:01:15.590Z</time>
</trkpt>
<trkpt lat="53.5908838" lon="12.2883725">
<ele>64.718</ele>
<time>2013-08-21T15:01:17.656Z</time>
</trkpt>
<trkpt lat="53.5907653" lon="12.2881930">
<ele>68.589</ele>
<time>2013-08-21T15:01:20.814Z</time>
</trkpt>
<trkpt lat="53.5906458" lon="12.2880592">
<ele>72.347</ele>
<time>2013-08-21T15:01:23.817Z</time>
</trkpt>
<trkpt lat="53.5905389" lon="12.2879911">
<ele>75.732</ele>
<time>2013-08-21T15:01:26.334Z</time>
</trkpt>
<trkpt lat="53.5904109" lon="12.2878916">
<ele>77.778</ele>
<time>2013-08-21T15:01:29.537Z</time>
</trkpt>
<trkpt lat="53.5903037" lon="12.2877887">
<ele>77.289</ele>
<time>2013-08-21T15:01:32.393Z</time>
</trkpt>
<trkpt lat="53.5901886" lon="12.2876792">
<ele>74.258</ele>
<time>2013-08-21T15:01:35.467Z</time>
</trkpt>
<trkpt lat="53.5901047" lon="12.2876093">
<ele>70.115</ele>
<time>2013-08-21T15:01:37.633Z</time>
</trkpt>
<trkpt lat="53.5900001" lon="12.2875112">
<ele>66.744</ele>
<time>2013-08-21T15:01:40.456Z</time>
</trkpt>
<trkpt lat="53.5898834" lon="12.2873840">
<ele>64.835</ele>
<time>2013-08-21T15:01:43.785Z</time>
</trkpt>
<trkpt lat="53.5897690" lon="12.2872452">
<ele>63.719</ele>
<time>2013-08-21T15:01:47.012Z</time>
</trkpt>
<trkpt lat="53.5896682" lon="12.2871078">
<ele>62.712</ele>
<time>2013-08-21T15:01:49.751Z</time>
</trkpt>
<trkpt lat="53.5895266" lon="12.2869815">
<ele>61.459</ele>
<time>2013-08-21T15:01:52.874Z</time>
</trkpt>
<trkpt lat="53.5894275" lon="12.2868875">
<ele>60.010</ele>
<time>2013-08-21T15:01:55.049Z</time>
</trkpt>
<trkpt lat="53.5892599" lon="12.2867079">
<ele>59.446</ele>
<time>2013-08-21T15:01:58.862Z</time>
</trkpt>
<trkpt lat="53.5891450" lon="12.2865751">
<ele>61.490</ele>
<time>2013-08-21T15:02:01.587Z</time>
</trkpt>
<trkpt lat="53.5890222" lon="12.2863556">
<ele>65.543</ele>
<time>2013-08-21T15:02:05.093Z</time>
</trkpt>
<trkpt lat="53.5889694" lon="12.2861010">
<ele>68.936</ele>
<time>2013-08-21T15:02:08.201Z</time>
</trkpt>
<trkpt lat="53.5889788" lon="12.2859300">
<ele>68.949</ele>
<time>2013-08-21T15:02:10.172Z</time>
</trkpt>
<trkpt lat="53.5890155" lon="12.2856867">
<ele>65.277</ele>
<time>2013-08-21T15:02:13.078Z</time>
</trkpt>
<trkpt lat="53.5890476" lon="12.2855379">
<ele>60.149</ele>
<time>2013-08-21T15:02:14.958Z</time>
</trkpt>
<trkpt lat="53.5890813" lon="12.2853847">
<ele>55.829</ele>
<time>2013-08-21T15:02:16.935Z</time>
</trkpt>
<trkpt lat="53.5891438" lon="12.2851526">
<ele>53.189</ele>
<time>2013-08-21T15:02:20.045Z</time>
</trkpt>
<trkpt lat="53.5891869" lon="12.2850074">
<ele>52.861</ele>
<time>2013-08-21T15:02:22.027Z</time>
</trkpt>
<trkpt lat="53.5892299" lon="12.2848739">
<ele>54.514</ele>
<time>2013-08-21T15:02:23.842Z</time>
</trkpt>
<trkpt lat="53.5892716" lon="12.2847380">
<ele>56.517</ele>
<time>2013-08-21T15:02:25.638Z</time>
</trkpt>
<trkpt lat="53.5893373" lon="12.2845294">
<ele>57.338</ele>
<time>2013-08-21T15:02:28.338Z</time>
</trkpt>
<trkpt lat="53.5894014" lon="12.2843035">
<ele>56.815</ele>
<time>2013-08-21T15:02:31.123Z</time>
</trkpt>
<trkpt lat="53.5894629" lon="12.2839997">
<ele>55.534</ele>
<time>2013-08-21T15:02:34.598Z</time>
</trkpt>
<trkpt lat="53.5895021" lon="12.2838344">
<ele>54.032</ele>
<time>2013-08-21T15:02:36.498Z</time>
</trkpt>
<trkpt lat="53.5895533" lon="12.2836692">
<ele>52.680</ele>
<time>2013-08-21T15:02:38.511Z</time>
</trkpt>
<trkpt lat="53.5896495" lon="12.2834422">
<ele>51.873</ele>
<time>2013-08-21T15:02:41.575Z</time>
</trkpt>
<trkpt lat="53.5897290" lon="12.2833118">
<ele>51.749</ele>
<time>2013-08-21T15:02:43.660Z</time>
</trkpt>
<trkpt lat="53.5898520" lon="12.2831370">
<ele>51.887</ele>
<time>2013-08-21T15:02:46.717Z</time>
</trkpt>
<trkpt lat="53.5899778" lon="12.2830129">
<ele>51.704</ele>
<time>2013-08-21T15:02:49.544Z</time>
</trkpt>
<trkpt lat="53.5901173" lon="12.2828925">
<ele>50.888</ele>
<time>2013-08-21T15:02:52.593Z</time>
</trkpt>
<trkpt lat="53.5902455" lon="12.2827706">
<ele>49.487</ele>
<time>2013-08-21T15:02:55.437Z</time>
</trkpt>
<trkpt lat="53.5903157" lon="12.2826747">
<ele>47.934</ele>
<time>2013-08-21T15:02:57.174Z</time>
</trkpt>
<trkpt lat="53.5903825" lon="12.2825602">
<ele>46.932</ele>
<time>2013-08-21T15:02:59.001Z</time>
</trkpt>
<trkpt lat="53.5904931" lon="12.2823639">
<ele>47.158</ele>
<time>2013-08-21T15:03:02.091Z</time>
</trkpt>
<trkpt lat="53.5905612" lon="12.2822229">
<ele>48.609</ele>
<time>2013-08-21T15:03:04.178Z</time>
</trkpt>
<trkpt lat="53.5906545" lon="12.2820137">
<ele>50.481</ele>
<time>2013-08-21T15:03:07.182Z</time>
</trkpt>
<trkpt lat="53.5907153" lon="12.2818751">
<ele>51.899</ele>
<time>2013-08-21T15:03:09.147Z</time>
</trkpt>
<trkpt lat="53.5907664" lon="12.2817371">
<ele>52.755</ele>
<time>2013-08-21T15:03:10.988Z</time>
</trkpt>
<trkpt lat="53.5908425" lon="12.2815479">
<ele>53.379</ele>
<time>2013-08-21T15:03:13.568Z</time>
</trkpt>
<trkpt lat="53.5909321" lon="12.2813397">
<ele>53.899</ele>
<time>2013-08-21T15:03:16.472Z</time>
</trkpt>
<trkpt lat="53.5909838" lon="12.2812073">
<ele>53.915</ele>
<time>2013-08-21T15:03:18.295Z</time>
</trkpt>
<trkpt lat="53.5910640" lon="12.2810032">
<ele>53.048</ele>
<time>2013-08-21T15:03:21.154Z</time>
</trkpt>
<trkpt lat="53.5911279" lon="12.2808688">
<ele>51.711</ele>
<time>2013-08-21T15:03:23.203Z</time>
</trkpt>
<trkpt lat="53.5911880" lon="12.2807481">
<ele>50.779</ele>
<time>2013-08-21T15:03:25.113Z</time>
</trkpt>
<trkpt lat="53.5912585" lon="12.2805551">
<ele>50.563</ele>
<time>2013-08-21T15:03:27.916Z</time>
</trkpt>
<trkpt lat="53.5913136" lon="12.2803678">
<ele>50.728</ele>
<time>2013-08-21T15:03:30.545Z</time>
</trkpt>
<trkpt lat="53.5913653" lon="12.2801793">
<ele>51.006</ele>
<time>2013-08-21T15:03:33.160Z</time>
</trkpt>
<trkpt lat="53.5914115" lon="12.2799857">
<ele>51.228</ele>
<time>2013-08-21T15:03:35.774Z</time>
</trkpt>
<trkpt lat="53.5914520" lon="12.2797692">
<ele>50.804</ele>
<time>2013-08-21T15:03:38.592Z</time>
</trkpt>
<trkpt lat="53.5914923" lon="12.2795519">
<ele>49.474</ele>
<time>2013-08-21T15:03:41.401Z</time>
</trkpt>
<trkpt lat="53.5915384" lon="12.2793365">
<ele>48.020</ele>
<time>2013-08-21T15:03:44.221Z</time>
</trkpt>
<trkpt lat="53.5915883" lon="12.2791774">
<ele>47.297</ele>
<time>2013-08-21T15:03:46.395Z</time>
</trkpt>
<trkpt lat="53.5916310" lon="12.2789726">
<ele>47.429</ele>
<time>2013-08-21T15:03:48.976Z</time>
</trkpt>
<trkpt lat="53.5916576" lon="12.2788114">
<ele>47.933</ele>
<time>2013-08-21T15:03:50.937Z</time>
</trkpt>
<trkpt lat="53.5916984" lon="12.2785686">
<ele>48.358</ele>
<time>2013-08-21T15:03:53.867Z</time>
</trkpt>
<trkpt lat="53.5917442" lon="12.2783335">
<ele>48.837</ele>
<time>2013-08-21T15:03:56.731Z</time>
</trkpt>
<trkpt lat="53.5917892" lon="12.2780970">
<ele>49.611</ele>
<time>2013-08-21T15:03:59.598Z</time>
</trkpt>
<trkpt lat="53.5918280" lon="12.2778601">
<ele>50.551</ele>
<time>2013-08-21T15:04:02.433Z</time>
</trkpt>
<trkpt lat="53.5918676" lon="12.2776179">
<ele>51.433</ele>
<time>2013-08-21T15:04:05.332Z</time>
</trkpt>
<trkpt lat="53.5919016" lon="12.2773842">
<ele>52.167</ele>
<time>2013-08-21T15:04:08.107Z</time>
</trkpt>
<trkpt lat="53.5919186" lon="12.2772269">
<ele>52.693</ele>
<time>2013-08-21T15:04:09.950Z</time>
</trkpt>
<trkpt lat="53.5919460" lon="12.2769805">
<ele>52.955</ele>
<time>2013-08-21T15:04:12.847Z</time>
</trkpt>
<trkpt lat="53.5919568" lon="12.2768254">
<ele>52.961</ele>
<time>2013-08-21T15:04:14.659Z</time>
</trkpt>
<trkpt lat="53.5919743" lon="12.2766622">
<ele>52.942</ele>
<time>2013-08-21T15:04:16.586Z</time>
</trkpt>
<trkpt lat="53.5919875" lon="12.2764257">
<ele>52.940</ele>
<time>2013-08-21T15:04:19.347Z</time>
</trkpt>
<trkpt lat="53.5920186" lon="12.2761945">
<ele>52.741</ele>
<time>2013-08-21T15:04:22.094Z</time>
</trkpt>
<trkpt lat="53.5920354" lon="12.2760358">
<ele>52.414</ele>
<time>2013-08-21T15:04:23.952Z</time>
</trkpt>
<trkpt lat="53.5920562" lon="12.2757745">
<ele>52.306</ele>
<time>2013-08-21T15:04:26.989Z</time>
</trkpt>
<trkpt lat="53.5920703" lon="12.2756070">
<ele>52.465</ele>
<time>2013-08-21T15:04:28.955Z</time>
</trkpt>
<trkpt lat="53.5921005" lon="12.2753539">
<ele>52.527</ele>
<time>2013-08-21T15:04:31.994Z</time>
</trkpt>
<trkpt lat="53.5921061" lon="12.2751290">
<ele>52.184</ele>
<time>2013-08-21T15:04:34.668Z</time>
</trkpt>
<trkpt lat="53.5921255" lon="12.2748682">
<ele>51.713</ele>
<time>2013-08-21T15:04:37.766Z</time>
</trkpt>
<trkpt lat="53.5921368" lon="12.2747002">
<ele>51.905</ele>
<time>2013-08-21T15:04:39.738Z</time>
</trkpt>
<trkpt lat="53.5921535" lon="12.2744387">
<ele>52.998</ele>
<time>2013-08-21T15:04:42.816Z</time>
</trkpt>
<trkpt lat="53.5921679" lon="12.2741845">
<ele>53.649</ele>
<time>2013-08-21T15:04:45.893Z</time>
</trkpt>
<trkpt lat="53.5921792" lon="12.2739795">
<ele>52.716</ele>
<time>2013-08-21T15:04:48.459Z</time>
</trkpt>
<trkpt lat="53.5921956" lon="12.2737976">
<ele>51.041</ele>
<time>2013-08-21T15:04:50.769Z</time>
</trkpt>
<trkpt lat="53.5922012" lon="12.2736293">
<ele>49.836</ele>
<time>2013-08-21T15:04:52.839Z</time>
</trkpt>
<trkpt lat="53.5922087" lon="12.2734473">
<ele>49.333</ele>
<time>2013-08-21T15:04:55.046Z</time>
</trkpt>
<trkpt lat="53.5922236" lon="12.2731968">
<ele>49.185</ele>
<time>2013-08-21T15:04:58.046Z</time>
</trkpt>
<trkpt lat="53.5922367" lon="12.2730408">
<ele>49.041</ele>
<time>2013-08-21T15:04:59.910Z</time>
</trkpt>
<trkpt lat="53.5922506" lon="12.2727752">
<ele>48.808</ele>
<time>2013-08-21T15:05:03.023Z</time>
</trkpt>
<trkpt lat="53.5922579" lon="12.2726063">
<ele>48.523</ele>
<time>2013-08-21T15:05:04.991Z</time>
</trkpt>
<trkpt lat="53.5922756" lon="12.2723533">
<ele>48.280</ele>
<time>2013-08-21T15:05:07.950Z</time>
</trkpt>
<trkpt lat="53.5922945" lon="12.2721877">
<ele>48.458</ele>
<time>2013-08-21T15:05:09.915Z</time>
</trkpt>
<trkpt lat="53.5923099" lon="12.2720279">
<ele>49.418</ele>
<time>2013-08-21T15:05:11.806Z</time>
</trkpt>
<trkpt lat="53.5923308" lon="12.2717815">
<ele>50.986</ele>
<time>2013-08-21T15:05:14.742Z</time>
</trkpt>
<trkpt lat="53.5923475" lon="12.2716246">
<ele>52.580</ele>
<time>2013-08-21T15:05:16.635Z</time>
</trkpt>
<trkpt lat="53.5923706" lon="12.2714168">
<ele>53.749</ele>
<time>2013-08-21T15:05:19.176Z</time>
</trkpt>
<trkpt lat="53.5923890" lon="12.2711576">
<ele>54.324</ele>
<time>2013-08-21T15:05:22.359Z</time>
</trkpt>
<trkpt lat="53.5923974" lon="12.2709228">
<ele>54.446</ele>
<time>2013-08-21T15:05:25.328Z</time>
</trkpt>
<trkpt lat="53.5923962" lon="12.2706976">
<ele>54.066</ele>
<time>2013-08-21T15:05:28.260Z</time>
</trkpt>
<trkpt lat="53.5923901" lon="12.2704824">
<ele>53.057</ele>
<time>2013-08-21T15:05:31.140Z</time>
</trkpt>
<trkpt lat="53.5923732" lon="12.2702749">
<ele>51.877</ele>
<time>2013-08-21T15:05:33.976Z</time>
</trkpt>
<trkpt lat="53.5923638" lon="12.2700977">
<ele>51.463</ele>
<time>2013-08-21T15:05:36.372Z</time>
</trkpt>
<trkpt lat="53.5923455" lon="12.2699419">
<ele>52.055</ele>
<time>2013-08-21T15:05:38.495Z</time>
</trkpt>
<trkpt lat="53.5923194" lon="12.2696862">
<ele>52.617</ele>
<time>2013-08-21T15:05:41.920Z</time>
</trkpt>
<trkpt lat="53.5923020" lon="12.2695197">
<ele>52.232</ele>
<time>2013-08-21T15:05:44.153Z</time>
</trkpt>
<trkpt lat="53.5922764" lon="12.2693141">
<ele>51.302</ele>
<time>2013-08-21T15:05:46.933Z</time>
</trkpt>
<trkpt lat="53.5922617" lon="12.2690865">
<ele>50.605</ele>
<time>2013-08-21T15:05:49.958Z</time>
</trkpt>
<trkpt lat="53.5922163" lon="12.2688910">
<ele>50.786</ele>
<time>2013-08-21T15:05:52.718Z</time>
</trkpt>
<trkpt lat="53.5921589" lon="12.2686786">
<ele>52.350</ele>
<time>2013-08-21T15:05:55.732Z</time>
</trkpt>
<trkpt lat="53.5921198" lon="12.2685417">
<ele>54.692</ele>
<time>2013-08-21T15:05:57.675Z</time>
</trkpt>
<trkpt lat="53.5920597" lon="12.2683278">
<ele>56.570</ele>
<time>2013-08-21T15:06:00.661Z</time>
</trkpt>
<trkpt lat="53.5919946" lon="12.2681267">
<ele>57.567</ele>
<time>2013-08-21T15:06:03.524Z</time>
</trkpt>
<trkpt lat="53.5919205" lon="12.2679372">
<ele>58.052</ele>
<time>2013-08-21T15:06:06.333Z</time>
</trkpt>
<trkpt lat="53.5918344" lon="12.2677380">
<ele>58.339</ele>
<time>2013-08-21T15:06:09.309Z</time>
</trkpt>
<trkpt lat="53.5917373" lon="12.2675295">
<ele>58.505</ele>
<time>2013-08-21T15:06:12.344Z</time>
</trkpt>
<trkpt lat="53.5916681" lon="12.2673766">
<ele>58.165</ele>
<time>2013-08-21T15:06:14.449Z</time>
</trkpt>
<trkpt lat="53.5915535" lon="12.2671598">
<ele>57.165</ele>
<time>2013-08-21T15:06:17.524Z</time>
</trkpt>
<trkpt lat="53.5914821" lon="12.2670129">
<ele>56.758</ele>
<time>2013-08-21T15:06:19.519Z</time>
</trkpt>
<trkpt lat="53.5914117" lon="12.2668741">
<ele>58.028</ele>
<time>2013-08-21T15:06:21.442Z</time>
</trkpt>
<trkpt lat="53.5913412" lon="12.2667412">
<ele>60.470</ele>
<time>2013-08-21T15:06:23.327Z</time>
</trkpt>
<trkpt lat="53.5912354" lon="12.2665417">
<ele>63.500</ele>
<time>2013-08-21T15:06:26.190Z</time>
</trkpt>
<trkpt lat="53.5911517" lon="12.2664064">
<ele>66.504</ele>
<time>2013-08-21T15:06:28.322Z</time>
</trkpt>
<trkpt lat="53.5910601" lon="12.2662104">
<ele>68.399</ele>
<time>2013-08-21T15:06:31.143Z</time>
</trkpt>
<trkpt lat="53.5909902" lon="12.2660421">
<ele>69.502</ele>
<time>2013-08-21T15:06:33.544Z</time>
</trkpt>
<trkpt lat="53.5909292" lon="12.2658457">
<ele>70.781</ele>
<time>2013-08-21T15:06:36.199Z</time>
</trkpt>
<trkpt lat="53.5908704" lon="12.2656746">
<ele>70.842</ele>
<time>2013-08-21T15:06:38.631Z</time>
</trkpt>
<trkpt lat="53.5908151" lon="12.2655085">
<ele>68.159</ele>
<time>2013-08-21T15:06:41.048Z</time>
</trkpt>
<trkpt lat="53.5907625" lon="12.2653591">
<ele>63.865</ele>
<time>2013-08-21T15:06:43.356Z</time>
</trkpt>
<trkpt lat="53.5907551" lon="12.2652073">
<ele>59.381</ele>
<time>2013-08-21T15:06:45.663Z</time>
</trkpt>
<trkpt lat="53.5907045" lon="12.2650370">
<ele>55.499</ele>
<time>2013-08-21T15:06:48.617Z</time>
</trkpt>
<trkpt lat="53.5906596" lon="12.2648683">
<ele>53.258</ele>
<time>2013-08-21T15:06:51.892Z</time>
</trkpt>
<trkpt lat="53.5906126" lon="12.2646868">
<ele>53.009</ele>
<time>2013-08-21T15:06:55.337Z</time>
</trkpt>
<trkpt lat="53.5905955" lon="12.2645267">
<ele>54.153</ele>
<time>2013-08-21T15:06:58.124Z</time>
</trkpt>
<trkpt lat="53.5905619" lon="12.2643302">
<ele>55.589</ele>
<time>2013-08-21T15:07:01.683Z</time>
</trkpt>
<trkpt lat="53.5905434" lon="12.2641459">
<ele>55.984</ele>
<time>2013-08-21T15:07:05.045Z</time>
</trkpt>
<trkpt lat="53.5905130" lon="12.2639938">
<ele>54.928</ele>
<time>2013-08-21T15:07:08.057Z</time>
</trkpt>
<trkpt lat="53.5904814" lon="12.2638135">
<ele>53.401</ele>
<time>2013-08-21T15:07:11.643Z</time>
</trkpt>
<trkpt lat="53.5904563" lon="12.2636331">
<ele>53.071</ele>
<time>2013-08-21T15:07:15.233Z</time>
</trkpt>
<trkpt lat="53.5904291" lon="12.2634497">
<ele>54.619</ele>
<time>2013-08-21T15:07:19.029Z</time>
</trkpt>
<trkpt lat="53.5903994" lon="12.2632904">
<ele>57.004</ele>
<time>2013-08-21T15:07:22.511Z</time>
</trkpt>
<trkpt lat="53.5903746" lon="12.2631360">
<ele>59.259</ele>
<time>2013-08-21T15:07:25.928Z</time>
</trkpt>
<trkpt lat="53.5903360" lon="12.2629695">
<ele>61.699</ele>
<time>2013-08-21T15:07:29.874Z</time>
</trkpt>
<trkpt lat="53.5902868" lon="12.2628070">
<ele>64.441</ele>
<time>2013-08-21T15:07:34.102Z</time>
</trkpt>
<trkpt lat="53.5902651" lon="12.2626512">
<ele>66.913</ele>
<time>2013-08-21T15:07:37.942Z</time>
</trkpt>
<trkpt lat="53.5902507" lon="12.2624898">
<ele>68.548</ele>
<time>2013-08-21T15:07:41.972Z</time>
</trkpt>
<trkpt lat="53.5902362" lon="12.2623224">
<ele>69.058</ele>
<time>2013-08-21T15:07:46.290Z</time>
</trkpt>
<trkpt lat="53.5902370" lon="12.2621568">
<ele>68.390</ele>
<time>2013-08-21T15:07:50.680Z</time>
</trkpt>
<trkpt lat="53.5902645" lon="12.2619915">
<ele>66.989</ele>
<time>2013-08-21T15:07:55.314Z</time>
</trkpt>
<trkpt lat="53.5902879" lon="12.2618378">
<ele>65.647</ele>
<time>2013-08-21T15:07:59.530Z</time>
</trkpt>
<trkpt lat="53.5903051" lon="12.2616661">
<ele>64.855</ele>
<time>2013-08-21T15:08:03.949Z</time>
</trkpt>
<trkpt lat="53.5903292" lon="12.2615027">
<ele>64.569</ele>
<time>2013-08-21T15:08:07.966Z</time>
</trkpt>
<trkpt lat="53.5903737" lon="12.2613488">
<ele>64.593</ele>
<time>2013-08-21T15:08:12.071Z</time>
</trkpt>
<trkpt lat="53.5903990" lon="12.2611994">
<ele>64.710</ele>
<time>2013-08-21T15:08:16.141Z</time>
</trkpt>
<trkpt lat="53.5904301" lon="12.2610371">
<ele>65.021</ele>
<time>2013-08-21T15:08:20.812Z</time>
</trkpt>
<trkpt lat="53.5904647" lon="12.2608577">
<ele>65.708</ele>
<time>2013-08-21T15:08:26.126Z</time>
</trkpt>
<trkpt lat="53.5904911" lon="12.2607105">
<ele>66.737</ele>
<time>2013-08-21T15:08:30.312Z</time>
</trkpt>
<trkpt lat="53.5905340" lon="12.2605774">
<ele>67.780</ele>
<time>2013-08-21T15:08:34.147Z</time>
</trkpt>
<trkpt lat="53.5905659" lon="12.2604158">
<ele>68.994</ele>
<time>2013-08-21T15:08:38.159Z</time>
</trkpt>
<trkpt lat="53.5905932" lon="12.2602496">
<ele>70.576</ele>
<time>2013-08-21T15:08:41.967Z</time>
</trkpt>
<trkpt lat="53.5906397" lon="12.2600970">
<ele>71.968</ele>
<time>2013-08-21T15:08:45.572Z</time>
</trkpt>
<trkpt lat="53.5906542" lon="12.2599116">
<ele>72.084</ele>
<time>2013-08-21T15:08:49.321Z</time>
</trkpt>
<trkpt lat="53.5906798" lon="12.2597101">
<ele>70.624</ele>
<time>2013-08-21T15:08:53.224Z</time>
</trkpt>
<trkpt lat="53.5906944" lon="12.2594995">
<ele>68.514</ele>
<time>2013-08-21T15:08:56.927Z</time>
</trkpt>
<trkpt lat="53.5906954" lon="12.2592841">
<ele>66.987</ele>
<time>2013-08-21T15:09:00.419Z</time>
</trkpt>
<trkpt lat="53.5906937" lon="12.2590701">
<ele>66.416</ele>
<time>2013-08-21T15:09:03.699Z</time>
</trkpt>
<trkpt lat="53.5907020" lon="12.2588579">
<ele>66.522</ele>
<time>2013-08-21T15:09:06.837Z</time>
</trkpt>
<trkpt lat="53.5907054" lon="12.2586476">
<ele>66.818</ele>
<time>2013-08-21T15:09:09.847Z</time>
</trkpt>
<trkpt lat="53.5906930" lon="12.2584273">
<ele>67.108</ele>
<time>2013-08-21T15:09:12.935Z</time>
</trkpt>
<trkpt lat="53.5906857" lon="12.2581986">
<ele>67.422</ele>
<time>2013-08-21T15:09:16.052Z</time>
</trkpt>
<trkpt lat="53.5906699" lon="12.2579738">
<ele>67.605</ele>
<time>2013-08-21T15:09:19.045Z</time>
</trkpt>
<trkpt lat="53.5906574" lon="12.2577529">
<ele>67.526</ele>
<time>2013-08-21T15:09:21.914Z</time>
</trkpt>
<trkpt lat="53.5906388" lon="12.2575291">
<ele>67.439</ele>
<time>2013-08-21T15:09:24.824Z</time>
</trkpt>
<trkpt lat="53.5906220" lon="12.2573044">
<ele>67.713</ele>
<time>2013-08-21T15:09:27.747Z</time>
</trkpt>
<trkpt lat="53.5906021" lon="12.2570799">
<ele>68.322</ele>
<time>2013-08-21T15:09:30.672Z</time>
</trkpt>
<trkpt lat="53.5905820" lon="12.2568418">
<ele>69.333</ele>
<time>2013-08-21T15:09:33.758Z</time>
</trkpt>
<trkpt lat="53.5905666" lon="12.2566161">
<ele>71.373</ele>
<time>2013-08-21T15:09:36.662Z</time>
</trkpt>
<trkpt lat="53.5905557" lon="12.2564024">
<ele>74.985</ele>
<time>2013-08-21T15:09:39.419Z</time>
</trkpt>
<trkpt lat="53.5905441" lon="12.2562371">
<ele>79.226</ele>
<time>2013-08-21T15:09:41.566Z</time>
</trkpt>
<trkpt lat="53.5905367" lon="12.2560727">
<ele>82.205</ele>
<time>2013-08-21T15:09:43.691Z</time>
</trkpt>
<trkpt lat="53.5905219" lon="12.2558458">
<ele>83.527</ele>
<time>2013-08-21T15:09:46.606Z</time>
</trkpt>
<trkpt lat="53.5904927" lon="12.2556657">
<ele>84.210</ele>
<time>2013-08-21T15:09:48.968Z</time>
</trkpt>
<trkpt lat="53.5904823" lon="12.2554989">
<ele>84.550</ele>
<time>2013-08-21T15:09:51.051Z</time>
</trkpt>
<trkpt lat="53.5904627" lon="12.2552294">
<ele>83.877</ele>
<time>2013-08-21T15:09:54.339Z</time>
</trkpt>
<trkpt lat="53.5904571" lon="12.2549949">
<ele>81.148</ele>
<time>2013-08-21T15:09:57.146Z</time>
</trkpt>
<trkpt lat="53.5904536" lon="12.2548386">
<ele>76.213</ele>
<time>2013-08-21T15:09:59.019Z</time>
</trkpt>
<trkpt lat="53.5904508" lon="12.2545994">
<ele>70.747</ele>
<time>2013-08-21T15:10:01.895Z</time>
</trkpt>
<trkpt lat="53.5904484" lon="12.2543518">
<ele>66.851</ele>
<time>2013-08-21T15:10:04.864Z</time>
</trkpt>
<trkpt lat="53.5904481" lon="12.2541071">
<ele>65.194</ele>
<time>2013-08-21T15:10:07.788Z</time>
</trkpt>
<trkpt lat="53.5904522" lon="12.2539496">
<ele>65.020</ele>
<time>2013-08-21T15:10:09.670Z</time>
</trkpt>
<trkpt lat="53.5904602" lon="12.2537005">
<ele>65.310</ele>
<time>2013-08-21T15:10:12.655Z</time>
</trkpt>
<trkpt lat="53.5904784" lon="12.2534489">
<ele>65.468</ele>
<time>2013-08-21T15:10:15.681Z</time>
</trkpt>
<trkpt lat="53.5904922" lon="12.2532252">
<ele>65.363</ele>
<time>2013-08-21T15:10:18.376Z</time>
</trkpt>
<trkpt lat="53.5904978" lon="12.2530736">
<ele>65.271</ele>
<time>2013-08-21T15:10:20.206Z</time>
</trkpt>
<trkpt lat="53.5905152" lon="12.2528406">
<ele>65.416</ele>
<time>2013-08-21T15:10:23.048Z</time>
</trkpt>
<trkpt lat="53.5905300" lon="12.2526768">
<ele>65.644</ele>
<time>2013-08-21T15:10:25.043Z</time>
</trkpt>
<trkpt lat="53.5905460" lon="12.2525266">
<ele>65.761</ele>
<time>2013-08-21T15:10:26.864Z</time>
</trkpt>
<trkpt lat="53.5905622" lon="12.2523606">
<ele>65.513</ele>
<time>2013-08-21T15:10:28.860Z</time>
</trkpt>
<trkpt lat="53.5905800" lon="12.2521987">
<ele>64.812</ele>
<time>2013-08-21T15:10:30.808Z</time>
</trkpt>
<trkpt lat="53.5906058" lon="12.2520491">
<ele>64.175</ele>
<time>2013-08-21T15:10:32.640Z</time>
</trkpt>
<trkpt lat="53.5906306" lon="12.2518140">
<ele>64.152</ele>
<time>2013-08-21T15:10:35.450Z</time>
</trkpt>
<trkpt lat="53.5906544" lon="12.2516022">
<ele>64.490</ele>
<time>2013-08-21T15:10:37.992Z</time>
</trkpt>
<trkpt lat="53.5906711" lon="12.2514443">
<ele>64.599</ele>
<time>2013-08-21T15:10:39.891Z</time>
</trkpt>
<trkpt lat="53.5906822" lon="12.2512157">
<ele>64.368</ele>
<time>2013-08-21T15:10:42.614Z</time>
</trkpt>
<trkpt lat="53.5906905" lon="12.2510048">
<ele>64.251</ele>
<time>2013-08-21T15:10:45.129Z</time>
</trkpt>
<trkpt lat="53.5906991" lon="12.2508318">
<ele>64.667</ele>
<time>2013-08-21T15:10:47.221Z</time>
</trkpt>
<trkpt lat="53.5907118" lon="12.2506512">
<ele>65.480</ele>
<time>2013-08-21T15:10:49.456Z</time>
</trkpt>
<trkpt lat="53.5907152" lon="12.2504964">
<ele>66.367</ele>
<time>2013-08-21T15:10:51.420Z</time>
</trkpt>
<trkpt lat="53.5907195" lon="12.2503430">
<ele>67.390</ele>
<time>2013-08-21T15:10:53.535Z</time>
</trkpt>
<trkpt lat="53.5907273" lon="12.2501636">
<ele>68.530</ele>
<time>2013-08-21T15:10:56.080Z</time>
</trkpt>
<trkpt lat="53.5907114" lon="12.2499634">
<ele>69.405</ele>
<time>2013-08-21T15:10:59.186Z</time>
</trkpt>
<trkpt lat="53.5907024" lon="12.2497708">
<ele>69.805</ele>
<time>2013-08-21T15:11:02.275Z</time>
</trkpt>
<trkpt lat="53.5907609" lon="12.2496093">
<ele>69.954</ele>
<time>2013-08-21T15:11:05.312Z</time>
</trkpt>
<trkpt lat="53.5907437" lon="12.2494171">
<ele>70.134</ele>
<time>2013-08-21T15:11:08.388Z</time>
</trkpt>
<trkpt lat="53.5907754" lon="12.2492640">
<ele>70.324</ele>
<time>2013-08-21T15:11:10.952Z</time>
</trkpt>
<trkpt lat="53.5908067" lon="12.2491177">
<ele>70.240</ele>
<time>2013-08-21T15:11:13.454Z</time>
</trkpt>
<trkpt lat="53.5908383" lon="12.2489588">
<ele>69.495</ele>
<time>2013-08-21T15:11:16.195Z</time>
</trkpt>
<trkpt lat="53.5908575" lon="12.2487745">
<ele>68.106</ele>
<time>2013-08-21T15:11:19.286Z</time>
</trkpt>
<trkpt lat="53.5908768" lon="12.2485945">
<ele>66.173</ele>
<time>2013-08-21T15:11:22.347Z</time>
</trkpt>
<trkpt lat="53.5909073" lon="12.2483861">
<ele>63.921</ele>
<time>2013-08-21T15:11:25.990Z</time>
</trkpt>
<trkpt lat="53.5909551" lon="12.2482043">
<ele>62.407</ele>
<time>2013-08-21T15:11:29.440Z</time>
</trkpt>
<trkpt lat="53.5909950" lon="12.2480346">
<ele>62.657</ele>
<time>2013-08-21T15:11:32.626Z</time>
</trkpt>
<trkpt lat="53.5910147" lon="12.2478848">
<ele>64.240</ele>
<time>2013-08-21T15:11:35.250Z</time>
</trkpt>
<trkpt lat="53.5910523" lon="12.2477151">
<ele>65.964</ele>
<time>2013-08-21T15:11:38.294Z</time>
</trkpt>
<trkpt lat="53.5911027" lon="12.2475682">
<ele>67.051</ele>
<time>2013-08-21T15:11:41.093Z</time>
</trkpt>
<trkpt lat="53.5911473" lon="12.2473816">
<ele>67.494</ele>
<time>2013-08-21T15:11:44.372Z</time>
</trkpt>
<trkpt lat="53.5911818" lon="12.2472271">
<ele>68.026</ele>
<time>2013-08-21T15:11:47.050Z</time>
</trkpt>
<trkpt lat="53.5912097" lon="12.2470425">
<ele>69.151</ele>
<time>2013-08-21T15:11:50.141Z</time>
</trkpt>
<trkpt lat="53.5912264" lon="12.2468806">
<ele>70.273</ele>
<time>2013-08-21T15:11:52.800Z</time>
</trkpt>
<trkpt lat="53.5912441" lon="12.2466785">
<ele>70.627</ele>
<time>2013-08-21T15:11:56.134Z</time>
</trkpt>
<trkpt lat="53.5912578" lon="12.2465158">
<ele>70.130</ele>
<time>2013-08-21T15:11:58.827Z</time>
</trkpt>
<trkpt lat="53.5913000" lon="12.2463340">
<ele>69.371</ele>
<time>2013-08-21T15:12:01.999Z</time>
</trkpt>
<trkpt lat="53.5913530" lon="12.2461419">
<ele>69.307</ele>
<time>2013-08-21T15:12:05.399Z</time>
</trkpt>
<trkpt lat="53.5914188" lon="12.2459553">
<ele>70.054</ele>
<time>2013-08-21T15:12:08.866Z</time>
</trkpt>
<trkpt lat="53.5914916" lon="12.2457765">
<ele>70.724</ele>
<time>2013-08-21T15:12:12.325Z</time>
</trkpt>
<trkpt lat="53.5915364" lon="12.2456178">
<ele>70.712</ele>
<time>2013-08-21T15:12:15.091Z</time>
</trkpt>
<trkpt lat="53.5915744" lon="12.2454281">
<ele>70.274</ele>
<time>2013-08-21T15:12:18.177Z</time>
</trkpt>
<trkpt lat="53.5916164" lon="12.2452379">
<ele>69.532</ele>
<time>2013-08-21T15:12:21.255Z</time>
</trkpt>
<trkpt lat="53.5916669" lon="12.2450615">
<ele>68.434</ele>
<time>2013-08-21T15:12:24.223Z</time>
</trkpt>
<trkpt lat="53.5917246" lon="12.2448756">
<ele>67.328</ele>
<time>2013-08-21T15:12:27.400Z</time>
</trkpt>
<trkpt lat="53.5917596" lon="12.2447198">
<ele>65.972</ele>
<time>2013-08-21T15:12:29.897Z</time>
</trkpt>
<trkpt lat="53.5918109" lon="12.2445122">
<ele>64.040</ele>
<time>2013-08-21T15:12:33.222Z</time>
</trkpt>
<trkpt lat="53.5918525" lon="12.2443687">
<ele>62.832</ele>
<time>2013-08-21T15:12:35.556Z</time>
</trkpt>
<trkpt lat="53.5919101" lon="12.2441888">
<ele>63.830</ele>
<time>2013-08-21T15:12:38.481Z</time>
</trkpt>
<trkpt lat="53.5919871" lon="12.2439774">
<ele>66.356</ele>
<time>2013-08-21T15:12:41.968Z</time>
</trkpt>
<trkpt lat="53.5920376" lon="12.2438047">
<ele>68.522</ele>
<time>2013-08-21T15:12:44.641Z</time>
</trkpt>
<trkpt lat="53.5920912" lon="12.2435964">
<ele>68.929</ele>
<time>2013-08-21T15:12:47.771Z</time>
</trkpt>
<trkpt lat="53.5921510" lon="12.2434458">
<ele>67.655</ele>
<time>2013-08-21T15:12:50.159Z</time>
</trkpt>
<trkpt lat="53.5922101" lon="12.2432769">
<ele>66.079</ele>
<time>2013-08-21T15:12:52.650Z</time>
</trkpt>
<trkpt lat="53.5922706" lon="12.2430993">
<ele>65.637</ele>
<time>2013-08-21T15:12:55.280Z</time>
</trkpt>
<trkpt lat="53.5923318" lon="12.2429323">
<ele>66.415</ele>
<time>2013-08-21T15:12:57.890Z</time>
</trkpt>
<trkpt lat="53.5923957" lon="12.2427358">
<ele>67.686</ele>
<time>2013-08-21T15:13:00.929Z</time>
</trkpt>
<trkpt lat="53.5924523" lon="12.2425464">
<ele>68.558</ele>
<time>2013-08-21T15:13:03.823Z</time>
</trkpt>
<trkpt lat="53.5925019" lon="12.2423582">
<ele>68.589</ele>
<time>2013-08-21T15:13:06.617Z</time>
</trkpt>
<trkpt lat="53.5925726" lon="12.2421895">
<ele>67.956</ele>
<time>2013-08-21T15:13:09.395Z</time>
</trkpt>
<trkpt lat="53.5926440" lon="12.2419906">
<ele>67.044</ele>
<time>2013-08-21T15:13:12.526Z</time>
</trkpt>
<trkpt lat="53.5926988" lon="12.2417830">
<ele>66.117</ele>
<time>2013-08-21T15:13:15.631Z</time>
</trkpt>
<trkpt lat="53.5927454" lon="12.2416054">
<ele>65.573</ele>
<time>2013-08-21T15:13:18.302Z</time>
</trkpt>
<trkpt lat="53.5928255" lon="12.2413560">
<ele>65.499</ele>
<time>2013-08-21T15:13:22.126Z</time>
</trkpt>
<trkpt lat="53.5928710" lon="12.2412108">
<ele>65.705</ele>
<time>2013-08-21T15:13:24.227Z</time>
</trkpt>
<trkpt lat="53.5929342" lon="12.2409913">
<ele>66.005</ele>
<time>2013-08-21T15:13:27.165Z</time>
</trkpt>
<trkpt lat="53.5929749" lon="12.2408357">
<ele>66.357</ele>
<time>2013-08-21T15:13:29.167Z</time>
</trkpt>
<trkpt lat="53.5930211" lon="12.2406616">
<ele>66.874</ele>
<time>2013-08-21T15:13:31.423Z</time>
</trkpt>
<trkpt lat="53.5930729" lon="12.2404477">
<ele>67.506</ele>
<time>2013-08-21T15:13:34.177Z</time>
</trkpt>
<trkpt lat="53.5931271" lon="12.2402675">
<ele>67.998</ele>
<time>2013-08-21T15:13:36.641Z</time>
</trkpt>
<trkpt lat="53.5931892" lon="12.2401019">
<ele>68.295</ele>
<time>2013-08-21T15:13:39.098Z</time>
</trkpt>
<trkpt lat="53.5932621" lon="12.2399224">
<ele>68.569</ele>
<time>2013-08-21T15:13:41.914Z</time>
</trkpt>
<trkpt lat="53.5933559" lon="12.2397650">
<ele>68.799</ele>
<time>2013-08-21T15:13:44.910Z</time>
</trkpt>
<trkpt lat="53.5934364" lon="12.2396329">
<ele>68.908</ele>
<time>2013-08-21T15:13:47.513Z</time>
</trkpt>
<trkpt lat="53.5935022" lon="12.2394595">
<ele>68.839</ele>
<time>2013-08-21T15:13:50.345Z</time>
</trkpt>
<trkpt lat="53.5935608" lon="12.2393430">
<ele>68.252</ele>
<time>2013-08-21T15:13:52.423Z</time>
</trkpt>
<trkpt lat="53.5936334" lon="12.2391960">
<ele>67.080</ele>
<time>2013-08-21T15:13:55.066Z</time>
</trkpt>
<trkpt lat="53.5937084" lon="12.2390600">
<ele>65.985</ele>
<time>2013-08-21T15:13:57.799Z</time>
</trkpt>
<trkpt lat="53.5937798" lon="12.2388817">
<ele>65.704</ele>
<time>2013-08-21T15:14:01.098Z</time>
</trkpt>
<trkpt lat="53.5938659" lon="12.2387609">
<ele>66.280</ele>
<time>2013-08-21T15:14:04.063Z</time>
</trkpt>
<trkpt lat="53.5939423" lon="12.2386596">
<ele>66.764</ele>
<time>2013-08-21T15:14:06.640Z</time>
</trkpt>
<trkpt lat="53.5940718" lon="12.2384548">
<ele>66.432</ele>
<time>2013-08-21T15:14:11.337Z</time>
</trkpt>
<trkpt lat="53.5941897" lon="12.2382561">
<ele>65.865</ele>
<time>2013-08-21T15:14:15.647Z</time>
</trkpt>
<trkpt lat="53.5942568" lon="12.2381395">
<ele>65.732</ele>
<time>2013-08-21T15:14:17.922Z</time>
</trkpt>
<trkpt lat="53.5943549" lon="12.2379517">
<ele>65.961</ele>
<time>2013-08-21T15:14:21.166Z</time>
</trkpt>
<trkpt lat="53.5944077" lon="12.2377953">
<ele>66.106</ele>
<time>2013-08-21T15:14:23.380Z</time>
</trkpt>
<trkpt lat="53.5944736" lon="12.2376072">
<ele>65.697</ele>
<time>2013-08-21T15:14:26.062Z</time>
</trkpt>
<trkpt lat="53.5945369" lon="12.2374283">
<ele>64.829</ele>
<time>2013-08-21T15:14:28.683Z</time>
</trkpt>
<trkpt lat="53.5946044" lon="12.2372773">
<ele>64.400</ele>
<time>2013-08-21T15:14:31.163Z</time>
</trkpt>
<trkpt lat="53.5946843" lon="12.2371065">
<ele>64.862</ele>
<time>2013-08-21T15:14:34.121Z</time>
</trkpt>
<trkpt lat="53.5947532" lon="12.2369591">
<ele>65.620</ele>
<time>2013-08-21T15:14:36.687Z</time>
</trkpt>
<trkpt lat="53.5948242" lon="12.2368187">
<ele>65.995</ele>
<time>2013-08-21T15:14:39.121Z</time>
</trkpt>
<trkpt lat="53.5948847" lon="12.2366974">
<ele>65.946</ele>
<time>2013-08-21T15:14:41.196Z</time>
</trkpt>
<trkpt lat="53.5949437" lon="12.2365801">
<ele>65.741</ele>
<time>2013-08-21T15:14:43.245Z</time>
</trkpt>
<trkpt lat="53.5950254" lon="12.2364048">
<ele>65.710</ele>
<time>2013-08-21T15:14:46.331Z</time>
</trkpt>
<trkpt lat="53.5951105" lon="12.2362126">
<ele>65.947</ele>
<time>2013-08-21T15:14:49.810Z</time>
</trkpt>
<trkpt lat="53.5951753" lon="12.2361008">
<ele>66.169</ele>
<time>2013-08-21T15:14:52.190Z</time>
</trkpt>
<trkpt lat="53.5952665" lon="12.2359614">
<ele>66.070</ele>
<time>2013-08-21T15:14:55.373Z</time>
</trkpt>
<trkpt lat="53.5953277" lon="12.2358217">
<ele>65.682</ele>
<time>2013-08-21T15:14:57.944Z</time>
</trkpt>
<trkpt lat="53.5953915" lon="12.2356752">
<ele>65.240</ele>
<time>2013-08-21T15:15:00.558Z</time>
</trkpt>
<trkpt lat="53.5954627" lon="12.2354867">
<ele>64.968</ele>
<time>2013-08-21T15:15:03.727Z</time>
</trkpt>
<trkpt lat="53.5955157" lon="12.2353566">
<ele>65.065</ele>
<time>2013-08-21T15:15:06.025Z</time>
</trkpt>
<trkpt lat="53.5955925" lon="12.2351866">
<ele>65.409</ele>
<time>2013-08-21T15:15:09.213Z</time>
</trkpt>
<trkpt lat="53.5956452" lon="12.2350409">
<ele>65.605</ele>
<time>2013-08-21T15:15:11.748Z</time>
</trkpt>
<trkpt lat="53.5957055" lon="12.2349166">
<ele>65.064</ele>
<time>2013-08-21T15:15:14.073Z</time>
</trkpt>
<trkpt lat="53.5957635" lon="12.2347703">
<ele>63.592</ele>
<time>2013-08-21T15:15:16.542Z</time>
</trkpt>
<trkpt lat="53.5958318" lon="12.2346546">
<ele>61.952</ele>
<time>2013-08-21T15:15:18.840Z</time>
</trkpt>
<trkpt lat="53.5958944" lon="12.2345174">
<ele>61.461</ele>
<time>2013-08-21T15:15:21.320Z</time>
</trkpt>
<trkpt lat="53.5959572" lon="12.2343545">
<ele>62.360</ele>
<time>2013-08-21T15:15:24.210Z</time>
</trkpt>
<trkpt lat="53.5959877" lon="12.2342001">
<ele>63.512</ele>
<time>2013-08-21T15:15:26.724Z</time>
</trkpt>
<trkpt lat="53.5960115" lon="12.2340263">
<ele>63.508</ele>
<time>2013-08-21T15:15:29.610Z</time>
</trkpt>
<trkpt lat="53.5960458" lon="12.2338527">
<ele>61.977</ele>
<time>2013-08-21T15:15:32.681Z</time>
</trkpt>
<trkpt lat="53.5960925" lon="12.2336298">
<ele>59.714</ele>
<time>2013-08-21T15:15:36.753Z</time>
</trkpt>
<trkpt lat="53.5961430" lon="12.2334523">
<ele>57.909</ele>
<time>2013-08-21T15:15:40.165Z</time>
</trkpt>
<trkpt lat="53.5961875" lon="12.2332947">
<ele>57.089</ele>
<time>2013-08-21T15:15:43.160Z</time>
</trkpt>
<trkpt lat="53.5962356" lon="12.2331499">
<ele>57.041</ele>
<time>2013-08-21T15:15:45.945Z</time>
</trkpt>
<trkpt lat="53.5962886" lon="12.2329753">
<ele>57.266</ele>
<time>2013-08-21T15:15:49.126Z</time>
</trkpt>
<trkpt lat="53.5963133" lon="12.2328079">
<ele>57.838</ele>
<time>2013-08-21T15:15:51.868Z</time>
</trkpt>
<trkpt lat="53.5963573" lon="12.2326377">
<ele>58.923</ele>
<time>2013-08-21T15:15:54.863Z</time>
</trkpt>
<trkpt lat="53.5963866" lon="12.2324899">
<ele>59.965</ele>
<time>2013-08-21T15:15:57.475Z</time>
</trkpt>
<trkpt lat="53.5964070" lon="12.2323123">
<ele>60.488</ele>
<time>2013-08-21T15:16:00.619Z</time>
</trkpt>
<trkpt lat="53.5964198" lon="12.2321542">
<ele>60.683</ele>
<time>2013-08-21T15:16:03.467Z</time>
</trkpt>
<trkpt lat="53.5964459" lon="12.2319770">
<ele>60.745</ele>
<time>2013-08-21T15:16:06.634Z</time>
</trkpt>
<trkpt lat="53.5964801" lon="12.2318150">
<ele>60.745</ele>
<time>2013-08-21T15:16:09.466Z</time>
</trkpt>
<trkpt lat="53.5965033" lon="12.2316596">
<ele>60.704</ele>
<time>2013-08-21T15:16:12.067Z</time>
</trkpt>
<trkpt lat="53.5965309" lon="12.2315070">
<ele>60.629</ele>
<time>2013-08-21T15:16:14.677Z</time>
</trkpt>
<trkpt lat="53.5965768" lon="12.2313127">
<ele>60.107</ele>
<time>2013-08-21T15:16:18.175Z</time>
</trkpt>
<trkpt lat="53.5966179" lon="12.2311261">
<ele>58.897</ele>
<time>2013-08-21T15:16:21.548Z</time>
</trkpt>
<trkpt lat="53.5966626" lon="12.2309258">
<ele>57.830</ele>
<time>2013-08-21T15:16:25.250Z</time>
</trkpt>
<trkpt lat="53.5966987" lon="12.2307842">
<ele>58.106</ele>
<time>2013-08-21T15:16:27.953Z</time>
</trkpt>
<trkpt lat="53.5967336" lon="12.2306254">
<ele>59.720</ele>
<time>2013-08-21T15:16:30.864Z</time>
</trkpt>
<trkpt lat="53.5967848" lon="12.2304314">
<ele>61.654</ele>
<time>2013-08-21T15:16:34.368Z</time>
</trkpt>
<trkpt lat="53.5968213" lon="12.2302875">
<ele>62.911</ele>
<time>2013-08-21T15:16:36.832Z</time>
</trkpt>
<trkpt lat="53.5968356" lon="12.2301362">
<ele>63.295</ele>
<time>2013-08-21T15:16:39.194Z</time>
</trkpt>
<trkpt lat="53.5968890" lon="12.2299483">
<ele>63.153</ele>
<time>2013-08-21T15:16:42.398Z</time>
</trkpt>
<trkpt lat="53.5969209" lon="12.2297615">
<ele>62.727</ele>
<time>2013-08-21T15:16:45.314Z</time>
</trkpt>
<trkpt lat="53.5969433" lon="12.2295685">
<ele>62.072</ele>
<time>2013-08-21T15:16:48.155Z</time>
</trkpt>
<trkpt lat="53.5969983" lon="12.2294114">
<ele>61.373</ele>
<time>2013-08-21T15:16:50.753Z</time>
</trkpt>
<trkpt lat="53.5969972" lon="12.2292176">
<ele>60.895</ele>
<time>2013-08-21T15:16:53.539Z</time>
</trkpt>
<trkpt lat="53.5970186" lon="12.2290602">
<ele>60.838</ele>
<time>2013-08-21T15:16:55.925Z</time>
</trkpt>
<trkpt lat="53.5970474" lon="12.2288760">
<ele>61.059</ele>
<time>2013-08-21T15:16:58.908Z</time>
</trkpt>
<trkpt lat="53.5970730" lon="12.2287240">
<ele>61.027</ele>
<time>2013-08-21T15:17:01.500Z</time>
</trkpt>
<trkpt lat="53.5971187" lon="12.2285680">
<ele>60.542</ele>
<time>2013-08-21T15:17:04.395Z</time>
</trkpt>
<trkpt lat="53.5971897" lon="12.2284635">
<ele>60.114</ele>
<time>2013-08-21T15:17:07.060Z</time>
</trkpt>
<trkpt lat="53.5972900" lon="12.2284723">
<ele>60.446</ele>
<time>2013-08-21T15:17:09.913Z</time>
</trkpt>
<trkpt lat="53.5973836" lon="12.2285165">
<ele>61.449</ele>
<time>2013-08-21T15:17:12.697Z</time>
</trkpt>
<trkpt lat="53.5974741" lon="12.2285295">
<ele>62.488</ele>
<time>2013-08-21T15:17:15.347Z</time>
</trkpt>
<trkpt lat="53.5976356" lon="12.2285346">
<ele>63.164</ele>
<time>2013-08-21T15:17:20.396Z</time>
</trkpt>
<trkpt lat="53.5978168" lon="12.2285433">
<ele>63.383</ele>
<time>2013-08-21T15:17:26.580Z</time>
</trkpt>
<trkpt lat="53.5979265" lon="12.2285532">
<ele>62.612</ele>
<time>2013-08-21T15:17:30.296Z</time>
</trkpt>
<trkpt lat="53.5980772" lon="12.2285626">
<ele>60.788</ele>
<time>2013-08-21T15:17:34.630Z</time>
</trkpt>
<trkpt lat="53.5982089" lon="12.2285858">
<ele>59.275</ele>
<time>2013-08-21T15:17:37.687Z</time>
</trkpt>
<trkpt lat="53.5983126" lon="12.2285960">
<ele>59.628</ele>
<time>2013-08-21T15:17:39.801Z</time>
</trkpt>
<trkpt lat="53.5984279" lon="12.2285951">
<ele>61.791</ele>
<time>2013-08-21T15:17:42.157Z</time>
</trkpt>
<trkpt lat="53.5985365" lon="12.2285819">
<ele>64.291</ele>
<time>2013-08-21T15:17:44.437Z</time>
</trkpt>
<trkpt lat="53.5986555" lon="12.2285801">
<ele>65.838</ele>
<time>2013-08-21T15:17:47.069Z</time>
</trkpt>
<trkpt lat="53.5987916" lon="12.2285880">
<ele>66.408</ele>
<time>2013-08-21T15:17:50.247Z</time>
</trkpt>
<trkpt lat="53.5989182" lon="12.2285938">
<ele>67.018</ele>
<time>2013-08-21T15:17:53.262Z</time>
</trkpt>
<trkpt lat="53.5990508" lon="12.2286056">
<ele>68.986</ele>
<time>2013-08-21T15:17:56.426Z</time>
</trkpt>
<trkpt lat="53.5991535" lon="12.2286089">
<ele>72.084</ele>
<time>2013-08-21T15:17:58.843Z</time>
</trkpt>
<trkpt lat="53.5992651" lon="12.2286228">
<ele>74.560</ele>
<time>2013-08-21T15:18:01.468Z</time>
</trkpt>
<trkpt lat="53.5994020" lon="12.2286373">
<ele>75.298</ele>
<time>2013-08-21T15:18:04.734Z</time>
</trkpt>
<trkpt lat="53.5995324" lon="12.2286292">
<ele>74.673</ele>
<time>2013-08-21T15:18:07.967Z</time>
</trkpt>
<trkpt lat="53.5996666" lon="12.2286132">
<ele>73.736</ele>
<time>2013-08-21T15:18:11.426Z</time>
</trkpt>
<trkpt lat="53.5998027" lon="12.2286162">
<ele>73.191</ele>
<time>2013-08-21T15:18:14.864Z</time>
</trkpt>
<trkpt lat="53.5999313" lon="12.2286070">
<ele>73.012</ele>
<time>2013-08-21T15:18:18.004Z</time>
</trkpt>
<trkpt lat="53.6000293" lon="12.2286067">
<ele>73.183</ele>
<time>2013-08-21T15:18:20.332Z</time>
</trkpt>
<trkpt lat="53.6001841" lon="12.2286358">
<ele>74.114</ele>
<time>2013-08-21T15:18:23.942Z</time>
</trkpt>
<trkpt lat="53.6003308" lon="12.2286665">
<ele>76.161</ele>
<time>2013-08-21T15:18:27.369Z</time>
</trkpt>
<trkpt lat="53.6004418" lon="12.2286951">
<ele>78.635</ele>
<time>2013-08-21T15:18:29.912Z</time>
</trkpt>
<trkpt lat="53.6005943" lon="12.2287276">
<ele>79.097</ele>
<time>2013-08-21T15:18:33.219Z</time>
</trkpt>
<trkpt lat="53.6007371" lon="12.2287942">
<ele>76.146</ele>
<time>2013-08-21T15:18:36.328Z</time>
</trkpt>
<trkpt lat="53.6008706" lon="12.2288574">
<ele>72.295</ele>
<time>2013-08-21T15:18:39.286Z</time>
</trkpt>
<trkpt lat="53.6010454" lon="12.2289370">
<ele>70.146</ele>
<time>2013-08-21T15:18:42.957Z</time>
</trkpt>
<trkpt lat="53.6011387" lon="12.2289987">
<ele>68.956</ele>
<time>2013-08-21T15:18:44.863Z</time>
</trkpt>
<trkpt lat="53.6012244" lon="12.2290579">
<ele>67.308</ele>
<time>2013-08-21T15:18:46.606Z</time>
</trkpt>
<trkpt lat="53.6013532" lon="12.2291656">
<ele>65.317</ele>
<time>2013-08-21T15:18:49.313Z</time>
</trkpt>
<trkpt lat="53.6014359" lon="12.2292432">
<ele>64.543</ele>
<time>2013-08-21T15:18:51.120Z</time>
</trkpt>
<trkpt lat="53.6015319" lon="12.2293359">
<ele>65.774</ele>
<time>2013-08-21T15:18:53.263Z</time>
</trkpt>
<trkpt lat="53.6016506" lon="12.2294324">
<ele>67.268</ele>
<time>2013-08-21T15:18:55.874Z</time>
</trkpt>
<trkpt lat="53.6017903" lon="12.2295698">
<ele>67.439</ele>
<time>2013-08-21T15:18:59.232Z</time>
</trkpt>
<trkpt lat="53.6019078" lon="12.2296763">
<ele>67.246</ele>
<time>2013-08-21T15:19:02.075Z</time>
</trkpt>
<trkpt lat="53.6020311" lon="12.2297934">
<ele>67.891</ele>
<time>2013-08-21T15:19:04.988Z</time>
</trkpt>
<trkpt lat="53.6022151" lon="12.2299450">
<ele>69.547</ele>
<time>2013-08-21T15:19:08.788Z</time>
</trkpt>
<trkpt lat="53.6023593" lon="12.2300779">
<ele>71.816</ele>
<time>2013-08-21T15:19:11.564Z</time>
</trkpt>
<trkpt lat="53.6025015" lon="12.2302104">
<ele>73.848</ele>
<time>2013-08-21T15:19:14.186Z</time>
</trkpt>
<trkpt lat="53.6026514" lon="12.2303431">
<ele>75.004</ele>
<time>2013-08-21T15:19:16.892Z</time>
</trkpt>
<trkpt lat="53.6028040" lon="12.2304608">
<ele>75.427</ele>
<time>2013-08-21T15:19:19.650Z</time>
</trkpt>
<trkpt lat="53.6029343" lon="12.2305763">
<ele>75.420</ele>
<time>2013-08-21T15:19:22.199Z</time>
</trkpt>
<trkpt lat="53.6030767" lon="12.2307069">
<ele>75.478</ele>
<time>2013-08-21T15:19:25.033Z</time>
</trkpt>
<trkpt lat="53.6031953" lon="12.2308140">
<ele>76.466</ele>
<time>2013-08-21T15:19:27.372Z</time>
</trkpt>
<trkpt lat="53.6032916" lon="12.2308962">
<ele>78.494</ele>
<time>2013-08-21T15:19:29.314Z</time>
</trkpt>
<trkpt lat="53.6034433" lon="12.2310155">
<ele>79.712</ele>
<time>2013-08-21T15:19:32.512Z</time>
</trkpt>
<trkpt lat="53.6035939" lon="12.2311297">
<ele>77.216</ele>
<time>2013-08-21T15:19:35.561Z</time>
</trkpt>
<trkpt lat="53.6037020" lon="12.2312276">
<ele>70.972</ele>
<time>2013-08-21T15:19:37.833Z</time>
</trkpt>
<trkpt lat="53.6037877" lon="12.2313237">
<ele>64.555</ele>
<time>2013-08-21T15:19:39.765Z</time>
</trkpt>
<trkpt lat="53.6038813" lon="12.2314097">
<ele>60.471</ele>
<time>2013-08-21T15:19:42.053Z</time>
</trkpt>
<trkpt lat="53.6039846" lon="12.2314771">
<ele>58.341</ele>
<time>2013-08-21T15:19:44.499Z</time>
</trkpt>
<trkpt lat="53.6041450" lon="12.2316111">
<ele>57.040</ele>
<time>2013-08-21T15:19:48.126Z</time>
</trkpt>
<trkpt lat="53.6043298" lon="12.2317653">
<ele>55.779</ele>
<time>2013-08-21T15:19:51.480Z</time>
</trkpt>
<trkpt lat="53.6045350" lon="12.2319375">
<ele>54.721</ele>
<time>2013-08-21T15:19:54.632Z</time>
</trkpt>
<trkpt lat="53.6047020" lon="12.2321066">
<ele>53.726</ele>
<time>2013-08-21T15:19:57.067Z</time>
</trkpt>
<trkpt lat="53.6047852" lon="12.2321932">
<ele>52.243</ele>
<time>2013-08-21T15:19:58.323Z</time>
</trkpt>
<trkpt lat="53.6049281" lon="12.2323189">
<ele>51.249</ele>
<time>2013-08-21T15:20:00.457Z</time>
</trkpt>
<trkpt lat="53.6050557" lon="12.2324469">
<ele>52.460</ele>
<time>2013-08-21T15:20:02.718Z</time>
</trkpt>
<trkpt lat="53.6051446" lon="12.2325592">
<ele>55.988</ele>
<time>2013-08-21T15:20:04.622Z</time>
</trkpt>
<trkpt lat="53.6052658" lon="12.2327113">
<ele>60.028</ele>
<time>2013-08-21T15:20:07.329Z</time>
</trkpt>
<trkpt lat="53.6053416" lon="12.2328733">
<ele>62.690</ele>
<time>2013-08-21T15:20:09.606Z</time>
</trkpt>
<trkpt lat="53.6054595" lon="12.2331015">
<ele>64.884</ele>
<time>2013-08-21T15:20:12.995Z</time>
</trkpt>
<trkpt lat="53.6055308" lon="12.2332269">
<ele>68.226</ele>
<time>2013-08-21T15:20:15.019Z</time>
</trkpt>
<trkpt lat="53.6056120" lon="12.2333841">
<ele>71.635</ele>
<time>2013-08-21T15:20:17.504Z</time>
</trkpt>
<trkpt lat="53.6056909" lon="12.2335403">
<ele>72.563</ele>
<time>2013-08-21T15:20:19.966Z</time>
</trkpt>
<trkpt lat="53.6058050" lon="12.2337654">
<ele>70.736</ele>
<time>2013-08-21T15:20:23.803Z</time>
</trkpt>
<trkpt lat="53.6058567" lon="12.2338990">
<ele>68.312</ele>
<time>2013-08-21T15:20:25.943Z</time>
</trkpt>
<trkpt lat="53.6059220" lon="12.2340725">
<ele>67.104</ele>
<time>2013-08-21T15:20:28.635Z</time>
</trkpt>
<trkpt lat="53.6060004" lon="12.2342422">
<ele>67.219</ele>
<time>2013-08-21T15:20:31.527Z</time>
</trkpt>
<trkpt lat="53.6060996" lon="12.2344101">
<ele>68.122</ele>
<time>2013-08-21T15:20:34.813Z</time>
</trkpt>
<trkpt lat="53.6061641" lon="12.2345694">
<ele>69.007</ele>
<time>2013-08-21T15:20:37.476Z</time>
</trkpt>
<trkpt lat="53.6062190" lon="12.2347886">
<ele>69.404</ele>
<time>2013-08-21T15:20:40.627Z</time>
</trkpt>
<trkpt lat="53.6062525" lon="12.2349605">
<ele>69.458</ele>
<time>2013-08-21T15:20:43.075Z</time>
</trkpt>
<trkpt lat="53.6063266" lon="12.2351759">
<ele>69.308</ele>
<time>2013-08-21T15:20:46.944Z</time>
</trkpt>
<trkpt lat="53.6064157" lon="12.2353340">
<ele>68.614</ele>
<time>2013-08-21T15:20:50.337Z</time>
</trkpt>
<trkpt lat="53.6065161" lon="12.2355401">
<ele>67.038</ele>
<time>2013-08-21T15:20:53.569Z</time>
</trkpt>
<trkpt lat="53.6066419" lon="12.2357962">
<ele>65.133</ele>
<time>2013-08-21T15:20:57.560Z</time>
</trkpt>
<trkpt lat="53.6067510" lon="12.2359501">
<ele>63.479</ele>
<time>2013-08-21T15:21:00.706Z</time>
</trkpt>
<trkpt lat="53.6069499" lon="12.2361807">
<ele>62.151</ele>
<time>2013-08-21T15:21:05.877Z</time>
</trkpt>
<trkpt lat="53.6070502" lon="12.2363115">
<ele>61.418</ele>
<time>2013-08-21T15:21:08.598Z</time>
</trkpt>
<trkpt lat="53.6071812" lon="12.2364979">
<ele>61.425</ele>
<time>2013-08-21T15:21:12.236Z</time>
</trkpt>
<trkpt lat="53.6072996" lon="12.2366868">
<ele>61.721</ele>
<time>2013-08-21T15:21:15.866Z</time>
</trkpt>
<trkpt lat="53.6073926" lon="12.2368815">
<ele>61.916</ele>
<time>2013-08-21T15:21:18.588Z</time>
</trkpt>
<trkpt lat="53.6074723" lon="12.2370585">
<ele>62.132</ele>
<time>2013-08-21T15:21:20.792Z</time>
</trkpt>
<trkpt lat="53.6076500" lon="12.2373974">
<ele>62.550</ele>
<time>2013-08-21T15:21:25.403Z</time>
</trkpt>
<trkpt lat="53.6077759" lon="12.2376154">
<ele>62.646</ele>
<time>2013-08-21T15:21:28.920Z</time>
</trkpt>
<trkpt lat="53.6078552" lon="12.2377457">
<ele>61.931</ele>
<time>2013-08-21T15:21:31.161Z</time>
</trkpt>
<trkpt lat="53.6079278" lon="12.2378589">
<ele>60.548</ele>
<time>2013-08-21T15:21:33.229Z</time>
</trkpt>
<trkpt lat="53.6080523" lon="12.2379947">
<ele>58.659</ele>
<time>2013-08-21T15:21:36.625Z</time>
</trkpt>
<trkpt lat="53.6081655" lon="12.2380748">
<ele>56.697</ele>
<time>2013-08-21T15:21:39.493Z</time>
</trkpt>
<trkpt lat="53.6082976" lon="12.2380966">
<ele>55.446</ele>
<time>2013-08-21T15:21:42.420Z</time>
</trkpt>
<trkpt lat="53.6083957" lon="12.2381064">
<ele>55.268</ele>
<time>2013-08-21T15:21:44.500Z</time>
</trkpt>
<trkpt lat="53.6085327" lon="12.2381222">
<ele>56.133</ele>
<time>2013-08-21T15:21:47.313Z</time>
</trkpt>
<trkpt lat="53.6086636" lon="12.2381477">
<ele>57.505</ele>
<time>2013-08-21T15:21:49.972Z</time>
</trkpt>
<trkpt lat="53.6087860" lon="12.2381631">
<ele>58.610</ele>
<time>2013-08-21T15:21:52.489Z</time>
</trkpt>
<trkpt lat="53.6089319" lon="12.2382019">
<ele>59.159</ele>
<time>2013-08-21T15:21:55.483Z</time>
</trkpt>
<trkpt lat="53.6090787" lon="12.2382565">
<ele>59.281</ele>
<time>2013-08-21T15:21:58.629Z</time>
</trkpt>
<trkpt lat="53.6091773" lon="12.2382926">
<ele>58.864</ele>
<time>2013-08-21T15:22:00.794Z</time>
</trkpt>
<trkpt lat="53.6093112" lon="12.2383345">
<ele>57.697</ele>
<time>2013-08-21T15:22:03.574Z</time>
</trkpt>
<trkpt lat="53.6094300" lon="12.2383665">
<ele>56.213</ele>
<time>2013-08-21T15:22:06.077Z</time>
</trkpt>
<trkpt lat="53.6095281" lon="12.2383902">
<ele>55.474</ele>
<time>2013-08-21T15:22:08.306Z</time>
</trkpt>
<trkpt lat="53.6096661" lon="12.2384256">
<ele>55.973</ele>
<time>2013-08-21T15:22:11.313Z</time>
</trkpt>
<trkpt lat="53.6098007" lon="12.2384601">
<ele>57.573</ele>
<time>2013-08-21T15:22:14.138Z</time>
</trkpt>
<trkpt lat="53.6099012" lon="12.2384901">
<ele>60.171</ele>
<time>2013-08-21T15:22:16.254Z</time>
</trkpt>
<trkpt lat="53.6100346" lon="12.2385308">
<ele>63.082</ele>
<time>2013-08-21T15:22:18.839Z</time>
</trkpt>
<trkpt lat="53.6101772" lon="12.2385795">
<ele>65.011</ele>
<time>2013-08-21T15:22:21.513Z</time>
</trkpt>
<trkpt lat="53.6102856" lon="12.2386221">
<ele>65.206</ele>
<time>2013-08-21T15:22:23.587Z</time>
</trkpt>
<trkpt lat="53.6103784" lon="12.2386500">
<ele>64.079</ele>
<time>2013-08-21T15:22:25.299Z</time>
</trkpt>
<trkpt lat="53.6105320" lon="12.2386943">
<ele>62.805</ele>
<time>2013-08-21T15:22:28.107Z</time>
</trkpt>
<trkpt lat="53.6106842" lon="12.2387533">
<ele>62.181</ele>
<time>2013-08-21T15:22:30.850Z</time>
</trkpt>
<trkpt lat="53.6107918" lon="12.2388087">
<ele>62.038</ele>
<time>2013-08-21T15:22:32.795Z</time>
</trkpt>
<trkpt lat="53.6109541" lon="12.2388917">
<ele>61.978</ele>
<time>2013-08-21T15:22:35.734Z</time>
</trkpt>
<trkpt lat="53.6110611" lon="12.2389389">
<ele>61.836</ele>
<time>2013-08-21T15:22:37.684Z</time>
</trkpt>
<trkpt lat="53.6112323" lon="12.2390046">
<ele>61.696</ele>
<time>2013-08-21T15:22:40.876Z</time>
</trkpt>
<trkpt lat="53.6113742" lon="12.2390710">
<ele>61.881</ele>
<time>2013-08-21T15:22:43.657Z</time>
</trkpt>
<trkpt lat="53.6115124" lon="12.2391363">
<ele>62.522</ele>
<time>2013-08-21T15:22:46.492Z</time>
</trkpt>
<trkpt lat="53.6116094" lon="12.2391924">
<ele>62.542</ele>
<time>2013-08-21T15:22:48.603Z</time>
</trkpt>
<trkpt lat="53.6117463" lon="12.2392346">
<ele>60.350</ele>
<time>2013-08-21T15:22:51.576Z</time>
</trkpt>
<trkpt lat="53.6118393" lon="12.2392608">
<ele>56.422</ele>
<time>2013-08-21T15:22:53.626Z</time>
</trkpt>
<trkpt lat="53.6119608" lon="12.2393362">
<ele>52.720</ele>
<time>2013-08-21T15:22:56.546Z</time>
</trkpt>
<trkpt lat="53.6120561" lon="12.2394089">
<ele>50.312</ele>
<time>2013-08-21T15:22:59.014Z</time>
</trkpt>
<trkpt lat="53.6121600" lon="12.2394986">
<ele>49.536</ele>
<time>2013-08-21T15:23:01.985Z</time>
</trkpt>
<trkpt lat="53.6122696" lon="12.2395507">
<ele>50.696</ele>
<time>2013-08-21T15:23:05.241Z</time>
</trkpt>
<trkpt lat="53.6123773" lon="12.2396161">
<ele>53.185</ele>
<time>2013-08-21T15:23:08.771Z</time>
</trkpt>
<trkpt lat="53.6124680" lon="12.2396699">
<ele>55.564</ele>
<time>2013-08-21T15:23:11.679Z</time>
</trkpt>
<trkpt lat="53.6125635" lon="12.2397498">
<ele>56.837</ele>
<time>2013-08-21T15:23:14.602Z</time>
</trkpt>
<trkpt lat="53.6126569" lon="12.2398800">
<ele>57.618</ele>
<time>2013-08-21T15:23:17.765Z</time>
</trkpt>
<trkpt lat="53.6127481" lon="12.2399640">
<ele>58.774</ele>
<time>2013-08-21T15:23:20.420Z</time>
</trkpt>
<trkpt lat="53.6128378" lon="12.2400109">
<ele>59.997</ele>
<time>2013-08-21T15:23:22.813Z</time>
</trkpt>
<trkpt lat="53.6129368" lon="12.2400619">
<ele>60.898</ele>
<time>2013-08-21T15:23:25.461Z</time>
</trkpt>
<trkpt lat="53.6130403" lon="12.2401302">
<ele>61.639</ele>
<time>2013-08-21T15:23:28.262Z</time>
</trkpt>
<trkpt lat="53.6131652" lon="12.2402189">
<ele>62.260</ele>
<time>2013-08-21T15:23:31.552Z</time>
</trkpt>
<trkpt lat="53.6132689" lon="12.2403029">
<ele>62.745</ele>
<time>2013-08-21T15:23:34.239Z</time>
</trkpt>
<trkpt lat="53.6133822" lon="12.2403955">
<ele>63.047</ele>
<time>2013-08-21T15:23:37.050Z</time>
</trkpt>
<trkpt lat="53.6135159" lon="12.2405122">
<ele>62.898</ele>
<time>2013-08-21T15:23:40.266Z</time>
</trkpt>
<trkpt lat="53.6136317" lon="12.2406339">
<ele>61.661</ele>
<time>2013-08-21T15:23:43.138Z</time>
</trkpt>
<trkpt lat="53.6137235" lon="12.2407253">
<ele>59.226</ele>
<time>2013-08-21T15:23:45.343Z</time>
</trkpt>
<trkpt lat="53.6138387" lon="12.2408414">
<ele>56.979</ele>
<time>2013-08-21T15:23:48.181Z</time>
</trkpt>
<trkpt lat="53.6139468" lon="12.2409336">
<ele>55.938</ele>
<time>2013-08-21T15:23:50.883Z</time>
</trkpt>
<trkpt lat="53.6140746" lon="12.2410314">
<ele>55.669</ele>
<time>2013-08-21T15:23:54.065Z</time>
</trkpt>
<trkpt lat="53.6141870" lon="12.2410997">
<ele>55.680</ele>
<time>2013-08-21T15:23:56.659Z</time>
</trkpt>
<trkpt lat="53.6142693" lon="12.2411656">
<ele>56.240</ele>
<time>2013-08-21T15:23:58.566Z</time>
</trkpt>
<trkpt lat="53.6143997" lon="12.2412655">
<ele>57.626</ele>
<time>2013-08-21T15:24:01.519Z</time>
</trkpt>
<trkpt lat="53.6145268" lon="12.2413485">
<ele>59.506</ele>
<time>2013-08-21T15:24:04.301Z</time>
</trkpt>
<trkpt lat="53.6146558" lon="12.2414348">
<ele>61.082</ele>
<time>2013-08-21T15:24:07.198Z</time>
</trkpt>
<trkpt lat="53.6147441" lon="12.2414784">
<ele>61.619</ele>
<time>2013-08-21T15:24:09.272Z</time>
</trkpt>
<trkpt lat="53.6148573" lon="12.2415613">
<ele>61.036</ele>
<time>2013-08-21T15:24:12.225Z</time>
</trkpt>
<trkpt lat="53.6149906" lon="12.2416236">
<ele>60.530</ele>
<time>2013-08-21T15:24:15.332Z</time>
</trkpt>
<trkpt lat="53.6151290" lon="12.2417123">
<ele>61.129</ele>
<time>2013-08-21T15:24:18.421Z</time>
</trkpt>
<trkpt lat="53.6152661" lon="12.2418068">
<ele>62.313</ele>
<time>2013-08-21T15:24:21.353Z</time>
</trkpt>
<trkpt lat="53.6153904" lon="12.2418981">
<ele>62.944</ele>
<time>2013-08-21T15:24:23.956Z</time>
</trkpt>
<trkpt lat="53.6155255" lon="12.2420071">
<ele>62.699</ele>
<time>2013-08-21T15:24:26.868Z</time>
</trkpt>
<trkpt lat="53.6156466" lon="12.2421083">
<ele>62.607</ele>
<time>2013-08-21T15:24:29.551Z</time>
</trkpt>
<trkpt lat="53.6157941" lon="12.2422024">
<ele>63.495</ele>
<time>2013-08-21T15:24:32.750Z</time>
</trkpt>
<trkpt lat="53.6159187" lon="12.2422906">
<ele>64.488</ele>
<time>2013-08-21T15:24:35.548Z</time>
</trkpt>
<trkpt lat="53.6160461" lon="12.2423995">
<ele>64.427</ele>
<time>2013-08-21T15:24:38.525Z</time>
</trkpt>
<trkpt lat="53.6161598" lon="12.2424919">
<ele>63.506</ele>
<time>2013-08-21T15:24:41.290Z</time>
</trkpt>
<trkpt lat="53.6163088" lon="12.2425835">
<ele>62.711</ele>
<time>2013-08-21T15:24:44.823Z</time>
</trkpt>
<trkpt lat="53.6164063" lon="12.2426499">
<ele>62.569</ele>
<time>2013-08-21T15:24:46.970Z</time>
</trkpt>
<trkpt lat="53.6165594" lon="12.2427461">
<ele>62.205</ele>
<time>2013-08-21T15:24:49.888Z</time>
</trkpt>
<trkpt lat="53.6166467" lon="12.2428124">
<ele>60.710</ele>
<time>2013-08-21T15:24:51.540Z</time>
</trkpt>
<trkpt lat="53.6167668" lon="12.2429079">
<ele>58.286</ele>
<time>2013-08-21T15:24:54.050Z</time>
</trkpt>
<trkpt lat="53.6168816" lon="12.2429868">
<ele>55.730</ele>
<time>2013-08-21T15:24:56.679Z</time>
</trkpt>
<trkpt lat="53.6170160" lon="12.2430713">
<ele>53.326</ele>
<time>2013-08-21T15:24:59.825Z</time>
</trkpt>
<trkpt lat="53.6171248" lon="12.2431105">
<ele>51.708</ele>
<time>2013-08-21T15:25:02.663Z</time>
</trkpt>
<trkpt lat="53.6172207" lon="12.2430215">
<ele>52.013</ele>
<time>2013-08-21T15:25:06.070Z</time>
</trkpt>
<trkpt lat="53.6172839" lon="12.2428991">
<ele>53.950</ele>
<time>2013-08-21T15:25:09.689Z</time>
</trkpt>
<trkpt lat="53.6172839" lon="12.2428991">
<ele>55.714</ele>
<time>2013-08-21T15:25:12.685Z</time>
</trkpt>
<trkpt lat="53.6172839" lon="12.2428991">
<ele>56.415</ele>
<time>2013-08-21T15:27:13.806Z</time>
</trkpt>
<trkpt lat="53.6173056" lon="12.2425820">
<ele>56.289</ele>
<time>2013-08-21T15:27:26.797Z</time>
</trkpt>
<trkpt lat="53.6173683" lon="12.2424298">
<ele>55.912</ele>
<time>2013-08-21T15:27:30.292Z</time>
</trkpt>
<trkpt lat="53.6174308" lon="12.2422433">
<ele>55.566</ele>
<time>2013-08-21T15:27:33.296Z</time>
</trkpt>
<trkpt lat="53.6174788" lon="12.2420988">
<ele>55.224</ele>
<time>2013-08-21T15:27:35.306Z</time>
</trkpt>
<trkpt lat="53.6175180" lon="12.2419553">
<ele>54.963</ele>
<time>2013-08-21T15:27:37.179Z</time>
</trkpt>
<trkpt lat="53.6175753" lon="12.2417483">
<ele>55.300</ele>
<time>2013-08-21T15:27:39.982Z</time>
</trkpt>
<trkpt lat="53.6176280" lon="12.2415539">
<ele>56.488</ele>
<time>2013-08-21T15:27:42.811Z</time>
</trkpt>
<trkpt lat="53.6176754" lon="12.2413693">
<ele>57.981</ele>
<time>2013-08-21T15:27:45.720Z</time>
</trkpt>
<trkpt lat="53.6177131" lon="12.2412037">
<ele>59.262</ele>
<time>2013-08-21T15:27:48.302Z</time>
</trkpt>
<trkpt lat="53.6177516" lon="12.2409929">
<ele>60.400</ele>
<time>2013-08-21T15:27:51.399Z</time>
</trkpt>
<trkpt lat="53.6177816" lon="12.2408491">
<ele>61.664</ele>
<time>2013-08-21T15:27:53.468Z</time>
</trkpt>
<trkpt lat="53.6178371" lon="12.2406654">
<ele>63.119</ele>
<time>2013-08-21T15:27:56.317Z</time>
</trkpt>
<trkpt lat="53.6178749" lon="12.2405077">
<ele>64.369</ele>
<time>2013-08-21T15:27:58.678Z</time>
</trkpt>
<trkpt lat="53.6179265" lon="12.2403107">
<ele>65.123</ele>
<time>2013-08-21T15:28:01.599Z</time>
</trkpt>
<trkpt lat="53.6179900" lon="12.2401043">
<ele>65.468</ele>
<time>2013-08-21T15:28:04.667Z</time>
</trkpt>
<trkpt lat="53.6180531" lon="12.2399341">
<ele>65.469</ele>
<time>2013-08-21T15:28:07.302Z</time>
</trkpt>
<trkpt lat="53.6181045" lon="12.2397408">
<ele>65.060</ele>
<time>2013-08-21T15:28:10.100Z</time>
</trkpt>
<trkpt lat="53.6181581" lon="12.2395695">
<ele>64.391</ele>
<time>2013-08-21T15:28:12.932Z</time>
</trkpt>
<trkpt lat="53.6182104" lon="12.2394095">
<ele>63.763</ele>
<time>2013-08-21T15:28:15.867Z</time>
</trkpt>
<trkpt lat="53.6182684" lon="12.2392898">
<ele>63.531</ele>
<time>2013-08-21T15:28:18.607Z</time>
</trkpt>
<trkpt lat="53.6183532" lon="12.2391228">
<ele>63.337</ele>
<time>2013-08-21T15:28:22.282Z</time>
</trkpt>
<trkpt lat="53.6184024" lon="12.2389832">
<ele>62.516</ele>
<time>2013-08-21T15:28:24.927Z</time>
</trkpt>
<trkpt lat="53.6184428" lon="12.2388282">
<ele>61.432</ele>
<time>2013-08-21T15:28:27.847Z</time>
</trkpt>
<trkpt lat="53.6184849" lon="12.2386282">
<ele>61.202</ele>
<time>2013-08-21T15:28:31.443Z</time>
</trkpt>
<trkpt lat="53.6185327" lon="12.2383982">
<ele>62.037</ele>
<time>2013-08-21T15:28:35.178Z</time>
</trkpt>
<trkpt lat="53.6185734" lon="12.2381749">
<ele>63.172</ele>
<time>2013-08-21T15:28:38.351Z</time>
</trkpt>
<trkpt lat="53.6186280" lon="12.2378953">
<ele>63.906</ele>
<time>2013-08-21T15:28:41.737Z</time>
</trkpt>
<trkpt lat="53.6186889" lon="12.2376057">
<ele>64.347</ele>
<time>2013-08-21T15:28:44.901Z</time>
</trkpt>
<trkpt lat="53.6187459" lon="12.2373605">
<ele>64.757</ele>
<time>2013-08-21T15:28:47.677Z</time>
</trkpt>
<trkpt lat="53.6187967" lon="12.2371236">
<ele>65.526</ele>
<time>2013-08-21T15:28:50.527Z</time>
</trkpt>
<trkpt lat="53.6188234" lon="12.2369633">
<ele>66.916</ele>
<time>2013-08-21T15:28:52.483Z</time>
</trkpt>
<trkpt lat="53.6188600" lon="12.2367968">
<ele>68.699</ele>
<time>2013-08-21T15:28:54.596Z</time>
</trkpt>
<trkpt lat="53.6188937" lon="12.2366384">
<ele>70.320</ele>
<time>2013-08-21T15:28:56.627Z</time>
</trkpt>
<trkpt lat="53.6189417" lon="12.2364182">
<ele>70.644</ele>
<time>2013-08-21T15:28:59.508Z</time>
</trkpt>
<trkpt lat="53.6189841" lon="12.2362177">
<ele>68.648</ele>
<time>2013-08-21T15:29:02.195Z</time>
</trkpt>
<trkpt lat="53.6190168" lon="12.2360698">
<ele>65.260</ele>
<time>2013-08-21T15:29:04.273Z</time>
</trkpt>
<trkpt lat="53.6190646" lon="12.2358749">
<ele>62.633</ele>
<time>2013-08-21T15:29:07.153Z</time>
</trkpt>
<trkpt lat="53.6191065" lon="12.2357132">
<ele>62.125</ele>
<time>2013-08-21T15:29:09.593Z</time>
</trkpt>
<trkpt lat="53.6191527" lon="12.2355120">
<ele>63.350</ele>
<time>2013-08-21T15:29:12.594Z</time>
</trkpt>
<trkpt lat="53.6192064" lon="12.2352546">
<ele>64.796</ele>
<time>2013-08-21T15:29:16.299Z</time>
</trkpt>
<trkpt lat="53.6192504" lon="12.2350738">
<ele>65.227</ele>
<time>2013-08-21T15:29:19.042Z</time>
</trkpt>
<trkpt lat="53.6192945" lon="12.2349053">
<ele>64.613</ele>
<time>2013-08-21T15:29:22.175Z</time>
</trkpt>
<trkpt lat="53.6193437" lon="12.2347655">
<ele>63.754</ele>
<time>2013-08-21T15:29:25.184Z</time>
</trkpt>
<trkpt lat="53.6193992" lon="12.2346092">
<ele>63.117</ele>
<time>2013-08-21T15:29:28.364Z</time>
</trkpt>
<trkpt lat="53.6194536" lon="12.2344757">
<ele>62.442</ele>
<time>2013-08-21T15:29:31.694Z</time>
</trkpt>
<trkpt lat="53.6194536" lon="12.2344757">
<ele>61.837</ele>
<time>2013-08-21T15:29:33.698Z</time>
</trkpt>
<trkpt lat="53.6194536" lon="12.2344757">
<ele>61.638</ele>
<time>2013-08-21T15:29:39.353Z</time>
</trkpt>
<trkpt lat="53.6195735" lon="12.2342363">
<ele>61.700</ele>
<time>2013-08-21T15:30:02.310Z</time>
</trkpt>
<trkpt lat="53.6196231" lon="12.2341032">
<ele>60.214</ele>
<time>2013-08-21T15:30:06.524Z</time>
</trkpt>
<trkpt lat="53.6196851" lon="12.2339385">
<ele>56.227</ele>
<time>2013-08-21T15:30:10.472Z</time>
</trkpt>
<trkpt lat="53.6197561" lon="12.2337781">
<ele>52.114</ele>
<time>2013-08-21T15:30:13.872Z</time>
</trkpt>
<trkpt lat="53.6198537" lon="12.2336287">
<ele>50.455</ele>
<time>2013-08-21T15:30:17.301Z</time>
</trkpt>
<trkpt lat="53.6199576" lon="12.2334339">
<ele>51.107</ele>
<time>2013-08-21T15:30:21.099Z</time>
</trkpt>
<trkpt lat="53.6200266" lon="12.2333312">
<ele>53.000</ele>
<time>2013-08-21T15:30:23.209Z</time>
</trkpt>
<trkpt lat="53.6201140" lon="12.2331655">
<ele>54.978</ele>
<time>2013-08-21T15:30:26.111Z</time>
</trkpt>
<trkpt lat="53.6202257" lon="12.2329715">
<ele>56.231</ele>
<time>2013-08-21T15:30:29.517Z</time>
</trkpt>
<trkpt lat="53.6203085" lon="12.2328165">
<ele>56.516</ele>
<time>2013-08-21T15:30:32.118Z</time>
</trkpt>
<trkpt lat="53.6204008" lon="12.2326170">
<ele>56.011</ele>
<time>2013-08-21T15:30:35.272Z</time>
</trkpt>
<trkpt lat="53.6204652" lon="12.2324717">
<ele>55.108</ele>
<time>2013-08-21T15:30:37.533Z</time>
</trkpt>
<trkpt lat="53.6205785" lon="12.2323189">
<ele>54.494</ele>
<time>2013-08-21T15:30:40.573Z</time>
</trkpt>
<trkpt lat="53.6206719" lon="12.2322181">
<ele>54.491</ele>
<time>2013-08-21T15:30:42.908Z</time>
</trkpt>
<trkpt lat="53.6207869" lon="12.2320433">
<ele>54.480</ele>
<time>2013-08-21T15:30:46.229Z</time>
</trkpt>
<trkpt lat="53.6208962" lon="12.2318419">
<ele>53.931</ele>
<time>2013-08-21T15:30:49.753Z</time>
</trkpt>
<trkpt lat="53.6209804" lon="12.2316962">
<ele>53.318</ele>
<time>2013-08-21T15:30:52.396Z</time>
</trkpt>
<trkpt lat="53.6210467" lon="12.2315803">
<ele>53.939</ele>
<time>2013-08-21T15:30:54.475Z</time>
</trkpt>
<trkpt lat="53.6211126" lon="12.2314709">
<ele>56.348</ele>
<time>2013-08-21T15:30:56.462Z</time>
</trkpt>
<trkpt lat="53.6212109" lon="12.2313039">
<ele>58.972</ele>
<time>2013-08-21T15:30:59.405Z</time>
</trkpt>
<trkpt lat="53.6213127" lon="12.2311597">
<ele>59.673</ele>
<time>2013-08-21T15:31:02.204Z</time>
</trkpt>
<trkpt lat="53.6213793" lon="12.2310551">
<ele>58.235</ele>
<time>2013-08-21T15:31:04.139Z</time>
</trkpt>
<trkpt lat="53.6214718" lon="12.2309200">
<ele>55.986</ele>
<time>2013-08-21T15:31:06.760Z</time>
</trkpt>
<trkpt lat="53.6215449" lon="12.2308054">
<ele>54.271</ele>
<time>2013-08-21T15:31:08.909Z</time>
</trkpt>
<trkpt lat="53.6216279" lon="12.2306649">
<ele>53.811</ele>
<time>2013-08-21T15:31:11.454Z</time>
</trkpt>
<trkpt lat="53.6217258" lon="12.2305197">
<ele>54.652</ele>
<time>2013-08-21T15:31:14.278Z</time>
</trkpt>
<trkpt lat="53.6218160" lon="12.2303666">
<ele>56.135</ele>
<time>2013-08-21T15:31:17.069Z</time>
</trkpt>
<trkpt lat="53.6218904" lon="12.2302210">
<ele>57.357</ele>
<time>2013-08-21T15:31:19.598Z</time>
</trkpt>
<trkpt lat="53.6219606" lon="12.2301156">
<ele>57.807</ele>
<time>2013-08-21T15:31:21.718Z</time>
</trkpt>
<trkpt lat="53.6220637" lon="12.2299626">
<ele>57.016</ele>
<time>2013-08-21T15:31:24.831Z</time>
</trkpt>
<trkpt lat="53.6221511" lon="12.2298470">
<ele>55.149</ele>
<time>2013-08-21T15:31:27.302Z</time>
</trkpt>
<trkpt lat="53.6222322" lon="12.2297095">
<ele>53.422</ele>
<time>2013-08-21T15:31:29.792Z</time>
</trkpt>
<trkpt lat="53.6223470" lon="12.2295191">
<ele>52.606</ele>
<time>2013-08-21T15:31:33.172Z</time>
</trkpt>
<trkpt lat="53.6224258" lon="12.2294014">
<ele>52.392</ele>
<time>2013-08-21T15:31:35.292Z</time>
</trkpt>
<trkpt lat="53.6225024" lon="12.2292909">
<ele>52.414</ele>
<time>2013-08-21T15:31:37.229Z</time>
</trkpt>
<trkpt lat="53.6226012" lon="12.2290914">
<ele>52.299</ele>
<time>2013-08-21T15:31:40.166Z</time>
</trkpt>
<trkpt lat="53.6226995" lon="12.2288919">
<ele>51.851</ele>
<time>2013-08-21T15:31:43.225Z</time>
</trkpt>
<trkpt lat="53.6227666" lon="12.2287608">
<ele>51.624</ele>
<time>2013-08-21T15:31:45.336Z</time>
</trkpt>
<trkpt lat="53.6228664" lon="12.2286101">
<ele>52.082</ele>
<time>2013-08-21T15:31:48.093Z</time>
</trkpt>
<trkpt lat="53.6229684" lon="12.2285090">
<ele>52.579</ele>
<time>2013-08-21T15:31:50.568Z</time>
</trkpt>
<trkpt lat="53.6230822" lon="12.2285133">
<ele>52.487</ele>
<time>2013-08-21T15:31:52.976Z</time>
</trkpt>
<trkpt lat="53.6232010" lon="12.2285372">
<ele>52.203</ele>
<time>2013-08-21T15:31:55.525Z</time>
</trkpt>
<trkpt lat="53.6232956" lon="12.2285756">
<ele>52.237</ele>
<time>2013-08-21T15:31:57.611Z</time>
</trkpt>
<trkpt lat="53.6234099" lon="12.2286757">
<ele>52.494</ele>
<time>2013-08-21T15:32:00.500Z</time>
</trkpt>
<trkpt lat="53.6235051" lon="12.2287661">
<ele>52.666</ele>
<time>2013-08-21T15:32:03.084Z</time>
</trkpt>
<trkpt lat="53.6235858" lon="12.2288576">
<ele>52.517</ele>
<time>2013-08-21T15:32:05.478Z</time>
</trkpt>
<trkpt lat="53.6236739" lon="12.2289329">
<ele>51.868</ele>
<time>2013-08-21T15:32:07.955Z</time>
</trkpt>
<trkpt lat="53.6237765" lon="12.2289732">
<ele>50.896</ele>
<time>2013-08-21T15:32:10.730Z</time>
</trkpt>
<trkpt lat="53.6238876" lon="12.2290371">
<ele>49.721</ele>
<time>2013-08-21T15:32:14.022Z</time>
</trkpt>
<trkpt lat="53.6239671" lon="12.2291584">
<ele>48.364</ele>
<time>2013-08-21T15:32:17.206Z</time>
</trkpt>
<trkpt lat="53.6240532" lon="12.2292309">
<ele>47.268</ele>
<time>2013-08-21T15:32:20.258Z</time>
</trkpt>
<trkpt lat="53.6241406" lon="12.2293302">
<ele>46.459</ele>
<time>2013-08-21T15:32:23.707Z</time>
</trkpt>
<trkpt lat="53.6241406" lon="12.2293302">
<ele>45.507</ele>
<time>2013-08-21T15:32:26.700Z</time>
</trkpt>
<trkpt lat="53.6241406" lon="12.2293302">
<ele>44.808</ele>
<time>2013-08-21T15:34:02.918Z</time>
</trkpt>
<trkpt lat="53.6239897" lon="12.2291675">
<ele>44.944</ele>
<time>2013-08-21T15:34:20.637Z</time>
</trkpt>
<trkpt lat="53.6239185" lon="12.2290523">
<ele>45.679</ele>
<time>2013-08-21T15:34:25.637Z</time>
</trkpt>
<trkpt lat="53.6238379" lon="12.2289839">
<ele>46.413</ele>
<time>2013-08-21T15:34:29.842Z</time>
</trkpt>
<trkpt lat="53.6237426" lon="12.2289365">
<ele>46.755</ele>
<time>2013-08-21T15:34:34.061Z</time>
</trkpt>
<trkpt lat="53.6236509" lon="12.2288658">
<ele>46.710</ele>
<time>2013-08-21T15:34:37.945Z</time>
</trkpt>
<trkpt lat="53.6235517" lon="12.2287790">
<ele>46.777</ele>
<time>2013-08-21T15:34:41.889Z</time>
</trkpt>
<trkpt lat="53.6234677" lon="12.2287142">
<ele>47.374</ele>
<time>2013-08-21T15:34:44.929Z</time>
</trkpt>
<trkpt lat="53.6233800" lon="12.2286497">
<ele>48.189</ele>
<time>2013-08-21T15:34:47.914Z</time>
</trkpt>
<trkpt lat="53.6232924" lon="12.2285732">
<ele>48.529</ele>
<time>2013-08-21T15:34:50.884Z</time>
</trkpt>
<trkpt lat="53.6231950" lon="12.2285390">
<ele>48.225</ele>
<time>2013-08-21T15:34:53.794Z</time>
</trkpt>
<trkpt lat="53.6230989" lon="12.2285429">
<ele>47.722</ele>
<time>2013-08-21T15:34:56.570Z</time>
</trkpt>
<trkpt lat="53.6229906" lon="12.2285359">
<ele>47.336</ele>
<time>2013-08-21T15:35:00.279Z</time>
</trkpt>
<trkpt lat="53.6230094" lon="12.2283428">
<ele>47.014</ele>
<time>2013-08-21T15:35:04.418Z</time>
</trkpt>
<trkpt lat="53.6230749" lon="12.2281848">
<ele>47.231</ele>
<time>2013-08-21T15:35:08.165Z</time>
</trkpt>
<trkpt lat="53.6231379" lon="12.2280179">
<ele>48.376</ele>
<time>2013-08-21T15:35:11.400Z</time>
</trkpt>
<trkpt lat="53.6231845" lon="12.2278883">
<ele>49.738</ele>
<time>2013-08-21T15:35:13.688Z</time>
</trkpt>
<trkpt lat="53.6232501" lon="12.2276997">
<ele>50.501</ele>
<time>2013-08-21T15:35:16.824Z</time>
</trkpt>
<trkpt lat="53.6233064" lon="12.2275563">
<ele>50.687</ele>
<time>2013-08-21T15:35:19.237Z</time>
</trkpt>
<trkpt lat="53.6233828" lon="12.2273967">
<ele>50.618</ele>
<time>2013-08-21T15:35:22.066Z</time>
</trkpt>
<trkpt lat="53.6234490" lon="12.2272071">
<ele>50.577</ele>
<time>2013-08-21T15:35:25.049Z</time>
</trkpt>
<trkpt lat="53.6235142" lon="12.2270239">
<ele>50.661</ele>
<time>2013-08-21T15:35:27.920Z</time>
</trkpt>
<trkpt lat="53.6235740" lon="12.2268410">
<ele>50.590</ele>
<time>2013-08-21T15:35:30.724Z</time>
</trkpt>
<trkpt lat="53.6236139" lon="12.2266464">
<ele>50.119</ele>
<time>2013-08-21T15:35:33.476Z</time>
</trkpt>
<trkpt lat="53.6236456" lon="12.2264576">
<ele>49.560</ele>
<time>2013-08-21T15:35:36.083Z</time>
</trkpt>
<trkpt lat="53.6236676" lon="12.2262758">
<ele>49.352</ele>
<time>2013-08-21T15:35:38.544Z</time>
</trkpt>
<trkpt lat="53.6237012" lon="12.2260942">
<ele>49.581</ele>
<time>2013-08-21T15:35:41.086Z</time>
</trkpt>
<trkpt lat="53.6237291" lon="12.2259165">
<ele>49.946</ele>
<time>2013-08-21T15:35:43.558Z</time>
</trkpt>
<trkpt lat="53.6237581" lon="12.2257131">
<ele>49.262</ele>
<time>2013-08-21T15:35:46.389Z</time>
</trkpt>
<trkpt lat="53.6238211" lon="12.2255258">
<ele>47.050</ele>
<time>2013-08-21T15:35:49.370Z</time>
</trkpt>
<trkpt lat="53.6238967" lon="12.2253835">
<ele>45.381</ele>
<time>2013-08-21T15:35:52.093Z</time>
</trkpt>
<trkpt lat="53.6239672" lon="12.2252872">
<ele>45.995</ele>
<time>2013-08-21T15:35:54.325Z</time>
</trkpt>
<trkpt lat="53.6240683" lon="12.2251668">
<ele>48.176</ele>
<time>2013-08-21T15:35:57.406Z</time>
</trkpt>
<trkpt lat="53.6241635" lon="12.2250774">
<ele>50.566</ele>
<time>2013-08-21T15:36:00.116Z</time>
</trkpt>
<trkpt lat="53.6242661" lon="12.2249551">
<ele>52.213</ele>
<time>2013-08-21T15:36:03.246Z</time>
</trkpt>
<trkpt lat="53.6243780" lon="12.2248803">
<ele>52.875</ele>
<time>2013-08-21T15:36:06.300Z</time>
</trkpt>
<trkpt lat="53.6245072" lon="12.2248090">
<ele>53.042</ele>
<time>2013-08-21T15:36:09.789Z</time>
</trkpt>
<trkpt lat="53.6246255" lon="12.2247268">
<ele>53.334</ele>
<time>2013-08-21T15:36:13.051Z</time>
</trkpt>
<trkpt lat="53.6247432" lon="12.2246629">
<ele>54.074</ele>
<time>2013-08-21T15:36:16.143Z</time>
</trkpt>
<trkpt lat="53.6248547" lon="12.2246013">
<ele>54.919</ele>
<time>2013-08-21T15:36:19.016Z</time>
</trkpt>
<trkpt lat="53.6249445" lon="12.2245670">
<ele>55.297</ele>
<time>2013-08-21T15:36:21.243Z</time>
</trkpt>
<trkpt lat="53.6250913" lon="12.2244891">
<ele>55.164</ele>
<time>2013-08-21T15:36:24.903Z</time>
</trkpt>
<trkpt lat="53.6251893" lon="12.2244250">
<ele>54.847</ele>
<time>2013-08-21T15:36:27.349Z</time>
</trkpt>
<trkpt lat="53.6252845" lon="12.2243706">
<ele>54.853</ele>
<time>2013-08-21T15:36:29.647Z</time>
</trkpt>
<trkpt lat="53.6254272" lon="12.2242900">
<ele>55.132</ele>
<time>2013-08-21T15:36:33.066Z</time>
</trkpt>
<trkpt lat="53.6255224" lon="12.2242350">
<ele>54.314</ele>
<time>2013-08-21T15:36:35.341Z</time>
</trkpt>
<trkpt lat="53.6256102" lon="12.2241803">
<ele>50.610</ele>
<time>2013-08-21T15:36:37.472Z</time>
</trkpt>
<trkpt lat="53.6257160" lon="12.2241362">
<ele>44.923</ele>
<time>2013-08-21T15:36:39.997Z</time>
</trkpt>
<trkpt lat="53.6258390" lon="12.2241496">
<ele>41.374</ele>
<time>2013-08-21T15:36:42.929Z</time>
</trkpt>
<trkpt lat="53.6259375" lon="12.2241560">
<ele>42.032</ele>
<time>2013-08-21T15:36:45.301Z</time>
</trkpt>
<trkpt lat="53.6261009" lon="12.2242393">
<ele>45.214</ele>
<time>2013-08-21T15:36:49.349Z</time>
</trkpt>
<trkpt lat="53.6262333" lon="12.2243286">
<ele>48.800</ele>
<time>2013-08-21T15:36:52.687Z</time>
</trkpt>
<trkpt lat="53.6263324" lon="12.2244286">
<ele>51.197</ele>
<time>2013-08-21T15:36:55.460Z</time>
</trkpt>
<trkpt lat="53.6264139" lon="12.2245139">
<ele>51.370</ele>
<time>2013-08-21T15:36:57.861Z</time>
</trkpt>
<trkpt lat="53.6264982" lon="12.2246080">
<ele>49.883</ele>
<time>2013-08-21T15:37:00.488Z</time>
</trkpt>
<trkpt lat="53.6266251" lon="12.2246806">
<ele>47.987</ele>
<time>2013-08-21T15:37:04.074Z</time>
</trkpt>
<trkpt lat="53.6267387" lon="12.2247809">
<ele>46.529</ele>
<time>2013-08-21T15:37:07.616Z</time>
</trkpt>
<trkpt lat="53.6268376" lon="12.2248963">
<ele>45.443</ele>
<time>2013-08-21T15:37:11.015Z</time>
</trkpt>
<trkpt lat="53.6269547" lon="12.2250475">
<ele>44.514</ele>
<time>2013-08-21T15:37:15.137Z</time>
</trkpt>
<trkpt lat="53.6270403" lon="12.2251601">
<ele>43.507</ele>
<time>2013-08-21T15:37:18.068Z</time>
</trkpt>
<trkpt lat="53.6271214" lon="12.2252705">
<ele>42.153</ele>
<time>2013-08-21T15:37:20.835Z</time>
</trkpt>
<trkpt lat="53.6272329" lon="12.2254131">
<ele>40.755</ele>
<time>2013-08-21T15:37:24.539Z</time>
</trkpt>
<trkpt lat="53.6273422" lon="12.2255247">
<ele>40.324</ele>
<time>2013-08-21T15:37:27.995Z</time>
</trkpt>
<trkpt lat="53.6274251" lon="12.2256479">
<ele>41.293</ele>
<time>2013-08-21T15:37:31.050Z</time>
</trkpt>
<trkpt lat="53.6275269" lon="12.2257463">
<ele>42.981</ele>
<time>2013-08-21T15:37:34.339Z</time>
</trkpt>
<trkpt lat="53.6276234" lon="12.2258332">
<ele>44.857</ele>
<time>2013-08-21T15:37:37.391Z</time>
</trkpt>
<trkpt lat="53.6277367" lon="12.2259108">
<ele>47.028</ele>
<time>2013-08-21T15:37:40.673Z</time>
</trkpt>
<trkpt lat="53.6278386" lon="12.2259793">
<ele>49.286</ele>
<time>2013-08-21T15:37:43.514Z</time>
</trkpt>
<trkpt lat="53.6279379" lon="12.2260524">
<ele>51.079</ele>
<time>2013-08-21T15:37:46.339Z</time>
</trkpt>
<trkpt lat="53.6280363" lon="12.2261414">
<ele>52.054</ele>
<time>2013-08-21T15:37:49.281Z</time>
</trkpt>
<trkpt lat="53.6281483" lon="12.2262475">
<ele>52.378</ele>
<time>2013-08-21T15:37:52.638Z</time>
</trkpt>
<trkpt lat="53.6282177" lon="12.2263638">
<ele>52.517</ele>
<time>2013-08-21T15:37:55.158Z</time>
</trkpt>
<trkpt lat="53.6283084" lon="12.2265545">
<ele>52.713</ele>
<time>2013-08-21T15:37:58.864Z</time>
</trkpt>
<trkpt lat="53.6283776" lon="12.2266939">
<ele>52.747</ele>
<time>2013-08-21T15:38:01.634Z</time>
</trkpt>
<trkpt lat="53.6284436" lon="12.2268434">
<ele>52.342</ele>
<time>2013-08-21T15:38:04.531Z</time>
</trkpt>
<trkpt lat="53.6285132" lon="12.2269991">
<ele>51.751</ele>
<time>2013-08-21T15:38:07.644Z</time>
</trkpt>
<trkpt lat="53.6285621" lon="12.2271618">
<ele>51.584</ele>
<time>2013-08-21T15:38:10.663Z</time>
</trkpt>
<trkpt lat="53.6286136" lon="12.2273257">
<ele>52.036</ele>
<time>2013-08-21T15:38:13.844Z</time>
</trkpt>
<trkpt lat="53.6286720" lon="12.2274704">
<ele>52.743</ele>
<time>2013-08-21T15:38:16.923Z</time>
</trkpt>
<trkpt lat="53.6287348" lon="12.2276407">
<ele>53.220</ele>
<time>2013-08-21T15:38:20.583Z</time>
</trkpt>
<trkpt lat="53.6287939" lon="12.2278357">
<ele>52.949</ele>
<time>2013-08-21T15:38:24.857Z</time>
</trkpt>
<trkpt lat="53.6288313" lon="12.2279947">
<ele>51.356</ele>
<time>2013-08-21T15:38:28.403Z</time>
</trkpt>
<trkpt lat="53.6288902" lon="12.2281358">
<ele>48.325</ele>
<time>2013-08-21T15:38:31.950Z</time>
</trkpt>
<trkpt lat="53.6289284" lon="12.2283120">
<ele>44.827</ele>
<time>2013-08-21T15:38:35.642Z</time>
</trkpt>
<trkpt lat="53.6289810" lon="12.2284743">
<ele>42.247</ele>
<time>2013-08-21T15:38:39.276Z</time>
</trkpt>
<trkpt lat="53.6290677" lon="12.2286580">
<ele>40.879</ele>
<time>2013-08-21T15:38:43.835Z</time>
</trkpt>
<trkpt lat="53.6291290" lon="12.2287862">
<ele>39.573</ele>
<time>2013-08-21T15:38:46.828Z</time>
</trkpt>
<trkpt lat="53.6292036" lon="12.2289141">
<ele>37.124</ele>
<time>2013-08-21T15:38:49.875Z</time>
</trkpt>
<trkpt lat="53.6293048" lon="12.2290031">
<ele>33.919</ele>
<time>2013-08-21T15:38:52.957Z</time>
</trkpt>
<trkpt lat="53.6294075" lon="12.2290439">
<ele>31.567</ele>
<time>2013-08-21T15:38:55.697Z</time>
</trkpt>
<trkpt lat="53.6295230" lon="12.2290823">
<ele>30.922</ele>
<time>2013-08-21T15:38:58.593Z</time>
</trkpt>
<trkpt lat="53.6296418" lon="12.2291153">
<ele>31.864</ele>
<time>2013-08-21T15:39:01.431Z</time>
</trkpt>
<trkpt lat="53.6297620" lon="12.2291620">
<ele>33.279</ele>
<time>2013-08-21T15:39:04.279Z</time>
</trkpt>
<trkpt lat="53.6298819" lon="12.2292154">
<ele>33.711</ele>
<time>2013-08-21T15:39:07.206Z</time>
</trkpt>
<trkpt lat="53.6300146" lon="12.2292695">
<ele>33.171</ele>
<time>2013-08-21T15:39:10.604Z</time>
</trkpt>
<trkpt lat="53.6302400" lon="12.2293212">
<ele>33.916</ele>
<time>2013-08-21T15:39:16.602Z</time>
</trkpt>
<trkpt lat="53.6305192" lon="12.2293809">
<ele>38.329</ele>
<time>2013-08-21T15:39:24.221Z</time>
</trkpt>
<trkpt lat="53.6306947" lon="12.2294365">
<ele>45.081</ele>
<time>2013-08-21T15:39:29.027Z</time>
</trkpt>
<trkpt lat="53.6307867" lon="12.2294891">
<ele>50.553</ele>
<time>2013-08-21T15:39:31.702Z</time>
</trkpt>
<trkpt lat="53.6308746" lon="12.2295522">
<ele>53.469</ele>
<time>2013-08-21T15:39:34.435Z</time>
</trkpt>
<trkpt lat="53.6309709" lon="12.2296508">
<ele>53.938</ele>
<time>2013-08-21T15:39:37.784Z</time>
</trkpt>
<trkpt lat="53.6310718" lon="12.2297780">
<ele>52.408</ele>
<time>2013-08-21T15:39:41.788Z</time>
</trkpt>
<trkpt lat="53.6311387" lon="12.2298794">
<ele>50.544</ele>
<time>2013-08-21T15:39:44.769Z</time>
</trkpt>
<trkpt lat="53.6312106" lon="12.2300202">
<ele>49.506</ele>
<time>2013-08-21T15:39:48.275Z</time>
</trkpt>
<trkpt lat="53.6312740" lon="12.2301578">
<ele>49.237</ele>
<time>2013-08-21T15:39:51.149Z</time>
</trkpt>
<trkpt lat="53.6313579" lon="12.2303056">
<ele>49.031</ele>
<time>2013-08-21T15:39:54.223Z</time>
</trkpt>
<trkpt lat="53.6314329" lon="12.2304491">
<ele>48.040</ele>
<time>2013-08-21T15:39:56.995Z</time>
</trkpt>
<trkpt lat="53.6314942" lon="12.2305956">
<ele>46.386</ele>
<time>2013-08-21T15:39:59.538Z</time>
</trkpt>
<trkpt lat="53.6315857" lon="12.2306982">
<ele>44.957</ele>
<time>2013-08-21T15:40:02.087Z</time>
</trkpt>
<trkpt lat="53.6316570" lon="12.2308069">
<ele>44.206</ele>
<time>2013-08-21T15:40:04.252Z</time>
</trkpt>
<trkpt lat="53.6317332" lon="12.2309073">
<ele>44.207</ele>
<time>2013-08-21T15:40:06.362Z</time>
</trkpt>
<trkpt lat="53.6318371" lon="12.2309911">
<ele>45.405</ele>
<time>2013-08-21T15:40:08.815Z</time>
</trkpt>
<trkpt lat="53.6320314" lon="12.2310471">
<ele>47.752</ele>
<time>2013-08-21T15:40:12.894Z</time>
</trkpt>
<trkpt lat="53.6322073" lon="12.2310374">
<ele>50.270</ele>
<time>2013-08-21T15:40:16.544Z</time>
</trkpt>
<trkpt lat="53.6323340" lon="12.2309896">
<ele>52.198</ele>
<time>2013-08-21T15:40:19.290Z</time>
</trkpt>
<trkpt lat="53.6324469" lon="12.2309082">
<ele>53.235</ele>
<time>2013-08-21T15:40:21.931Z</time>
</trkpt>
<trkpt lat="53.6325640" lon="12.2308129">
<ele>53.270</ele>
<time>2013-08-21T15:40:24.814Z</time>
</trkpt>
<trkpt lat="53.6326800" lon="12.2307391">
<ele>52.878</ele>
<time>2013-08-21T15:40:27.735Z</time>
</trkpt>
<trkpt lat="53.6328117" lon="12.2306750">
<ele>52.565</ele>
<time>2013-08-21T15:40:31.124Z</time>
</trkpt>
<trkpt lat="53.6329117" lon="12.2306441">
<ele>52.299</ele>
<time>2013-08-21T15:40:33.669Z</time>
</trkpt>
<trkpt lat="53.6330648" lon="12.2305773">
<ele>50.699</ele>
<time>2013-08-21T15:40:37.673Z</time>
</trkpt>
<trkpt lat="53.6331523" lon="12.2305393">
<ele>47.040</ele>
<time>2013-08-21T15:40:39.921Z</time>
</trkpt>
<trkpt lat="53.6332508" lon="12.2304976">
<ele>43.290</ele>
<time>2013-08-21T15:40:42.331Z</time>
</trkpt>
<trkpt lat="53.6333629" lon="12.2304521">
<ele>41.698</ele>
<time>2013-08-21T15:40:45.016Z</time>
</trkpt>
<trkpt lat="53.6334938" lon="12.2304078">
<ele>42.112</ele>
<time>2013-08-21T15:40:48.125Z</time>
</trkpt>
<trkpt lat="53.6336005" lon="12.2303653">
<ele>43.136</ele>
<time>2013-08-21T15:40:50.678Z</time>
</trkpt>
<trkpt lat="53.6337017" lon="12.2303461">
<ele>43.728</ele>
<time>2013-08-21T15:40:52.998Z</time>
</trkpt>
<trkpt lat="53.6338487" lon="12.2302920">
<ele>43.930</ele>
<time>2013-08-21T15:40:56.375Z</time>
</trkpt>
<trkpt lat="53.6339673" lon="12.2302585">
<ele>44.375</ele>
<time>2013-08-21T15:40:59.085Z</time>
</trkpt>
<trkpt lat="53.6340830" lon="12.2302349">
<ele>44.997</ele>
<time>2013-08-21T15:41:01.730Z</time>
</trkpt>
<trkpt lat="53.6341764" lon="12.2302140">
<ele>44.347</ele>
<time>2013-08-21T15:41:03.883Z</time>
</trkpt>
<trkpt lat="53.6342831" lon="12.2301858">
<ele>42.023</ele>
<time>2013-08-21T15:41:06.371Z</time>
</trkpt>
<trkpt lat="53.6347918" lon="12.2300311">
<ele>39.013</ele>
<time>2013-08-21T15:41:18.397Z</time>
</trkpt>
<trkpt lat="53.6349399" lon="12.2299957">
<ele>39.134</ele>
<time>2013-08-21T15:41:21.890Z</time>
</trkpt>
<trkpt lat="53.6350644" lon="12.2299485">
<ele>39.468</ele>
<time>2013-08-21T15:41:24.971Z</time>
</trkpt>
<trkpt lat="53.6351879" lon="12.2299025">
<ele>40.240</ele>
<time>2013-08-21T15:41:28.065Z</time>
</trkpt>
<trkpt lat="53.6352870" lon="12.2298644">
<ele>41.831</ele>
<time>2013-08-21T15:41:30.552Z</time>
</trkpt>
<trkpt lat="53.6354026" lon="12.2298252">
<ele>43.583</ele>
<time>2013-08-21T15:41:33.437Z</time>
</trkpt>
<trkpt lat="53.6355447" lon="12.2297826">
<ele>44.746</ele>
<time>2013-08-21T15:41:36.988Z</time>
</trkpt>
<trkpt lat="53.6356881" lon="12.2297462">
<ele>45.267</ele>
<time>2013-08-21T15:41:40.794Z</time>
</trkpt>
<trkpt lat="53.6358176" lon="12.2296818">
<ele>44.384</ele>
<time>2013-08-21T15:41:44.301Z</time>
</trkpt>
<trkpt lat="53.6359393" lon="12.2296327">
<ele>41.874</ele>
<time>2013-08-21T15:41:47.402Z</time>
</trkpt>
<trkpt lat="53.6361037" lon="12.2295928">
<ele>39.941</ele>
<time>2013-08-21T15:41:51.277Z</time>
</trkpt>
<trkpt lat="53.6362116" lon="12.2295675">
<ele>40.333</ele>
<time>2013-08-21T15:41:53.714Z</time>
</trkpt>
<trkpt lat="53.6367088" lon="12.2294994">
<ele>42.425</ele>
<time>2013-08-21T15:42:04.945Z</time>
</trkpt>
<trkpt lat="53.6368111" lon="12.2295108">
<ele>41.590</ele>
<time>2013-08-21T15:42:07.413Z</time>
</trkpt>
<trkpt lat="53.6369348" lon="12.2295420">
<ele>39.545</ele>
<time>2013-08-21T15:42:10.506Z</time>
</trkpt>
<trkpt lat="53.6370673" lon="12.2295578">
<ele>36.584</ele>
<time>2013-08-21T15:42:13.824Z</time>
</trkpt>
<trkpt lat="53.6372507" lon="12.2295826">
<ele>33.572</ele>
<time>2013-08-21T15:42:18.316Z</time>
</trkpt>
<trkpt lat="53.6375242" lon="12.2296212">
<ele>32.828</ele>
<time>2013-08-21T15:42:24.806Z</time>
</trkpt>
<trkpt lat="53.6376808" lon="12.2296517">
<ele>36.014</ele>
<time>2013-08-21T15:42:28.552Z</time>
</trkpt>
<trkpt lat="53.6378592" lon="12.2296921">
<ele>41.250</ele>
<time>2013-08-21T15:42:32.772Z</time>
</trkpt>
<trkpt lat="53.6380026" lon="12.2297239">
<ele>44.937</ele>
<time>2013-08-21T15:42:36.003Z</time>
</trkpt>
<trkpt lat="53.6381398" lon="12.2297405">
<ele>45.565</ele>
<time>2013-08-21T15:42:38.971Z</time>
</trkpt>
<trkpt lat="53.6382703" lon="12.2297813">
<ele>43.773</ele>
<time>2013-08-21T15:42:41.781Z</time>
</trkpt>
<trkpt lat="53.6384012" lon="12.2298111">
<ele>41.168</ele>
<time>2013-08-21T15:42:44.535Z</time>
</trkpt>
<trkpt lat="53.6385403" lon="12.2297944">
<ele>40.125</ele>
<time>2013-08-21T15:42:47.377Z</time>
</trkpt>
<trkpt lat="53.6386811" lon="12.2297543">
<ele>41.683</ele>
<time>2013-08-21T15:42:50.269Z</time>
</trkpt>
<trkpt lat="53.6387796" lon="12.2297299">
<ele>44.382</ele>
<time>2013-08-21T15:42:52.262Z</time>
</trkpt>
<trkpt lat="53.6389142" lon="12.2296912">
<ele>46.265</ele>
<time>2013-08-21T15:42:54.935Z</time>
</trkpt>
<trkpt lat="53.6390296" lon="12.2296350">
<ele>46.991</ele>
<time>2013-08-21T15:42:57.241Z</time>
</trkpt>
<trkpt lat="53.6391359" lon="12.2295904">
<ele>46.772</ele>
<time>2013-08-21T15:42:59.379Z</time>
</trkpt>
<trkpt lat="53.6392442" lon="12.2295019">
<ele>46.229</ele>
<time>2013-08-21T15:43:01.848Z</time>
</trkpt>
<trkpt lat="53.6393826" lon="12.2293440">
<ele>45.743</ele>
<time>2013-08-21T15:43:05.509Z</time>
</trkpt>
<trkpt lat="53.6394616" lon="12.2292434">
<ele>44.992</ele>
<time>2013-08-21T15:43:07.719Z</time>
</trkpt>
<trkpt lat="53.6395791" lon="12.2290884">
<ele>44.011</ele>
<time>2013-08-21T15:43:11.049Z</time>
</trkpt>
<trkpt lat="53.6396793" lon="12.2289445">
<ele>44.262</ele>
<time>2013-08-21T15:43:13.986Z</time>
</trkpt>
<trkpt lat="53.6397747" lon="12.2287908">
<ele>46.970</ele>
<time>2013-08-21T15:43:16.930Z</time>
</trkpt>
<trkpt lat="53.6398547" lon="12.2286581">
<ele>51.367</ele>
<time>2013-08-21T15:43:19.434Z</time>
</trkpt>
<trkpt lat="53.6399203" lon="12.2285469">
<ele>55.008</ele>
<time>2013-08-21T15:43:21.560Z</time>
</trkpt>
<trkpt lat="53.6400260" lon="12.2283853">
<ele>56.084</ele>
<time>2013-08-21T15:43:24.740Z</time>
</trkpt>
<trkpt lat="53.6400995" lon="12.2282751">
<ele>54.298</ele>
<time>2013-08-21T15:43:26.928Z</time>
</trkpt>
<trkpt lat="53.6402039" lon="12.2281008">
<ele>50.924</ele>
<time>2013-08-21T15:43:30.268Z</time>
</trkpt>
<trkpt lat="53.6402838" lon="12.2279643">
<ele>48.202</ele>
<time>2013-08-21T15:43:32.944Z</time>
</trkpt>
<trkpt lat="53.6403470" lon="12.2277863">
<ele>47.788</ele>
<time>2013-08-21T15:43:35.910Z</time>
</trkpt>
<trkpt lat="53.6403862" lon="12.2276009">
<ele>49.363</ele>
<time>2013-08-21T15:43:38.800Z</time>
</trkpt>
<trkpt lat="53.6408269" lon="12.2272723">
<ele>50.755</ele>
<time>2013-08-21T15:43:51.376Z</time>
</trkpt>
<trkpt lat="53.6409199" lon="12.2272768">
<ele>50.833</ele>
<time>2013-08-21T15:43:53.959Z</time>
</trkpt>
<trkpt lat="53.6410505" lon="12.2272912">
<ele>52.493</ele>
<time>2013-08-21T15:43:57.690Z</time>
</trkpt>
<trkpt lat="53.6411770" lon="12.2273022">
<ele>54.318</ele>
<time>2013-08-21T15:44:01.363Z</time>
</trkpt>
<trkpt lat="53.6412796" lon="12.2273150">
<ele>54.608</ele>
<time>2013-08-21T15:44:04.345Z</time>
</trkpt>
<trkpt lat="53.6413889" lon="12.2273125">
<ele>53.728</ele>
<time>2013-08-21T15:44:07.453Z</time>
</trkpt>
<trkpt lat="53.6414862" lon="12.2273147">
<ele>52.662</ele>
<time>2013-08-21T15:44:10.216Z</time>
</trkpt>
<trkpt lat="53.6415920" lon="12.2273141">
<ele>51.959</ele>
<time>2013-08-21T15:44:13.273Z</time>
</trkpt>
<trkpt lat="53.6417116" lon="12.2272938">
<ele>51.917</ele>
<time>2013-08-21T15:44:16.804Z</time>
</trkpt>
<trkpt lat="53.6418278" lon="12.2272744">
<ele>53.024</ele>
<time>2013-08-21T15:44:20.124Z</time>
</trkpt>
<trkpt lat="53.6419247" lon="12.2272404">
<ele>55.154</ele>
<time>2013-08-21T15:44:22.774Z</time>
</trkpt>
<trkpt lat="53.6420170" lon="12.2272274">
<ele>57.176</ele>
<time>2013-08-21T15:44:25.207Z</time>
</trkpt>
<trkpt lat="53.6421224" lon="12.2272141">
<ele>58.915</ele>
<time>2013-08-21T15:44:27.873Z</time>
</trkpt>
<trkpt lat="53.6422424" lon="12.2271957">
<ele>61.105</ele>
<time>2013-08-21T15:44:30.686Z</time>
</trkpt>
<trkpt lat="53.6423525" lon="12.2271701">
<ele>63.290</ele>
<time>2013-08-21T15:44:33.127Z</time>
</trkpt>
<trkpt lat="53.6424724" lon="12.2271418">
<ele>64.212</ele>
<time>2013-08-21T15:44:35.554Z</time>
</trkpt>
<trkpt lat="53.6425738" lon="12.2271156">
<ele>63.491</ele>
<time>2013-08-21T15:44:37.501Z</time>
</trkpt>
<trkpt lat="53.6426949" lon="12.2271028">
<ele>62.187</ele>
<time>2013-08-21T15:44:39.660Z</time>
</trkpt>
<trkpt lat="53.6427892" lon="12.2270982">
<ele>61.652</ele>
<time>2013-08-21T15:44:41.297Z</time>
</trkpt>
<trkpt lat="53.6429217" lon="12.2270752">
<ele>61.932</ele>
<time>2013-08-21T15:44:43.566Z</time>
</trkpt>
<trkpt lat="53.6430194" lon="12.2270887">
<ele>62.025</ele>
<time>2013-08-21T15:44:45.224Z</time>
</trkpt>
<trkpt lat="53.6431424" lon="12.2271451">
<ele>61.146</ele>
<time>2013-08-21T15:44:47.374Z</time>
</trkpt>
<trkpt lat="53.6432102" lon="12.2273038">
<ele>59.616</ele>
<time>2013-08-21T15:44:49.324Z</time>
</trkpt>
<trkpt lat="53.6432890" lon="12.2275167">
<ele>58.487</ele>
<time>2013-08-21T15:44:51.847Z</time>
</trkpt>
<trkpt lat="53.6433549" lon="12.2277084">
<ele>58.177</ele>
<time>2013-08-21T15:44:54.066Z</time>
</trkpt>
<trkpt lat="53.6434167" lon="12.2278418">
<ele>57.949</ele>
<time>2013-08-21T15:44:55.750Z</time>
</trkpt>
<trkpt lat="53.6435091" lon="12.2280471">
<ele>56.989</ele>
<time>2013-08-21T15:44:58.249Z</time>
</trkpt>
<trkpt lat="53.6435735" lon="12.2281888">
<ele>55.374</ele>
<time>2013-08-21T15:44:59.979Z</time>
</trkpt>
<trkpt lat="53.6436818" lon="12.2283988">
<ele>53.793</ele>
<time>2013-08-21T15:45:02.654Z</time>
</trkpt>
<trkpt lat="53.6438051" lon="12.2285492">
<ele>52.808</ele>
<time>2013-08-21T15:45:05.120Z</time>
</trkpt>
<trkpt lat="53.6439056" lon="12.2286155">
<ele>52.846</ele>
<time>2013-08-21T15:45:06.873Z</time>
</trkpt>
<trkpt lat="53.6440500" lon="12.2287153">
<ele>53.905</ele>
<time>2013-08-21T15:45:09.415Z</time>
</trkpt>
<trkpt lat="53.6441886" lon="12.2287755">
<ele>55.273</ele>
<time>2013-08-21T15:45:11.725Z</time>
</trkpt>
<trkpt lat="53.6443633" lon="12.2288724">
<ele>56.328</ele>
<time>2013-08-21T15:45:14.661Z</time>
</trkpt>
<trkpt lat="53.6445169" lon="12.2289625">
<ele>57.076</ele>
<time>2013-08-21T15:45:17.281Z</time>
</trkpt>
<trkpt lat="53.6446240" lon="12.2290183">
<ele>57.481</ele>
<time>2013-08-21T15:45:19.116Z</time>
</trkpt>
<trkpt lat="53.6447782" lon="12.2291030">
<ele>57.496</ele>
<time>2013-08-21T15:45:21.819Z</time>
</trkpt>
<trkpt lat="53.6449127" lon="12.2291726">
<ele>56.988</ele>
<time>2013-08-21T15:45:24.207Z</time>
</trkpt>
<trkpt lat="53.6450186" lon="12.2292225">
<ele>55.834</ele>
<time>2013-08-21T15:45:26.094Z</time>
</trkpt>
<trkpt lat="53.6451860" lon="12.2293213">
<ele>54.550</ele>
<time>2013-08-21T15:45:29.185Z</time>
</trkpt>
<trkpt lat="53.6452918" lon="12.2293931">
<ele>53.978</ele>
<time>2013-08-21T15:45:31.241Z</time>
</trkpt>
<trkpt lat="53.6454270" lon="12.2294967">
<ele>54.321</ele>
<time>2013-08-21T15:45:34.007Z</time>
</trkpt>
<trkpt lat="53.6455551" lon="12.2295809">
<ele>55.087</ele>
<time>2013-08-21T15:45:36.676Z</time>
</trkpt>
<trkpt lat="53.6456380" lon="12.2296554">
<ele>55.725</ele>
<time>2013-08-21T15:45:38.549Z</time>
</trkpt>
<trkpt lat="53.6457563" lon="12.2297761">
<ele>56.190</ele>
<time>2013-08-21T15:45:41.253Z</time>
</trkpt>
<trkpt lat="53.6458441" lon="12.2298468">
<ele>56.606</ele>
<time>2013-08-21T15:45:43.022Z</time>
</trkpt>
<trkpt lat="53.6459763" lon="12.2299295">
<ele>57.010</ele>
<time>2013-08-21T15:45:45.456Z</time>
</trkpt>
<trkpt lat="53.6460734" lon="12.2300275">
<ele>57.681</ele>
<time>2013-08-21T15:45:47.292Z</time>
</trkpt>
<trkpt lat="53.6461731" lon="12.2301464">
<ele>58.716</ele>
<time>2013-08-21T15:45:49.178Z</time>
</trkpt>
<trkpt lat="53.6462607" lon="12.2302675">
<ele>59.549</ele>
<time>2013-08-21T15:45:50.882Z</time>
</trkpt>
<trkpt lat="53.6464013" lon="12.2304368">
<ele>59.737</ele>
<time>2013-08-21T15:45:53.561Z</time>
</trkpt>
<trkpt lat="53.6465521" lon="12.2306115">
<ele>59.484</ele>
<time>2013-08-21T15:45:56.694Z</time>
</trkpt>
<trkpt lat="53.6467223" lon="12.2308092">
<ele>59.319</ele>
<time>2013-08-21T15:46:00.854Z</time>
</trkpt>
<trkpt lat="53.6468430" lon="12.2309471">
<ele>59.527</ele>
<time>2013-08-21T15:46:04.323Z</time>
</trkpt>
<trkpt lat="53.6469348" lon="12.2310553">
<ele>59.785</ele>
<time>2013-08-21T15:46:07.158Z</time>
</trkpt>
<trkpt lat="53.6470198" lon="12.2311727">
<ele>59.649</ele>
<time>2013-08-21T15:46:10.227Z</time>
</trkpt>
<trkpt lat="53.6470437" lon="12.2313369">
<ele>59.129</ele>
<time>2013-08-21T15:46:12.902Z</time>
</trkpt>
<trkpt lat="53.6470371" lon="12.2315172">
<ele>58.446</ele>
<time>2013-08-21T15:46:15.550Z</time>
</trkpt>
<trkpt lat="53.6469925" lon="12.2316765">
<ele>57.572</ele>
<time>2013-08-21T15:46:17.881Z</time>
</trkpt>
<trkpt lat="53.6469386" lon="12.2318488">
<ele>56.566</ele>
<time>2013-08-21T15:46:20.328Z</time>
</trkpt>
<trkpt lat="53.6468937" lon="12.2320570">
<ele>55.832</ele>
<time>2013-08-21T15:46:22.994Z</time>
</trkpt>
<trkpt lat="53.6468623" lon="12.2322012">
<ele>55.634</ele>
<time>2013-08-21T15:46:24.799Z</time>
</trkpt>
<trkpt lat="53.6468177" lon="12.2324297">
<ele>55.883</ele>
<time>2013-08-21T15:46:27.505Z</time>
</trkpt>
<trkpt lat="53.6467499" lon="12.2326393">
<ele>56.295</ele>
<time>2013-08-21T15:46:30.122Z</time>
</trkpt>
<trkpt lat="53.6466928" lon="12.2328458">
<ele>56.201</ele>
<time>2013-08-21T15:46:32.667Z</time>
</trkpt>
<trkpt lat="53.6466438" lon="12.2330229">
<ele>55.303</ele>
<time>2013-08-21T15:46:34.952Z</time>
</trkpt>
<trkpt lat="53.6465974" lon="12.2331847">
<ele>54.525</ele>
<time>2013-08-21T15:46:37.250Z</time>
</trkpt>
<trkpt lat="53.6465477" lon="12.2333827">
<ele>54.730</ele>
<time>2013-08-21T15:46:40.121Z</time>
</trkpt>
<trkpt lat="53.6465457" lon="12.2335560">
<ele>55.415</ele>
<time>2013-08-21T15:46:42.640Z</time>
</trkpt>
<trkpt lat="53.6465686" lon="12.2337528">
<ele>55.557</ele>
<time>2013-08-21T15:46:45.772Z</time>
</trkpt>
<trkpt lat="53.6466135" lon="12.2338954">
<ele>54.921</ele>
<time>2013-08-21T15:46:48.687Z</time>
</trkpt>
<trkpt lat="53.6466371" lon="12.2340696">
<ele>54.144</ele>
<time>2013-08-21T15:46:52.150Z</time>
</trkpt>
<trkpt lat="53.6467063" lon="12.2341863">
<ele>53.540</ele>
<time>2013-08-21T15:46:55.478Z</time>
</trkpt>
<trkpt lat="53.6467674" lon="12.2343061">
<ele>52.639</ele>
<time>2013-08-21T15:46:58.768Z</time>
</trkpt>
<trkpt lat="53.6468294" lon="12.2344513">
<ele>51.383</ele>
<time>2013-08-21T15:47:02.562Z</time>
</trkpt>
<trkpt lat="53.6468994" lon="12.2345602">
<ele>50.176</ele>
<time>2013-08-21T15:47:06.157Z</time>
</trkpt>
<trkpt lat="53.6469037" lon="12.2347221">
<ele>49.215</ele>
<time>2013-08-21T15:47:09.955Z</time>
</trkpt>
<trkpt lat="53.6469017" lon="12.2348850">
<ele>48.823</ele>
<time>2013-08-21T15:47:13.977Z</time>
</trkpt>
<trkpt lat="53.6469857" lon="12.2349615">
<ele>49.200</ele>
<time>2013-08-21T15:47:17.861Z</time>
</trkpt>
<trkpt lat="53.6470750" lon="12.2350296">
<ele>49.820</ele>
<time>2013-08-21T15:47:21.691Z</time>
</trkpt>
<trkpt lat="53.6470750" lon="12.2350296">
<ele>50.130</ele>
<time>2013-08-21T15:47:34.704Z</time>
</trkpt>
<trkpt lat="53.6470750" lon="12.2350296">
<ele>50.080</ele>
<time>2013-08-21T15:47:34.804Z</time>
</trkpt>
<trkpt lat="53.6472973" lon="12.2351318">
<ele>49.939</ele>
<time>2013-08-21T15:47:59.777Z</time>
</trkpt>
<trkpt lat="53.6473852" lon="12.2351723">
<ele>49.927</ele>
<time>2013-08-21T15:48:05.025Z</time>
</trkpt>
<trkpt lat="53.6474755" lon="12.2352353">
<ele>49.858</ele>
<time>2013-08-21T15:48:10.577Z</time>
</trkpt>
<trkpt lat="53.6475605" lon="12.2352993">
<ele>49.544</ele>
<time>2013-08-21T15:48:16.073Z</time>
</trkpt>
<trkpt lat="53.6476485" lon="12.2353473">
<ele>49.567</ele>
<time>2013-08-21T15:48:21.144Z</time>
</trkpt>
<trkpt lat="53.6477393" lon="12.2354072">
<ele>50.730</ele>
<time>2013-08-21T15:48:25.457Z</time>
</trkpt>
<trkpt lat="53.6478190" lon="12.2355224">
<ele>52.696</ele>
<time>2013-08-21T15:48:29.343Z</time>
</trkpt>
<trkpt lat="53.6478309" lon="12.2356923">
<ele>54.499</ele>
<time>2013-08-21T15:48:32.659Z</time>
</trkpt>
<trkpt lat="53.6478446" lon="12.2358477">
<ele>55.686</ele>
<time>2013-08-21T15:48:35.460Z</time>
</trkpt>
<trkpt lat="53.6478600" lon="12.2360041">
<ele>56.645</ele>
<time>2013-08-21T15:48:38.119Z</time>
</trkpt>
<trkpt lat="53.6478783" lon="12.2362100">
<ele>57.826</ele>
<time>2013-08-21T15:48:41.408Z</time>
</trkpt>
<trkpt lat="53.6478876" lon="12.2363826">
<ele>59.010</ele>
<time>2013-08-21T15:48:44.028Z</time>
</trkpt>
<trkpt lat="53.6478937" lon="12.2365750">
<ele>59.978</ele>
<time>2013-08-21T15:48:46.876Z</time>
</trkpt>
<trkpt lat="53.6478809" lon="12.2367627">
<ele>60.639</ele>
<time>2013-08-21T15:48:49.643Z</time>
</trkpt>
<trkpt lat="53.6478771" lon="12.2369890">
<ele>60.798</ele>
<time>2013-08-21T15:48:52.954Z</time>
</trkpt>
<trkpt lat="53.6478740" lon="12.2371975">
<ele>60.531</ele>
<time>2013-08-21T15:48:56.021Z</time>
</trkpt>
<trkpt lat="53.6478808" lon="12.2373873">
<ele>60.216</ele>
<time>2013-08-21T15:48:58.849Z</time>
</trkpt>
<trkpt lat="53.6478954" lon="12.2375850">
<ele>60.206</ele>
<time>2013-08-21T15:49:01.850Z</time>
</trkpt>
<trkpt lat="53.6479164" lon="12.2378053">
<ele>60.742</ele>
<time>2013-08-21T15:49:05.233Z</time>
</trkpt>
<trkpt lat="53.6479330" lon="12.2379931">
<ele>62.125</ele>
<time>2013-08-21T15:49:08.135Z</time>
</trkpt>
<trkpt lat="53.6479566" lon="12.2381729">
<ele>64.242</ele>
<time>2013-08-21T15:49:10.975Z</time>
</trkpt>
<trkpt lat="53.6479826" lon="12.2383636">
<ele>66.031</ele>
<time>2013-08-21T15:49:13.998Z</time>
</trkpt>
<trkpt lat="53.6480246" lon="12.2385717">
<ele>66.825</ele>
<time>2013-08-21T15:49:17.371Z</time>
</trkpt>
<trkpt lat="53.6480682" lon="12.2387571">
<ele>66.942</ele>
<time>2013-08-21T15:49:20.427Z</time>
</trkpt>
<trkpt lat="53.6481173" lon="12.2389393">
<ele>67.094</ele>
<time>2013-08-21T15:49:23.532Z</time>
</trkpt>
<trkpt lat="53.6481583" lon="12.2391365">
<ele>67.890</ele>
<time>2013-08-21T15:49:26.816Z</time>
</trkpt>
<trkpt lat="53.6481926" lon="12.2393147">
<ele>69.365</ele>
<time>2013-08-21T15:49:29.752Z</time>
</trkpt>
<trkpt lat="53.6482337" lon="12.2395034">
<ele>71.108</ele>
<time>2013-08-21T15:49:32.843Z</time>
</trkpt>
<trkpt lat="53.6482430" lon="12.2397207">
<ele>72.608</ele>
<time>2013-08-21T15:49:36.152Z</time>
</trkpt>
<trkpt lat="53.6482554" lon="12.2398728">
<ele>73.478</ele>
<time>2013-08-21T15:49:38.464Z</time>
</trkpt>
<trkpt lat="53.6482756" lon="12.2400247">
<ele>73.730</ele>
<time>2013-08-21T15:49:40.792Z</time>
</trkpt>
<trkpt lat="53.6483140" lon="12.2402710">
<ele>73.440</ele>
<time>2013-08-21T15:49:44.559Z</time>
</trkpt>
<trkpt lat="53.6483345" lon="12.2404291">
<ele>72.617</ele>
<time>2013-08-21T15:49:46.941Z</time>
</trkpt>
<trkpt lat="53.6483700" lon="12.2406609">
<ele>71.589</ele>
<time>2013-08-21T15:49:50.434Z</time>
</trkpt>
<trkpt lat="53.6484077" lon="12.2408576">
<ele>70.888</ele>
<time>2013-08-21T15:49:53.438Z</time>
</trkpt>
<trkpt lat="53.6484294" lon="12.2410595">
<ele>70.941</ele>
<time>2013-08-21T15:49:56.438Z</time>
</trkpt>
<trkpt lat="53.6484398" lon="12.2412548">
<ele>71.674</ele>
<time>2013-08-21T15:49:59.331Z</time>
</trkpt>
<trkpt lat="53.6484291" lon="12.2414603">
<ele>72.437</ele>
<time>2013-08-21T15:50:02.413Z</time>
</trkpt>
<trkpt lat="53.6484137" lon="12.2416532">
<ele>73.125</ele>
<time>2013-08-21T15:50:05.338Z</time>
</trkpt>
<trkpt lat="53.6484137" lon="12.2418551">
<ele>74.043</ele>
<time>2013-08-21T15:50:08.356Z</time>
</trkpt>
<trkpt lat="53.6484163" lon="12.2420644">
<ele>75.188</ele>
<time>2013-08-21T15:50:11.427Z</time>
</trkpt>
<trkpt lat="53.6484316" lon="12.2422975">
<ele>76.608</ele>
<time>2013-08-21T15:50:14.749Z</time>
</trkpt>
<trkpt lat="53.6484271" lon="12.2425033">
<ele>78.261</ele>
<time>2013-08-21T15:50:17.551Z</time>
</trkpt>
<trkpt lat="53.6484270" lon="12.2426636">
<ele>79.845</ele>
<time>2013-08-21T15:50:19.645Z</time>
</trkpt>
<trkpt lat="53.6484248" lon="12.2428208">
<ele>81.577</ele>
<time>2013-08-21T15:50:21.599Z</time>
</trkpt>
<trkpt lat="53.6484148" lon="12.2430439">
<ele>84.083</ele>
<time>2013-08-21T15:50:24.340Z</time>
</trkpt>
<trkpt lat="53.6483918" lon="12.2432991">
<ele>87.017</ele>
<time>2013-08-21T15:50:27.445Z</time>
</trkpt>
<trkpt lat="53.6483768" lon="12.2434498">
<ele>88.631</ele>
<time>2013-08-21T15:50:29.258Z</time>
</trkpt>
<trkpt lat="53.6483665" lon="12.2436874">
<ele>87.989</ele>
<time>2013-08-21T15:50:32.046Z</time>
</trkpt>
<trkpt lat="53.6483635" lon="12.2439398">
<ele>86.291</ele>
<time>2013-08-21T15:50:34.999Z</time>
</trkpt>
<trkpt lat="53.6483557" lon="12.2441919">
<ele>85.041</ele>
<time>2013-08-21T15:50:37.949Z</time>
</trkpt>
<trkpt lat="53.6483584" lon="12.2444520">
<ele>84.352</ele>
<time>2013-08-21T15:50:41.061Z</time>
</trkpt>
<trkpt lat="53.6483711" lon="12.2447193">
<ele>83.710</ele>
<time>2013-08-21T15:50:44.356Z</time>
</trkpt>
<trkpt lat="53.6483914" lon="12.2449865">
<ele>83.099</ele>
<time>2013-08-21T15:50:47.540Z</time>
</trkpt>
<trkpt lat="53.6484308" lon="12.2452094">
<ele>82.773</ele>
<time>2013-08-21T15:50:50.209Z</time>
</trkpt>
<trkpt lat="53.6484792" lon="12.2454036">
<ele>82.656</ele>
<time>2013-08-21T15:50:52.580Z</time>
</trkpt>
<trkpt lat="53.6484893" lon="12.2456485">
<ele>82.576</ele>
<time>2013-08-21T15:50:55.295Z</time>
</trkpt>
<trkpt lat="53.6485639" lon="12.2458198">
<ele>83.009</ele>
<time>2013-08-21T15:50:57.600Z</time>
</trkpt>
<trkpt lat="53.6486204" lon="12.2459854">
<ele>84.597</ele>
<time>2013-08-21T15:50:59.652Z</time>
</trkpt>
<trkpt lat="53.6486487" lon="12.2462851">
<ele>86.734</ele>
<time>2013-08-21T15:51:02.963Z</time>
</trkpt>
<trkpt lat="53.6486929" lon="12.2464861">
<ele>87.694</ele>
<time>2013-08-21T15:51:05.357Z</time>
</trkpt>
<trkpt lat="53.6487449" lon="12.2466610">
<ele>86.884</ele>
<time>2013-08-21T15:51:07.598Z</time>
</trkpt>
<trkpt lat="53.6488228" lon="12.2469070">
<ele>85.392</ele>
<time>2013-08-21T15:51:10.754Z</time>
</trkpt>
<trkpt lat="53.6489094" lon="12.2471584">
<ele>84.184</ele>
<time>2013-08-21T15:51:13.882Z</time>
</trkpt>
<trkpt lat="53.6489603" lon="12.2473029">
<ele>83.230</ele>
<time>2013-08-21T15:51:15.652Z</time>
</trkpt>
<trkpt lat="53.6490131" lon="12.2474555">
<ele>82.470</ele>
<time>2013-08-21T15:51:17.493Z</time>
</trkpt>
<trkpt lat="53.6490884" lon="12.2476474">
<ele>81.778</ele>
<time>2013-08-21T15:51:19.866Z</time>
</trkpt>
<trkpt lat="53.6491652" lon="12.2478339">
<ele>81.010</ele>
<time>2013-08-21T15:51:22.184Z</time>
</trkpt>
<trkpt lat="53.6492581" lon="12.2480128">
<ele>80.068</ele>
<time>2013-08-21T15:51:24.562Z</time>
</trkpt>
<trkpt lat="53.6493453" lon="12.2481710">
<ele>79.003</ele>
<time>2013-08-21T15:51:26.584Z</time>
</trkpt>
<trkpt lat="53.6494784" lon="12.2484138">
<ele>78.159</ele>
<time>2013-08-21T15:51:29.369Z</time>
</trkpt>
<trkpt lat="53.6496035" lon="12.2486381">
<ele>77.796</ele>
<time>2013-08-21T15:51:31.683Z</time>
</trkpt>
<trkpt lat="53.6496817" lon="12.2487913">
<ele>77.703</ele>
<time>2013-08-21T15:51:33.151Z</time>
</trkpt>
<trkpt lat="53.6497827" lon="12.2489976">
<ele>77.555</ele>
<time>2013-08-21T15:51:35.048Z</time>
</trkpt>
<trkpt lat="53.6499053" lon="12.2492480">
<ele>76.533</ele>
<time>2013-08-21T15:51:37.291Z</time>
</trkpt>
<trkpt lat="53.6500302" lon="12.2495170">
<ele>74.373</ele>
<time>2013-08-21T15:51:39.613Z</time>
</trkpt>
<trkpt lat="53.6501292" lon="12.2497177">
<ele>72.194</ele>
<time>2013-08-21T15:51:41.354Z</time>
</trkpt>
<trkpt lat="53.6502191" lon="12.2499155">
<ele>70.754</ele>
<time>2013-08-21T15:51:43.008Z</time>
</trkpt>
<trkpt lat="53.6503003" lon="12.2501284">
<ele>69.587</ele>
<time>2013-08-21T15:51:44.660Z</time>
</trkpt>
<trkpt lat="53.6503697" lon="12.2503778">
<ele>68.273</ele>
<time>2013-08-21T15:51:46.412Z</time>
</trkpt>
<trkpt lat="53.6504474" lon="12.2507782">
<ele>66.385</ele>
<time>2013-08-21T15:51:49.036Z</time>
</trkpt>
<trkpt lat="53.6504838" lon="12.2511798">
<ele>63.921</ele>
<time>2013-08-21T15:51:51.514Z</time>
</trkpt>
<trkpt lat="53.6504899" lon="12.2514815">
<ele>61.940</ele>
<time>2013-08-21T15:51:53.312Z</time>
</trkpt>
<trkpt lat="53.6504832" lon="12.2517928">
<ele>61.499</ele>
<time>2013-08-21T15:51:55.148Z</time>
</trkpt>
<trkpt lat="53.6504718" lon="12.2520902">
<ele>62.332</ele>
<time>2013-08-21T15:51:56.911Z</time>
</trkpt>
<trkpt lat="53.6504211" lon="12.2525439">
<ele>63.105</ele>
<time>2013-08-21T15:51:59.677Z</time>
</trkpt>
<trkpt lat="53.6503901" lon="12.2528563">
<ele>62.867</ele>
<time>2013-08-21T15:52:01.592Z</time>
</trkpt>
<trkpt lat="53.6503596" lon="12.2531801">
<ele>61.684</ele>
<time>2013-08-21T15:52:03.586Z</time>
</trkpt>
<trkpt lat="53.6503314" lon="12.2534976">
<ele>60.132</ele>
<time>2013-08-21T15:52:05.559Z</time>
</trkpt>
<trkpt lat="53.6502991" lon="12.2539343">
<ele>58.961</ele>
<time>2013-08-21T15:52:08.379Z</time>
</trkpt>
<trkpt lat="53.6502508" lon="12.2543702">
<ele>58.249</ele>
<time>2013-08-21T15:52:11.431Z</time>
</trkpt>
<trkpt lat="53.6502150" lon="12.2546663">
<ele>57.333</ele>
<time>2013-08-21T15:52:13.652Z</time>
</trkpt>
<trkpt lat="53.6501657" lon="12.2550496">
<ele>55.689</ele>
<time>2013-08-21T15:52:16.738Z</time>
</trkpt>
<trkpt lat="53.6501261" lon="12.2554165">
<ele>53.585</ele>
<time>2013-08-21T15:52:19.798Z</time>
</trkpt>
<trkpt lat="53.6501114" lon="12.2556555">
<ele>51.761</ele>
<time>2013-08-21T15:52:21.936Z</time>
</trkpt>
<trkpt lat="53.6501109" lon="12.2559003">
<ele>50.342</ele>
<time>2013-08-21T15:52:24.220Z</time>
</trkpt>
<trkpt lat="53.6501142" lon="12.2563009">
<ele>49.120</ele>
<time>2013-08-21T15:52:28.068Z</time>
</trkpt>
<trkpt lat="53.6501202" lon="12.2564796">
<ele>48.352</ele>
<time>2013-08-21T15:52:29.778Z</time>
</trkpt>
<trkpt lat="53.6501399" lon="12.2567344">
<ele>48.295</ele>
<time>2013-08-21T15:52:32.214Z</time>
</trkpt>
<trkpt lat="53.6502020" lon="12.2570416">
<ele>48.865</ele>
<time>2013-08-21T15:52:35.261Z</time>
</trkpt>
<trkpt lat="53.6502793" lon="12.2573108">
<ele>49.642</ele>
<time>2013-08-21T15:52:38.051Z</time>
</trkpt>
<trkpt lat="53.6503459" lon="12.2576009">
<ele>50.259</ele>
<time>2013-08-21T15:52:40.964Z</time>
</trkpt>
<trkpt lat="53.6504280" lon="12.2578899">
<ele>50.666</ele>
<time>2013-08-21T15:52:43.949Z</time>
</trkpt>
<trkpt lat="53.6504752" lon="12.2580644">
<ele>50.870</ele>
<time>2013-08-21T15:52:45.760Z</time>
</trkpt>
<trkpt lat="53.6505411" lon="12.2583176">
<ele>50.922</ele>
<time>2013-08-21T15:52:48.423Z</time>
</trkpt>
<trkpt lat="53.6506236" lon="12.2585915">
<ele>51.466</ele>
<time>2013-08-21T15:52:51.450Z</time>
</trkpt>
<trkpt lat="53.6507033" lon="12.2588532">
<ele>52.870</ele>
<time>2013-08-21T15:52:54.444Z</time>
</trkpt>
<trkpt lat="53.6507611" lon="12.2591406">
<ele>54.110</ele>
<time>2013-08-21T15:52:57.631Z</time>
</trkpt>
<trkpt lat="53.6507878" lon="12.2593285">
<ele>54.132</ele>
<time>2013-08-21T15:52:59.700Z</time>
</trkpt>
<trkpt lat="53.6508196" lon="12.2595078">
<ele>53.476</ele>
<time>2013-08-21T15:53:01.718Z</time>
</trkpt>
<trkpt lat="53.6508707" lon="12.2597618">
<ele>53.017</ele>
<time>2013-08-21T15:53:04.536Z</time>
</trkpt>
<trkpt lat="53.6509294" lon="12.2599729">
<ele>53.172</ele>
<time>2013-08-21T15:53:06.917Z</time>
</trkpt>
<trkpt lat="53.6509748" lon="12.2601420">
<ele>54.423</ele>
<time>2013-08-21T15:53:08.805Z</time>
</trkpt>
<trkpt lat="53.6510363" lon="12.2603982">
<ele>56.546</ele>
<time>2013-08-21T15:53:11.576Z</time>
</trkpt>
<trkpt lat="53.6510720" lon="12.2605511">
<ele>57.812</ele>
<time>2013-08-21T15:53:13.171Z</time>
</trkpt>
<trkpt lat="53.6511210" lon="12.2608083">
<ele>57.073</ele>
<time>2013-08-21T15:53:15.763Z</time>
</trkpt>
<trkpt lat="53.6511517" lon="12.2609825">
<ele>55.269</ele>
<time>2013-08-21T15:53:17.485Z</time>
</trkpt>
<trkpt lat="53.6512113" lon="12.2612747">
<ele>54.386</ele>
<time>2013-08-21T15:53:20.232Z</time>
</trkpt>
<trkpt lat="53.6512849" lon="12.2615332">
<ele>55.203</ele>
<time>2013-08-21T15:53:22.651Z</time>
</trkpt>
<trkpt lat="53.6513789" lon="12.2618172">
<ele>56.663</ele>
<time>2013-08-21T15:53:25.452Z</time>
</trkpt>
<trkpt lat="53.6514536" lon="12.2620159">
<ele>57.456</ele>
<time>2013-08-21T15:53:27.568Z</time>
</trkpt>
<trkpt lat="53.6515188" lon="12.2622093">
<ele>57.401</ele>
<time>2013-08-21T15:53:29.583Z</time>
</trkpt>
<trkpt lat="53.6515755" lon="12.2623917">
<ele>57.005</ele>
<time>2013-08-21T15:53:31.375Z</time>
</trkpt>
<trkpt lat="53.6516692" lon="12.2626607">
<ele>56.631</ele>
<time>2013-08-21T15:53:34.051Z</time>
</trkpt>
<trkpt lat="53.6517595" lon="12.2629470">
<ele>55.963</ele>
<time>2013-08-21T15:53:36.822Z</time>
</trkpt>
<trkpt lat="53.6519053" lon="12.2631669">
<ele>54.862</ele>
<time>2013-08-21T15:53:39.698Z</time>
</trkpt>
<trkpt lat="53.6520757" lon="12.2633443">
<ele>53.557</ele>
<time>2013-08-21T15:53:42.732Z</time>
</trkpt>
<trkpt lat="53.6522269" lon="12.2634803">
<ele>52.124</ele>
<time>2013-08-21T15:53:45.535Z</time>
</trkpt>
<trkpt lat="53.6523367" lon="12.2635749">
<ele>50.732</ele>
<time>2013-08-21T15:53:47.749Z</time>
</trkpt>
<trkpt lat="53.6525034" lon="12.2636842">
<ele>49.692</ele>
<time>2013-08-21T15:53:51.468Z</time>
</trkpt>
<trkpt lat="53.6526307" lon="12.2637444">
<ele>49.030</ele>
<time>2013-08-21T15:53:54.597Z</time>
</trkpt>
<trkpt lat="53.6527454" lon="12.2638413">
<ele>49.194</ele>
<time>2013-08-21T15:53:57.559Z</time>
</trkpt>
<trkpt lat="53.6528389" lon="12.2638981">
<ele>50.394</ele>
<time>2013-08-21T15:53:59.736Z</time>
</trkpt>
<trkpt lat="53.6529768" lon="12.2639741">
<ele>51.746</ele>
<time>2013-08-21T15:54:02.622Z</time>
</trkpt>
<trkpt lat="53.6530683" lon="12.2640246">
<ele>52.435</ele>
<time>2013-08-21T15:54:04.422Z</time>
</trkpt>
<trkpt lat="53.6532261" lon="12.2641059">
<ele>52.429</ele>
<time>2013-08-21T15:54:07.383Z</time>
</trkpt>
<trkpt lat="53.6533215" lon="12.2641496">
<ele>52.740</ele>
<time>2013-08-21T15:54:09.135Z</time>
</trkpt>
<trkpt lat="53.6534360" lon="12.2642061">
<ele>53.572</ele>
<time>2013-08-21T15:54:11.276Z</time>
</trkpt>
<trkpt lat="53.6535750" lon="12.2642964">
<ele>53.603</ele>
<time>2013-08-21T15:54:14.117Z</time>
</trkpt>
<trkpt lat="53.6536898" lon="12.2643844">
<ele>52.665</ele>
<time>2013-08-21T15:54:16.846Z</time>
</trkpt>
<trkpt lat="53.6538052" lon="12.2644535">
<ele>51.479</ele>
<time>2013-08-21T15:54:19.561Z</time>
</trkpt>
<trkpt lat="53.6539494" lon="12.2645264">
<ele>50.028</ele>
<time>2013-08-21T15:54:22.564Z</time>
</trkpt>
<trkpt lat="53.6540513" lon="12.2645725">
<ele>48.506</ele>
<time>2013-08-21T15:54:24.595Z</time>
</trkpt>
<trkpt lat="53.6541490" lon="12.2646178">
<ele>47.203</ele>
<time>2013-08-21T15:54:26.531Z</time>
</trkpt>
<trkpt lat="53.6542917" lon="12.2647127">
<ele>46.280</ele>
<time>2013-08-21T15:54:29.750Z</time>
</trkpt>
<trkpt lat="53.6543779" lon="12.2647614">
<ele>45.788</ele>
<time>2013-08-21T15:54:31.702Z</time>
</trkpt>
<trkpt lat="53.6545201" lon="12.2648272">
<ele>45.590</ele>
<time>2013-08-21T15:54:34.622Z</time>
</trkpt>
<trkpt lat="53.6546807" lon="12.2649149">
<ele>45.598</ele>
<time>2013-08-21T15:54:37.967Z</time>
</trkpt>
<trkpt lat="53.6547784" lon="12.2649660">
<ele>45.693</ele>
<time>2013-08-21T15:54:40.025Z</time>
</trkpt>
<trkpt lat="53.6548689" lon="12.2650170">
<ele>45.779</ele>
<time>2013-08-21T15:54:41.945Z</time>
</trkpt>
<trkpt lat="53.6549947" lon="12.2651004">
<ele>46.109</ele>
<time>2013-08-21T15:54:44.621Z</time>
</trkpt>
<trkpt lat="53.6551410" lon="12.2651968">
<ele>46.873</ele>
<time>2013-08-21T15:54:47.781Z</time>
</trkpt>
<trkpt lat="53.6552403" lon="12.2652629">
<ele>46.850</ele>
<time>2013-08-21T15:54:50.094Z</time>
</trkpt>
<trkpt lat="53.6553754" lon="12.2653441">
<ele>45.143</ele>
<time>2013-08-21T15:54:53.426Z</time>
</trkpt>
<trkpt lat="53.6554832" lon="12.2654500">
<ele>43.733</ele>
<time>2013-08-21T15:54:56.180Z</time>
</trkpt>
<trkpt lat="53.6555673" lon="12.2655046">
<ele>44.579</ele>
<time>2013-08-21T15:54:58.115Z</time>
</trkpt>
<trkpt lat="53.6556985" lon="12.2655838">
<ele>46.992</ele>
<time>2013-08-21T15:55:01.045Z</time>
</trkpt>
<trkpt lat="53.6558273" lon="12.2656493">
<ele>49.426</ele>
<time>2013-08-21T15:55:03.801Z</time>
</trkpt>
<trkpt lat="53.6559487" lon="12.2657213">
<ele>50.944</ele>
<time>2013-08-21T15:55:06.330Z</time>
</trkpt>
<trkpt lat="53.6560717" lon="12.2658065">
<ele>51.408</ele>
<time>2013-08-21T15:55:08.927Z</time>
</trkpt>
<trkpt lat="53.6561617" lon="12.2658577">
<ele>51.331</ele>
<time>2013-08-21T15:55:10.819Z</time>
</trkpt>
<trkpt lat="53.6563041" lon="12.2659516">
<ele>51.144</ele>
<time>2013-08-21T15:55:14.043Z</time>
</trkpt>
<trkpt lat="53.6564270" lon="12.2660195">
<ele>50.985</ele>
<time>2013-08-21T15:55:16.854Z</time>
</trkpt>
<trkpt lat="53.6565498" lon="12.2660505">
<ele>50.807</ele>
<time>2013-08-21T15:55:19.434Z</time>
</trkpt>
<trkpt lat="53.6567063" lon="12.2661346">
<ele>50.648</ele>
<time>2013-08-21T15:55:22.714Z</time>
</trkpt>
<trkpt lat="53.6567979" lon="12.2661856">
<ele>50.581</ele>
<time>2013-08-21T15:55:24.574Z</time>
</trkpt>
<trkpt lat="53.6569451" lon="12.2662828">
<ele>50.561</ele>
<time>2013-08-21T15:55:27.593Z</time>
</trkpt>
<trkpt lat="53.6570883" lon="12.2663675">
<ele>50.537</ele>
<time>2013-08-21T15:55:30.452Z</time>
</trkpt>
<trkpt lat="53.6571748" lon="12.2664203">
<ele>50.416</ele>
<time>2013-08-21T15:55:32.180Z</time>
</trkpt>
<trkpt lat="53.6572736" lon="12.2664648">
<ele>50.058</ele>
<time>2013-08-21T15:55:34.167Z</time>
</trkpt>
<trkpt lat="53.6574267" lon="12.2665554">
<ele>49.526</ele>
<time>2013-08-21T15:55:37.347Z</time>
</trkpt>
<trkpt lat="53.6575493" lon="12.2666255">
<ele>49.053</ele>
<time>2013-08-21T15:55:39.868Z</time>
</trkpt>
<trkpt lat="53.6576913" lon="12.2667157">
<ele>48.010</ele>
<time>2013-08-21T15:55:42.783Z</time>
</trkpt>
<trkpt lat="53.6578538" lon="12.2668028">
<ele>45.915</ele>
<time>2013-08-21T15:55:45.914Z</time>
</trkpt>
<trkpt lat="53.6579754" lon="12.2668602">
<ele>44.157</ele>
<time>2013-08-21T15:55:48.151Z</time>
</trkpt>
<trkpt lat="53.6581336" lon="12.2669502">
<ele>44.694</ele>
<time>2013-08-21T15:55:51.217Z</time>
</trkpt>
<trkpt lat="53.6582714" lon="12.2670288">
<ele>47.203</ele>
<time>2013-08-21T15:55:54.078Z</time>
</trkpt>
<trkpt lat="53.6584160" lon="12.2671105">
<ele>49.663</ele>
<time>2013-08-21T15:55:57.306Z</time>
</trkpt>
<trkpt lat="53.6585305" lon="12.2671869">
<ele>50.620</ele>
<time>2013-08-21T15:56:00.114Z</time>
</trkpt>
<trkpt lat="53.6586223" lon="12.2672586">
<ele>49.827</ele>
<time>2013-08-21T15:56:02.604Z</time>
</trkpt>
<trkpt lat="53.6587074" lon="12.2673234">
<ele>47.943</ele>
<time>2013-08-21T15:56:05.141Z</time>
</trkpt>
<trkpt lat="53.6587948" lon="12.2674003">
<ele>46.597</ele>
<time>2013-08-21T15:56:08.281Z</time>
</trkpt>
<trkpt lat="53.6588883" lon="12.2674080">
<ele>46.626</ele>
<time>2013-08-21T15:56:11.749Z</time>
</trkpt>
<trkpt lat="53.6588883" lon="12.2674080">
<ele>47.123</ele>
<time>2013-08-21T15:56:17.706Z</time>
</trkpt>
<trkpt lat="53.6588883" lon="12.2674080">
<ele>47.152</ele>
<time>2013-08-21T15:56:35.101Z</time>
</trkpt>
<trkpt lat="53.6586989" lon="12.2672643">
<ele>46.865</ele>
<time>2013-08-21T15:56:43.461Z</time>
</trkpt>
<trkpt lat="53.6586117" lon="12.2672014">
<ele>46.855</ele>
<time>2013-08-21T15:56:45.504Z</time>
</trkpt>
<trkpt lat="53.6585197" lon="12.2671473">
<ele>46.674</ele>
<time>2013-08-21T15:56:47.511Z</time>
</trkpt>
<trkpt lat="53.6584315" lon="12.2670918">
<ele>46.522</ele>
<time>2013-08-21T15:56:49.422Z</time>
</trkpt>
<trkpt lat="53.6583422" lon="12.2670302">
<ele>46.697</ele>
<time>2013-08-21T15:56:51.561Z</time>
</trkpt>
<trkpt lat="53.6582284" lon="12.2669636">
<ele>47.027</ele>
<time>2013-08-21T15:56:54.447Z</time>
</trkpt>
<trkpt lat="53.6581360" lon="12.2669055">
<ele>47.195</ele>
<time>2013-08-21T15:56:56.917Z</time>
</trkpt>
<trkpt lat="53.6580212" lon="12.2668420">
<ele>47.176</ele>
<time>2013-08-21T15:56:59.950Z</time>
</trkpt>
<trkpt lat="53.6578946" lon="12.2667772">
<ele>47.117</ele>
<time>2013-08-21T15:57:03.344Z</time>
</trkpt>
<trkpt lat="53.6578242" lon="12.2668963">
<ele>47.333</ele>
<time>2013-08-21T15:57:06.012Z</time>
</trkpt>
<trkpt lat="53.6578061" lon="12.2670674">
<ele>47.957</ele>
<time>2013-08-21T15:57:09.252Z</time>
</trkpt>
<trkpt lat="53.6577787" lon="12.2672176">
<ele>48.581</ele>
<time>2013-08-21T15:57:12.741Z</time>
</trkpt>
<trkpt lat="53.6577787" lon="12.2672176">
<ele>48.836</ele>
<time>2013-08-21T15:57:16.749Z</time>
</trkpt>
<trkpt lat="53.6577787" lon="12.2672176">
<ele>48.815</ele>
<time>2013-08-21T15:57:31.904Z</time>
</trkpt>
<trkpt lat="53.6577676" lon="12.2675940">
<ele>48.755</ele>
<time>2013-08-21T15:57:51.922Z</time>
</trkpt>
<trkpt lat="53.6577849" lon="12.2677561">
<ele>48.751</ele>
<time>2013-08-21T15:57:56.251Z</time>
</trkpt>
<trkpt lat="53.6577875" lon="12.2679185">
<ele>48.824</ele>
<time>2013-08-21T15:58:00.278Z</time>
</trkpt>
<trkpt lat="53.6577451" lon="12.2680625">
<ele>48.922</ele>
<time>2013-08-21T15:58:03.349Z</time>
</trkpt>
<trkpt lat="53.6576123" lon="12.2680841">
<ele>48.884</ele>
<time>2013-08-21T15:58:06.622Z</time>
</trkpt>
<trkpt lat="53.6574699" lon="12.2681103">
<ele>48.254</ele>
<time>2013-08-21T15:58:09.622Z</time>
</trkpt>
<trkpt lat="53.6573281" lon="12.2681437">
<ele>46.918</ele>
<time>2013-08-21T15:58:12.410Z</time>
</trkpt>
<trkpt lat="53.6571952" lon="12.2681625">
<ele>45.634</ele>
<time>2013-08-21T15:58:14.936Z</time>
</trkpt>
<trkpt lat="53.6570633" lon="12.2681704">
<ele>45.100</ele>
<time>2013-08-21T15:58:17.405Z</time>
</trkpt>
<trkpt lat="53.6569686" lon="12.2681735">
<ele>44.551</ele>
<time>2013-08-21T15:58:19.133Z</time>
</trkpt>
<trkpt lat="53.6568517" lon="12.2681790">
<ele>43.537</ele>
<time>2013-08-21T15:58:21.246Z</time>
</trkpt>
<trkpt lat="53.6566862" lon="12.2682227">
<ele>42.539</ele>
<time>2013-08-21T15:58:24.200Z</time>
</trkpt>
<trkpt lat="53.6565717" lon="12.2682485">
<ele>41.668</ele>
<time>2013-08-21T15:58:26.210Z</time>
</trkpt>
<trkpt lat="53.6563906" lon="12.2682855">
<ele>40.850</ele>
<time>2013-08-21T15:58:29.332Z</time>
</trkpt>
<trkpt lat="53.6561919" lon="12.2683148">
<ele>40.441</ele>
<time>2013-08-21T15:58:32.716Z</time>
</trkpt>
<trkpt lat="53.6560188" lon="12.2683333">
<ele>40.962</ele>
<time>2013-08-21T15:58:35.712Z</time>
</trkpt>
<trkpt lat="53.6558455" lon="12.2683611">
<ele>42.567</ele>
<time>2013-08-21T15:58:38.932Z</time>
</trkpt>
<trkpt lat="53.6556901" lon="12.2683646">
<ele>44.179</ele>
<time>2013-08-21T15:58:41.806Z</time>
</trkpt>
<trkpt lat="53.6555999" lon="12.2683685">
<ele>44.661</ele>
<time>2013-08-21T15:58:43.412Z</time>
</trkpt>
<trkpt lat="53.6554179" lon="12.2683821">
<ele>44.048</ele>
<time>2013-08-21T15:58:46.561Z</time>
</trkpt>
<trkpt lat="53.6552567" lon="12.2683768">
<ele>42.925</ele>
<time>2013-08-21T15:58:49.348Z</time>
</trkpt>
<trkpt lat="53.6550772" lon="12.2683444">
<ele>41.511</ele>
<time>2013-08-21T15:58:52.488Z</time>
</trkpt>
<trkpt lat="53.6549599" lon="12.2683257">
<ele>39.879</ele>
<time>2013-08-21T15:58:54.548Z</time>
</trkpt>
<trkpt lat="53.6547843" lon="12.2683094">
<ele>38.645</ele>
<time>2013-08-21T15:58:57.631Z</time>
</trkpt>
<trkpt lat="53.6546680" lon="12.2682879">
<ele>38.888</ele>
<time>2013-08-21T15:58:59.708Z</time>
</trkpt>
<trkpt lat="53.6545599" lon="12.2682641">
<ele>40.779</ele>
<time>2013-08-21T15:59:01.724Z</time>
</trkpt>
<trkpt lat="53.6544594" lon="12.2682466">
<ele>42.966</ele>
<time>2013-08-21T15:59:03.636Z</time>
</trkpt>
<trkpt lat="53.6543275" lon="12.2682190">
<ele>44.165</ele>
<time>2013-08-21T15:59:06.253Z</time>
</trkpt>
<trkpt lat="53.6542335" lon="12.2682005">
<ele>44.379</ele>
<time>2013-08-21T15:59:08.192Z</time>
</trkpt>
<trkpt lat="53.6541425" lon="12.2681783">
<ele>44.093</ele>
<time>2013-08-21T15:59:10.119Z</time>
</trkpt>
<trkpt lat="53.6540201" lon="12.2681416">
<ele>43.852</ele>
<time>2013-08-21T15:59:12.877Z</time>
</trkpt>
<trkpt lat="53.6539175" lon="12.2681115">
<ele>44.080</ele>
<time>2013-08-21T15:59:15.411Z</time>
</trkpt>
<trkpt lat="53.6538276" lon="12.2681146">
<ele>44.755</ele>
<time>2013-08-21T15:59:17.850Z</time>
</trkpt>
<trkpt lat="53.6537364" lon="12.2681218">
<ele>45.449</ele>
<time>2013-08-21T15:59:20.404Z</time>
</trkpt>
<trkpt lat="53.6536416" lon="12.2680668">
<ele>45.877</ele>
<time>2013-08-21T15:59:23.297Z</time>
</trkpt>
<trkpt lat="53.6535096" lon="12.2680234">
<ele>45.876</ele>
<time>2013-08-21T15:59:26.919Z</time>
</trkpt>
<trkpt lat="53.6533813" lon="12.2679789">
<ele>45.433</ele>
<time>2013-08-21T15:59:30.198Z</time>
</trkpt>
<trkpt lat="53.6532437" lon="12.2679305">
<ele>45.081</ele>
<time>2013-08-21T15:59:33.552Z</time>
</trkpt>
<trkpt lat="53.6531192" lon="12.2678994">
<ele>45.245</ele>
<time>2013-08-21T15:59:36.488Z</time>
</trkpt>
<trkpt lat="53.6529849" lon="12.2678692">
<ele>45.650</ele>
<time>2013-08-21T15:59:39.611Z</time>
</trkpt>
<trkpt lat="53.6528463" lon="12.2678413">
<ele>45.924</ele>
<time>2013-08-21T15:59:42.821Z</time>
</trkpt>
<trkpt lat="53.6527220" lon="12.2678130">
<ele>46.272</ele>
<time>2013-08-21T15:59:45.768Z</time>
</trkpt>
<trkpt lat="53.6526065" lon="12.2677946">
<ele>46.931</ele>
<time>2013-08-21T15:59:48.621Z</time>
</trkpt>
<trkpt lat="53.6525139" lon="12.2677767">
<ele>47.450</ele>
<time>2013-08-21T15:59:51.098Z</time>
</trkpt>
<trkpt lat="53.6524193" lon="12.2677518">
<ele>47.402</ele>
<time>2013-08-21T15:59:53.779Z</time>
</trkpt>
<trkpt lat="53.6524081" lon="12.2675555">
<ele>47.109</ele>
<time>2013-08-21T15:59:57.599Z</time>
</trkpt>
<trkpt lat="53.6524337" lon="12.2673730">
<ele>47.055</ele>
<time>2013-08-21T16:00:01.324Z</time>
</trkpt>
<trkpt lat="53.6524885" lon="12.2672245">
<ele>47.323</ele>
<time>2013-08-21T16:00:04.641Z</time>
</trkpt>
<trkpt lat="53.6526168" lon="12.2672420">
<ele>47.297</ele>
<time>2013-08-21T16:00:08.705Z</time>
</trkpt>
<trkpt lat="53.6526168" lon="12.2672420">
<ele>46.556</ele>
<time>2013-08-21T16:00:16.717Z</time>
</trkpt>
<trkpt lat="53.6526522" lon="12.2671497">
<ele>45.580</ele>
<time>2013-08-21T16:12:18.796Z</time>
</trkpt>
</trkseg>
</trk>
<extensions>
<fpdata xmlns="http://www.motionx.com/GPX-Extensions/1/1" sfv="10" origin="MotionXGPSFull 21.1 Build 4789R">
<bin enc="base64">
RQIAAAACAAAA0Hvyzy+F1EEBAAAAHPBfuTmF1EEAAFAkcHe+QBoKAABIWjcA7IEBzsNW
RkBstTSBNcpGQAAAAAAMAAAAS3Jha293IHJ1bmQAFAAAADIxLjA4LjIwMTMgIDM6MjMg
cG0AAAAAALLwX7k5hdRBjX98J6GP1EFCZ3MACFpxIMARfUAsAAAAAgAAAPcv88e7iChA
FoO4NYrTSkDsgQHOw1ZGQAAAAAAAABRAAAAAAAAAI0AAAAAAABiQQAAAAAAAAAAAAAAA
AAAAAAAAQE1AHnAqpHuzR0ABAAAALsEzpORRkD8BAAAAAQAAAOowk+Yi7qo/QZ9l25sz
sL8BAAAAAQAAAAAAAAAAAAAAAAAAAAAAAAAAAAAAAAAAAAAAAAAAAAAAAAAAAAAAAAAA
AAAAAAAAAAAAAAAAAAAA1vyyuDmF1EEAAAAAAAAAAAAAAAAAAAAA/yVEvAIAAAAAAAAA
AAAAAAEAAAAjAAAAMjEuMCBCdWlsZCA0Nzg0UiwgTVhBRSA2LjAgYi4gNDUwUgCzVQAA
AQAAAAESAAAAP78UUhDkFFIENJ/yzy+F1EE0n/LPL4XUQQAAAADAxmE/AAAAAAIUfPLP
L4XUQc3l7FUwhdRBAAAgN02/gEAAAAAAAm2tcHkwhdRB9wUw5DCF1EEAAGBIOBeOQAAA
AAAC8E706jCF1EG62zNhMYXUQQAA0PCUb5ZAAAAAAAJwKXxxMYXUQcwJ84ExhdRBAACQ
9gJ3l0AAAAAAAgq9t4wxhdRB3j2zUDKF1EEAAOiBXduhQAAAAAACug/5ZDKF1EH1vHJy
MoXUQQAAwOsqR6JAAAAAAAIAjjiDMoXUQYJThtsyhdRBAADQF5kJpUAAAAAAAqist98y
hdRB6nhyFDOF1EEAAOB5b6+mQAAAAAACWmUGKDOF1EEvUXKcM4XUQQAAiNjOUqpAAAAA
AAJqEXiuM4XUQQUzcpY0hdRBAACw8k/JsEAAAAAAAnxHckU1hdRBu7Yz9jaF1EEAAKyv
VYy3QAAAAAACmzr5FjeF1EF4gH43N4XUQQAAIMdqDrhAAAAAAAIsu5s9N4XUQcUctmI3
hdRBAACETdSiuEAAAAAAAiLERX43hdRB+ka0RTiF1EEAAORYjsC7QAAAAAACsAC4STiF
1EHURHTIOIXUQQAAdGl/u71AAAAAAAIkt7bNOIXUQYf9Ntc4hdRBAAAAg4DhvUAAAAAA
AmYQud44hdRBuvg0BDmF1EEAAFAkcHe+QAAAAAAAAAAA
</bin>
</fpdata>
</extensions>
</gpx>
